<?xml version="1.0" encoding="UTF-8" standalone="no" ?>
<gpx xmlns="http://www.topografix.com/GPX/1/1" xmlns:xsi="http://www.w3.org/2001/XMLSchema-instance" xsi:schemaLocation="http://www.topografix.com/GPX/1/1 http://www.topografix.com/GPX/1/1/gpx.xsd" version="1.1" creator="VisuGPX - https://www.visugpx.com">
  <metadata>
    <name>Plaine Sorques 13-10-22</name>
    <desc><![CDATA[petite boucle dans la plaine de Sorques, puis parcours en forêt.]]></desc>
  </metadata>
  <trk>
    <name><![CDATA[Plaine Sorques 13-10-22]]></name>
    <trkseg>
      <trkpt lat="48.34439" lon="2.77584">
        <ele>48.599998474121</ele>
        <time>2022-10-13T11:55:55Z</time>
      </trkpt>
      <trkpt lat="48.34438" lon="2.77584">
        <ele>49</ele>
        <time>2022-10-13T11:55:59Z</time>
      </trkpt>
      <trkpt lat="48.34439" lon="2.77583">
        <ele>49</ele>
        <time>2022-10-13T11:56:03Z</time>
      </trkpt>
      <trkpt lat="48.34439" lon="2.77582">
        <ele>49</ele>
        <time>2022-10-13T11:56:07Z</time>
      </trkpt>
      <trkpt lat="48.3444" lon="2.77581">
        <ele>48.799999237061</ele>
        <time>2022-10-13T11:56:11Z</time>
      </trkpt>
      <trkpt lat="48.34441" lon="2.77581">
        <ele>48.799999237061</ele>
        <time>2022-10-13T11:56:15Z</time>
      </trkpt>
      <trkpt lat="48.34439" lon="2.77581">
        <ele>48.799999237061</ele>
        <time>2022-10-13T11:56:19Z</time>
      </trkpt>
      <trkpt lat="48.34438" lon="2.77581">
        <ele>48.799999237061</ele>
        <time>2022-10-13T11:56:23Z</time>
      </trkpt>
      <trkpt lat="48.34437" lon="2.7758">
        <ele>48.599998474121</ele>
        <time>2022-10-13T11:56:27Z</time>
      </trkpt>
      <trkpt lat="48.34437" lon="2.7758">
        <ele>48.599998474121</ele>
        <time>2022-10-13T11:56:31Z</time>
      </trkpt>
      <trkpt lat="48.34436" lon="2.7758">
        <ele>48.599998474121</ele>
        <time>2022-10-13T11:56:35Z</time>
      </trkpt>
      <trkpt lat="48.34436" lon="2.7758">
        <ele>48.400001525879</ele>
        <time>2022-10-13T11:56:39Z</time>
      </trkpt>
      <trkpt lat="48.34434" lon="2.7758">
        <ele>48.799999237061</ele>
        <time>2022-10-13T11:56:43Z</time>
      </trkpt>
      <trkpt lat="48.34432" lon="2.77582">
        <ele>48.799999237061</ele>
        <time>2022-10-13T11:56:47Z</time>
      </trkpt>
      <trkpt lat="48.34432" lon="2.77583">
        <ele>48.799999237061</ele>
        <time>2022-10-13T11:56:51Z</time>
      </trkpt>
      <trkpt lat="48.34432" lon="2.77582">
        <ele>48.799999237061</ele>
        <time>2022-10-13T11:56:55Z</time>
      </trkpt>
      <trkpt lat="48.34431" lon="2.77583">
        <ele>48.599998474121</ele>
        <time>2022-10-13T11:56:59Z</time>
      </trkpt>
      <trkpt lat="48.34431" lon="2.77583">
        <ele>48.400001525879</ele>
        <time>2022-10-13T11:57:03Z</time>
      </trkpt>
      <trkpt lat="48.34432" lon="2.77584">
        <ele>48.400001525879</ele>
        <time>2022-10-13T11:57:07Z</time>
      </trkpt>
      <trkpt lat="48.34431" lon="2.77585">
        <ele>48.400001525879</ele>
        <time>2022-10-13T11:57:11Z</time>
      </trkpt>
      <trkpt lat="48.3443" lon="2.77586">
        <ele>48.400001525879</ele>
        <time>2022-10-13T11:57:15Z</time>
      </trkpt>
      <trkpt lat="48.3443" lon="2.77587">
        <ele>48.400001525879</ele>
        <time>2022-10-13T11:57:19Z</time>
      </trkpt>
      <trkpt lat="48.34429" lon="2.77587">
        <ele>48.400001525879</ele>
        <time>2022-10-13T11:57:23Z</time>
      </trkpt>
      <trkpt lat="48.34427" lon="2.77587">
        <ele>48.400001525879</ele>
        <time>2022-10-13T11:57:27Z</time>
      </trkpt>
      <trkpt lat="48.34427" lon="2.77587">
        <ele>48.400001525879</ele>
        <time>2022-10-13T11:57:31Z</time>
      </trkpt>
      <trkpt lat="48.34427" lon="2.77587">
        <ele>48.400001525879</ele>
        <time>2022-10-13T11:57:35Z</time>
      </trkpt>
      <trkpt lat="48.34428" lon="2.77587">
        <ele>48.599998474121</ele>
        <time>2022-10-13T11:57:39Z</time>
      </trkpt>
      <trkpt lat="48.34428" lon="2.77581">
        <ele>48.799999237061</ele>
        <time>2022-10-13T11:57:43Z</time>
      </trkpt>
      <trkpt lat="48.3443" lon="2.77578">
        <ele>48.799999237061</ele>
        <time>2022-10-13T11:57:47Z</time>
      </trkpt>
      <trkpt lat="48.34431" lon="2.77577">
        <ele>49</ele>
        <time>2022-10-13T11:57:51Z</time>
      </trkpt>
      <trkpt lat="48.34431" lon="2.77577">
        <ele>49</ele>
        <time>2022-10-13T11:57:55Z</time>
      </trkpt>
      <trkpt lat="48.34429" lon="2.77578">
        <ele>49</ele>
        <time>2022-10-13T11:57:59Z</time>
      </trkpt>
      <trkpt lat="48.34427" lon="2.77582">
        <ele>49</ele>
        <time>2022-10-13T11:58:03Z</time>
      </trkpt>
      <trkpt lat="48.34426" lon="2.77585">
        <ele>49</ele>
        <time>2022-10-13T11:58:07Z</time>
      </trkpt>
      <trkpt lat="48.34426" lon="2.77585">
        <ele>49</ele>
        <time>2022-10-13T11:58:11Z</time>
      </trkpt>
      <trkpt lat="48.34425" lon="2.77585">
        <ele>49</ele>
        <time>2022-10-13T11:58:15Z</time>
      </trkpt>
      <trkpt lat="48.34425" lon="2.77586">
        <ele>49</ele>
        <time>2022-10-13T11:58:19Z</time>
      </trkpt>
      <trkpt lat="48.34424" lon="2.77586">
        <ele>49</ele>
        <time>2022-10-13T11:58:23Z</time>
      </trkpt>
      <trkpt lat="48.34423" lon="2.77586">
        <ele>49</ele>
        <time>2022-10-13T11:58:27Z</time>
      </trkpt>
      <trkpt lat="48.34422" lon="2.77586">
        <ele>49</ele>
        <time>2022-10-13T11:58:31Z</time>
      </trkpt>
      <trkpt lat="48.34423" lon="2.77586">
        <ele>49</ele>
        <time>2022-10-13T11:58:35Z</time>
      </trkpt>
      <trkpt lat="48.34422" lon="2.77587">
        <ele>49</ele>
        <time>2022-10-13T11:58:39Z</time>
      </trkpt>
      <trkpt lat="48.34422" lon="2.77587">
        <ele>49</ele>
        <time>2022-10-13T11:58:43Z</time>
      </trkpt>
      <trkpt lat="48.34422" lon="2.77587">
        <ele>49</ele>
        <time>2022-10-13T11:58:47Z</time>
      </trkpt>
      <trkpt lat="48.34421" lon="2.77586">
        <ele>49</ele>
        <time>2022-10-13T11:58:51Z</time>
      </trkpt>
      <trkpt lat="48.3442" lon="2.77585">
        <ele>49</ele>
        <time>2022-10-13T11:58:55Z</time>
      </trkpt>
      <trkpt lat="48.34419" lon="2.77584">
        <ele>49</ele>
        <time>2022-10-13T11:58:59Z</time>
      </trkpt>
      <trkpt lat="48.34418" lon="2.77583">
        <ele>49</ele>
        <time>2022-10-13T11:59:03Z</time>
      </trkpt>
      <trkpt lat="48.34416" lon="2.77581">
        <ele>49</ele>
        <time>2022-10-13T11:59:07Z</time>
      </trkpt>
      <trkpt lat="48.34413" lon="2.7758">
        <ele>49</ele>
        <time>2022-10-13T11:59:11Z</time>
      </trkpt>
      <trkpt lat="48.3441" lon="2.77579">
        <ele>49</ele>
        <time>2022-10-13T11:59:15Z</time>
      </trkpt>
      <trkpt lat="48.34409" lon="2.77579">
        <ele>49</ele>
        <time>2022-10-13T11:59:19Z</time>
      </trkpt>
      <trkpt lat="48.34407" lon="2.77578">
        <ele>49</ele>
        <time>2022-10-13T11:59:23Z</time>
      </trkpt>
      <trkpt lat="48.34405" lon="2.77578">
        <ele>49</ele>
        <time>2022-10-13T11:59:27Z</time>
      </trkpt>
      <trkpt lat="48.34403" lon="2.77577">
        <ele>49</ele>
        <time>2022-10-13T11:59:31Z</time>
      </trkpt>
      <trkpt lat="48.34402" lon="2.77576">
        <ele>49</ele>
        <time>2022-10-13T11:59:35Z</time>
      </trkpt>
      <trkpt lat="48.344" lon="2.77575">
        <ele>49</ele>
        <time>2022-10-13T11:59:39Z</time>
      </trkpt>
      <trkpt lat="48.34398" lon="2.77574">
        <ele>49</ele>
        <time>2022-10-13T11:59:43Z</time>
      </trkpt>
      <trkpt lat="48.34397" lon="2.77573">
        <ele>49</ele>
        <time>2022-10-13T11:59:47Z</time>
      </trkpt>
      <trkpt lat="48.34396" lon="2.77572">
        <ele>49</ele>
        <time>2022-10-13T11:59:51Z</time>
      </trkpt>
      <trkpt lat="48.34395" lon="2.7757">
        <ele>49</ele>
        <time>2022-10-13T11:59:55Z</time>
      </trkpt>
      <trkpt lat="48.34393" lon="2.77569">
        <ele>49</ele>
        <time>2022-10-13T11:59:59Z</time>
      </trkpt>
      <trkpt lat="48.34392" lon="2.77567">
        <ele>49</ele>
        <time>2022-10-13T12:00:03Z</time>
      </trkpt>
      <trkpt lat="48.34391" lon="2.77563">
        <ele>49</ele>
        <time>2022-10-13T12:00:07Z</time>
      </trkpt>
      <trkpt lat="48.34388" lon="2.77558">
        <ele>48.599998474121</ele>
        <time>2022-10-13T12:00:11Z</time>
      </trkpt>
      <trkpt lat="48.34383" lon="2.7755">
        <ele>48.599998474121</ele>
        <time>2022-10-13T12:00:15Z</time>
      </trkpt>
      <trkpt lat="48.34378" lon="2.77544">
        <ele>48.599998474121</ele>
        <time>2022-10-13T12:00:19Z</time>
      </trkpt>
      <trkpt lat="48.34375" lon="2.77544">
        <ele>48.599998474121</ele>
        <time>2022-10-13T12:00:23Z</time>
      </trkpt>
      <trkpt lat="48.34373" lon="2.77542">
        <ele>48.599998474121</ele>
        <time>2022-10-13T12:00:27Z</time>
      </trkpt>
      <trkpt lat="48.34371" lon="2.7754">
        <ele>48.799999237061</ele>
        <time>2022-10-13T12:00:31Z</time>
      </trkpt>
      <trkpt lat="48.34369" lon="2.77538">
        <ele>48.799999237061</ele>
        <time>2022-10-13T12:00:35Z</time>
      </trkpt>
      <trkpt lat="48.34366" lon="2.77536">
        <ele>48.799999237061</ele>
        <time>2022-10-13T12:00:39Z</time>
      </trkpt>
      <trkpt lat="48.34353" lon="2.77535">
        <ele>48.799999237061</ele>
        <time>2022-10-13T12:00:43Z</time>
      </trkpt>
      <trkpt lat="48.34348" lon="2.77533">
        <ele>48.599998474121</ele>
        <time>2022-10-13T12:00:47Z</time>
      </trkpt>
      <trkpt lat="48.34342" lon="2.77533">
        <ele>48.400001525879</ele>
        <time>2022-10-13T12:00:51Z</time>
      </trkpt>
      <trkpt lat="48.34339" lon="2.77533">
        <ele>48.200000762939</ele>
        <time>2022-10-13T12:00:55Z</time>
      </trkpt>
      <trkpt lat="48.34338" lon="2.77532">
        <ele>48.200000762939</ele>
        <time>2022-10-13T12:00:59Z</time>
      </trkpt>
      <trkpt lat="48.34335" lon="2.77532">
        <ele>48.200000762939</ele>
        <time>2022-10-13T12:01:03Z</time>
      </trkpt>
      <trkpt lat="48.34333" lon="2.77531">
        <ele>48.200000762939</ele>
        <time>2022-10-13T12:01:07Z</time>
      </trkpt>
      <trkpt lat="48.34327" lon="2.7753">
        <ele>48.200000762939</ele>
        <time>2022-10-13T12:01:11Z</time>
      </trkpt>
      <trkpt lat="48.34323" lon="2.77529">
        <ele>48.200000762939</ele>
        <time>2022-10-13T12:01:15Z</time>
      </trkpt>
      <trkpt lat="48.34318" lon="2.77531">
        <ele>48.200000762939</ele>
        <time>2022-10-13T12:01:19Z</time>
      </trkpt>
      <trkpt lat="48.34316" lon="2.77532">
        <ele>48.400001525879</ele>
        <time>2022-10-13T12:01:23Z</time>
      </trkpt>
      <trkpt lat="48.34313" lon="2.77531">
        <ele>48.400001525879</ele>
        <time>2022-10-13T12:01:27Z</time>
      </trkpt>
      <trkpt lat="48.34307" lon="2.7753">
        <ele>48.400001525879</ele>
        <time>2022-10-13T12:01:31Z</time>
      </trkpt>
      <trkpt lat="48.34304" lon="2.7753">
        <ele>48.400001525879</ele>
        <time>2022-10-13T12:01:35Z</time>
      </trkpt>
      <trkpt lat="48.343" lon="2.77528">
        <ele>48.400001525879</ele>
        <time>2022-10-13T12:01:39Z</time>
      </trkpt>
      <trkpt lat="48.34294" lon="2.77525">
        <ele>48.400001525879</ele>
        <time>2022-10-13T12:01:43Z</time>
      </trkpt>
      <trkpt lat="48.34287" lon="2.77526">
        <ele>48.400001525879</ele>
        <time>2022-10-13T12:01:47Z</time>
      </trkpt>
      <trkpt lat="48.34279" lon="2.77531">
        <ele>48.400001525879</ele>
        <time>2022-10-13T12:01:51Z</time>
      </trkpt>
      <trkpt lat="48.34274" lon="2.77533">
        <ele>48.400001525879</ele>
        <time>2022-10-13T12:01:55Z</time>
      </trkpt>
      <trkpt lat="48.34271" lon="2.77534">
        <ele>48.400001525879</ele>
        <time>2022-10-13T12:01:59Z</time>
      </trkpt>
      <trkpt lat="48.34269" lon="2.77535">
        <ele>48.400001525879</ele>
        <time>2022-10-13T12:02:03Z</time>
      </trkpt>
      <trkpt lat="48.34265" lon="2.77537">
        <ele>48.599998474121</ele>
        <time>2022-10-13T12:02:07Z</time>
      </trkpt>
      <trkpt lat="48.34262" lon="2.77538">
        <ele>48.599998474121</ele>
        <time>2022-10-13T12:02:11Z</time>
      </trkpt>
      <trkpt lat="48.3426" lon="2.77539">
        <ele>48.799999237061</ele>
        <time>2022-10-13T12:02:15Z</time>
      </trkpt>
      <trkpt lat="48.34257" lon="2.77538">
        <ele>48.799999237061</ele>
        <time>2022-10-13T12:02:19Z</time>
      </trkpt>
      <trkpt lat="48.34254" lon="2.77539">
        <ele>48.799999237061</ele>
        <time>2022-10-13T12:02:23Z</time>
      </trkpt>
      <trkpt lat="48.3425" lon="2.77539">
        <ele>49</ele>
        <time>2022-10-13T12:02:27Z</time>
      </trkpt>
      <trkpt lat="48.34244" lon="2.7754">
        <ele>49.200000762939</ele>
        <time>2022-10-13T12:02:31Z</time>
      </trkpt>
      <trkpt lat="48.3424" lon="2.77541">
        <ele>49.200000762939</ele>
        <time>2022-10-13T12:02:35Z</time>
      </trkpt>
      <trkpt lat="48.34236" lon="2.77539">
        <ele>49.200000762939</ele>
        <time>2022-10-13T12:02:39Z</time>
      </trkpt>
      <trkpt lat="48.34234" lon="2.7754">
        <ele>49.200000762939</ele>
        <time>2022-10-13T12:02:43Z</time>
      </trkpt>
      <trkpt lat="48.34233" lon="2.77541">
        <ele>49.200000762939</ele>
        <time>2022-10-13T12:02:47Z</time>
      </trkpt>
      <trkpt lat="48.34229" lon="2.77544">
        <ele>49.200000762939</ele>
        <time>2022-10-13T12:02:51Z</time>
      </trkpt>
      <trkpt lat="48.34223" lon="2.77547">
        <ele>49.200000762939</ele>
        <time>2022-10-13T12:02:55Z</time>
      </trkpt>
      <trkpt lat="48.34219" lon="2.7755">
        <ele>49.200000762939</ele>
        <time>2022-10-13T12:02:59Z</time>
      </trkpt>
      <trkpt lat="48.34216" lon="2.77551">
        <ele>49.200000762939</ele>
        <time>2022-10-13T12:03:03Z</time>
      </trkpt>
      <trkpt lat="48.34212" lon="2.77552">
        <ele>49.200000762939</ele>
        <time>2022-10-13T12:03:07Z</time>
      </trkpt>
      <trkpt lat="48.34207" lon="2.77552">
        <ele>49.400001525879</ele>
        <time>2022-10-13T12:03:11Z</time>
      </trkpt>
      <trkpt lat="48.34204" lon="2.77553">
        <ele>49.400001525879</ele>
        <time>2022-10-13T12:03:15Z</time>
      </trkpt>
      <trkpt lat="48.342" lon="2.77553">
        <ele>49.400001525879</ele>
        <time>2022-10-13T12:03:19Z</time>
      </trkpt>
      <trkpt lat="48.34198" lon="2.77553">
        <ele>49.400001525879</ele>
        <time>2022-10-13T12:03:23Z</time>
      </trkpt>
      <trkpt lat="48.34193" lon="2.77555">
        <ele>49.400001525879</ele>
        <time>2022-10-13T12:03:27Z</time>
      </trkpt>
      <trkpt lat="48.3419" lon="2.77556">
        <ele>49.400001525879</ele>
        <time>2022-10-13T12:03:31Z</time>
      </trkpt>
      <trkpt lat="48.34183" lon="2.77557">
        <ele>49.599998474121</ele>
        <time>2022-10-13T12:03:35Z</time>
      </trkpt>
      <trkpt lat="48.34176" lon="2.77558">
        <ele>49.599998474121</ele>
        <time>2022-10-13T12:03:39Z</time>
      </trkpt>
      <trkpt lat="48.3417" lon="2.77561">
        <ele>49.599998474121</ele>
        <time>2022-10-13T12:03:43Z</time>
      </trkpt>
      <trkpt lat="48.34165" lon="2.77565">
        <ele>49.799999237061</ele>
        <time>2022-10-13T12:03:47Z</time>
      </trkpt>
      <trkpt lat="48.3416" lon="2.77568">
        <ele>49.799999237061</ele>
        <time>2022-10-13T12:03:51Z</time>
      </trkpt>
      <trkpt lat="48.34155" lon="2.77572">
        <ele>49.599998474121</ele>
        <time>2022-10-13T12:03:55Z</time>
      </trkpt>
      <trkpt lat="48.34151" lon="2.77573">
        <ele>49.599998474121</ele>
        <time>2022-10-13T12:03:59Z</time>
      </trkpt>
      <trkpt lat="48.34147" lon="2.77575">
        <ele>49.799999237061</ele>
        <time>2022-10-13T12:04:03Z</time>
      </trkpt>
      <trkpt lat="48.34144" lon="2.77576">
        <ele>49.799999237061</ele>
        <time>2022-10-13T12:04:07Z</time>
      </trkpt>
      <trkpt lat="48.34142" lon="2.77578">
        <ele>49.799999237061</ele>
        <time>2022-10-13T12:04:11Z</time>
      </trkpt>
      <trkpt lat="48.34141" lon="2.77579">
        <ele>49.799999237061</ele>
        <time>2022-10-13T12:04:15Z</time>
      </trkpt>
      <trkpt lat="48.34139" lon="2.77581">
        <ele>49.799999237061</ele>
        <time>2022-10-13T12:04:19Z</time>
      </trkpt>
      <trkpt lat="48.34139" lon="2.77583">
        <ele>49.799999237061</ele>
        <time>2022-10-13T12:04:23Z</time>
      </trkpt>
      <trkpt lat="48.34138" lon="2.77584">
        <ele>49.799999237061</ele>
        <time>2022-10-13T12:04:27Z</time>
      </trkpt>
      <trkpt lat="48.34135" lon="2.77591">
        <ele>49.799999237061</ele>
        <time>2022-10-13T12:04:31Z</time>
      </trkpt>
      <trkpt lat="48.34133" lon="2.77596">
        <ele>49.799999237061</ele>
        <time>2022-10-13T12:04:35Z</time>
      </trkpt>
      <trkpt lat="48.34133" lon="2.77598">
        <ele>49.799999237061</ele>
        <time>2022-10-13T12:04:39Z</time>
      </trkpt>
      <trkpt lat="48.34133" lon="2.77601">
        <ele>49.799999237061</ele>
        <time>2022-10-13T12:04:43Z</time>
      </trkpt>
      <trkpt lat="48.34133" lon="2.77605">
        <ele>49.799999237061</ele>
        <time>2022-10-13T12:04:47Z</time>
      </trkpt>
      <trkpt lat="48.34133" lon="2.77611">
        <ele>49.799999237061</ele>
        <time>2022-10-13T12:04:51Z</time>
      </trkpt>
      <trkpt lat="48.34133" lon="2.77615">
        <ele>49.799999237061</ele>
        <time>2022-10-13T12:04:55Z</time>
      </trkpt>
      <trkpt lat="48.34132" lon="2.77619">
        <ele>49.799999237061</ele>
        <time>2022-10-13T12:04:59Z</time>
      </trkpt>
      <trkpt lat="48.34131" lon="2.77624">
        <ele>49.799999237061</ele>
        <time>2022-10-13T12:05:03Z</time>
      </trkpt>
      <trkpt lat="48.34128" lon="2.77629">
        <ele>50</ele>
        <time>2022-10-13T12:05:07Z</time>
      </trkpt>
      <trkpt lat="48.34127" lon="2.77635">
        <ele>50.400001525879</ele>
        <time>2022-10-13T12:05:11Z</time>
      </trkpt>
      <trkpt lat="48.34122" lon="2.7765">
        <ele>50.400001525879</ele>
        <time>2022-10-13T12:05:15Z</time>
      </trkpt>
      <trkpt lat="48.34116" lon="2.77659">
        <ele>50.400001525879</ele>
        <time>2022-10-13T12:05:19Z</time>
      </trkpt>
      <trkpt lat="48.34112" lon="2.77668">
        <ele>50.400001525879</ele>
        <time>2022-10-13T12:05:23Z</time>
      </trkpt>
      <trkpt lat="48.34109" lon="2.77675">
        <ele>50.200000762939</ele>
        <time>2022-10-13T12:05:27Z</time>
      </trkpt>
      <trkpt lat="48.34107" lon="2.77681">
        <ele>50.200000762939</ele>
        <time>2022-10-13T12:05:31Z</time>
      </trkpt>
      <trkpt lat="48.34106" lon="2.77682">
        <ele>50.400001525879</ele>
        <time>2022-10-13T12:05:35Z</time>
      </trkpt>
      <trkpt lat="48.34105" lon="2.77684">
        <ele>50.400001525879</ele>
        <time>2022-10-13T12:05:39Z</time>
      </trkpt>
      <trkpt lat="48.34104" lon="2.77686">
        <ele>50.400001525879</ele>
        <time>2022-10-13T12:05:43Z</time>
      </trkpt>
      <trkpt lat="48.34103" lon="2.7769">
        <ele>50.400001525879</ele>
        <time>2022-10-13T12:05:47Z</time>
      </trkpt>
      <trkpt lat="48.341" lon="2.77692">
        <ele>50.400001525879</ele>
        <time>2022-10-13T12:05:51Z</time>
      </trkpt>
      <trkpt lat="48.34099" lon="2.77695">
        <ele>50.400001525879</ele>
        <time>2022-10-13T12:05:55Z</time>
      </trkpt>
      <trkpt lat="48.34098" lon="2.77698">
        <ele>50.400001525879</ele>
        <time>2022-10-13T12:05:59Z</time>
      </trkpt>
      <trkpt lat="48.34096" lon="2.77703">
        <ele>50.400001525879</ele>
        <time>2022-10-13T12:06:03Z</time>
      </trkpt>
      <trkpt lat="48.34095" lon="2.77707">
        <ele>50.200000762939</ele>
        <time>2022-10-13T12:06:07Z</time>
      </trkpt>
      <trkpt lat="48.34093" lon="2.77711">
        <ele>50.200000762939</ele>
        <time>2022-10-13T12:06:11Z</time>
      </trkpt>
      <trkpt lat="48.34091" lon="2.77716">
        <ele>50.200000762939</ele>
        <time>2022-10-13T12:06:15Z</time>
      </trkpt>
      <trkpt lat="48.34087" lon="2.77723">
        <ele>50</ele>
        <time>2022-10-13T12:06:19Z</time>
      </trkpt>
      <trkpt lat="48.34084" lon="2.7773">
        <ele>50</ele>
        <time>2022-10-13T12:06:23Z</time>
      </trkpt>
      <trkpt lat="48.34083" lon="2.77733">
        <ele>50.200000762939</ele>
        <time>2022-10-13T12:06:27Z</time>
      </trkpt>
      <trkpt lat="48.34078" lon="2.7774">
        <ele>50.200000762939</ele>
        <time>2022-10-13T12:06:31Z</time>
      </trkpt>
      <trkpt lat="48.34072" lon="2.77755">
        <ele>50.200000762939</ele>
        <time>2022-10-13T12:06:35Z</time>
      </trkpt>
      <trkpt lat="48.34068" lon="2.77765">
        <ele>50</ele>
        <time>2022-10-13T12:06:39Z</time>
      </trkpt>
      <trkpt lat="48.34066" lon="2.77768">
        <ele>50</ele>
        <time>2022-10-13T12:06:43Z</time>
      </trkpt>
      <trkpt lat="48.34064" lon="2.77771">
        <ele>49.799999237061</ele>
        <time>2022-10-13T12:06:47Z</time>
      </trkpt>
      <trkpt lat="48.34061" lon="2.77782">
        <ele>49.599998474121</ele>
        <time>2022-10-13T12:06:51Z</time>
      </trkpt>
      <trkpt lat="48.34058" lon="2.77792">
        <ele>49.599998474121</ele>
        <time>2022-10-13T12:06:55Z</time>
      </trkpt>
      <trkpt lat="48.34053" lon="2.77801">
        <ele>49.599998474121</ele>
        <time>2022-10-13T12:06:59Z</time>
      </trkpt>
      <trkpt lat="48.34049" lon="2.77809">
        <ele>49.599998474121</ele>
        <time>2022-10-13T12:07:03Z</time>
      </trkpt>
      <trkpt lat="48.34047" lon="2.77813">
        <ele>49.400001525879</ele>
        <time>2022-10-13T12:07:07Z</time>
      </trkpt>
      <trkpt lat="48.34045" lon="2.77816">
        <ele>49.400001525879</ele>
        <time>2022-10-13T12:07:11Z</time>
      </trkpt>
      <trkpt lat="48.34043" lon="2.77821">
        <ele>49.400001525879</ele>
        <time>2022-10-13T12:07:15Z</time>
      </trkpt>
      <trkpt lat="48.34041" lon="2.77829">
        <ele>49</ele>
        <time>2022-10-13T12:07:19Z</time>
      </trkpt>
      <trkpt lat="48.34039" lon="2.77836">
        <ele>48.799999237061</ele>
        <time>2022-10-13T12:07:23Z</time>
      </trkpt>
      <trkpt lat="48.34038" lon="2.77838">
        <ele>48.799999237061</ele>
        <time>2022-10-13T12:07:27Z</time>
      </trkpt>
      <trkpt lat="48.34035" lon="2.77841">
        <ele>48.599998474121</ele>
        <time>2022-10-13T12:07:31Z</time>
      </trkpt>
      <trkpt lat="48.34034" lon="2.77845">
        <ele>48.400001525879</ele>
        <time>2022-10-13T12:07:35Z</time>
      </trkpt>
      <trkpt lat="48.34032" lon="2.77849">
        <ele>48.400001525879</ele>
        <time>2022-10-13T12:07:39Z</time>
      </trkpt>
      <trkpt lat="48.34024" lon="2.77862">
        <ele>48.400001525879</ele>
        <time>2022-10-13T12:07:43Z</time>
      </trkpt>
      <trkpt lat="48.34023" lon="2.77866">
        <ele>48.400001525879</ele>
        <time>2022-10-13T12:07:47Z</time>
      </trkpt>
      <trkpt lat="48.3402" lon="2.77872">
        <ele>48.599998474121</ele>
        <time>2022-10-13T12:07:51Z</time>
      </trkpt>
      <trkpt lat="48.34018" lon="2.77878">
        <ele>48.599998474121</ele>
        <time>2022-10-13T12:07:55Z</time>
      </trkpt>
      <trkpt lat="48.34015" lon="2.77885">
        <ele>48.599998474121</ele>
        <time>2022-10-13T12:07:59Z</time>
      </trkpt>
      <trkpt lat="48.34014" lon="2.77887">
        <ele>48.599998474121</ele>
        <time>2022-10-13T12:08:03Z</time>
      </trkpt>
      <trkpt lat="48.34011" lon="2.77892">
        <ele>48.599998474121</ele>
        <time>2022-10-13T12:08:07Z</time>
      </trkpt>
      <trkpt lat="48.34008" lon="2.77898">
        <ele>48.599998474121</ele>
        <time>2022-10-13T12:08:11Z</time>
      </trkpt>
      <trkpt lat="48.34004" lon="2.77905">
        <ele>48.599998474121</ele>
        <time>2022-10-13T12:08:15Z</time>
      </trkpt>
      <trkpt lat="48.34001" lon="2.77911">
        <ele>48.599998474121</ele>
        <time>2022-10-13T12:08:19Z</time>
      </trkpt>
      <trkpt lat="48.33999" lon="2.77917">
        <ele>48.400001525879</ele>
        <time>2022-10-13T12:08:23Z</time>
      </trkpt>
      <trkpt lat="48.33995" lon="2.77922">
        <ele>48.400001525879</ele>
        <time>2022-10-13T12:08:27Z</time>
      </trkpt>
      <trkpt lat="48.33994" lon="2.77925">
        <ele>48.400001525879</ele>
        <time>2022-10-13T12:08:31Z</time>
      </trkpt>
      <trkpt lat="48.33992" lon="2.77929">
        <ele>48.400001525879</ele>
        <time>2022-10-13T12:08:35Z</time>
      </trkpt>
      <trkpt lat="48.33992" lon="2.77932">
        <ele>48.599998474121</ele>
        <time>2022-10-13T12:08:39Z</time>
      </trkpt>
      <trkpt lat="48.33991" lon="2.7794">
        <ele>48.599998474121</ele>
        <time>2022-10-13T12:08:43Z</time>
      </trkpt>
      <trkpt lat="48.33991" lon="2.77944">
        <ele>48.599998474121</ele>
        <time>2022-10-13T12:08:47Z</time>
      </trkpt>
      <trkpt lat="48.33992" lon="2.7795">
        <ele>48.799999237061</ele>
        <time>2022-10-13T12:08:51Z</time>
      </trkpt>
      <trkpt lat="48.33993" lon="2.77959">
        <ele>48.599998474121</ele>
        <time>2022-10-13T12:08:55Z</time>
      </trkpt>
      <trkpt lat="48.33995" lon="2.77966">
        <ele>48.599998474121</ele>
        <time>2022-10-13T12:08:59Z</time>
      </trkpt>
      <trkpt lat="48.33998" lon="2.77971">
        <ele>48.599998474121</ele>
        <time>2022-10-13T12:09:03Z</time>
      </trkpt>
      <trkpt lat="48.34001" lon="2.77977">
        <ele>48.599998474121</ele>
        <time>2022-10-13T12:09:07Z</time>
      </trkpt>
      <trkpt lat="48.34003" lon="2.77981">
        <ele>48.599998474121</ele>
        <time>2022-10-13T12:09:11Z</time>
      </trkpt>
      <trkpt lat="48.34005" lon="2.77983">
        <ele>48.599998474121</ele>
        <time>2022-10-13T12:09:15Z</time>
      </trkpt>
      <trkpt lat="48.34006" lon="2.77984">
        <ele>48.599998474121</ele>
        <time>2022-10-13T12:09:19Z</time>
      </trkpt>
      <trkpt lat="48.3401" lon="2.77984">
        <ele>48.599998474121</ele>
        <time>2022-10-13T12:09:23Z</time>
      </trkpt>
      <trkpt lat="48.34016" lon="2.77982">
        <ele>48.599998474121</ele>
        <time>2022-10-13T12:09:27Z</time>
      </trkpt>
      <trkpt lat="48.34021" lon="2.77979">
        <ele>48.599998474121</ele>
        <time>2022-10-13T12:09:31Z</time>
      </trkpt>
      <trkpt lat="48.34026" lon="2.77976">
        <ele>48.599998474121</ele>
        <time>2022-10-13T12:09:35Z</time>
      </trkpt>
      <trkpt lat="48.34029" lon="2.77973">
        <ele>48.599998474121</ele>
        <time>2022-10-13T12:09:39Z</time>
      </trkpt>
      <trkpt lat="48.34033" lon="2.77969">
        <ele>48.599998474121</ele>
        <time>2022-10-13T12:09:43Z</time>
      </trkpt>
      <trkpt lat="48.34036" lon="2.77966">
        <ele>48.599998474121</ele>
        <time>2022-10-13T12:09:47Z</time>
      </trkpt>
      <trkpt lat="48.34039" lon="2.77965">
        <ele>48.599998474121</ele>
        <time>2022-10-13T12:09:51Z</time>
      </trkpt>
      <trkpt lat="48.34043" lon="2.77962">
        <ele>48.599998474121</ele>
        <time>2022-10-13T12:09:55Z</time>
      </trkpt>
      <trkpt lat="48.34047" lon="2.77959">
        <ele>48.599998474121</ele>
        <time>2022-10-13T12:09:59Z</time>
      </trkpt>
      <trkpt lat="48.34051" lon="2.77957">
        <ele>48.599998474121</ele>
        <time>2022-10-13T12:10:03Z</time>
      </trkpt>
      <trkpt lat="48.34054" lon="2.77955">
        <ele>48.599998474121</ele>
        <time>2022-10-13T12:10:07Z</time>
      </trkpt>
      <trkpt lat="48.34057" lon="2.77954">
        <ele>48.599998474121</ele>
        <time>2022-10-13T12:10:11Z</time>
      </trkpt>
      <trkpt lat="48.3406" lon="2.77952">
        <ele>48.599998474121</ele>
        <time>2022-10-13T12:10:15Z</time>
      </trkpt>
      <trkpt lat="48.34065" lon="2.7795">
        <ele>48.599998474121</ele>
        <time>2022-10-13T12:10:19Z</time>
      </trkpt>
      <trkpt lat="48.3407" lon="2.77945">
        <ele>48.599998474121</ele>
        <time>2022-10-13T12:10:23Z</time>
      </trkpt>
      <trkpt lat="48.34073" lon="2.7794">
        <ele>48.599998474121</ele>
        <time>2022-10-13T12:10:27Z</time>
      </trkpt>
      <trkpt lat="48.34077" lon="2.77936">
        <ele>48.599998474121</ele>
        <time>2022-10-13T12:10:31Z</time>
      </trkpt>
      <trkpt lat="48.34081" lon="2.77931">
        <ele>48.599998474121</ele>
        <time>2022-10-13T12:10:35Z</time>
      </trkpt>
      <trkpt lat="48.34085" lon="2.77927">
        <ele>48.599998474121</ele>
        <time>2022-10-13T12:10:39Z</time>
      </trkpt>
      <trkpt lat="48.34089" lon="2.77923">
        <ele>48.599998474121</ele>
        <time>2022-10-13T12:10:43Z</time>
      </trkpt>
      <trkpt lat="48.34094" lon="2.7792">
        <ele>48.599998474121</ele>
        <time>2022-10-13T12:10:47Z</time>
      </trkpt>
      <trkpt lat="48.34097" lon="2.77918">
        <ele>48.599998474121</ele>
        <time>2022-10-13T12:10:51Z</time>
      </trkpt>
      <trkpt lat="48.341" lon="2.77915">
        <ele>48.599998474121</ele>
        <time>2022-10-13T12:10:55Z</time>
      </trkpt>
      <trkpt lat="48.34104" lon="2.77912">
        <ele>48.599998474121</ele>
        <time>2022-10-13T12:10:59Z</time>
      </trkpt>
      <trkpt lat="48.34107" lon="2.77908">
        <ele>48.599998474121</ele>
        <time>2022-10-13T12:11:03Z</time>
      </trkpt>
      <trkpt lat="48.3411" lon="2.77905">
        <ele>48.599998474121</ele>
        <time>2022-10-13T12:11:07Z</time>
      </trkpt>
      <trkpt lat="48.34113" lon="2.77901">
        <ele>48.599998474121</ele>
        <time>2022-10-13T12:11:11Z</time>
      </trkpt>
      <trkpt lat="48.34116" lon="2.77896">
        <ele>48.599998474121</ele>
        <time>2022-10-13T12:11:15Z</time>
      </trkpt>
      <trkpt lat="48.3412" lon="2.77891">
        <ele>48.599998474121</ele>
        <time>2022-10-13T12:11:19Z</time>
      </trkpt>
      <trkpt lat="48.34123" lon="2.77886">
        <ele>48.599998474121</ele>
        <time>2022-10-13T12:11:23Z</time>
      </trkpt>
      <trkpt lat="48.34125" lon="2.77881">
        <ele>48.599998474121</ele>
        <time>2022-10-13T12:11:27Z</time>
      </trkpt>
      <trkpt lat="48.34129" lon="2.77876">
        <ele>48.599998474121</ele>
        <time>2022-10-13T12:11:31Z</time>
      </trkpt>
      <trkpt lat="48.34132" lon="2.77872">
        <ele>48.599998474121</ele>
        <time>2022-10-13T12:11:35Z</time>
      </trkpt>
      <trkpt lat="48.34135" lon="2.77868">
        <ele>48.599998474121</ele>
        <time>2022-10-13T12:11:39Z</time>
      </trkpt>
      <trkpt lat="48.34139" lon="2.77863">
        <ele>48.599998474121</ele>
        <time>2022-10-13T12:11:43Z</time>
      </trkpt>
      <trkpt lat="48.34141" lon="2.77858">
        <ele>48.599998474121</ele>
        <time>2022-10-13T12:11:47Z</time>
      </trkpt>
      <trkpt lat="48.34144" lon="2.77854">
        <ele>48.599998474121</ele>
        <time>2022-10-13T12:11:51Z</time>
      </trkpt>
      <trkpt lat="48.34146" lon="2.77849">
        <ele>48.599998474121</ele>
        <time>2022-10-13T12:11:55Z</time>
      </trkpt>
      <trkpt lat="48.34149" lon="2.77846">
        <ele>48.599998474121</ele>
        <time>2022-10-13T12:11:59Z</time>
      </trkpt>
      <trkpt lat="48.34152" lon="2.77842">
        <ele>48.599998474121</ele>
        <time>2022-10-13T12:12:03Z</time>
      </trkpt>
      <trkpt lat="48.34156" lon="2.77838">
        <ele>48.599998474121</ele>
        <time>2022-10-13T12:12:07Z</time>
      </trkpt>
      <trkpt lat="48.3416" lon="2.77835">
        <ele>48.599998474121</ele>
        <time>2022-10-13T12:12:11Z</time>
      </trkpt>
      <trkpt lat="48.34164" lon="2.77832">
        <ele>48.599998474121</ele>
        <time>2022-10-13T12:12:15Z</time>
      </trkpt>
      <trkpt lat="48.34173" lon="2.77831">
        <ele>48.599998474121</ele>
        <time>2022-10-13T12:12:19Z</time>
      </trkpt>
      <trkpt lat="48.34179" lon="2.77828">
        <ele>48.599998474121</ele>
        <time>2022-10-13T12:12:23Z</time>
      </trkpt>
      <trkpt lat="48.34181" lon="2.77825">
        <ele>49</ele>
        <time>2022-10-13T12:12:27Z</time>
      </trkpt>
      <trkpt lat="48.34184" lon="2.77822">
        <ele>49</ele>
        <time>2022-10-13T12:12:31Z</time>
      </trkpt>
      <trkpt lat="48.34186" lon="2.77819">
        <ele>49</ele>
        <time>2022-10-13T12:12:35Z</time>
      </trkpt>
      <trkpt lat="48.3419" lon="2.77816">
        <ele>49</ele>
        <time>2022-10-13T12:12:39Z</time>
      </trkpt>
      <trkpt lat="48.34193" lon="2.77812">
        <ele>49</ele>
        <time>2022-10-13T12:12:43Z</time>
      </trkpt>
      <trkpt lat="48.34197" lon="2.7781">
        <ele>49</ele>
        <time>2022-10-13T12:12:47Z</time>
      </trkpt>
      <trkpt lat="48.34201" lon="2.77807">
        <ele>49.200000762939</ele>
        <time>2022-10-13T12:12:51Z</time>
      </trkpt>
      <trkpt lat="48.34206" lon="2.77803">
        <ele>49.200000762939</ele>
        <time>2022-10-13T12:12:55Z</time>
      </trkpt>
      <trkpt lat="48.34209" lon="2.778">
        <ele>49.200000762939</ele>
        <time>2022-10-13T12:12:59Z</time>
      </trkpt>
      <trkpt lat="48.34214" lon="2.77797">
        <ele>49.200000762939</ele>
        <time>2022-10-13T12:13:03Z</time>
      </trkpt>
      <trkpt lat="48.34218" lon="2.77793">
        <ele>49.400001525879</ele>
        <time>2022-10-13T12:13:07Z</time>
      </trkpt>
      <trkpt lat="48.34224" lon="2.7779">
        <ele>49.400001525879</ele>
        <time>2022-10-13T12:13:11Z</time>
      </trkpt>
      <trkpt lat="48.34228" lon="2.77788">
        <ele>49.599998474121</ele>
        <time>2022-10-13T12:13:15Z</time>
      </trkpt>
      <trkpt lat="48.34232" lon="2.77784">
        <ele>49.599998474121</ele>
        <time>2022-10-13T12:13:19Z</time>
      </trkpt>
      <trkpt lat="48.34235" lon="2.77782">
        <ele>49.599998474121</ele>
        <time>2022-10-13T12:13:23Z</time>
      </trkpt>
      <trkpt lat="48.3424" lon="2.7778">
        <ele>49.599998474121</ele>
        <time>2022-10-13T12:13:27Z</time>
      </trkpt>
      <trkpt lat="48.34244" lon="2.77777">
        <ele>49.799999237061</ele>
        <time>2022-10-13T12:13:31Z</time>
      </trkpt>
      <trkpt lat="48.34248" lon="2.77773">
        <ele>49.799999237061</ele>
        <time>2022-10-13T12:13:35Z</time>
      </trkpt>
      <trkpt lat="48.34252" lon="2.77769">
        <ele>49.799999237061</ele>
        <time>2022-10-13T12:13:39Z</time>
      </trkpt>
      <trkpt lat="48.34256" lon="2.77766">
        <ele>49.799999237061</ele>
        <time>2022-10-13T12:13:43Z</time>
      </trkpt>
      <trkpt lat="48.3426" lon="2.77763">
        <ele>49.799999237061</ele>
        <time>2022-10-13T12:13:47Z</time>
      </trkpt>
      <trkpt lat="48.34264" lon="2.77761">
        <ele>49.799999237061</ele>
        <time>2022-10-13T12:13:51Z</time>
      </trkpt>
      <trkpt lat="48.34267" lon="2.77758">
        <ele>49.799999237061</ele>
        <time>2022-10-13T12:13:55Z</time>
      </trkpt>
      <trkpt lat="48.34271" lon="2.77754">
        <ele>49.799999237061</ele>
        <time>2022-10-13T12:13:59Z</time>
      </trkpt>
      <trkpt lat="48.34274" lon="2.77751">
        <ele>49.799999237061</ele>
        <time>2022-10-13T12:14:03Z</time>
      </trkpt>
      <trkpt lat="48.34278" lon="2.77748">
        <ele>49.799999237061</ele>
        <time>2022-10-13T12:14:07Z</time>
      </trkpt>
      <trkpt lat="48.34282" lon="2.77744">
        <ele>50</ele>
        <time>2022-10-13T12:14:11Z</time>
      </trkpt>
      <trkpt lat="48.34285" lon="2.77741">
        <ele>50</ele>
        <time>2022-10-13T12:14:15Z</time>
      </trkpt>
      <trkpt lat="48.3429" lon="2.77737">
        <ele>50</ele>
        <time>2022-10-13T12:14:19Z</time>
      </trkpt>
      <trkpt lat="48.34294" lon="2.77733">
        <ele>49.799999237061</ele>
        <time>2022-10-13T12:14:23Z</time>
      </trkpt>
      <trkpt lat="48.34298" lon="2.7773">
        <ele>50</ele>
        <time>2022-10-13T12:14:27Z</time>
      </trkpt>
      <trkpt lat="48.34302" lon="2.77726">
        <ele>50</ele>
        <time>2022-10-13T12:14:31Z</time>
      </trkpt>
      <trkpt lat="48.34306" lon="2.77724">
        <ele>50</ele>
        <time>2022-10-13T12:14:35Z</time>
      </trkpt>
      <trkpt lat="48.34309" lon="2.7772">
        <ele>50.200000762939</ele>
        <time>2022-10-13T12:14:39Z</time>
      </trkpt>
      <trkpt lat="48.34313" lon="2.77717">
        <ele>50.200000762939</ele>
        <time>2022-10-13T12:14:43Z</time>
      </trkpt>
      <trkpt lat="48.34318" lon="2.77713">
        <ele>50.200000762939</ele>
        <time>2022-10-13T12:14:47Z</time>
      </trkpt>
      <trkpt lat="48.34322" lon="2.7771">
        <ele>50.200000762939</ele>
        <time>2022-10-13T12:14:51Z</time>
      </trkpt>
      <trkpt lat="48.34326" lon="2.77707">
        <ele>50</ele>
        <time>2022-10-13T12:14:55Z</time>
      </trkpt>
      <trkpt lat="48.3433" lon="2.77704">
        <ele>50</ele>
        <time>2022-10-13T12:14:59Z</time>
      </trkpt>
      <trkpt lat="48.34333" lon="2.77702">
        <ele>50</ele>
        <time>2022-10-13T12:15:03Z</time>
      </trkpt>
      <trkpt lat="48.34337" lon="2.77699">
        <ele>50.200000762939</ele>
        <time>2022-10-13T12:15:07Z</time>
      </trkpt>
      <trkpt lat="48.3434" lon="2.77696">
        <ele>50.200000762939</ele>
        <time>2022-10-13T12:15:11Z</time>
      </trkpt>
      <trkpt lat="48.34345" lon="2.77692">
        <ele>50.200000762939</ele>
        <time>2022-10-13T12:15:15Z</time>
      </trkpt>
      <trkpt lat="48.34349" lon="2.7769">
        <ele>50</ele>
        <time>2022-10-13T12:15:19Z</time>
      </trkpt>
      <trkpt lat="48.34353" lon="2.77686">
        <ele>50</ele>
        <time>2022-10-13T12:15:23Z</time>
      </trkpt>
      <trkpt lat="48.34356" lon="2.77683">
        <ele>50</ele>
        <time>2022-10-13T12:15:27Z</time>
      </trkpt>
      <trkpt lat="48.34361" lon="2.77681">
        <ele>49.799999237061</ele>
        <time>2022-10-13T12:15:31Z</time>
      </trkpt>
      <trkpt lat="48.34364" lon="2.77677">
        <ele>49.799999237061</ele>
        <time>2022-10-13T12:15:35Z</time>
      </trkpt>
      <trkpt lat="48.34367" lon="2.77674">
        <ele>49.799999237061</ele>
        <time>2022-10-13T12:15:39Z</time>
      </trkpt>
      <trkpt lat="48.34372" lon="2.77671">
        <ele>49.799999237061</ele>
        <time>2022-10-13T12:15:43Z</time>
      </trkpt>
      <trkpt lat="48.34375" lon="2.77666">
        <ele>49.799999237061</ele>
        <time>2022-10-13T12:15:47Z</time>
      </trkpt>
      <trkpt lat="48.34378" lon="2.77663">
        <ele>49.799999237061</ele>
        <time>2022-10-13T12:15:51Z</time>
      </trkpt>
      <trkpt lat="48.34382" lon="2.77659">
        <ele>49.799999237061</ele>
        <time>2022-10-13T12:15:55Z</time>
      </trkpt>
      <trkpt lat="48.34386" lon="2.77656">
        <ele>49.799999237061</ele>
        <time>2022-10-13T12:15:59Z</time>
      </trkpt>
      <trkpt lat="48.3439" lon="2.77654">
        <ele>49.799999237061</ele>
        <time>2022-10-13T12:16:03Z</time>
      </trkpt>
      <trkpt lat="48.34395" lon="2.77651">
        <ele>49.799999237061</ele>
        <time>2022-10-13T12:16:07Z</time>
      </trkpt>
      <trkpt lat="48.34399" lon="2.77646">
        <ele>49.799999237061</ele>
        <time>2022-10-13T12:16:11Z</time>
      </trkpt>
      <trkpt lat="48.34403" lon="2.77642">
        <ele>49.799999237061</ele>
        <time>2022-10-13T12:16:15Z</time>
      </trkpt>
      <trkpt lat="48.34407" lon="2.77637">
        <ele>49.799999237061</ele>
        <time>2022-10-13T12:16:19Z</time>
      </trkpt>
      <trkpt lat="48.34411" lon="2.77633">
        <ele>49.799999237061</ele>
        <time>2022-10-13T12:16:23Z</time>
      </trkpt>
      <trkpt lat="48.34416" lon="2.77629">
        <ele>49.799999237061</ele>
        <time>2022-10-13T12:16:27Z</time>
      </trkpt>
      <trkpt lat="48.3442" lon="2.77624">
        <ele>49.799999237061</ele>
        <time>2022-10-13T12:16:31Z</time>
      </trkpt>
      <trkpt lat="48.3442" lon="2.77618">
        <ele>49.799999237061</ele>
        <time>2022-10-13T12:16:35Z</time>
      </trkpt>
      <trkpt lat="48.34422" lon="2.77615">
        <ele>49.799999237061</ele>
        <time>2022-10-13T12:16:39Z</time>
      </trkpt>
      <trkpt lat="48.34423" lon="2.77613">
        <ele>49.799999237061</ele>
        <time>2022-10-13T12:16:43Z</time>
      </trkpt>
      <trkpt lat="48.34424" lon="2.77613">
        <ele>49.799999237061</ele>
        <time>2022-10-13T12:16:47Z</time>
      </trkpt>
      <trkpt lat="48.34425" lon="2.77612">
        <ele>49.799999237061</ele>
        <time>2022-10-13T12:16:51Z</time>
      </trkpt>
      <trkpt lat="48.34426" lon="2.77613">
        <ele>50</ele>
        <time>2022-10-13T12:16:55Z</time>
      </trkpt>
      <trkpt lat="48.34428" lon="2.77613">
        <ele>49.799999237061</ele>
        <time>2022-10-13T12:16:59Z</time>
      </trkpt>
      <trkpt lat="48.34428" lon="2.77612">
        <ele>50</ele>
        <time>2022-10-13T12:17:03Z</time>
      </trkpt>
      <trkpt lat="48.34429" lon="2.77611">
        <ele>50</ele>
        <time>2022-10-13T12:17:07Z</time>
      </trkpt>
      <trkpt lat="48.34429" lon="2.77612">
        <ele>50</ele>
        <time>2022-10-13T12:17:11Z</time>
      </trkpt>
      <trkpt lat="48.34429" lon="2.77613">
        <ele>50</ele>
        <time>2022-10-13T12:17:15Z</time>
      </trkpt>
      <trkpt lat="48.34429" lon="2.77614">
        <ele>50</ele>
        <time>2022-10-13T12:17:19Z</time>
      </trkpt>
      <trkpt lat="48.3443" lon="2.77614">
        <ele>50</ele>
        <time>2022-10-13T12:17:23Z</time>
      </trkpt>
      <trkpt lat="48.3443" lon="2.77614">
        <ele>50</ele>
        <time>2022-10-13T12:17:27Z</time>
      </trkpt>
      <trkpt lat="48.3443" lon="2.77615">
        <ele>50</ele>
        <time>2022-10-13T12:17:31Z</time>
      </trkpt>
      <trkpt lat="48.3443" lon="2.77614">
        <ele>50</ele>
        <time>2022-10-13T12:17:35Z</time>
      </trkpt>
      <trkpt lat="48.34429" lon="2.77614">
        <ele>50</ele>
        <time>2022-10-13T12:17:39Z</time>
      </trkpt>
      <trkpt lat="48.34427" lon="2.77615">
        <ele>50</ele>
        <time>2022-10-13T12:17:43Z</time>
      </trkpt>
      <trkpt lat="48.34428" lon="2.77615">
        <ele>50</ele>
        <time>2022-10-13T12:17:47Z</time>
      </trkpt>
      <trkpt lat="48.34429" lon="2.77612">
        <ele>50</ele>
        <time>2022-10-13T12:17:51Z</time>
      </trkpt>
      <trkpt lat="48.34429" lon="2.77611">
        <ele>50</ele>
        <time>2022-10-13T12:17:55Z</time>
      </trkpt>
      <trkpt lat="48.34428" lon="2.7761">
        <ele>50</ele>
        <time>2022-10-13T12:17:59Z</time>
      </trkpt>
      <trkpt lat="48.34429" lon="2.77607">
        <ele>50</ele>
        <time>2022-10-13T12:18:03Z</time>
      </trkpt>
      <trkpt lat="48.34428" lon="2.77608">
        <ele>50</ele>
        <time>2022-10-13T12:18:07Z</time>
      </trkpt>
      <trkpt lat="48.34429" lon="2.77607">
        <ele>50</ele>
        <time>2022-10-13T12:18:11Z</time>
      </trkpt>
      <trkpt lat="48.3443" lon="2.77607">
        <ele>50</ele>
        <time>2022-10-13T12:18:15Z</time>
      </trkpt>
      <trkpt lat="48.34432" lon="2.77604">
        <ele>50</ele>
        <time>2022-10-13T12:18:19Z</time>
      </trkpt>
      <trkpt lat="48.34431" lon="2.77605">
        <ele>50</ele>
        <time>2022-10-13T12:18:23Z</time>
      </trkpt>
      <trkpt lat="48.34431" lon="2.77607">
        <ele>50</ele>
        <time>2022-10-13T12:18:27Z</time>
      </trkpt>
      <trkpt lat="48.34433" lon="2.77607">
        <ele>50</ele>
        <time>2022-10-13T12:18:31Z</time>
      </trkpt>
      <trkpt lat="48.34433" lon="2.77607">
        <ele>50</ele>
        <time>2022-10-13T12:18:35Z</time>
      </trkpt>
      <trkpt lat="48.34434" lon="2.77607">
        <ele>50</ele>
        <time>2022-10-13T12:18:39Z</time>
      </trkpt>
      <trkpt lat="48.34435" lon="2.77605">
        <ele>50</ele>
        <time>2022-10-13T12:18:43Z</time>
      </trkpt>
      <trkpt lat="48.34437" lon="2.77602">
        <ele>50</ele>
        <time>2022-10-13T12:18:47Z</time>
      </trkpt>
      <trkpt lat="48.3444" lon="2.77599">
        <ele>50</ele>
        <time>2022-10-13T12:18:51Z</time>
      </trkpt>
      <trkpt lat="48.3444" lon="2.77599">
        <ele>50</ele>
        <time>2022-10-13T12:18:55Z</time>
      </trkpt>
      <trkpt lat="48.34441" lon="2.77599">
        <ele>50</ele>
        <time>2022-10-13T12:18:59Z</time>
      </trkpt>
      <trkpt lat="48.34443" lon="2.77599">
        <ele>50</ele>
        <time>2022-10-13T12:19:03Z</time>
      </trkpt>
      <trkpt lat="48.34444" lon="2.77599">
        <ele>50</ele>
        <time>2022-10-13T12:19:07Z</time>
      </trkpt>
      <trkpt lat="48.34445" lon="2.77598">
        <ele>50</ele>
        <time>2022-10-13T12:19:11Z</time>
      </trkpt>
      <trkpt lat="48.34445" lon="2.77597">
        <ele>50</ele>
        <time>2022-10-13T12:19:15Z</time>
      </trkpt>
      <trkpt lat="48.34447" lon="2.77598">
        <ele>50</ele>
        <time>2022-10-13T12:19:19Z</time>
      </trkpt>
      <trkpt lat="48.3445" lon="2.77595">
        <ele>50</ele>
        <time>2022-10-13T12:19:23Z</time>
      </trkpt>
      <trkpt lat="48.34454" lon="2.77591">
        <ele>50</ele>
        <time>2022-10-13T12:19:27Z</time>
      </trkpt>
      <trkpt lat="48.34456" lon="2.77585">
        <ele>50</ele>
        <time>2022-10-13T12:19:31Z</time>
      </trkpt>
      <trkpt lat="48.34457" lon="2.77582">
        <ele>50</ele>
        <time>2022-10-13T12:19:35Z</time>
      </trkpt>
      <trkpt lat="48.34461" lon="2.77581">
        <ele>50</ele>
        <time>2022-10-13T12:19:39Z</time>
      </trkpt>
      <trkpt lat="48.34464" lon="2.77583">
        <ele>50.400001525879</ele>
        <time>2022-10-13T12:19:43Z</time>
      </trkpt>
      <trkpt lat="48.34465" lon="2.77584">
        <ele>50.799999237061</ele>
        <time>2022-10-13T12:19:47Z</time>
      </trkpt>
      <trkpt lat="48.34466" lon="2.77586">
        <ele>50.799999237061</ele>
        <time>2022-10-13T12:19:51Z</time>
      </trkpt>
      <trkpt lat="48.34468" lon="2.77587">
        <ele>50.799999237061</ele>
        <time>2022-10-13T12:19:55Z</time>
      </trkpt>
      <trkpt lat="48.3447" lon="2.77589">
        <ele>50.799999237061</ele>
        <time>2022-10-13T12:19:59Z</time>
      </trkpt>
      <trkpt lat="48.34471" lon="2.77593">
        <ele>51</ele>
        <time>2022-10-13T12:20:03Z</time>
      </trkpt>
      <trkpt lat="48.34473" lon="2.77597">
        <ele>51</ele>
        <time>2022-10-13T12:20:07Z</time>
      </trkpt>
      <trkpt lat="48.34475" lon="2.77601">
        <ele>51</ele>
        <time>2022-10-13T12:20:11Z</time>
      </trkpt>
      <trkpt lat="48.34478" lon="2.77605">
        <ele>51</ele>
        <time>2022-10-13T12:20:15Z</time>
      </trkpt>
      <trkpt lat="48.3448" lon="2.77608">
        <ele>51</ele>
        <time>2022-10-13T12:20:19Z</time>
      </trkpt>
      <trkpt lat="48.34483" lon="2.77611">
        <ele>51</ele>
        <time>2022-10-13T12:20:23Z</time>
      </trkpt>
      <trkpt lat="48.34489" lon="2.77621">
        <ele>51.200000762939</ele>
        <time>2022-10-13T12:20:27Z</time>
      </trkpt>
      <trkpt lat="48.34495" lon="2.77629">
        <ele>51.200000762939</ele>
        <time>2022-10-13T12:20:31Z</time>
      </trkpt>
      <trkpt lat="48.34501" lon="2.77639">
        <ele>51.200000762939</ele>
        <time>2022-10-13T12:20:35Z</time>
      </trkpt>
      <trkpt lat="48.34504" lon="2.77645">
        <ele>51.400001525879</ele>
        <time>2022-10-13T12:20:39Z</time>
      </trkpt>
      <trkpt lat="48.34507" lon="2.77651">
        <ele>51.400001525879</ele>
        <time>2022-10-13T12:20:43Z</time>
      </trkpt>
      <trkpt lat="48.34509" lon="2.77655">
        <ele>51.599998474121</ele>
        <time>2022-10-13T12:20:47Z</time>
      </trkpt>
      <trkpt lat="48.34509" lon="2.77658">
        <ele>51.599998474121</ele>
        <time>2022-10-13T12:20:51Z</time>
      </trkpt>
      <trkpt lat="48.34512" lon="2.77662">
        <ele>51.799999237061</ele>
        <time>2022-10-13T12:20:55Z</time>
      </trkpt>
      <trkpt lat="48.34515" lon="2.77669">
        <ele>51.799999237061</ele>
        <time>2022-10-13T12:20:59Z</time>
      </trkpt>
      <trkpt lat="48.34519" lon="2.77676">
        <ele>51.799999237061</ele>
        <time>2022-10-13T12:21:03Z</time>
      </trkpt>
      <trkpt lat="48.3452" lon="2.77679">
        <ele>52</ele>
        <time>2022-10-13T12:21:07Z</time>
      </trkpt>
      <trkpt lat="48.34523" lon="2.77684">
        <ele>52.200000762939</ele>
        <time>2022-10-13T12:21:11Z</time>
      </trkpt>
      <trkpt lat="48.34524" lon="2.77685">
        <ele>52.400001525879</ele>
        <time>2022-10-13T12:21:15Z</time>
      </trkpt>
      <trkpt lat="48.34526" lon="2.77688">
        <ele>52.400001525879</ele>
        <time>2022-10-13T12:21:19Z</time>
      </trkpt>
      <trkpt lat="48.34529" lon="2.77699">
        <ele>52.599998474121</ele>
        <time>2022-10-13T12:21:23Z</time>
      </trkpt>
      <trkpt lat="48.34532" lon="2.77699">
        <ele>52.599998474121</ele>
        <time>2022-10-13T12:21:27Z</time>
      </trkpt>
      <trkpt lat="48.34537" lon="2.77701">
        <ele>52.599998474121</ele>
        <time>2022-10-13T12:21:31Z</time>
      </trkpt>
      <trkpt lat="48.3454" lon="2.777">
        <ele>52.799999237061</ele>
        <time>2022-10-13T12:21:35Z</time>
      </trkpt>
      <trkpt lat="48.34542" lon="2.77698">
        <ele>53</ele>
        <time>2022-10-13T12:21:39Z</time>
      </trkpt>
      <trkpt lat="48.34547" lon="2.77696">
        <ele>53.200000762939</ele>
        <time>2022-10-13T12:21:43Z</time>
      </trkpt>
      <trkpt lat="48.34551" lon="2.77694">
        <ele>53.400001525879</ele>
        <time>2022-10-13T12:21:47Z</time>
      </trkpt>
      <trkpt lat="48.34554" lon="2.77692">
        <ele>53.799999237061</ele>
        <time>2022-10-13T12:21:51Z</time>
      </trkpt>
      <trkpt lat="48.34556" lon="2.77691">
        <ele>54</ele>
        <time>2022-10-13T12:21:55Z</time>
      </trkpt>
      <trkpt lat="48.34557" lon="2.7769">
        <ele>54.200000762939</ele>
        <time>2022-10-13T12:21:59Z</time>
      </trkpt>
      <trkpt lat="48.34558" lon="2.77691">
        <ele>54.400001525879</ele>
        <time>2022-10-13T12:22:03Z</time>
      </trkpt>
      <trkpt lat="48.34558" lon="2.7769">
        <ele>54.400001525879</ele>
        <time>2022-10-13T12:22:07Z</time>
      </trkpt>
      <trkpt lat="48.3456" lon="2.77691">
        <ele>54.200000762939</ele>
        <time>2022-10-13T12:22:11Z</time>
      </trkpt>
      <trkpt lat="48.34565" lon="2.77689">
        <ele>54.599998474121</ele>
        <time>2022-10-13T12:22:15Z</time>
      </trkpt>
      <trkpt lat="48.34572" lon="2.77686">
        <ele>54.799999237061</ele>
        <time>2022-10-13T12:22:19Z</time>
      </trkpt>
      <trkpt lat="48.34578" lon="2.77682">
        <ele>55</ele>
        <time>2022-10-13T12:22:23Z</time>
      </trkpt>
      <trkpt lat="48.34585" lon="2.7768">
        <ele>55.200000762939</ele>
        <time>2022-10-13T12:22:27Z</time>
      </trkpt>
      <trkpt lat="48.3459" lon="2.77678">
        <ele>55.400001525879</ele>
        <time>2022-10-13T12:22:31Z</time>
      </trkpt>
      <trkpt lat="48.34592" lon="2.77676">
        <ele>55.599998474121</ele>
        <time>2022-10-13T12:22:35Z</time>
      </trkpt>
      <trkpt lat="48.34596" lon="2.77674">
        <ele>55.799999237061</ele>
        <time>2022-10-13T12:22:39Z</time>
      </trkpt>
      <trkpt lat="48.346" lon="2.77669">
        <ele>56</ele>
        <time>2022-10-13T12:22:43Z</time>
      </trkpt>
      <trkpt lat="48.34606" lon="2.77664">
        <ele>56.200000762939</ele>
        <time>2022-10-13T12:22:47Z</time>
      </trkpt>
      <trkpt lat="48.34609" lon="2.7766">
        <ele>56.400001525879</ele>
        <time>2022-10-13T12:22:51Z</time>
      </trkpt>
      <trkpt lat="48.34613" lon="2.77655">
        <ele>56.599998474121</ele>
        <time>2022-10-13T12:22:55Z</time>
      </trkpt>
      <trkpt lat="48.34617" lon="2.77649">
        <ele>56.799999237061</ele>
        <time>2022-10-13T12:22:59Z</time>
      </trkpt>
      <trkpt lat="48.3462" lon="2.77644">
        <ele>57</ele>
        <time>2022-10-13T12:23:03Z</time>
      </trkpt>
      <trkpt lat="48.34622" lon="2.77639">
        <ele>57.200000762939</ele>
        <time>2022-10-13T12:23:07Z</time>
      </trkpt>
      <trkpt lat="48.34624" lon="2.77636">
        <ele>57.599998474121</ele>
        <time>2022-10-13T12:23:11Z</time>
      </trkpt>
      <trkpt lat="48.34626" lon="2.77632">
        <ele>58</ele>
        <time>2022-10-13T12:23:15Z</time>
      </trkpt>
      <trkpt lat="48.34629" lon="2.77628">
        <ele>58.200000762939</ele>
        <time>2022-10-13T12:23:19Z</time>
      </trkpt>
      <trkpt lat="48.34631" lon="2.77625">
        <ele>58.400001525879</ele>
        <time>2022-10-13T12:23:23Z</time>
      </trkpt>
      <trkpt lat="48.34632" lon="2.77622">
        <ele>58.799999237061</ele>
        <time>2022-10-13T12:23:27Z</time>
      </trkpt>
      <trkpt lat="48.34633" lon="2.77621">
        <ele>59</ele>
        <time>2022-10-13T12:23:31Z</time>
      </trkpt>
      <trkpt lat="48.34635" lon="2.77619">
        <ele>59.799999237061</ele>
        <time>2022-10-13T12:23:35Z</time>
      </trkpt>
      <trkpt lat="48.34638" lon="2.77615">
        <ele>60.200000762939</ele>
        <time>2022-10-13T12:23:39Z</time>
      </trkpt>
      <trkpt lat="48.3464" lon="2.77611">
        <ele>60.400001525879</ele>
        <time>2022-10-13T12:23:43Z</time>
      </trkpt>
      <trkpt lat="48.34641" lon="2.7761">
        <ele>60.599998474121</ele>
        <time>2022-10-13T12:23:47Z</time>
      </trkpt>
      <trkpt lat="48.34643" lon="2.77609">
        <ele>61.400001525879</ele>
        <time>2022-10-13T12:23:51Z</time>
      </trkpt>
      <trkpt lat="48.34644" lon="2.77607">
        <ele>61.599998474121</ele>
        <time>2022-10-13T12:23:55Z</time>
      </trkpt>
      <trkpt lat="48.34645" lon="2.77605">
        <ele>61.799999237061</ele>
        <time>2022-10-13T12:23:59Z</time>
      </trkpt>
      <trkpt lat="48.34648" lon="2.776">
        <ele>62</ele>
        <time>2022-10-13T12:24:03Z</time>
      </trkpt>
      <trkpt lat="48.3465" lon="2.77597">
        <ele>62.400001525879</ele>
        <time>2022-10-13T12:24:07Z</time>
      </trkpt>
      <trkpt lat="48.34654" lon="2.77594">
        <ele>62.599998474121</ele>
        <time>2022-10-13T12:24:11Z</time>
      </trkpt>
      <trkpt lat="48.34658" lon="2.7759">
        <ele>63</ele>
        <time>2022-10-13T12:24:15Z</time>
      </trkpt>
      <trkpt lat="48.34658" lon="2.77589">
        <ele>63.200000762939</ele>
        <time>2022-10-13T12:24:19Z</time>
      </trkpt>
      <trkpt lat="48.34659" lon="2.77588">
        <ele>63.400001525879</ele>
        <time>2022-10-13T12:24:23Z</time>
      </trkpt>
      <trkpt lat="48.34659" lon="2.77586">
        <ele>63.799999237061</ele>
        <time>2022-10-13T12:24:27Z</time>
      </trkpt>
      <trkpt lat="48.34661" lon="2.77584">
        <ele>64</ele>
        <time>2022-10-13T12:24:31Z</time>
      </trkpt>
      <trkpt lat="48.34662" lon="2.77582">
        <ele>64</ele>
        <time>2022-10-13T12:24:35Z</time>
      </trkpt>
      <trkpt lat="48.34665" lon="2.77577">
        <ele>64</ele>
        <time>2022-10-13T12:24:39Z</time>
      </trkpt>
      <trkpt lat="48.34666" lon="2.77574">
        <ele>64</ele>
        <time>2022-10-13T12:24:43Z</time>
      </trkpt>
      <trkpt lat="48.34668" lon="2.77571">
        <ele>64.199996948242</ele>
        <time>2022-10-13T12:24:47Z</time>
      </trkpt>
      <trkpt lat="48.34669" lon="2.77569">
        <ele>64.400001525879</ele>
        <time>2022-10-13T12:24:51Z</time>
      </trkpt>
      <trkpt lat="48.34671" lon="2.77567">
        <ele>64.599998474121</ele>
        <time>2022-10-13T12:24:55Z</time>
      </trkpt>
      <trkpt lat="48.34675" lon="2.77564">
        <ele>64.800003051758</ele>
        <time>2022-10-13T12:24:59Z</time>
      </trkpt>
      <trkpt lat="48.34679" lon="2.77557">
        <ele>64.800003051758</ele>
        <time>2022-10-13T12:25:03Z</time>
      </trkpt>
      <trkpt lat="48.34683" lon="2.7755">
        <ele>65</ele>
        <time>2022-10-13T12:25:07Z</time>
      </trkpt>
      <trkpt lat="48.34685" lon="2.77548">
        <ele>65.199996948242</ele>
        <time>2022-10-13T12:25:11Z</time>
      </trkpt>
      <trkpt lat="48.34686" lon="2.77545">
        <ele>65.199996948242</ele>
        <time>2022-10-13T12:25:15Z</time>
      </trkpt>
      <trkpt lat="48.34686" lon="2.77543">
        <ele>65.400001525879</ele>
        <time>2022-10-13T12:25:19Z</time>
      </trkpt>
      <trkpt lat="48.34687" lon="2.7754">
        <ele>65.599998474121</ele>
        <time>2022-10-13T12:25:23Z</time>
      </trkpt>
      <trkpt lat="48.34689" lon="2.77539">
        <ele>65.800003051758</ele>
        <time>2022-10-13T12:25:27Z</time>
      </trkpt>
      <trkpt lat="48.34691" lon="2.77538">
        <ele>65.800003051758</ele>
        <time>2022-10-13T12:25:31Z</time>
      </trkpt>
      <trkpt lat="48.34694" lon="2.77535">
        <ele>66.199996948242</ele>
        <time>2022-10-13T12:25:35Z</time>
      </trkpt>
      <trkpt lat="48.34695" lon="2.77533">
        <ele>66.400001525879</ele>
        <time>2022-10-13T12:25:39Z</time>
      </trkpt>
      <trkpt lat="48.34698" lon="2.77531">
        <ele>66.599998474121</ele>
        <time>2022-10-13T12:25:43Z</time>
      </trkpt>
      <trkpt lat="48.34701" lon="2.7753">
        <ele>66.800003051758</ele>
        <time>2022-10-13T12:25:47Z</time>
      </trkpt>
      <trkpt lat="48.34703" lon="2.77528">
        <ele>66.800003051758</ele>
        <time>2022-10-13T12:25:51Z</time>
      </trkpt>
      <trkpt lat="48.34705" lon="2.77526">
        <ele>67</ele>
        <time>2022-10-13T12:25:55Z</time>
      </trkpt>
      <trkpt lat="48.34707" lon="2.77525">
        <ele>67.199996948242</ele>
        <time>2022-10-13T12:25:59Z</time>
      </trkpt>
      <trkpt lat="48.34709" lon="2.77524">
        <ele>67.199996948242</ele>
        <time>2022-10-13T12:26:03Z</time>
      </trkpt>
      <trkpt lat="48.3471" lon="2.77522">
        <ele>67</ele>
        <time>2022-10-13T12:26:07Z</time>
      </trkpt>
      <trkpt lat="48.34711" lon="2.77519">
        <ele>67</ele>
        <time>2022-10-13T12:26:11Z</time>
      </trkpt>
      <trkpt lat="48.34711" lon="2.77516">
        <ele>67.199996948242</ele>
        <time>2022-10-13T12:26:15Z</time>
      </trkpt>
      <trkpt lat="48.34712" lon="2.77514">
        <ele>67</ele>
        <time>2022-10-13T12:26:19Z</time>
      </trkpt>
      <trkpt lat="48.34713" lon="2.77512">
        <ele>67.199996948242</ele>
        <time>2022-10-13T12:26:23Z</time>
      </trkpt>
      <trkpt lat="48.34713" lon="2.77505">
        <ele>67.400001525879</ele>
        <time>2022-10-13T12:26:27Z</time>
      </trkpt>
      <trkpt lat="48.34716" lon="2.77499">
        <ele>67.400001525879</ele>
        <time>2022-10-13T12:26:31Z</time>
      </trkpt>
      <trkpt lat="48.3472" lon="2.77492">
        <ele>67.800003051758</ele>
        <time>2022-10-13T12:26:35Z</time>
      </trkpt>
      <trkpt lat="48.34719" lon="2.77489">
        <ele>67.800003051758</ele>
        <time>2022-10-13T12:26:39Z</time>
      </trkpt>
      <trkpt lat="48.34718" lon="2.77487">
        <ele>67.800003051758</ele>
        <time>2022-10-13T12:26:43Z</time>
      </trkpt>
      <trkpt lat="48.34716" lon="2.7749">
        <ele>68</ele>
        <time>2022-10-13T12:26:47Z</time>
      </trkpt>
      <trkpt lat="48.34715" lon="2.77491">
        <ele>68</ele>
        <time>2022-10-13T12:26:51Z</time>
      </trkpt>
      <trkpt lat="48.34721" lon="2.77488">
        <ele>68.199996948242</ele>
        <time>2022-10-13T12:26:55Z</time>
      </trkpt>
      <trkpt lat="48.34731" lon="2.77466">
        <ele>68.400001525879</ele>
        <time>2022-10-13T12:26:59Z</time>
      </trkpt>
      <trkpt lat="48.34735" lon="2.77457">
        <ele>68.800003051758</ele>
        <time>2022-10-13T12:27:03Z</time>
      </trkpt>
      <trkpt lat="48.34737" lon="2.77451">
        <ele>69.199996948242</ele>
        <time>2022-10-13T12:27:07Z</time>
      </trkpt>
      <trkpt lat="48.3474" lon="2.7745">
        <ele>69.599998474121</ele>
        <time>2022-10-13T12:27:11Z</time>
      </trkpt>
      <trkpt lat="48.34741" lon="2.7745">
        <ele>69.800003051758</ele>
        <time>2022-10-13T12:27:15Z</time>
      </trkpt>
      <trkpt lat="48.34742" lon="2.77448">
        <ele>70.199996948242</ele>
        <time>2022-10-13T12:27:19Z</time>
      </trkpt>
      <trkpt lat="48.34743" lon="2.77445">
        <ele>70.400001525879</ele>
        <time>2022-10-13T12:27:23Z</time>
      </trkpt>
      <trkpt lat="48.34745" lon="2.77444">
        <ele>70.800003051758</ele>
        <time>2022-10-13T12:27:27Z</time>
      </trkpt>
      <trkpt lat="48.34747" lon="2.77442">
        <ele>71</ele>
        <time>2022-10-13T12:27:31Z</time>
      </trkpt>
      <trkpt lat="48.34756" lon="2.77443">
        <ele>71.199996948242</ele>
        <time>2022-10-13T12:27:35Z</time>
      </trkpt>
      <trkpt lat="48.34757" lon="2.77443">
        <ele>71.400001525879</ele>
        <time>2022-10-13T12:27:39Z</time>
      </trkpt>
      <trkpt lat="48.34758" lon="2.77443">
        <ele>71.199996948242</ele>
        <time>2022-10-13T12:27:43Z</time>
      </trkpt>
      <trkpt lat="48.34758" lon="2.77443">
        <ele>71.800003051758</ele>
        <time>2022-10-13T12:27:47Z</time>
      </trkpt>
      <trkpt lat="48.34758" lon="2.77443">
        <ele>71.800003051758</ele>
        <time>2022-10-13T12:27:51Z</time>
      </trkpt>
      <trkpt lat="48.34759" lon="2.77441">
        <ele>71.800003051758</ele>
        <time>2022-10-13T12:27:55Z</time>
      </trkpt>
      <trkpt lat="48.3476" lon="2.7744">
        <ele>71.800003051758</ele>
        <time>2022-10-13T12:27:59Z</time>
      </trkpt>
      <trkpt lat="48.34763" lon="2.77439">
        <ele>71.800003051758</ele>
        <time>2022-10-13T12:28:03Z</time>
      </trkpt>
      <trkpt lat="48.34766" lon="2.77439">
        <ele>71.800003051758</ele>
        <time>2022-10-13T12:28:07Z</time>
      </trkpt>
      <trkpt lat="48.34769" lon="2.7744">
        <ele>72</ele>
        <time>2022-10-13T12:28:11Z</time>
      </trkpt>
      <trkpt lat="48.34772" lon="2.77439">
        <ele>72.199996948242</ele>
        <time>2022-10-13T12:28:15Z</time>
      </trkpt>
      <trkpt lat="48.34774" lon="2.77439">
        <ele>72.400001525879</ele>
        <time>2022-10-13T12:28:19Z</time>
      </trkpt>
      <trkpt lat="48.34778" lon="2.77439">
        <ele>72.599998474121</ele>
        <time>2022-10-13T12:28:23Z</time>
      </trkpt>
      <trkpt lat="48.34781" lon="2.77437">
        <ele>72.800003051758</ele>
        <time>2022-10-13T12:28:27Z</time>
      </trkpt>
      <trkpt lat="48.34785" lon="2.77436">
        <ele>73.199996948242</ele>
        <time>2022-10-13T12:28:31Z</time>
      </trkpt>
      <trkpt lat="48.34789" lon="2.77437">
        <ele>73.400001525879</ele>
        <time>2022-10-13T12:28:35Z</time>
      </trkpt>
      <trkpt lat="48.34793" lon="2.77439">
        <ele>73.599998474121</ele>
        <time>2022-10-13T12:28:39Z</time>
      </trkpt>
      <trkpt lat="48.34796" lon="2.77439">
        <ele>73.800003051758</ele>
        <time>2022-10-13T12:28:43Z</time>
      </trkpt>
      <trkpt lat="48.34803" lon="2.77439">
        <ele>74.199996948242</ele>
        <time>2022-10-13T12:28:47Z</time>
      </trkpt>
      <trkpt lat="48.34806" lon="2.77439">
        <ele>74.599998474121</ele>
        <time>2022-10-13T12:28:51Z</time>
      </trkpt>
      <trkpt lat="48.34809" lon="2.77439">
        <ele>74.800003051758</ele>
        <time>2022-10-13T12:28:55Z</time>
      </trkpt>
      <trkpt lat="48.34812" lon="2.77438">
        <ele>75</ele>
        <time>2022-10-13T12:28:59Z</time>
      </trkpt>
      <trkpt lat="48.34816" lon="2.77439">
        <ele>75</ele>
        <time>2022-10-13T12:29:03Z</time>
      </trkpt>
      <trkpt lat="48.34817" lon="2.77441">
        <ele>75.199996948242</ele>
        <time>2022-10-13T12:29:07Z</time>
      </trkpt>
      <trkpt lat="48.3482" lon="2.77442">
        <ele>75.400001525879</ele>
        <time>2022-10-13T12:29:11Z</time>
      </trkpt>
      <trkpt lat="48.34824" lon="2.77441">
        <ele>75.599998474121</ele>
        <time>2022-10-13T12:29:15Z</time>
      </trkpt>
      <trkpt lat="48.34828" lon="2.77441">
        <ele>75.800003051758</ele>
        <time>2022-10-13T12:29:19Z</time>
      </trkpt>
      <trkpt lat="48.34833" lon="2.7744">
        <ele>76</ele>
        <time>2022-10-13T12:29:23Z</time>
      </trkpt>
      <trkpt lat="48.34835" lon="2.7744">
        <ele>76.199996948242</ele>
        <time>2022-10-13T12:29:27Z</time>
      </trkpt>
      <trkpt lat="48.34836" lon="2.77439">
        <ele>76.400001525879</ele>
        <time>2022-10-13T12:29:31Z</time>
      </trkpt>
      <trkpt lat="48.34836" lon="2.7744">
        <ele>76.400001525879</ele>
        <time>2022-10-13T12:29:35Z</time>
      </trkpt>
      <trkpt lat="48.34837" lon="2.77441">
        <ele>76.400001525879</ele>
        <time>2022-10-13T12:29:39Z</time>
      </trkpt>
      <trkpt lat="48.34837" lon="2.77442">
        <ele>76.400001525879</ele>
        <time>2022-10-13T12:29:43Z</time>
      </trkpt>
      <trkpt lat="48.34837" lon="2.77443">
        <ele>76.199996948242</ele>
        <time>2022-10-13T12:29:47Z</time>
      </trkpt>
      <trkpt lat="48.34838" lon="2.77444">
        <ele>76.400001525879</ele>
        <time>2022-10-13T12:29:51Z</time>
      </trkpt>
      <trkpt lat="48.34839" lon="2.77446">
        <ele>76.199996948242</ele>
        <time>2022-10-13T12:29:55Z</time>
      </trkpt>
      <trkpt lat="48.34838" lon="2.77446">
        <ele>76.199996948242</ele>
        <time>2022-10-13T12:29:59Z</time>
      </trkpt>
      <trkpt lat="48.34838" lon="2.77445">
        <ele>76.199996948242</ele>
        <time>2022-10-13T12:30:03Z</time>
      </trkpt>
      <trkpt lat="48.34838" lon="2.77444">
        <ele>76.199996948242</ele>
        <time>2022-10-13T12:30:07Z</time>
      </trkpt>
      <trkpt lat="48.34838" lon="2.77443">
        <ele>76.199996948242</ele>
        <time>2022-10-13T12:30:11Z</time>
      </trkpt>
      <trkpt lat="48.34837" lon="2.77441">
        <ele>76.199996948242</ele>
        <time>2022-10-13T12:30:15Z</time>
      </trkpt>
      <trkpt lat="48.34837" lon="2.77439">
        <ele>76.199996948242</ele>
        <time>2022-10-13T12:30:19Z</time>
      </trkpt>
      <trkpt lat="48.34837" lon="2.77438">
        <ele>76.199996948242</ele>
        <time>2022-10-13T12:30:23Z</time>
      </trkpt>
      <trkpt lat="48.34837" lon="2.77437">
        <ele>76.199996948242</ele>
        <time>2022-10-13T12:30:27Z</time>
      </trkpt>
      <trkpt lat="48.34837" lon="2.77436">
        <ele>76.400001525879</ele>
        <time>2022-10-13T12:30:31Z</time>
      </trkpt>
      <trkpt lat="48.34837" lon="2.77435">
        <ele>76.400001525879</ele>
        <time>2022-10-13T12:30:35Z</time>
      </trkpt>
      <trkpt lat="48.34837" lon="2.77435">
        <ele>76.400001525879</ele>
        <time>2022-10-13T12:30:39Z</time>
      </trkpt>
      <trkpt lat="48.34836" lon="2.77435">
        <ele>76.599998474121</ele>
        <time>2022-10-13T12:30:43Z</time>
      </trkpt>
      <trkpt lat="48.34836" lon="2.77436">
        <ele>76.599998474121</ele>
        <time>2022-10-13T12:30:47Z</time>
      </trkpt>
      <trkpt lat="48.34836" lon="2.77436">
        <ele>76.599998474121</ele>
        <time>2022-10-13T12:30:51Z</time>
      </trkpt>
      <trkpt lat="48.34836" lon="2.77436">
        <ele>76.599998474121</ele>
        <time>2022-10-13T12:30:55Z</time>
      </trkpt>
      <trkpt lat="48.34837" lon="2.77438">
        <ele>76.599998474121</ele>
        <time>2022-10-13T12:30:59Z</time>
      </trkpt>
      <trkpt lat="48.34838" lon="2.7744">
        <ele>76.599998474121</ele>
        <time>2022-10-13T12:31:03Z</time>
      </trkpt>
      <trkpt lat="48.34839" lon="2.77441">
        <ele>76.599998474121</ele>
        <time>2022-10-13T12:31:07Z</time>
      </trkpt>
      <trkpt lat="48.34839" lon="2.77441">
        <ele>76.599998474121</ele>
        <time>2022-10-13T12:31:11Z</time>
      </trkpt>
      <trkpt lat="48.34839" lon="2.77439">
        <ele>76.599998474121</ele>
        <time>2022-10-13T12:31:15Z</time>
      </trkpt>
      <trkpt lat="48.3484" lon="2.77438">
        <ele>76.599998474121</ele>
        <time>2022-10-13T12:31:19Z</time>
      </trkpt>
      <trkpt lat="48.34841" lon="2.77437">
        <ele>76.599998474121</ele>
        <time>2022-10-13T12:31:23Z</time>
      </trkpt>
      <trkpt lat="48.34842" lon="2.77438">
        <ele>76.599998474121</ele>
        <time>2022-10-13T12:31:27Z</time>
      </trkpt>
      <trkpt lat="48.34843" lon="2.77439">
        <ele>76.599998474121</ele>
        <time>2022-10-13T12:31:31Z</time>
      </trkpt>
      <trkpt lat="48.34841" lon="2.77441">
        <ele>76.599998474121</ele>
        <time>2022-10-13T12:31:35Z</time>
      </trkpt>
      <trkpt lat="48.34841" lon="2.77442">
        <ele>76.599998474121</ele>
        <time>2022-10-13T12:31:39Z</time>
      </trkpt>
      <trkpt lat="48.3484" lon="2.77444">
        <ele>76.599998474121</ele>
        <time>2022-10-13T12:31:43Z</time>
      </trkpt>
      <trkpt lat="48.34839" lon="2.77446">
        <ele>76.599998474121</ele>
        <time>2022-10-13T12:31:47Z</time>
      </trkpt>
      <trkpt lat="48.34838" lon="2.77447">
        <ele>76.599998474121</ele>
        <time>2022-10-13T12:31:51Z</time>
      </trkpt>
      <trkpt lat="48.34838" lon="2.77446">
        <ele>76.599998474121</ele>
        <time>2022-10-13T12:31:55Z</time>
      </trkpt>
      <trkpt lat="48.34838" lon="2.77446">
        <ele>76.599998474121</ele>
        <time>2022-10-13T12:31:59Z</time>
      </trkpt>
      <trkpt lat="48.34838" lon="2.77446">
        <ele>76.599998474121</ele>
        <time>2022-10-13T12:32:03Z</time>
      </trkpt>
      <trkpt lat="48.34838" lon="2.77447">
        <ele>76.599998474121</ele>
        <time>2022-10-13T12:32:07Z</time>
      </trkpt>
      <trkpt lat="48.34838" lon="2.77448">
        <ele>76.599998474121</ele>
        <time>2022-10-13T12:32:11Z</time>
      </trkpt>
      <trkpt lat="48.34836" lon="2.77449">
        <ele>76.599998474121</ele>
        <time>2022-10-13T12:32:15Z</time>
      </trkpt>
      <trkpt lat="48.34836" lon="2.77449">
        <ele>76.599998474121</ele>
        <time>2022-10-13T12:32:19Z</time>
      </trkpt>
      <trkpt lat="48.34836" lon="2.77449">
        <ele>76.599998474121</ele>
        <time>2022-10-13T12:32:23Z</time>
      </trkpt>
      <trkpt lat="48.34837" lon="2.77448">
        <ele>76.599998474121</ele>
        <time>2022-10-13T12:32:27Z</time>
      </trkpt>
      <trkpt lat="48.34838" lon="2.77447">
        <ele>76.599998474121</ele>
        <time>2022-10-13T12:32:31Z</time>
      </trkpt>
      <trkpt lat="48.3484" lon="2.77444">
        <ele>76.599998474121</ele>
        <time>2022-10-13T12:32:35Z</time>
      </trkpt>
      <trkpt lat="48.34843" lon="2.77441">
        <ele>76.599998474121</ele>
        <time>2022-10-13T12:32:39Z</time>
      </trkpt>
      <trkpt lat="48.34847" lon="2.77439">
        <ele>76.599998474121</ele>
        <time>2022-10-13T12:32:43Z</time>
      </trkpt>
      <trkpt lat="48.34851" lon="2.77437">
        <ele>76.599998474121</ele>
        <time>2022-10-13T12:32:47Z</time>
      </trkpt>
      <trkpt lat="48.34855" lon="2.77435">
        <ele>76.599998474121</ele>
        <time>2022-10-13T12:32:51Z</time>
      </trkpt>
      <trkpt lat="48.3486" lon="2.77434">
        <ele>76.599998474121</ele>
        <time>2022-10-13T12:32:55Z</time>
      </trkpt>
      <trkpt lat="48.34862" lon="2.77434">
        <ele>76.800003051758</ele>
        <time>2022-10-13T12:32:59Z</time>
      </trkpt>
      <trkpt lat="48.34866" lon="2.77434">
        <ele>78.199996948242</ele>
        <time>2022-10-13T12:33:03Z</time>
      </trkpt>
      <trkpt lat="48.3487" lon="2.77432">
        <ele>78.599998474121</ele>
        <time>2022-10-13T12:33:07Z</time>
      </trkpt>
      <trkpt lat="48.34874" lon="2.77432">
        <ele>78.599998474121</ele>
        <time>2022-10-13T12:33:11Z</time>
      </trkpt>
      <trkpt lat="48.34879" lon="2.77431">
        <ele>79</ele>
        <time>2022-10-13T12:33:15Z</time>
      </trkpt>
      <trkpt lat="48.34883" lon="2.7743">
        <ele>79</ele>
        <time>2022-10-13T12:33:19Z</time>
      </trkpt>
      <trkpt lat="48.34886" lon="2.7743">
        <ele>79.400001525879</ele>
        <time>2022-10-13T12:33:23Z</time>
      </trkpt>
      <trkpt lat="48.34889" lon="2.7743">
        <ele>79.599998474121</ele>
        <time>2022-10-13T12:33:27Z</time>
      </trkpt>
      <trkpt lat="48.34894" lon="2.77429">
        <ele>79.599998474121</ele>
        <time>2022-10-13T12:33:31Z</time>
      </trkpt>
      <trkpt lat="48.34897" lon="2.77425">
        <ele>79.599998474121</ele>
        <time>2022-10-13T12:33:35Z</time>
      </trkpt>
      <trkpt lat="48.34899" lon="2.77419">
        <ele>79.599998474121</ele>
        <time>2022-10-13T12:33:39Z</time>
      </trkpt>
      <trkpt lat="48.34899" lon="2.77414">
        <ele>79.199996948242</ele>
        <time>2022-10-13T12:33:43Z</time>
      </trkpt>
      <trkpt lat="48.34898" lon="2.7741">
        <ele>79</ele>
        <time>2022-10-13T12:33:47Z</time>
      </trkpt>
      <trkpt lat="48.34896" lon="2.77406">
        <ele>78.800003051758</ele>
        <time>2022-10-13T12:33:51Z</time>
      </trkpt>
      <trkpt lat="48.34894" lon="2.77401">
        <ele>78.800003051758</ele>
        <time>2022-10-13T12:33:55Z</time>
      </trkpt>
      <trkpt lat="48.34892" lon="2.77396">
        <ele>78.599998474121</ele>
        <time>2022-10-13T12:33:59Z</time>
      </trkpt>
      <trkpt lat="48.3489" lon="2.7739">
        <ele>78.400001525879</ele>
        <time>2022-10-13T12:34:03Z</time>
      </trkpt>
      <trkpt lat="48.34888" lon="2.77385">
        <ele>78.199996948242</ele>
        <time>2022-10-13T12:34:07Z</time>
      </trkpt>
      <trkpt lat="48.34886" lon="2.77381">
        <ele>78.199996948242</ele>
        <time>2022-10-13T12:34:11Z</time>
      </trkpt>
      <trkpt lat="48.34884" lon="2.77375">
        <ele>78</ele>
        <time>2022-10-13T12:34:15Z</time>
      </trkpt>
      <trkpt lat="48.34883" lon="2.7737">
        <ele>77.800003051758</ele>
        <time>2022-10-13T12:34:19Z</time>
      </trkpt>
      <trkpt lat="48.34881" lon="2.77364">
        <ele>77.599998474121</ele>
        <time>2022-10-13T12:34:23Z</time>
      </trkpt>
      <trkpt lat="48.34879" lon="2.77359">
        <ele>77.599998474121</ele>
        <time>2022-10-13T12:34:27Z</time>
      </trkpt>
      <trkpt lat="48.34879" lon="2.77354">
        <ele>77.599998474121</ele>
        <time>2022-10-13T12:34:31Z</time>
      </trkpt>
      <trkpt lat="48.34878" lon="2.77349">
        <ele>77.400001525879</ele>
        <time>2022-10-13T12:34:35Z</time>
      </trkpt>
      <trkpt lat="48.34876" lon="2.77343">
        <ele>77.400001525879</ele>
        <time>2022-10-13T12:34:39Z</time>
      </trkpt>
      <trkpt lat="48.34873" lon="2.77337">
        <ele>77.400001525879</ele>
        <time>2022-10-13T12:34:43Z</time>
      </trkpt>
      <trkpt lat="48.34872" lon="2.77329">
        <ele>77.199996948242</ele>
        <time>2022-10-13T12:34:47Z</time>
      </trkpt>
      <trkpt lat="48.34871" lon="2.77321">
        <ele>77.400001525879</ele>
        <time>2022-10-13T12:34:51Z</time>
      </trkpt>
      <trkpt lat="48.3487" lon="2.77314">
        <ele>77.400001525879</ele>
        <time>2022-10-13T12:34:55Z</time>
      </trkpt>
      <trkpt lat="48.3487" lon="2.77309">
        <ele>77.599998474121</ele>
        <time>2022-10-13T12:34:59Z</time>
      </trkpt>
      <trkpt lat="48.3487" lon="2.77303">
        <ele>77.800003051758</ele>
        <time>2022-10-13T12:35:03Z</time>
      </trkpt>
      <trkpt lat="48.3487" lon="2.77297">
        <ele>77.800003051758</ele>
        <time>2022-10-13T12:35:07Z</time>
      </trkpt>
      <trkpt lat="48.34869" lon="2.77293">
        <ele>77.800003051758</ele>
        <time>2022-10-13T12:35:11Z</time>
      </trkpt>
      <trkpt lat="48.34869" lon="2.77286">
        <ele>77.800003051758</ele>
        <time>2022-10-13T12:35:15Z</time>
      </trkpt>
      <trkpt lat="48.34869" lon="2.77279">
        <ele>77.800003051758</ele>
        <time>2022-10-13T12:35:19Z</time>
      </trkpt>
      <trkpt lat="48.34868" lon="2.77273">
        <ele>77.800003051758</ele>
        <time>2022-10-13T12:35:23Z</time>
      </trkpt>
      <trkpt lat="48.34867" lon="2.77266">
        <ele>77.599998474121</ele>
        <time>2022-10-13T12:35:27Z</time>
      </trkpt>
      <trkpt lat="48.34868" lon="2.7726">
        <ele>77.800003051758</ele>
        <time>2022-10-13T12:35:31Z</time>
      </trkpt>
      <trkpt lat="48.34866" lon="2.77253">
        <ele>77.800003051758</ele>
        <time>2022-10-13T12:35:35Z</time>
      </trkpt>
      <trkpt lat="48.34866" lon="2.77246">
        <ele>77.800003051758</ele>
        <time>2022-10-13T12:35:39Z</time>
      </trkpt>
      <trkpt lat="48.34867" lon="2.7724">
        <ele>77.800003051758</ele>
        <time>2022-10-13T12:35:43Z</time>
      </trkpt>
      <trkpt lat="48.34866" lon="2.77234">
        <ele>78</ele>
        <time>2022-10-13T12:35:47Z</time>
      </trkpt>
      <trkpt lat="48.34865" lon="2.77227">
        <ele>78</ele>
        <time>2022-10-13T12:35:51Z</time>
      </trkpt>
      <trkpt lat="48.34863" lon="2.77219">
        <ele>77.800003051758</ele>
        <time>2022-10-13T12:35:55Z</time>
      </trkpt>
      <trkpt lat="48.34863" lon="2.77213">
        <ele>78</ele>
        <time>2022-10-13T12:35:59Z</time>
      </trkpt>
      <trkpt lat="48.34864" lon="2.77208">
        <ele>78.199996948242</ele>
        <time>2022-10-13T12:36:03Z</time>
      </trkpt>
      <trkpt lat="48.34865" lon="2.77204">
        <ele>78.400001525879</ele>
        <time>2022-10-13T12:36:07Z</time>
      </trkpt>
      <trkpt lat="48.34868" lon="2.77201">
        <ele>78.599998474121</ele>
        <time>2022-10-13T12:36:11Z</time>
      </trkpt>
      <trkpt lat="48.3487" lon="2.77197">
        <ele>78.599998474121</ele>
        <time>2022-10-13T12:36:15Z</time>
      </trkpt>
      <trkpt lat="48.34873" lon="2.77194">
        <ele>78.599998474121</ele>
        <time>2022-10-13T12:36:19Z</time>
      </trkpt>
      <trkpt lat="48.34877" lon="2.77191">
        <ele>78.599998474121</ele>
        <time>2022-10-13T12:36:23Z</time>
      </trkpt>
      <trkpt lat="48.3488" lon="2.77187">
        <ele>79</ele>
        <time>2022-10-13T12:36:27Z</time>
      </trkpt>
      <trkpt lat="48.34883" lon="2.77185">
        <ele>79</ele>
        <time>2022-10-13T12:36:31Z</time>
      </trkpt>
      <trkpt lat="48.34886" lon="2.77184">
        <ele>79.400001525879</ele>
        <time>2022-10-13T12:36:35Z</time>
      </trkpt>
      <trkpt lat="48.34891" lon="2.77182">
        <ele>79.800003051758</ele>
        <time>2022-10-13T12:36:39Z</time>
      </trkpt>
      <trkpt lat="48.34894" lon="2.77181">
        <ele>80.400001525879</ele>
        <time>2022-10-13T12:36:43Z</time>
      </trkpt>
      <trkpt lat="48.34898" lon="2.77179">
        <ele>80.599998474121</ele>
        <time>2022-10-13T12:36:47Z</time>
      </trkpt>
      <trkpt lat="48.34902" lon="2.77177">
        <ele>80.800003051758</ele>
        <time>2022-10-13T12:36:51Z</time>
      </trkpt>
      <trkpt lat="48.34906" lon="2.77175">
        <ele>81</ele>
        <time>2022-10-13T12:36:55Z</time>
      </trkpt>
      <trkpt lat="48.3491" lon="2.77173">
        <ele>81.400001525879</ele>
        <time>2022-10-13T12:36:59Z</time>
      </trkpt>
      <trkpt lat="48.34914" lon="2.77171">
        <ele>81.599998474121</ele>
        <time>2022-10-13T12:37:03Z</time>
      </trkpt>
      <trkpt lat="48.34917" lon="2.7717">
        <ele>82</ele>
        <time>2022-10-13T12:37:07Z</time>
      </trkpt>
      <trkpt lat="48.34921" lon="2.7717">
        <ele>82.199996948242</ele>
        <time>2022-10-13T12:37:11Z</time>
      </trkpt>
      <trkpt lat="48.34924" lon="2.77168">
        <ele>82.599998474121</ele>
        <time>2022-10-13T12:37:15Z</time>
      </trkpt>
      <trkpt lat="48.34929" lon="2.77165">
        <ele>82.800003051758</ele>
        <time>2022-10-13T12:37:19Z</time>
      </trkpt>
      <trkpt lat="48.34934" lon="2.77163">
        <ele>83.199996948242</ele>
        <time>2022-10-13T12:37:23Z</time>
      </trkpt>
      <trkpt lat="48.34938" lon="2.77161">
        <ele>83.599998474121</ele>
        <time>2022-10-13T12:37:27Z</time>
      </trkpt>
      <trkpt lat="48.3494" lon="2.7716">
        <ele>84</ele>
        <time>2022-10-13T12:37:31Z</time>
      </trkpt>
      <trkpt lat="48.34944" lon="2.77158">
        <ele>84.400001525879</ele>
        <time>2022-10-13T12:37:35Z</time>
      </trkpt>
      <trkpt lat="48.34948" lon="2.77156">
        <ele>84.800003051758</ele>
        <time>2022-10-13T12:37:39Z</time>
      </trkpt>
      <trkpt lat="48.34951" lon="2.77155">
        <ele>85.199996948242</ele>
        <time>2022-10-13T12:37:43Z</time>
      </trkpt>
      <trkpt lat="48.34953" lon="2.77154">
        <ele>85.599998474121</ele>
        <time>2022-10-13T12:37:47Z</time>
      </trkpt>
      <trkpt lat="48.34956" lon="2.77153">
        <ele>86</ele>
        <time>2022-10-13T12:37:51Z</time>
      </trkpt>
      <trkpt lat="48.3496" lon="2.77151">
        <ele>86.400001525879</ele>
        <time>2022-10-13T12:37:55Z</time>
      </trkpt>
      <trkpt lat="48.34963" lon="2.77149">
        <ele>86.800003051758</ele>
        <time>2022-10-13T12:37:59Z</time>
      </trkpt>
      <trkpt lat="48.34967" lon="2.77147">
        <ele>87.599998474121</ele>
        <time>2022-10-13T12:38:03Z</time>
      </trkpt>
      <trkpt lat="48.3497" lon="2.77147">
        <ele>87.800003051758</ele>
        <time>2022-10-13T12:38:07Z</time>
      </trkpt>
      <trkpt lat="48.34973" lon="2.77145">
        <ele>88.400001525879</ele>
        <time>2022-10-13T12:38:11Z</time>
      </trkpt>
      <trkpt lat="48.34975" lon="2.77144">
        <ele>88.800003051758</ele>
        <time>2022-10-13T12:38:15Z</time>
      </trkpt>
      <trkpt lat="48.34977" lon="2.77143">
        <ele>89.400001525879</ele>
        <time>2022-10-13T12:38:19Z</time>
      </trkpt>
      <trkpt lat="48.34982" lon="2.77142">
        <ele>89.800003051758</ele>
        <time>2022-10-13T12:38:23Z</time>
      </trkpt>
      <trkpt lat="48.34985" lon="2.77141">
        <ele>90.400001525879</ele>
        <time>2022-10-13T12:38:27Z</time>
      </trkpt>
      <trkpt lat="48.34988" lon="2.77143">
        <ele>91</ele>
        <time>2022-10-13T12:38:31Z</time>
      </trkpt>
      <trkpt lat="48.34992" lon="2.77145">
        <ele>91.400001525879</ele>
        <time>2022-10-13T12:38:35Z</time>
      </trkpt>
      <trkpt lat="48.34995" lon="2.77149">
        <ele>92</ele>
        <time>2022-10-13T12:38:39Z</time>
      </trkpt>
      <trkpt lat="48.34998" lon="2.77152">
        <ele>92.400001525879</ele>
        <time>2022-10-13T12:38:43Z</time>
      </trkpt>
      <trkpt lat="48.35001" lon="2.77156">
        <ele>92.599998474121</ele>
        <time>2022-10-13T12:38:47Z</time>
      </trkpt>
      <trkpt lat="48.35004" lon="2.77158">
        <ele>93</ele>
        <time>2022-10-13T12:38:51Z</time>
      </trkpt>
      <trkpt lat="48.35007" lon="2.7716">
        <ele>93.199996948242</ele>
        <time>2022-10-13T12:38:55Z</time>
      </trkpt>
      <trkpt lat="48.35012" lon="2.77161">
        <ele>93.400001525879</ele>
        <time>2022-10-13T12:38:59Z</time>
      </trkpt>
      <trkpt lat="48.35016" lon="2.77161">
        <ele>93.599998474121</ele>
        <time>2022-10-13T12:39:03Z</time>
      </trkpt>
      <trkpt lat="48.35019" lon="2.7716">
        <ele>93.800003051758</ele>
        <time>2022-10-13T12:39:07Z</time>
      </trkpt>
      <trkpt lat="48.35021" lon="2.77158">
        <ele>94.199996948242</ele>
        <time>2022-10-13T12:39:11Z</time>
      </trkpt>
      <trkpt lat="48.35023" lon="2.77156">
        <ele>94.199996948242</ele>
        <time>2022-10-13T12:39:15Z</time>
      </trkpt>
      <trkpt lat="48.35027" lon="2.77154">
        <ele>94.599998474121</ele>
        <time>2022-10-13T12:39:19Z</time>
      </trkpt>
      <trkpt lat="48.35028" lon="2.77153">
        <ele>94.800003051758</ele>
        <time>2022-10-13T12:39:23Z</time>
      </trkpt>
      <trkpt lat="48.35029" lon="2.77154">
        <ele>95.400001525879</ele>
        <time>2022-10-13T12:39:27Z</time>
      </trkpt>
      <trkpt lat="48.3503" lon="2.77153">
        <ele>95.599998474121</ele>
        <time>2022-10-13T12:39:31Z</time>
      </trkpt>
      <trkpt lat="48.35035" lon="2.77153">
        <ele>95.800003051758</ele>
        <time>2022-10-13T12:39:35Z</time>
      </trkpt>
      <trkpt lat="48.35038" lon="2.7715">
        <ele>96.400001525879</ele>
        <time>2022-10-13T12:39:39Z</time>
      </trkpt>
      <trkpt lat="48.35042" lon="2.77148">
        <ele>96.599998474121</ele>
        <time>2022-10-13T12:39:43Z</time>
      </trkpt>
      <trkpt lat="48.35045" lon="2.77148">
        <ele>96.800003051758</ele>
        <time>2022-10-13T12:39:47Z</time>
      </trkpt>
      <trkpt lat="48.35048" lon="2.77143">
        <ele>97</ele>
        <time>2022-10-13T12:39:51Z</time>
      </trkpt>
      <trkpt lat="48.35051" lon="2.77139">
        <ele>97</ele>
        <time>2022-10-13T12:39:55Z</time>
      </trkpt>
      <trkpt lat="48.35056" lon="2.77136">
        <ele>97</ele>
        <time>2022-10-13T12:39:59Z</time>
      </trkpt>
      <trkpt lat="48.35058" lon="2.77134">
        <ele>96.800003051758</ele>
        <time>2022-10-13T12:40:03Z</time>
      </trkpt>
      <trkpt lat="48.35061" lon="2.77132">
        <ele>96.599998474121</ele>
        <time>2022-10-13T12:40:07Z</time>
      </trkpt>
      <trkpt lat="48.35064" lon="2.7713">
        <ele>96.599998474121</ele>
        <time>2022-10-13T12:40:11Z</time>
      </trkpt>
      <trkpt lat="48.35068" lon="2.77129">
        <ele>96.599998474121</ele>
        <time>2022-10-13T12:40:15Z</time>
      </trkpt>
      <trkpt lat="48.35071" lon="2.77127">
        <ele>96.400001525879</ele>
        <time>2022-10-13T12:40:19Z</time>
      </trkpt>
      <trkpt lat="48.35074" lon="2.77126">
        <ele>96.199996948242</ele>
        <time>2022-10-13T12:40:23Z</time>
      </trkpt>
      <trkpt lat="48.35077" lon="2.77125">
        <ele>96.199996948242</ele>
        <time>2022-10-13T12:40:27Z</time>
      </trkpt>
      <trkpt lat="48.35079" lon="2.77122">
        <ele>96</ele>
        <time>2022-10-13T12:40:31Z</time>
      </trkpt>
      <trkpt lat="48.35083" lon="2.77119">
        <ele>95.800003051758</ele>
        <time>2022-10-13T12:40:35Z</time>
      </trkpt>
      <trkpt lat="48.35085" lon="2.77118">
        <ele>95.599998474121</ele>
        <time>2022-10-13T12:40:39Z</time>
      </trkpt>
      <trkpt lat="48.35087" lon="2.77116">
        <ele>95.400001525879</ele>
        <time>2022-10-13T12:40:43Z</time>
      </trkpt>
      <trkpt lat="48.35091" lon="2.77113">
        <ele>95.199996948242</ele>
        <time>2022-10-13T12:40:47Z</time>
      </trkpt>
      <trkpt lat="48.35094" lon="2.77111">
        <ele>95</ele>
        <time>2022-10-13T12:40:51Z</time>
      </trkpt>
      <trkpt lat="48.35098" lon="2.77104">
        <ele>94.800003051758</ele>
        <time>2022-10-13T12:40:55Z</time>
      </trkpt>
      <trkpt lat="48.35101" lon="2.77101">
        <ele>94.400001525879</ele>
        <time>2022-10-13T12:40:59Z</time>
      </trkpt>
      <trkpt lat="48.35104" lon="2.77098">
        <ele>94.199996948242</ele>
        <time>2022-10-13T12:41:03Z</time>
      </trkpt>
      <trkpt lat="48.35108" lon="2.77098">
        <ele>94</ele>
        <time>2022-10-13T12:41:07Z</time>
      </trkpt>
      <trkpt lat="48.35112" lon="2.77095">
        <ele>93.400001525879</ele>
        <time>2022-10-13T12:41:11Z</time>
      </trkpt>
      <trkpt lat="48.35115" lon="2.77092">
        <ele>92.800003051758</ele>
        <time>2022-10-13T12:41:15Z</time>
      </trkpt>
      <trkpt lat="48.35119" lon="2.77091">
        <ele>92.400001525879</ele>
        <time>2022-10-13T12:41:19Z</time>
      </trkpt>
      <trkpt lat="48.35122" lon="2.77086">
        <ele>92</ele>
        <time>2022-10-13T12:41:23Z</time>
      </trkpt>
      <trkpt lat="48.35125" lon="2.77082">
        <ele>91.400001525879</ele>
        <time>2022-10-13T12:41:27Z</time>
      </trkpt>
      <trkpt lat="48.35128" lon="2.77078">
        <ele>90.800003051758</ele>
        <time>2022-10-13T12:41:31Z</time>
      </trkpt>
      <trkpt lat="48.3513" lon="2.77074">
        <ele>90.199996948242</ele>
        <time>2022-10-13T12:41:35Z</time>
      </trkpt>
      <trkpt lat="48.35132" lon="2.7707">
        <ele>89.800003051758</ele>
        <time>2022-10-13T12:41:39Z</time>
      </trkpt>
      <trkpt lat="48.35134" lon="2.77065">
        <ele>89.199996948242</ele>
        <time>2022-10-13T12:41:43Z</time>
      </trkpt>
      <trkpt lat="48.35135" lon="2.77062">
        <ele>88.800003051758</ele>
        <time>2022-10-13T12:41:47Z</time>
      </trkpt>
      <trkpt lat="48.35139" lon="2.77059">
        <ele>88</ele>
        <time>2022-10-13T12:41:51Z</time>
      </trkpt>
      <trkpt lat="48.35142" lon="2.77056">
        <ele>87.400001525879</ele>
        <time>2022-10-13T12:41:55Z</time>
      </trkpt>
      <trkpt lat="48.35145" lon="2.77053">
        <ele>87</ele>
        <time>2022-10-13T12:41:59Z</time>
      </trkpt>
      <trkpt lat="48.35149" lon="2.77048">
        <ele>86.800003051758</ele>
        <time>2022-10-13T12:42:03Z</time>
      </trkpt>
      <trkpt lat="48.35152" lon="2.77045">
        <ele>86.599998474121</ele>
        <time>2022-10-13T12:42:07Z</time>
      </trkpt>
      <trkpt lat="48.35154" lon="2.77042">
        <ele>86.400001525879</ele>
        <time>2022-10-13T12:42:11Z</time>
      </trkpt>
      <trkpt lat="48.35156" lon="2.77039">
        <ele>86.199996948242</ele>
        <time>2022-10-13T12:42:15Z</time>
      </trkpt>
      <trkpt lat="48.35159" lon="2.77037">
        <ele>86</ele>
        <time>2022-10-13T12:42:19Z</time>
      </trkpt>
      <trkpt lat="48.35163" lon="2.77035">
        <ele>85.800003051758</ele>
        <time>2022-10-13T12:42:23Z</time>
      </trkpt>
      <trkpt lat="48.35167" lon="2.77033">
        <ele>85.599998474121</ele>
        <time>2022-10-13T12:42:27Z</time>
      </trkpt>
      <trkpt lat="48.35169" lon="2.77028">
        <ele>85.599998474121</ele>
        <time>2022-10-13T12:42:31Z</time>
      </trkpt>
      <trkpt lat="48.35172" lon="2.77024">
        <ele>85.400001525879</ele>
        <time>2022-10-13T12:42:35Z</time>
      </trkpt>
      <trkpt lat="48.35176" lon="2.77019">
        <ele>85.400001525879</ele>
        <time>2022-10-13T12:42:39Z</time>
      </trkpt>
      <trkpt lat="48.35179" lon="2.77016">
        <ele>85.400001525879</ele>
        <time>2022-10-13T12:42:43Z</time>
      </trkpt>
      <trkpt lat="48.35183" lon="2.77014">
        <ele>85.199996948242</ele>
        <time>2022-10-13T12:42:47Z</time>
      </trkpt>
      <trkpt lat="48.35186" lon="2.77012">
        <ele>85</ele>
        <time>2022-10-13T12:42:51Z</time>
      </trkpt>
      <trkpt lat="48.35191" lon="2.7701">
        <ele>85</ele>
        <time>2022-10-13T12:42:55Z</time>
      </trkpt>
      <trkpt lat="48.35195" lon="2.77009">
        <ele>84.800003051758</ele>
        <time>2022-10-13T12:42:59Z</time>
      </trkpt>
      <trkpt lat="48.352" lon="2.77008">
        <ele>84.800003051758</ele>
        <time>2022-10-13T12:43:03Z</time>
      </trkpt>
      <trkpt lat="48.35204" lon="2.77008">
        <ele>84.800003051758</ele>
        <time>2022-10-13T12:43:07Z</time>
      </trkpt>
      <trkpt lat="48.35207" lon="2.77007">
        <ele>85</ele>
        <time>2022-10-13T12:43:11Z</time>
      </trkpt>
      <trkpt lat="48.35208" lon="2.77006">
        <ele>85</ele>
        <time>2022-10-13T12:43:15Z</time>
      </trkpt>
      <trkpt lat="48.35207" lon="2.77003">
        <ele>85.199996948242</ele>
        <time>2022-10-13T12:43:19Z</time>
      </trkpt>
      <trkpt lat="48.35207" lon="2.77002">
        <ele>85.199996948242</ele>
        <time>2022-10-13T12:43:23Z</time>
      </trkpt>
      <trkpt lat="48.35207" lon="2.77002">
        <ele>85</ele>
        <time>2022-10-13T12:43:27Z</time>
      </trkpt>
      <trkpt lat="48.35207" lon="2.77001">
        <ele>84.800003051758</ele>
        <time>2022-10-13T12:43:31Z</time>
      </trkpt>
      <trkpt lat="48.35208" lon="2.77001">
        <ele>84.800003051758</ele>
        <time>2022-10-13T12:43:35Z</time>
      </trkpt>
      <trkpt lat="48.35209" lon="2.77001">
        <ele>85</ele>
        <time>2022-10-13T12:43:39Z</time>
      </trkpt>
      <trkpt lat="48.3521" lon="2.77001">
        <ele>85</ele>
        <time>2022-10-13T12:43:43Z</time>
      </trkpt>
      <trkpt lat="48.3521" lon="2.77001">
        <ele>85</ele>
        <time>2022-10-13T12:43:47Z</time>
      </trkpt>
      <trkpt lat="48.35209" lon="2.77003">
        <ele>85</ele>
        <time>2022-10-13T12:43:51Z</time>
      </trkpt>
      <trkpt lat="48.35209" lon="2.77003">
        <ele>85</ele>
        <time>2022-10-13T12:43:55Z</time>
      </trkpt>
      <trkpt lat="48.35209" lon="2.77003">
        <ele>85</ele>
        <time>2022-10-13T12:43:59Z</time>
      </trkpt>
      <trkpt lat="48.3521" lon="2.77002">
        <ele>85</ele>
        <time>2022-10-13T12:44:03Z</time>
      </trkpt>
      <trkpt lat="48.3521" lon="2.77001">
        <ele>84.800003051758</ele>
        <time>2022-10-13T12:44:07Z</time>
      </trkpt>
      <trkpt lat="48.35211" lon="2.77">
        <ele>84.800003051758</ele>
        <time>2022-10-13T12:44:11Z</time>
      </trkpt>
      <trkpt lat="48.35211" lon="2.77">
        <ele>84.800003051758</ele>
        <time>2022-10-13T12:44:15Z</time>
      </trkpt>
      <trkpt lat="48.3521" lon="2.77002">
        <ele>84.800003051758</ele>
        <time>2022-10-13T12:44:19Z</time>
      </trkpt>
      <trkpt lat="48.35209" lon="2.77003">
        <ele>84.800003051758</ele>
        <time>2022-10-13T12:44:23Z</time>
      </trkpt>
      <trkpt lat="48.35208" lon="2.77003">
        <ele>84.800003051758</ele>
        <time>2022-10-13T12:44:27Z</time>
      </trkpt>
      <trkpt lat="48.35208" lon="2.77004">
        <ele>84.800003051758</ele>
        <time>2022-10-13T12:44:31Z</time>
      </trkpt>
      <trkpt lat="48.35207" lon="2.77007">
        <ele>84.800003051758</ele>
        <time>2022-10-13T12:44:35Z</time>
      </trkpt>
      <trkpt lat="48.35207" lon="2.77006">
        <ele>84.800003051758</ele>
        <time>2022-10-13T12:44:39Z</time>
      </trkpt>
      <trkpt lat="48.35206" lon="2.77006">
        <ele>84.800003051758</ele>
        <time>2022-10-13T12:44:43Z</time>
      </trkpt>
      <trkpt lat="48.35205" lon="2.77007">
        <ele>84.800003051758</ele>
        <time>2022-10-13T12:44:47Z</time>
      </trkpt>
      <trkpt lat="48.35205" lon="2.77007">
        <ele>84.800003051758</ele>
        <time>2022-10-13T12:44:51Z</time>
      </trkpt>
      <trkpt lat="48.35204" lon="2.77008">
        <ele>84.800003051758</ele>
        <time>2022-10-13T12:44:55Z</time>
      </trkpt>
      <trkpt lat="48.35203" lon="2.77008">
        <ele>84.800003051758</ele>
        <time>2022-10-13T12:44:59Z</time>
      </trkpt>
      <trkpt lat="48.35203" lon="2.77008">
        <ele>84.800003051758</ele>
        <time>2022-10-13T12:45:03Z</time>
      </trkpt>
      <trkpt lat="48.35203" lon="2.77007">
        <ele>84.800003051758</ele>
        <time>2022-10-13T12:45:07Z</time>
      </trkpt>
      <trkpt lat="48.35203" lon="2.77007">
        <ele>84.800003051758</ele>
        <time>2022-10-13T12:45:11Z</time>
      </trkpt>
      <trkpt lat="48.35205" lon="2.77006">
        <ele>84.800003051758</ele>
        <time>2022-10-13T12:45:15Z</time>
      </trkpt>
      <trkpt lat="48.35205" lon="2.77005">
        <ele>84.800003051758</ele>
        <time>2022-10-13T12:45:19Z</time>
      </trkpt>
      <trkpt lat="48.35205" lon="2.77005">
        <ele>84.800003051758</ele>
        <time>2022-10-13T12:45:23Z</time>
      </trkpt>
      <trkpt lat="48.35205" lon="2.77006">
        <ele>84.800003051758</ele>
        <time>2022-10-13T12:45:27Z</time>
      </trkpt>
      <trkpt lat="48.35206" lon="2.77008">
        <ele>84.800003051758</ele>
        <time>2022-10-13T12:45:31Z</time>
      </trkpt>
      <trkpt lat="48.35205" lon="2.77008">
        <ele>84.800003051758</ele>
        <time>2022-10-13T12:45:35Z</time>
      </trkpt>
      <trkpt lat="48.35205" lon="2.77008">
        <ele>84.800003051758</ele>
        <time>2022-10-13T12:45:39Z</time>
      </trkpt>
      <trkpt lat="48.35205" lon="2.77006">
        <ele>84.800003051758</ele>
        <time>2022-10-13T12:45:43Z</time>
      </trkpt>
      <trkpt lat="48.35205" lon="2.77006">
        <ele>84.800003051758</ele>
        <time>2022-10-13T12:45:47Z</time>
      </trkpt>
      <trkpt lat="48.35206" lon="2.77007">
        <ele>84.800003051758</ele>
        <time>2022-10-13T12:45:51Z</time>
      </trkpt>
      <trkpt lat="48.35205" lon="2.77007">
        <ele>84.800003051758</ele>
        <time>2022-10-13T12:45:55Z</time>
      </trkpt>
      <trkpt lat="48.35205" lon="2.77008">
        <ele>84.800003051758</ele>
        <time>2022-10-13T12:45:59Z</time>
      </trkpt>
      <trkpt lat="48.35205" lon="2.77008">
        <ele>84.800003051758</ele>
        <time>2022-10-13T12:46:03Z</time>
      </trkpt>
      <trkpt lat="48.35205" lon="2.77008">
        <ele>84.800003051758</ele>
        <time>2022-10-13T12:46:07Z</time>
      </trkpt>
      <trkpt lat="48.35205" lon="2.77009">
        <ele>84.800003051758</ele>
        <time>2022-10-13T12:46:11Z</time>
      </trkpt>
      <trkpt lat="48.35205" lon="2.7701">
        <ele>84.800003051758</ele>
        <time>2022-10-13T12:46:15Z</time>
      </trkpt>
      <trkpt lat="48.35205" lon="2.77011">
        <ele>84.800003051758</ele>
        <time>2022-10-13T12:46:19Z</time>
      </trkpt>
      <trkpt lat="48.35206" lon="2.77014">
        <ele>84.800003051758</ele>
        <time>2022-10-13T12:46:23Z</time>
      </trkpt>
      <trkpt lat="48.35205" lon="2.77015">
        <ele>84.800003051758</ele>
        <time>2022-10-13T12:46:27Z</time>
      </trkpt>
      <trkpt lat="48.35205" lon="2.77015">
        <ele>84.800003051758</ele>
        <time>2022-10-13T12:46:31Z</time>
      </trkpt>
      <trkpt lat="48.35204" lon="2.77017">
        <ele>84.800003051758</ele>
        <time>2022-10-13T12:46:35Z</time>
      </trkpt>
      <trkpt lat="48.35204" lon="2.77018">
        <ele>84.800003051758</ele>
        <time>2022-10-13T12:46:39Z</time>
      </trkpt>
      <trkpt lat="48.35204" lon="2.77017">
        <ele>84.800003051758</ele>
        <time>2022-10-13T12:46:43Z</time>
      </trkpt>
      <trkpt lat="48.35204" lon="2.77016">
        <ele>84.800003051758</ele>
        <time>2022-10-13T12:46:47Z</time>
      </trkpt>
      <trkpt lat="48.35204" lon="2.77016">
        <ele>84.800003051758</ele>
        <time>2022-10-13T12:46:51Z</time>
      </trkpt>
      <trkpt lat="48.35205" lon="2.77016">
        <ele>84.800003051758</ele>
        <time>2022-10-13T12:46:55Z</time>
      </trkpt>
      <trkpt lat="48.35206" lon="2.77015">
        <ele>84.800003051758</ele>
        <time>2022-10-13T12:46:59Z</time>
      </trkpt>
      <trkpt lat="48.35207" lon="2.77015">
        <ele>84.800003051758</ele>
        <time>2022-10-13T12:47:03Z</time>
      </trkpt>
      <trkpt lat="48.35207" lon="2.77015">
        <ele>84.800003051758</ele>
        <time>2022-10-13T12:47:07Z</time>
      </trkpt>
      <trkpt lat="48.35208" lon="2.77013">
        <ele>84.800003051758</ele>
        <time>2022-10-13T12:47:11Z</time>
      </trkpt>
      <trkpt lat="48.35209" lon="2.77013">
        <ele>84.800003051758</ele>
        <time>2022-10-13T12:47:15Z</time>
      </trkpt>
      <trkpt lat="48.3521" lon="2.77012">
        <ele>84.800003051758</ele>
        <time>2022-10-13T12:47:19Z</time>
      </trkpt>
      <trkpt lat="48.35212" lon="2.77014">
        <ele>84.800003051758</ele>
        <time>2022-10-13T12:47:23Z</time>
      </trkpt>
      <trkpt lat="48.35217" lon="2.77016">
        <ele>84.800003051758</ele>
        <time>2022-10-13T12:47:27Z</time>
      </trkpt>
      <trkpt lat="48.35222" lon="2.77017">
        <ele>85.199996948242</ele>
        <time>2022-10-13T12:47:31Z</time>
      </trkpt>
      <trkpt lat="48.35227" lon="2.77019">
        <ele>85.199996948242</ele>
        <time>2022-10-13T12:47:36Z</time>
      </trkpt>
      <trkpt lat="48.3523" lon="2.7702">
        <ele>85</ele>
        <time>2022-10-13T12:47:40Z</time>
      </trkpt>
      <trkpt lat="48.35235" lon="2.77023">
        <ele>84.800003051758</ele>
        <time>2022-10-13T12:47:44Z</time>
      </trkpt>
      <trkpt lat="48.35239" lon="2.77024">
        <ele>84.599998474121</ele>
        <time>2022-10-13T12:47:48Z</time>
      </trkpt>
      <trkpt lat="48.35244" lon="2.77026">
        <ele>84.599998474121</ele>
        <time>2022-10-13T12:47:52Z</time>
      </trkpt>
      <trkpt lat="48.35249" lon="2.77029">
        <ele>84.599998474121</ele>
        <time>2022-10-13T12:47:56Z</time>
      </trkpt>
      <trkpt lat="48.35252" lon="2.77032">
        <ele>84.800003051758</ele>
        <time>2022-10-13T12:48:00Z</time>
      </trkpt>
      <trkpt lat="48.35255" lon="2.77035">
        <ele>85</ele>
        <time>2022-10-13T12:48:04Z</time>
      </trkpt>
      <trkpt lat="48.35259" lon="2.77038">
        <ele>85.199996948242</ele>
        <time>2022-10-13T12:48:08Z</time>
      </trkpt>
      <trkpt lat="48.35262" lon="2.77041">
        <ele>85.599998474121</ele>
        <time>2022-10-13T12:48:12Z</time>
      </trkpt>
      <trkpt lat="48.35264" lon="2.77044">
        <ele>85.800003051758</ele>
        <time>2022-10-13T12:48:16Z</time>
      </trkpt>
      <trkpt lat="48.35269" lon="2.77046">
        <ele>86.400001525879</ele>
        <time>2022-10-13T12:48:20Z</time>
      </trkpt>
      <trkpt lat="48.35272" lon="2.77048">
        <ele>86.800003051758</ele>
        <time>2022-10-13T12:48:24Z</time>
      </trkpt>
      <trkpt lat="48.35276" lon="2.77051">
        <ele>87.400001525879</ele>
        <time>2022-10-13T12:48:28Z</time>
      </trkpt>
      <trkpt lat="48.3528" lon="2.77053">
        <ele>87.800003051758</ele>
        <time>2022-10-13T12:48:32Z</time>
      </trkpt>
      <trkpt lat="48.35283" lon="2.77056">
        <ele>88.400001525879</ele>
        <time>2022-10-13T12:48:36Z</time>
      </trkpt>
      <trkpt lat="48.35286" lon="2.77058">
        <ele>89</ele>
        <time>2022-10-13T12:48:40Z</time>
      </trkpt>
      <trkpt lat="48.3529" lon="2.7706">
        <ele>89.599998474121</ele>
        <time>2022-10-13T12:48:44Z</time>
      </trkpt>
      <trkpt lat="48.35293" lon="2.77063">
        <ele>90.199996948242</ele>
        <time>2022-10-13T12:48:48Z</time>
      </trkpt>
      <trkpt lat="48.35295" lon="2.77064">
        <ele>91</ele>
        <time>2022-10-13T12:48:52Z</time>
      </trkpt>
      <trkpt lat="48.35299" lon="2.77065">
        <ele>91.599998474121</ele>
        <time>2022-10-13T12:48:56Z</time>
      </trkpt>
      <trkpt lat="48.35302" lon="2.77066">
        <ele>92.400001525879</ele>
        <time>2022-10-13T12:49:00Z</time>
      </trkpt>
      <trkpt lat="48.35306" lon="2.77067">
        <ele>93</ele>
        <time>2022-10-13T12:49:04Z</time>
      </trkpt>
      <trkpt lat="48.35308" lon="2.77069">
        <ele>93.800003051758</ele>
        <time>2022-10-13T12:49:08Z</time>
      </trkpt>
      <trkpt lat="48.3531" lon="2.7707">
        <ele>94.599998474121</ele>
        <time>2022-10-13T12:49:12Z</time>
      </trkpt>
      <trkpt lat="48.35312" lon="2.77071">
        <ele>95.400001525879</ele>
        <time>2022-10-13T12:49:16Z</time>
      </trkpt>
      <trkpt lat="48.35314" lon="2.77074">
        <ele>96.199996948242</ele>
        <time>2022-10-13T12:49:20Z</time>
      </trkpt>
      <trkpt lat="48.35318" lon="2.77078">
        <ele>96.800003051758</ele>
        <time>2022-10-13T12:49:24Z</time>
      </trkpt>
      <trkpt lat="48.3532" lon="2.77079">
        <ele>97.400001525879</ele>
        <time>2022-10-13T12:49:28Z</time>
      </trkpt>
      <trkpt lat="48.35323" lon="2.77078">
        <ele>98.599998474121</ele>
        <time>2022-10-13T12:49:32Z</time>
      </trkpt>
      <trkpt lat="48.35326" lon="2.77079">
        <ele>99</ele>
        <time>2022-10-13T12:49:36Z</time>
      </trkpt>
      <trkpt lat="48.35331" lon="2.77083">
        <ele>99.199996948242</ele>
        <time>2022-10-13T12:49:40Z</time>
      </trkpt>
      <trkpt lat="48.35331" lon="2.77085">
        <ele>99.599998474121</ele>
        <time>2022-10-13T12:49:44Z</time>
      </trkpt>
      <trkpt lat="48.35336" lon="2.77088">
        <ele>99.599998474121</ele>
        <time>2022-10-13T12:49:48Z</time>
      </trkpt>
      <trkpt lat="48.35339" lon="2.7709">
        <ele>99.400001525879</ele>
        <time>2022-10-13T12:49:52Z</time>
      </trkpt>
      <trkpt lat="48.35341" lon="2.7709">
        <ele>99.199996948242</ele>
        <time>2022-10-13T12:49:56Z</time>
      </trkpt>
      <trkpt lat="48.35343" lon="2.77091">
        <ele>98.599998474121</ele>
        <time>2022-10-13T12:50:00Z</time>
      </trkpt>
      <trkpt lat="48.35345" lon="2.77093">
        <ele>98</ele>
        <time>2022-10-13T12:50:04Z</time>
      </trkpt>
      <trkpt lat="48.35346" lon="2.77093">
        <ele>97.400001525879</ele>
        <time>2022-10-13T12:50:08Z</time>
      </trkpt>
      <trkpt lat="48.35349" lon="2.77094">
        <ele>96.800003051758</ele>
        <time>2022-10-13T12:50:12Z</time>
      </trkpt>
      <trkpt lat="48.35355" lon="2.77094">
        <ele>96.199996948242</ele>
        <time>2022-10-13T12:50:16Z</time>
      </trkpt>
      <trkpt lat="48.3536" lon="2.77095">
        <ele>95.400001525879</ele>
        <time>2022-10-13T12:50:20Z</time>
      </trkpt>
      <trkpt lat="48.35371" lon="2.77099">
        <ele>94.400001525879</ele>
        <time>2022-10-13T12:50:24Z</time>
      </trkpt>
      <trkpt lat="48.35373" lon="2.77099">
        <ele>93.800003051758</ele>
        <time>2022-10-13T12:50:28Z</time>
      </trkpt>
      <trkpt lat="48.35377" lon="2.771">
        <ele>93</ele>
        <time>2022-10-13T12:50:32Z</time>
      </trkpt>
      <trkpt lat="48.3538" lon="2.771">
        <ele>92.199996948242</ele>
        <time>2022-10-13T12:50:36Z</time>
      </trkpt>
      <trkpt lat="48.35383" lon="2.77102">
        <ele>91.599998474121</ele>
        <time>2022-10-13T12:50:40Z</time>
      </trkpt>
      <trkpt lat="48.35386" lon="2.77101">
        <ele>91</ele>
        <time>2022-10-13T12:50:44Z</time>
      </trkpt>
      <trkpt lat="48.35388" lon="2.77099">
        <ele>90.599998474121</ele>
        <time>2022-10-13T12:50:48Z</time>
      </trkpt>
      <trkpt lat="48.35392" lon="2.77097">
        <ele>90.400001525879</ele>
        <time>2022-10-13T12:50:52Z</time>
      </trkpt>
      <trkpt lat="48.35396" lon="2.77097">
        <ele>89.800003051758</ele>
        <time>2022-10-13T12:50:56Z</time>
      </trkpt>
      <trkpt lat="48.354" lon="2.77099">
        <ele>89.199996948242</ele>
        <time>2022-10-13T12:51:00Z</time>
      </trkpt>
      <trkpt lat="48.35403" lon="2.771">
        <ele>88.800003051758</ele>
        <time>2022-10-13T12:51:04Z</time>
      </trkpt>
      <trkpt lat="48.35408" lon="2.77103">
        <ele>87.800003051758</ele>
        <time>2022-10-13T12:51:08Z</time>
      </trkpt>
      <trkpt lat="48.35412" lon="2.77106">
        <ele>86.800003051758</ele>
        <time>2022-10-13T12:51:12Z</time>
      </trkpt>
      <trkpt lat="48.35416" lon="2.7711">
        <ele>86.199996948242</ele>
        <time>2022-10-13T12:51:16Z</time>
      </trkpt>
      <trkpt lat="48.35419" lon="2.77112">
        <ele>85.599998474121</ele>
        <time>2022-10-13T12:51:20Z</time>
      </trkpt>
      <trkpt lat="48.35421" lon="2.77112">
        <ele>85.199996948242</ele>
        <time>2022-10-13T12:51:24Z</time>
      </trkpt>
      <trkpt lat="48.35425" lon="2.77111">
        <ele>84.599998474121</ele>
        <time>2022-10-13T12:51:28Z</time>
      </trkpt>
      <trkpt lat="48.3543" lon="2.77109">
        <ele>84.199996948242</ele>
        <time>2022-10-13T12:51:32Z</time>
      </trkpt>
      <trkpt lat="48.35434" lon="2.77105">
        <ele>83.800003051758</ele>
        <time>2022-10-13T12:51:36Z</time>
      </trkpt>
      <trkpt lat="48.35438" lon="2.77103">
        <ele>83.400001525879</ele>
        <time>2022-10-13T12:51:40Z</time>
      </trkpt>
      <trkpt lat="48.35441" lon="2.77102">
        <ele>83</ele>
        <time>2022-10-13T12:51:44Z</time>
      </trkpt>
      <trkpt lat="48.35444" lon="2.771">
        <ele>82.800003051758</ele>
        <time>2022-10-13T12:51:48Z</time>
      </trkpt>
      <trkpt lat="48.35449" lon="2.77099">
        <ele>82.599998474121</ele>
        <time>2022-10-13T12:51:52Z</time>
      </trkpt>
      <trkpt lat="48.35453" lon="2.77095">
        <ele>82.199996948242</ele>
        <time>2022-10-13T12:51:56Z</time>
      </trkpt>
      <trkpt lat="48.35457" lon="2.77093">
        <ele>82</ele>
        <time>2022-10-13T12:52:00Z</time>
      </trkpt>
      <trkpt lat="48.35461" lon="2.77089">
        <ele>81.800003051758</ele>
        <time>2022-10-13T12:52:04Z</time>
      </trkpt>
      <trkpt lat="48.35463" lon="2.77088">
        <ele>81.599998474121</ele>
        <time>2022-10-13T12:52:08Z</time>
      </trkpt>
      <trkpt lat="48.35466" lon="2.77086">
        <ele>81.599998474121</ele>
        <time>2022-10-13T12:52:12Z</time>
      </trkpt>
      <trkpt lat="48.35471" lon="2.77083">
        <ele>81.400001525879</ele>
        <time>2022-10-13T12:52:16Z</time>
      </trkpt>
      <trkpt lat="48.35476" lon="2.77083">
        <ele>81.400001525879</ele>
        <time>2022-10-13T12:52:20Z</time>
      </trkpt>
      <trkpt lat="48.3548" lon="2.77081">
        <ele>81.400001525879</ele>
        <time>2022-10-13T12:52:24Z</time>
      </trkpt>
      <trkpt lat="48.35482" lon="2.77079">
        <ele>81.400001525879</ele>
        <time>2022-10-13T12:52:28Z</time>
      </trkpt>
      <trkpt lat="48.35485" lon="2.77076">
        <ele>81.199996948242</ele>
        <time>2022-10-13T12:52:32Z</time>
      </trkpt>
      <trkpt lat="48.35488" lon="2.77075">
        <ele>81.199996948242</ele>
        <time>2022-10-13T12:52:36Z</time>
      </trkpt>
      <trkpt lat="48.35489" lon="2.77073">
        <ele>81.400001525879</ele>
        <time>2022-10-13T12:52:40Z</time>
      </trkpt>
      <trkpt lat="48.3549" lon="2.77072">
        <ele>81.400001525879</ele>
        <time>2022-10-13T12:52:44Z</time>
      </trkpt>
      <trkpt lat="48.35491" lon="2.77069">
        <ele>81.599998474121</ele>
        <time>2022-10-13T12:52:48Z</time>
      </trkpt>
      <trkpt lat="48.35493" lon="2.77065">
        <ele>81.599998474121</ele>
        <time>2022-10-13T12:52:52Z</time>
      </trkpt>
      <trkpt lat="48.35497" lon="2.77062">
        <ele>81.800003051758</ele>
        <time>2022-10-13T12:52:56Z</time>
      </trkpt>
      <trkpt lat="48.35497" lon="2.7706">
        <ele>81.800003051758</ele>
        <time>2022-10-13T12:53:00Z</time>
      </trkpt>
      <trkpt lat="48.35497" lon="2.7706">
        <ele>81.599998474121</ele>
        <time>2022-10-13T12:53:04Z</time>
      </trkpt>
      <trkpt lat="48.35497" lon="2.7706">
        <ele>81.400001525879</ele>
        <time>2022-10-13T12:53:08Z</time>
      </trkpt>
      <trkpt lat="48.35497" lon="2.7706">
        <ele>81.400001525879</ele>
        <time>2022-10-13T12:53:12Z</time>
      </trkpt>
      <trkpt lat="48.35497" lon="2.7706">
        <ele>81.199996948242</ele>
        <time>2022-10-13T12:53:16Z</time>
      </trkpt>
      <trkpt lat="48.35497" lon="2.7706">
        <ele>81.199996948242</ele>
        <time>2022-10-13T12:53:20Z</time>
      </trkpt>
      <trkpt lat="48.35497" lon="2.7706">
        <ele>81</ele>
        <time>2022-10-13T12:53:24Z</time>
      </trkpt>
      <trkpt lat="48.35497" lon="2.77059">
        <ele>81</ele>
        <time>2022-10-13T12:53:28Z</time>
      </trkpt>
      <trkpt lat="48.35502" lon="2.77058">
        <ele>81</ele>
        <time>2022-10-13T12:53:32Z</time>
      </trkpt>
      <trkpt lat="48.35505" lon="2.77057">
        <ele>81</ele>
        <time>2022-10-13T12:53:36Z</time>
      </trkpt>
      <trkpt lat="48.35507" lon="2.77054">
        <ele>81.199996948242</ele>
        <time>2022-10-13T12:53:40Z</time>
      </trkpt>
      <trkpt lat="48.35509" lon="2.77051">
        <ele>81.199996948242</ele>
        <time>2022-10-13T12:53:44Z</time>
      </trkpt>
      <trkpt lat="48.35511" lon="2.77048">
        <ele>81.199996948242</ele>
        <time>2022-10-13T12:53:48Z</time>
      </trkpt>
      <trkpt lat="48.35513" lon="2.77045">
        <ele>81.199996948242</ele>
        <time>2022-10-13T12:53:52Z</time>
      </trkpt>
      <trkpt lat="48.35516" lon="2.77041">
        <ele>81.400001525879</ele>
        <time>2022-10-13T12:53:56Z</time>
      </trkpt>
      <trkpt lat="48.35519" lon="2.77037">
        <ele>81.400001525879</ele>
        <time>2022-10-13T12:54:00Z</time>
      </trkpt>
      <trkpt lat="48.35522" lon="2.77033">
        <ele>81.400001525879</ele>
        <time>2022-10-13T12:54:04Z</time>
      </trkpt>
      <trkpt lat="48.35526" lon="2.77031">
        <ele>81.400001525879</ele>
        <time>2022-10-13T12:54:08Z</time>
      </trkpt>
      <trkpt lat="48.35529" lon="2.77028">
        <ele>81.400001525879</ele>
        <time>2022-10-13T12:54:12Z</time>
      </trkpt>
      <trkpt lat="48.35532" lon="2.77025">
        <ele>81.199996948242</ele>
        <time>2022-10-13T12:54:16Z</time>
      </trkpt>
      <trkpt lat="48.35533" lon="2.77023">
        <ele>81</ele>
        <time>2022-10-13T12:54:20Z</time>
      </trkpt>
      <trkpt lat="48.35535" lon="2.77021">
        <ele>81</ele>
        <time>2022-10-13T12:54:24Z</time>
      </trkpt>
      <trkpt lat="48.35536" lon="2.77016">
        <ele>81</ele>
        <time>2022-10-13T12:54:28Z</time>
      </trkpt>
      <trkpt lat="48.35538" lon="2.77011">
        <ele>81</ele>
        <time>2022-10-13T12:54:32Z</time>
      </trkpt>
      <trkpt lat="48.3554" lon="2.77006">
        <ele>80.800003051758</ele>
        <time>2022-10-13T12:54:36Z</time>
      </trkpt>
      <trkpt lat="48.35542" lon="2.77">
        <ele>80.800003051758</ele>
        <time>2022-10-13T12:54:40Z</time>
      </trkpt>
      <trkpt lat="48.35543" lon="2.76995">
        <ele>80.599998474121</ele>
        <time>2022-10-13T12:54:44Z</time>
      </trkpt>
      <trkpt lat="48.35547" lon="2.76992">
        <ele>80.400001525879</ele>
        <time>2022-10-13T12:54:48Z</time>
      </trkpt>
      <trkpt lat="48.35549" lon="2.76987">
        <ele>80.400001525879</ele>
        <time>2022-10-13T12:54:52Z</time>
      </trkpt>
      <trkpt lat="48.35551" lon="2.76982">
        <ele>80.199996948242</ele>
        <time>2022-10-13T12:54:56Z</time>
      </trkpt>
      <trkpt lat="48.35555" lon="2.76979">
        <ele>80.199996948242</ele>
        <time>2022-10-13T12:55:00Z</time>
      </trkpt>
      <trkpt lat="48.35557" lon="2.76975">
        <ele>80</ele>
        <time>2022-10-13T12:55:04Z</time>
      </trkpt>
      <trkpt lat="48.35559" lon="2.76969">
        <ele>80</ele>
        <time>2022-10-13T12:55:08Z</time>
      </trkpt>
      <trkpt lat="48.35562" lon="2.76967">
        <ele>80</ele>
        <time>2022-10-13T12:55:12Z</time>
      </trkpt>
      <trkpt lat="48.35566" lon="2.76963">
        <ele>80</ele>
        <time>2022-10-13T12:55:16Z</time>
      </trkpt>
      <trkpt lat="48.3557" lon="2.76961">
        <ele>80</ele>
        <time>2022-10-13T12:55:20Z</time>
      </trkpt>
      <trkpt lat="48.35573" lon="2.7696">
        <ele>79.800003051758</ele>
        <time>2022-10-13T12:55:24Z</time>
      </trkpt>
      <trkpt lat="48.35577" lon="2.76958">
        <ele>80</ele>
        <time>2022-10-13T12:55:28Z</time>
      </trkpt>
      <trkpt lat="48.35582" lon="2.76956">
        <ele>80</ele>
        <time>2022-10-13T12:55:32Z</time>
      </trkpt>
      <trkpt lat="48.35585" lon="2.76954">
        <ele>80</ele>
        <time>2022-10-13T12:55:36Z</time>
      </trkpt>
      <trkpt lat="48.35589" lon="2.76951">
        <ele>80</ele>
        <time>2022-10-13T12:55:40Z</time>
      </trkpt>
      <trkpt lat="48.35591" lon="2.76946">
        <ele>79.800003051758</ele>
        <time>2022-10-13T12:55:44Z</time>
      </trkpt>
      <trkpt lat="48.35594" lon="2.76941">
        <ele>79.800003051758</ele>
        <time>2022-10-13T12:55:48Z</time>
      </trkpt>
      <trkpt lat="48.35597" lon="2.76935">
        <ele>80</ele>
        <time>2022-10-13T12:55:52Z</time>
      </trkpt>
      <trkpt lat="48.356" lon="2.76932">
        <ele>80.199996948242</ele>
        <time>2022-10-13T12:55:56Z</time>
      </trkpt>
      <trkpt lat="48.35602" lon="2.76927">
        <ele>80.400001525879</ele>
        <time>2022-10-13T12:56:00Z</time>
      </trkpt>
      <trkpt lat="48.35605" lon="2.76921">
        <ele>80.199996948242</ele>
        <time>2022-10-13T12:56:04Z</time>
      </trkpt>
      <trkpt lat="48.35608" lon="2.76918">
        <ele>80.199996948242</ele>
        <time>2022-10-13T12:56:08Z</time>
      </trkpt>
      <trkpt lat="48.35611" lon="2.76915">
        <ele>80</ele>
        <time>2022-10-13T12:56:12Z</time>
      </trkpt>
      <trkpt lat="48.35614" lon="2.7691">
        <ele>80</ele>
        <time>2022-10-13T12:56:16Z</time>
      </trkpt>
      <trkpt lat="48.35617" lon="2.76907">
        <ele>80</ele>
        <time>2022-10-13T12:56:20Z</time>
      </trkpt>
      <trkpt lat="48.35621" lon="2.76901">
        <ele>80.199996948242</ele>
        <time>2022-10-13T12:56:24Z</time>
      </trkpt>
      <trkpt lat="48.35623" lon="2.76895">
        <ele>80.199996948242</ele>
        <time>2022-10-13T12:56:28Z</time>
      </trkpt>
      <trkpt lat="48.35627" lon="2.7689">
        <ele>80.199996948242</ele>
        <time>2022-10-13T12:56:32Z</time>
      </trkpt>
      <trkpt lat="48.3563" lon="2.76888">
        <ele>80.400001525879</ele>
        <time>2022-10-13T12:56:36Z</time>
      </trkpt>
      <trkpt lat="48.35634" lon="2.76886">
        <ele>80.400001525879</ele>
        <time>2022-10-13T12:56:40Z</time>
      </trkpt>
      <trkpt lat="48.35638" lon="2.76881">
        <ele>80.400001525879</ele>
        <time>2022-10-13T12:56:44Z</time>
      </trkpt>
      <trkpt lat="48.35641" lon="2.76877">
        <ele>80.400001525879</ele>
        <time>2022-10-13T12:56:48Z</time>
      </trkpt>
      <trkpt lat="48.35644" lon="2.76873">
        <ele>80.400001525879</ele>
        <time>2022-10-13T12:56:52Z</time>
      </trkpt>
      <trkpt lat="48.35646" lon="2.76867">
        <ele>80.199996948242</ele>
        <time>2022-10-13T12:56:56Z</time>
      </trkpt>
      <trkpt lat="48.35649" lon="2.76863">
        <ele>80.199996948242</ele>
        <time>2022-10-13T12:57:00Z</time>
      </trkpt>
      <trkpt lat="48.35652" lon="2.7686">
        <ele>80.199996948242</ele>
        <time>2022-10-13T12:57:04Z</time>
      </trkpt>
      <trkpt lat="48.35655" lon="2.76855">
        <ele>80</ele>
        <time>2022-10-13T12:57:08Z</time>
      </trkpt>
      <trkpt lat="48.35658" lon="2.76851">
        <ele>80</ele>
        <time>2022-10-13T12:57:12Z</time>
      </trkpt>
      <trkpt lat="48.35662" lon="2.76848">
        <ele>80</ele>
        <time>2022-10-13T12:57:16Z</time>
      </trkpt>
      <trkpt lat="48.35666" lon="2.76844">
        <ele>80</ele>
        <time>2022-10-13T12:57:20Z</time>
      </trkpt>
      <trkpt lat="48.3567" lon="2.7684">
        <ele>80</ele>
        <time>2022-10-13T12:57:24Z</time>
      </trkpt>
      <trkpt lat="48.35673" lon="2.76834">
        <ele>79.800003051758</ele>
        <time>2022-10-13T12:57:28Z</time>
      </trkpt>
      <trkpt lat="48.35676" lon="2.76829">
        <ele>79.800003051758</ele>
        <time>2022-10-13T12:57:32Z</time>
      </trkpt>
      <trkpt lat="48.35679" lon="2.76826">
        <ele>79.800003051758</ele>
        <time>2022-10-13T12:57:36Z</time>
      </trkpt>
      <trkpt lat="48.35683" lon="2.76823">
        <ele>79.800003051758</ele>
        <time>2022-10-13T12:57:40Z</time>
      </trkpt>
      <trkpt lat="48.35687" lon="2.76824">
        <ele>79.800003051758</ele>
        <time>2022-10-13T12:57:44Z</time>
      </trkpt>
      <trkpt lat="48.3569" lon="2.7682">
        <ele>79.800003051758</ele>
        <time>2022-10-13T12:57:48Z</time>
      </trkpt>
      <trkpt lat="48.35692" lon="2.76819">
        <ele>80</ele>
        <time>2022-10-13T12:57:52Z</time>
      </trkpt>
      <trkpt lat="48.35694" lon="2.76812">
        <ele>79.800003051758</ele>
        <time>2022-10-13T12:57:56Z</time>
      </trkpt>
      <trkpt lat="48.35695" lon="2.76808">
        <ele>79.800003051758</ele>
        <time>2022-10-13T12:58:00Z</time>
      </trkpt>
      <trkpt lat="48.357" lon="2.76804">
        <ele>80</ele>
        <time>2022-10-13T12:58:04Z</time>
      </trkpt>
      <trkpt lat="48.35704" lon="2.768">
        <ele>80.199996948242</ele>
        <time>2022-10-13T12:58:08Z</time>
      </trkpt>
      <trkpt lat="48.35707" lon="2.76794">
        <ele>80.400001525879</ele>
        <time>2022-10-13T12:58:12Z</time>
      </trkpt>
      <trkpt lat="48.35711" lon="2.7679">
        <ele>80.400001525879</ele>
        <time>2022-10-13T12:58:16Z</time>
      </trkpt>
      <trkpt lat="48.35715" lon="2.76787">
        <ele>80.400001525879</ele>
        <time>2022-10-13T12:58:20Z</time>
      </trkpt>
      <trkpt lat="48.35718" lon="2.76782">
        <ele>80.400001525879</ele>
        <time>2022-10-13T12:58:24Z</time>
      </trkpt>
      <trkpt lat="48.35722" lon="2.76779">
        <ele>80.400001525879</ele>
        <time>2022-10-13T12:58:28Z</time>
      </trkpt>
      <trkpt lat="48.35726" lon="2.76775">
        <ele>80.400001525879</ele>
        <time>2022-10-13T12:58:32Z</time>
      </trkpt>
      <trkpt lat="48.35729" lon="2.76771">
        <ele>80.400001525879</ele>
        <time>2022-10-13T12:58:36Z</time>
      </trkpt>
      <trkpt lat="48.35731" lon="2.76767">
        <ele>80.199996948242</ele>
        <time>2022-10-13T12:58:40Z</time>
      </trkpt>
      <trkpt lat="48.35734" lon="2.76761">
        <ele>80.199996948242</ele>
        <time>2022-10-13T12:58:44Z</time>
      </trkpt>
      <trkpt lat="48.35736" lon="2.76755">
        <ele>80</ele>
        <time>2022-10-13T12:58:48Z</time>
      </trkpt>
      <trkpt lat="48.35739" lon="2.76751">
        <ele>80</ele>
        <time>2022-10-13T12:58:52Z</time>
      </trkpt>
      <trkpt lat="48.35741" lon="2.76747">
        <ele>80.199996948242</ele>
        <time>2022-10-13T12:58:56Z</time>
      </trkpt>
      <trkpt lat="48.35744" lon="2.76742">
        <ele>80.199996948242</ele>
        <time>2022-10-13T12:59:00Z</time>
      </trkpt>
      <trkpt lat="48.35747" lon="2.76737">
        <ele>80.400001525879</ele>
        <time>2022-10-13T12:59:04Z</time>
      </trkpt>
      <trkpt lat="48.35751" lon="2.76734">
        <ele>80.400001525879</ele>
        <time>2022-10-13T12:59:08Z</time>
      </trkpt>
      <trkpt lat="48.35754" lon="2.76731">
        <ele>80.599998474121</ele>
        <time>2022-10-13T12:59:12Z</time>
      </trkpt>
      <trkpt lat="48.35758" lon="2.76727">
        <ele>80.800003051758</ele>
        <time>2022-10-13T12:59:16Z</time>
      </trkpt>
      <trkpt lat="48.35762" lon="2.76723">
        <ele>80.800003051758</ele>
        <time>2022-10-13T12:59:20Z</time>
      </trkpt>
      <trkpt lat="48.35765" lon="2.7672">
        <ele>80.599998474121</ele>
        <time>2022-10-13T12:59:24Z</time>
      </trkpt>
      <trkpt lat="48.35769" lon="2.76717">
        <ele>80.599998474121</ele>
        <time>2022-10-13T12:59:28Z</time>
      </trkpt>
      <trkpt lat="48.35773" lon="2.76713">
        <ele>80.599998474121</ele>
        <time>2022-10-13T12:59:32Z</time>
      </trkpt>
      <trkpt lat="48.35776" lon="2.76709">
        <ele>80.599998474121</ele>
        <time>2022-10-13T12:59:36Z</time>
      </trkpt>
      <trkpt lat="48.3578" lon="2.76704">
        <ele>80.599998474121</ele>
        <time>2022-10-13T12:59:40Z</time>
      </trkpt>
      <trkpt lat="48.35783" lon="2.76701">
        <ele>80.599998474121</ele>
        <time>2022-10-13T12:59:44Z</time>
      </trkpt>
      <trkpt lat="48.35786" lon="2.76696">
        <ele>80.800003051758</ele>
        <time>2022-10-13T12:59:48Z</time>
      </trkpt>
      <trkpt lat="48.35789" lon="2.76688">
        <ele>80.800003051758</ele>
        <time>2022-10-13T12:59:52Z</time>
      </trkpt>
      <trkpt lat="48.35791" lon="2.76685">
        <ele>80.800003051758</ele>
        <time>2022-10-13T12:59:56Z</time>
      </trkpt>
      <trkpt lat="48.35794" lon="2.76681">
        <ele>80.800003051758</ele>
        <time>2022-10-13T13:00:00Z</time>
      </trkpt>
      <trkpt lat="48.35797" lon="2.76677">
        <ele>81</ele>
        <time>2022-10-13T13:00:04Z</time>
      </trkpt>
      <trkpt lat="48.358" lon="2.76671">
        <ele>81</ele>
        <time>2022-10-13T13:00:08Z</time>
      </trkpt>
      <trkpt lat="48.35803" lon="2.76666">
        <ele>80.800003051758</ele>
        <time>2022-10-13T13:00:12Z</time>
      </trkpt>
      <trkpt lat="48.35806" lon="2.76661">
        <ele>80.800003051758</ele>
        <time>2022-10-13T13:00:16Z</time>
      </trkpt>
      <trkpt lat="48.35809" lon="2.76656">
        <ele>81</ele>
        <time>2022-10-13T13:00:20Z</time>
      </trkpt>
      <trkpt lat="48.35813" lon="2.76653">
        <ele>81</ele>
        <time>2022-10-13T13:00:24Z</time>
      </trkpt>
      <trkpt lat="48.35816" lon="2.7665">
        <ele>81</ele>
        <time>2022-10-13T13:00:28Z</time>
      </trkpt>
      <trkpt lat="48.3582" lon="2.76645">
        <ele>80.800003051758</ele>
        <time>2022-10-13T13:00:32Z</time>
      </trkpt>
      <trkpt lat="48.35823" lon="2.7664">
        <ele>80.800003051758</ele>
        <time>2022-10-13T13:00:36Z</time>
      </trkpt>
      <trkpt lat="48.35827" lon="2.76636">
        <ele>80.800003051758</ele>
        <time>2022-10-13T13:00:40Z</time>
      </trkpt>
      <trkpt lat="48.35831" lon="2.76633">
        <ele>80.800003051758</ele>
        <time>2022-10-13T13:00:44Z</time>
      </trkpt>
      <trkpt lat="48.35834" lon="2.76629">
        <ele>80.800003051758</ele>
        <time>2022-10-13T13:00:48Z</time>
      </trkpt>
      <trkpt lat="48.3584" lon="2.76625">
        <ele>81</ele>
        <time>2022-10-13T13:00:52Z</time>
      </trkpt>
      <trkpt lat="48.35843" lon="2.76621">
        <ele>81.199996948242</ele>
        <time>2022-10-13T13:00:56Z</time>
      </trkpt>
      <trkpt lat="48.35846" lon="2.76618">
        <ele>81.199996948242</ele>
        <time>2022-10-13T13:01:00Z</time>
      </trkpt>
      <trkpt lat="48.35849" lon="2.76617">
        <ele>81.400001525879</ele>
        <time>2022-10-13T13:01:04Z</time>
      </trkpt>
      <trkpt lat="48.35851" lon="2.76618">
        <ele>81.199996948242</ele>
        <time>2022-10-13T13:01:08Z</time>
      </trkpt>
      <trkpt lat="48.35853" lon="2.7662">
        <ele>81</ele>
        <time>2022-10-13T13:01:12Z</time>
      </trkpt>
      <trkpt lat="48.35853" lon="2.76621">
        <ele>81</ele>
        <time>2022-10-13T13:01:16Z</time>
      </trkpt>
      <trkpt lat="48.35853" lon="2.76624">
        <ele>80.800003051758</ele>
        <time>2022-10-13T13:01:20Z</time>
      </trkpt>
      <trkpt lat="48.35853" lon="2.76628">
        <ele>80.800003051758</ele>
        <time>2022-10-13T13:01:24Z</time>
      </trkpt>
      <trkpt lat="48.35854" lon="2.7663">
        <ele>80.800003051758</ele>
        <time>2022-10-13T13:01:28Z</time>
      </trkpt>
      <trkpt lat="48.35854" lon="2.76632">
        <ele>80.800003051758</ele>
        <time>2022-10-13T13:01:32Z</time>
      </trkpt>
      <trkpt lat="48.35854" lon="2.76634">
        <ele>80.800003051758</ele>
        <time>2022-10-13T13:01:36Z</time>
      </trkpt>
      <trkpt lat="48.35854" lon="2.76636">
        <ele>80.800003051758</ele>
        <time>2022-10-13T13:01:40Z</time>
      </trkpt>
      <trkpt lat="48.35853" lon="2.76639">
        <ele>81</ele>
        <time>2022-10-13T13:01:44Z</time>
      </trkpt>
      <trkpt lat="48.35853" lon="2.76644">
        <ele>81</ele>
        <time>2022-10-13T13:01:48Z</time>
      </trkpt>
      <trkpt lat="48.35853" lon="2.76648">
        <ele>81</ele>
        <time>2022-10-13T13:01:52Z</time>
      </trkpt>
      <trkpt lat="48.35853" lon="2.76653">
        <ele>81.199996948242</ele>
        <time>2022-10-13T13:01:56Z</time>
      </trkpt>
      <trkpt lat="48.35853" lon="2.76658">
        <ele>81.199996948242</ele>
        <time>2022-10-13T13:02:00Z</time>
      </trkpt>
      <trkpt lat="48.35853" lon="2.76662">
        <ele>81.199996948242</ele>
        <time>2022-10-13T13:02:04Z</time>
      </trkpt>
      <trkpt lat="48.35853" lon="2.76667">
        <ele>81</ele>
        <time>2022-10-13T13:02:08Z</time>
      </trkpt>
      <trkpt lat="48.35854" lon="2.76674">
        <ele>81</ele>
        <time>2022-10-13T13:02:12Z</time>
      </trkpt>
      <trkpt lat="48.35854" lon="2.76678">
        <ele>80.800003051758</ele>
        <time>2022-10-13T13:02:16Z</time>
      </trkpt>
      <trkpt lat="48.35853" lon="2.76681">
        <ele>80.800003051758</ele>
        <time>2022-10-13T13:02:20Z</time>
      </trkpt>
      <trkpt lat="48.35852" lon="2.76685">
        <ele>80.800003051758</ele>
        <time>2022-10-13T13:02:24Z</time>
      </trkpt>
      <trkpt lat="48.35852" lon="2.7669">
        <ele>80.800003051758</ele>
        <time>2022-10-13T13:02:28Z</time>
      </trkpt>
      <trkpt lat="48.35852" lon="2.76701">
        <ele>80.800003051758</ele>
        <time>2022-10-13T13:02:32Z</time>
      </trkpt>
      <trkpt lat="48.35851" lon="2.76706">
        <ele>80.800003051758</ele>
        <time>2022-10-13T13:02:36Z</time>
      </trkpt>
      <trkpt lat="48.35852" lon="2.76711">
        <ele>80.800003051758</ele>
        <time>2022-10-13T13:02:40Z</time>
      </trkpt>
      <trkpt lat="48.35851" lon="2.76719">
        <ele>80.800003051758</ele>
        <time>2022-10-13T13:02:44Z</time>
      </trkpt>
      <trkpt lat="48.35849" lon="2.76725">
        <ele>80.800003051758</ele>
        <time>2022-10-13T13:02:48Z</time>
      </trkpt>
      <trkpt lat="48.35847" lon="2.76733">
        <ele>80.800003051758</ele>
        <time>2022-10-13T13:02:52Z</time>
      </trkpt>
      <trkpt lat="48.35846" lon="2.76739">
        <ele>81</ele>
        <time>2022-10-13T13:02:56Z</time>
      </trkpt>
      <trkpt lat="48.35844" lon="2.7675">
        <ele>81</ele>
        <time>2022-10-13T13:03:00Z</time>
      </trkpt>
      <trkpt lat="48.35841" lon="2.76758">
        <ele>81</ele>
        <time>2022-10-13T13:03:04Z</time>
      </trkpt>
      <trkpt lat="48.35842" lon="2.76769">
        <ele>81</ele>
        <time>2022-10-13T13:03:08Z</time>
      </trkpt>
      <trkpt lat="48.3584" lon="2.76781">
        <ele>81</ele>
        <time>2022-10-13T13:03:12Z</time>
      </trkpt>
      <trkpt lat="48.35839" lon="2.76785">
        <ele>81</ele>
        <time>2022-10-13T13:03:16Z</time>
      </trkpt>
      <trkpt lat="48.35837" lon="2.76794">
        <ele>81</ele>
        <time>2022-10-13T13:03:20Z</time>
      </trkpt>
      <trkpt lat="48.35837" lon="2.76797">
        <ele>81</ele>
        <time>2022-10-13T13:03:24Z</time>
      </trkpt>
      <trkpt lat="48.35836" lon="2.76802">
        <ele>81</ele>
        <time>2022-10-13T13:03:28Z</time>
      </trkpt>
      <trkpt lat="48.35835" lon="2.76806">
        <ele>81</ele>
        <time>2022-10-13T13:03:32Z</time>
      </trkpt>
      <trkpt lat="48.35834" lon="2.7681">
        <ele>81</ele>
        <time>2022-10-13T13:03:36Z</time>
      </trkpt>
      <trkpt lat="48.35832" lon="2.76817">
        <ele>81</ele>
        <time>2022-10-13T13:03:40Z</time>
      </trkpt>
      <trkpt lat="48.35831" lon="2.76821">
        <ele>80.800003051758</ele>
        <time>2022-10-13T13:03:44Z</time>
      </trkpt>
      <trkpt lat="48.35831" lon="2.76824">
        <ele>80.800003051758</ele>
        <time>2022-10-13T13:03:48Z</time>
      </trkpt>
      <trkpt lat="48.35831" lon="2.76829">
        <ele>80.800003051758</ele>
        <time>2022-10-13T13:03:52Z</time>
      </trkpt>
      <trkpt lat="48.3583" lon="2.76836">
        <ele>80.800003051758</ele>
        <time>2022-10-13T13:03:56Z</time>
      </trkpt>
      <trkpt lat="48.35829" lon="2.76841">
        <ele>80.599998474121</ele>
        <time>2022-10-13T13:04:00Z</time>
      </trkpt>
      <trkpt lat="48.35829" lon="2.76846">
        <ele>80.599998474121</ele>
        <time>2022-10-13T13:04:04Z</time>
      </trkpt>
      <trkpt lat="48.35829" lon="2.76851">
        <ele>80.599998474121</ele>
        <time>2022-10-13T13:04:08Z</time>
      </trkpt>
      <trkpt lat="48.35829" lon="2.76856">
        <ele>80.599998474121</ele>
        <time>2022-10-13T13:04:12Z</time>
      </trkpt>
      <trkpt lat="48.35829" lon="2.76861">
        <ele>80.400001525879</ele>
        <time>2022-10-13T13:04:16Z</time>
      </trkpt>
      <trkpt lat="48.35829" lon="2.76866">
        <ele>80.400001525879</ele>
        <time>2022-10-13T13:04:20Z</time>
      </trkpt>
      <trkpt lat="48.35828" lon="2.76871">
        <ele>80.599998474121</ele>
        <time>2022-10-13T13:04:24Z</time>
      </trkpt>
      <trkpt lat="48.35826" lon="2.76877">
        <ele>80.599998474121</ele>
        <time>2022-10-13T13:04:28Z</time>
      </trkpt>
      <trkpt lat="48.35826" lon="2.76884">
        <ele>80.599998474121</ele>
        <time>2022-10-13T13:04:32Z</time>
      </trkpt>
      <trkpt lat="48.35827" lon="2.7689">
        <ele>80.400001525879</ele>
        <time>2022-10-13T13:04:36Z</time>
      </trkpt>
      <trkpt lat="48.35827" lon="2.76895">
        <ele>80.599998474121</ele>
        <time>2022-10-13T13:04:40Z</time>
      </trkpt>
      <trkpt lat="48.35828" lon="2.76903">
        <ele>80.599998474121</ele>
        <time>2022-10-13T13:04:44Z</time>
      </trkpt>
      <trkpt lat="48.35827" lon="2.76908">
        <ele>80.800003051758</ele>
        <time>2022-10-13T13:04:48Z</time>
      </trkpt>
      <trkpt lat="48.35826" lon="2.76914">
        <ele>80.800003051758</ele>
        <time>2022-10-13T13:04:52Z</time>
      </trkpt>
      <trkpt lat="48.35825" lon="2.76919">
        <ele>80.800003051758</ele>
        <time>2022-10-13T13:04:56Z</time>
      </trkpt>
      <trkpt lat="48.35825" lon="2.76925">
        <ele>80.800003051758</ele>
        <time>2022-10-13T13:05:00Z</time>
      </trkpt>
      <trkpt lat="48.35826" lon="2.76931">
        <ele>81</ele>
        <time>2022-10-13T13:05:04Z</time>
      </trkpt>
      <trkpt lat="48.35826" lon="2.76937">
        <ele>81</ele>
        <time>2022-10-13T13:05:08Z</time>
      </trkpt>
      <trkpt lat="48.35825" lon="2.76947">
        <ele>81</ele>
        <time>2022-10-13T13:05:12Z</time>
      </trkpt>
      <trkpt lat="48.35824" lon="2.76956">
        <ele>81.199996948242</ele>
        <time>2022-10-13T13:05:16Z</time>
      </trkpt>
      <trkpt lat="48.35825" lon="2.7697">
        <ele>81.199996948242</ele>
        <time>2022-10-13T13:05:20Z</time>
      </trkpt>
      <trkpt lat="48.35822" lon="2.76976">
        <ele>81.199996948242</ele>
        <time>2022-10-13T13:05:24Z</time>
      </trkpt>
      <trkpt lat="48.35822" lon="2.76982">
        <ele>81</ele>
        <time>2022-10-13T13:05:28Z</time>
      </trkpt>
      <trkpt lat="48.35821" lon="2.76989">
        <ele>81</ele>
        <time>2022-10-13T13:05:32Z</time>
      </trkpt>
      <trkpt lat="48.35819" lon="2.77">
        <ele>81</ele>
        <time>2022-10-13T13:05:36Z</time>
      </trkpt>
      <trkpt lat="48.35818" lon="2.77005">
        <ele>81</ele>
        <time>2022-10-13T13:05:40Z</time>
      </trkpt>
      <trkpt lat="48.35816" lon="2.7701">
        <ele>81.199996948242</ele>
        <time>2022-10-13T13:05:44Z</time>
      </trkpt>
      <trkpt lat="48.35817" lon="2.77019">
        <ele>81.199996948242</ele>
        <time>2022-10-13T13:05:48Z</time>
      </trkpt>
      <trkpt lat="48.35814" lon="2.7703">
        <ele>81</ele>
        <time>2022-10-13T13:05:52Z</time>
      </trkpt>
      <trkpt lat="48.35811" lon="2.7704">
        <ele>80.800003051758</ele>
        <time>2022-10-13T13:05:56Z</time>
      </trkpt>
      <trkpt lat="48.35807" lon="2.77051">
        <ele>80.800003051758</ele>
        <time>2022-10-13T13:06:00Z</time>
      </trkpt>
      <trkpt lat="48.35806" lon="2.77056">
        <ele>80.599998474121</ele>
        <time>2022-10-13T13:06:04Z</time>
      </trkpt>
      <trkpt lat="48.35804" lon="2.77061">
        <ele>80.599998474121</ele>
        <time>2022-10-13T13:06:08Z</time>
      </trkpt>
      <trkpt lat="48.35803" lon="2.77065">
        <ele>80.800003051758</ele>
        <time>2022-10-13T13:06:12Z</time>
      </trkpt>
      <trkpt lat="48.35802" lon="2.77068">
        <ele>80.800003051758</ele>
        <time>2022-10-13T13:06:16Z</time>
      </trkpt>
      <trkpt lat="48.35795" lon="2.77085">
        <ele>80.599998474121</ele>
        <time>2022-10-13T13:06:20Z</time>
      </trkpt>
      <trkpt lat="48.35791" lon="2.77095">
        <ele>81</ele>
        <time>2022-10-13T13:06:24Z</time>
      </trkpt>
      <trkpt lat="48.35789" lon="2.771">
        <ele>80.800003051758</ele>
        <time>2022-10-13T13:06:28Z</time>
      </trkpt>
      <trkpt lat="48.35789" lon="2.77103">
        <ele>80.599998474121</ele>
        <time>2022-10-13T13:06:32Z</time>
      </trkpt>
      <trkpt lat="48.35789" lon="2.77107">
        <ele>80.599998474121</ele>
        <time>2022-10-13T13:06:36Z</time>
      </trkpt>
      <trkpt lat="48.35789" lon="2.7711">
        <ele>80.599998474121</ele>
        <time>2022-10-13T13:06:40Z</time>
      </trkpt>
      <trkpt lat="48.35789" lon="2.77112">
        <ele>80.599998474121</ele>
        <time>2022-10-13T13:06:44Z</time>
      </trkpt>
      <trkpt lat="48.3579" lon="2.77115">
        <ele>80.599998474121</ele>
        <time>2022-10-13T13:06:48Z</time>
      </trkpt>
      <trkpt lat="48.3579" lon="2.77118">
        <ele>80.599998474121</ele>
        <time>2022-10-13T13:06:52Z</time>
      </trkpt>
      <trkpt lat="48.35789" lon="2.77129">
        <ele>80.599998474121</ele>
        <time>2022-10-13T13:06:56Z</time>
      </trkpt>
      <trkpt lat="48.35787" lon="2.77139">
        <ele>80.599998474121</ele>
        <time>2022-10-13T13:07:00Z</time>
      </trkpt>
      <trkpt lat="48.35781" lon="2.77158">
        <ele>80.599998474121</ele>
        <time>2022-10-13T13:07:04Z</time>
      </trkpt>
      <trkpt lat="48.35775" lon="2.77172">
        <ele>80.599998474121</ele>
        <time>2022-10-13T13:07:08Z</time>
      </trkpt>
      <trkpt lat="48.35775" lon="2.77177">
        <ele>80</ele>
        <time>2022-10-13T13:07:12Z</time>
      </trkpt>
      <trkpt lat="48.35775" lon="2.77181">
        <ele>79.599998474121</ele>
        <time>2022-10-13T13:07:16Z</time>
      </trkpt>
      <trkpt lat="48.35775" lon="2.77183">
        <ele>79.599998474121</ele>
        <time>2022-10-13T13:07:20Z</time>
      </trkpt>
      <trkpt lat="48.35775" lon="2.77184">
        <ele>79.599998474121</ele>
        <time>2022-10-13T13:07:24Z</time>
      </trkpt>
      <trkpt lat="48.35775" lon="2.77187">
        <ele>79.599998474121</ele>
        <time>2022-10-13T13:07:28Z</time>
      </trkpt>
      <trkpt lat="48.35775" lon="2.7719">
        <ele>79.599998474121</ele>
        <time>2022-10-13T13:07:32Z</time>
      </trkpt>
      <trkpt lat="48.35775" lon="2.77194">
        <ele>79.599998474121</ele>
        <time>2022-10-13T13:07:36Z</time>
      </trkpt>
      <trkpt lat="48.35776" lon="2.77198">
        <ele>79.400001525879</ele>
        <time>2022-10-13T13:07:40Z</time>
      </trkpt>
      <trkpt lat="48.35776" lon="2.77202">
        <ele>79.400001525879</ele>
        <time>2022-10-13T13:07:44Z</time>
      </trkpt>
      <trkpt lat="48.35776" lon="2.77205">
        <ele>79.400001525879</ele>
        <time>2022-10-13T13:07:48Z</time>
      </trkpt>
      <trkpt lat="48.35776" lon="2.7721">
        <ele>79.400001525879</ele>
        <time>2022-10-13T13:07:52Z</time>
      </trkpt>
      <trkpt lat="48.35776" lon="2.77218">
        <ele>79.400001525879</ele>
        <time>2022-10-13T13:07:56Z</time>
      </trkpt>
      <trkpt lat="48.35774" lon="2.77224">
        <ele>79.400001525879</ele>
        <time>2022-10-13T13:08:00Z</time>
      </trkpt>
      <trkpt lat="48.35772" lon="2.77232">
        <ele>79.599998474121</ele>
        <time>2022-10-13T13:08:04Z</time>
      </trkpt>
      <trkpt lat="48.35772" lon="2.77236">
        <ele>79.599998474121</ele>
        <time>2022-10-13T13:08:08Z</time>
      </trkpt>
      <trkpt lat="48.35772" lon="2.7724">
        <ele>79.400001525879</ele>
        <time>2022-10-13T13:08:12Z</time>
      </trkpt>
      <trkpt lat="48.35771" lon="2.77244">
        <ele>79.599998474121</ele>
        <time>2022-10-13T13:08:16Z</time>
      </trkpt>
      <trkpt lat="48.35771" lon="2.7725">
        <ele>79.400001525879</ele>
        <time>2022-10-13T13:08:20Z</time>
      </trkpt>
      <trkpt lat="48.35769" lon="2.77257">
        <ele>79.400001525879</ele>
        <time>2022-10-13T13:08:24Z</time>
      </trkpt>
      <trkpt lat="48.35771" lon="2.77259">
        <ele>79.199996948242</ele>
        <time>2022-10-13T13:08:28Z</time>
      </trkpt>
      <trkpt lat="48.35771" lon="2.77263">
        <ele>79.199996948242</ele>
        <time>2022-10-13T13:08:32Z</time>
      </trkpt>
      <trkpt lat="48.35772" lon="2.77269">
        <ele>79</ele>
        <time>2022-10-13T13:08:36Z</time>
      </trkpt>
      <trkpt lat="48.35773" lon="2.77279">
        <ele>79</ele>
        <time>2022-10-13T13:08:40Z</time>
      </trkpt>
      <trkpt lat="48.35773" lon="2.77285">
        <ele>79.199996948242</ele>
        <time>2022-10-13T13:08:44Z</time>
      </trkpt>
      <trkpt lat="48.35772" lon="2.77294">
        <ele>79.199996948242</ele>
        <time>2022-10-13T13:08:48Z</time>
      </trkpt>
      <trkpt lat="48.35771" lon="2.77297">
        <ele>79.199996948242</ele>
        <time>2022-10-13T13:08:52Z</time>
      </trkpt>
      <trkpt lat="48.35771" lon="2.77304">
        <ele>79.199996948242</ele>
        <time>2022-10-13T13:08:56Z</time>
      </trkpt>
      <trkpt lat="48.3577" lon="2.77309">
        <ele>79.400001525879</ele>
        <time>2022-10-13T13:09:00Z</time>
      </trkpt>
      <trkpt lat="48.35769" lon="2.77314">
        <ele>79.599998474121</ele>
        <time>2022-10-13T13:09:04Z</time>
      </trkpt>
      <trkpt lat="48.35768" lon="2.77318">
        <ele>79.599998474121</ele>
        <time>2022-10-13T13:09:08Z</time>
      </trkpt>
      <trkpt lat="48.35765" lon="2.77329">
        <ele>79.599998474121</ele>
        <time>2022-10-13T13:09:12Z</time>
      </trkpt>
      <trkpt lat="48.35764" lon="2.7734">
        <ele>79.599998474121</ele>
        <time>2022-10-13T13:09:16Z</time>
      </trkpt>
      <trkpt lat="48.35763" lon="2.77345">
        <ele>79.599998474121</ele>
        <time>2022-10-13T13:09:20Z</time>
      </trkpt>
      <trkpt lat="48.35761" lon="2.7735">
        <ele>79.599998474121</ele>
        <time>2022-10-13T13:09:24Z</time>
      </trkpt>
      <trkpt lat="48.3576" lon="2.77355">
        <ele>79.599998474121</ele>
        <time>2022-10-13T13:09:28Z</time>
      </trkpt>
      <trkpt lat="48.3576" lon="2.7736">
        <ele>79.599998474121</ele>
        <time>2022-10-13T13:09:32Z</time>
      </trkpt>
      <trkpt lat="48.35756" lon="2.77375">
        <ele>79.400001525879</ele>
        <time>2022-10-13T13:09:36Z</time>
      </trkpt>
      <trkpt lat="48.35754" lon="2.77384">
        <ele>79.400001525879</ele>
        <time>2022-10-13T13:09:40Z</time>
      </trkpt>
      <trkpt lat="48.35755" lon="2.77391">
        <ele>79.400001525879</ele>
        <time>2022-10-13T13:09:44Z</time>
      </trkpt>
      <trkpt lat="48.35754" lon="2.77396">
        <ele>79.400001525879</ele>
        <time>2022-10-13T13:09:48Z</time>
      </trkpt>
      <trkpt lat="48.35752" lon="2.77404">
        <ele>79.400001525879</ele>
        <time>2022-10-13T13:09:52Z</time>
      </trkpt>
      <trkpt lat="48.3575" lon="2.77408">
        <ele>79.400001525879</ele>
        <time>2022-10-13T13:09:56Z</time>
      </trkpt>
      <trkpt lat="48.35751" lon="2.77416">
        <ele>79.400001525879</ele>
        <time>2022-10-13T13:10:00Z</time>
      </trkpt>
      <trkpt lat="48.3575" lon="2.77422">
        <ele>79.400001525879</ele>
        <time>2022-10-13T13:10:04Z</time>
      </trkpt>
      <trkpt lat="48.35749" lon="2.77427">
        <ele>79.400001525879</ele>
        <time>2022-10-13T13:10:08Z</time>
      </trkpt>
      <trkpt lat="48.35748" lon="2.77431">
        <ele>79.400001525879</ele>
        <time>2022-10-13T13:10:12Z</time>
      </trkpt>
      <trkpt lat="48.35748" lon="2.77435">
        <ele>79.400001525879</ele>
        <time>2022-10-13T13:10:16Z</time>
      </trkpt>
      <trkpt lat="48.35747" lon="2.7744">
        <ele>79.400001525879</ele>
        <time>2022-10-13T13:10:20Z</time>
      </trkpt>
      <trkpt lat="48.35746" lon="2.7745">
        <ele>79.599998474121</ele>
        <time>2022-10-13T13:10:24Z</time>
      </trkpt>
      <trkpt lat="48.35744" lon="2.77455">
        <ele>80</ele>
        <time>2022-10-13T13:10:28Z</time>
      </trkpt>
      <trkpt lat="48.35743" lon="2.7746">
        <ele>80</ele>
        <time>2022-10-13T13:10:32Z</time>
      </trkpt>
      <trkpt lat="48.35741" lon="2.77465">
        <ele>79.800003051758</ele>
        <time>2022-10-13T13:10:36Z</time>
      </trkpt>
      <trkpt lat="48.35739" lon="2.77482">
        <ele>80</ele>
        <time>2022-10-13T13:10:40Z</time>
      </trkpt>
      <trkpt lat="48.35737" lon="2.77491">
        <ele>80</ele>
        <time>2022-10-13T13:10:44Z</time>
      </trkpt>
      <trkpt lat="48.35734" lon="2.77499">
        <ele>80</ele>
        <time>2022-10-13T13:10:48Z</time>
      </trkpt>
      <trkpt lat="48.35732" lon="2.77507">
        <ele>80.199996948242</ele>
        <time>2022-10-13T13:10:52Z</time>
      </trkpt>
      <trkpt lat="48.35731" lon="2.77511">
        <ele>80.199996948242</ele>
        <time>2022-10-13T13:10:56Z</time>
      </trkpt>
      <trkpt lat="48.35732" lon="2.77514">
        <ele>80.400001525879</ele>
        <time>2022-10-13T13:11:00Z</time>
      </trkpt>
      <trkpt lat="48.3573" lon="2.77527">
        <ele>80.199996948242</ele>
        <time>2022-10-13T13:11:04Z</time>
      </trkpt>
      <trkpt lat="48.35732" lon="2.7753">
        <ele>80.199996948242</ele>
        <time>2022-10-13T13:11:08Z</time>
      </trkpt>
      <trkpt lat="48.35735" lon="2.77535">
        <ele>80.199996948242</ele>
        <time>2022-10-13T13:11:12Z</time>
      </trkpt>
      <trkpt lat="48.35738" lon="2.77536">
        <ele>80.199996948242</ele>
        <time>2022-10-13T13:11:16Z</time>
      </trkpt>
      <trkpt lat="48.35752" lon="2.77539">
        <ele>80.400001525879</ele>
        <time>2022-10-13T13:11:20Z</time>
      </trkpt>
      <trkpt lat="48.35753" lon="2.77541">
        <ele>80.199996948242</ele>
        <time>2022-10-13T13:11:24Z</time>
      </trkpt>
      <trkpt lat="48.35754" lon="2.77541">
        <ele>79.800003051758</ele>
        <time>2022-10-13T13:11:28Z</time>
      </trkpt>
      <trkpt lat="48.35757" lon="2.77541">
        <ele>79.800003051758</ele>
        <time>2022-10-13T13:11:32Z</time>
      </trkpt>
      <trkpt lat="48.35761" lon="2.7754">
        <ele>79.800003051758</ele>
        <time>2022-10-13T13:11:36Z</time>
      </trkpt>
      <trkpt lat="48.35766" lon="2.7754">
        <ele>79.800003051758</ele>
        <time>2022-10-13T13:11:40Z</time>
      </trkpt>
      <trkpt lat="48.3577" lon="2.7754">
        <ele>79.800003051758</ele>
        <time>2022-10-13T13:11:44Z</time>
      </trkpt>
      <trkpt lat="48.35772" lon="2.7754">
        <ele>79.800003051758</ele>
        <time>2022-10-13T13:11:48Z</time>
      </trkpt>
      <trkpt lat="48.35775" lon="2.77541">
        <ele>79.800003051758</ele>
        <time>2022-10-13T13:11:52Z</time>
      </trkpt>
      <trkpt lat="48.35781" lon="2.77541">
        <ele>79.800003051758</ele>
        <time>2022-10-13T13:11:56Z</time>
      </trkpt>
      <trkpt lat="48.35784" lon="2.77541">
        <ele>79.800003051758</ele>
        <time>2022-10-13T13:12:00Z</time>
      </trkpt>
      <trkpt lat="48.35786" lon="2.77541">
        <ele>79.800003051758</ele>
        <time>2022-10-13T13:12:04Z</time>
      </trkpt>
      <trkpt lat="48.35791" lon="2.77541">
        <ele>79.800003051758</ele>
        <time>2022-10-13T13:12:08Z</time>
      </trkpt>
      <trkpt lat="48.35794" lon="2.77541">
        <ele>79.800003051758</ele>
        <time>2022-10-13T13:12:12Z</time>
      </trkpt>
      <trkpt lat="48.35798" lon="2.77542">
        <ele>79.800003051758</ele>
        <time>2022-10-13T13:12:16Z</time>
      </trkpt>
      <trkpt lat="48.35806" lon="2.77542">
        <ele>79.800003051758</ele>
        <time>2022-10-13T13:12:20Z</time>
      </trkpt>
      <trkpt lat="48.3581" lon="2.77543">
        <ele>79.800003051758</ele>
        <time>2022-10-13T13:12:24Z</time>
      </trkpt>
      <trkpt lat="48.35813" lon="2.77543">
        <ele>79.800003051758</ele>
        <time>2022-10-13T13:12:28Z</time>
      </trkpt>
      <trkpt lat="48.35815" lon="2.77544">
        <ele>79.800003051758</ele>
        <time>2022-10-13T13:12:32Z</time>
      </trkpt>
      <trkpt lat="48.35816" lon="2.77544">
        <ele>79.800003051758</ele>
        <time>2022-10-13T13:12:36Z</time>
      </trkpt>
      <trkpt lat="48.35819" lon="2.77545">
        <ele>79.800003051758</ele>
        <time>2022-10-13T13:12:40Z</time>
      </trkpt>
      <trkpt lat="48.35824" lon="2.77547">
        <ele>79.800003051758</ele>
        <time>2022-10-13T13:12:44Z</time>
      </trkpt>
      <trkpt lat="48.35828" lon="2.77547">
        <ele>80.400001525879</ele>
        <time>2022-10-13T13:12:48Z</time>
      </trkpt>
      <trkpt lat="48.3583" lon="2.77547">
        <ele>80.599998474121</ele>
        <time>2022-10-13T13:12:52Z</time>
      </trkpt>
      <trkpt lat="48.35832" lon="2.77547">
        <ele>80.599998474121</ele>
        <time>2022-10-13T13:12:56Z</time>
      </trkpt>
      <trkpt lat="48.35834" lon="2.77546">
        <ele>80.599998474121</ele>
        <time>2022-10-13T13:13:00Z</time>
      </trkpt>
      <trkpt lat="48.35838" lon="2.77546">
        <ele>80.800003051758</ele>
        <time>2022-10-13T13:13:04Z</time>
      </trkpt>
      <trkpt lat="48.3584" lon="2.77546">
        <ele>80.800003051758</ele>
        <time>2022-10-13T13:13:08Z</time>
      </trkpt>
      <trkpt lat="48.35844" lon="2.77548">
        <ele>80.599998474121</ele>
        <time>2022-10-13T13:13:12Z</time>
      </trkpt>
      <trkpt lat="48.3585" lon="2.77549">
        <ele>80.599998474121</ele>
        <time>2022-10-13T13:13:16Z</time>
      </trkpt>
      <trkpt lat="48.35852" lon="2.77549">
        <ele>80.800003051758</ele>
        <time>2022-10-13T13:13:20Z</time>
      </trkpt>
      <trkpt lat="48.35855" lon="2.77549">
        <ele>80.800003051758</ele>
        <time>2022-10-13T13:13:24Z</time>
      </trkpt>
      <trkpt lat="48.35858" lon="2.7755">
        <ele>80.800003051758</ele>
        <time>2022-10-13T13:13:28Z</time>
      </trkpt>
      <trkpt lat="48.35862" lon="2.77552">
        <ele>80.800003051758</ele>
        <time>2022-10-13T13:13:32Z</time>
      </trkpt>
      <trkpt lat="48.35865" lon="2.77553">
        <ele>80.800003051758</ele>
        <time>2022-10-13T13:13:36Z</time>
      </trkpt>
      <trkpt lat="48.35869" lon="2.77554">
        <ele>80.800003051758</ele>
        <time>2022-10-13T13:13:40Z</time>
      </trkpt>
      <trkpt lat="48.35882" lon="2.77555">
        <ele>81</ele>
        <time>2022-10-13T13:13:44Z</time>
      </trkpt>
      <trkpt lat="48.35888" lon="2.77553">
        <ele>81</ele>
        <time>2022-10-13T13:13:48Z</time>
      </trkpt>
      <trkpt lat="48.35893" lon="2.77554">
        <ele>81</ele>
        <time>2022-10-13T13:13:52Z</time>
      </trkpt>
      <trkpt lat="48.35896" lon="2.77555">
        <ele>81</ele>
        <time>2022-10-13T13:13:56Z</time>
      </trkpt>
      <trkpt lat="48.35898" lon="2.77555">
        <ele>81</ele>
        <time>2022-10-13T13:14:00Z</time>
      </trkpt>
      <trkpt lat="48.359" lon="2.77555">
        <ele>81</ele>
        <time>2022-10-13T13:14:04Z</time>
      </trkpt>
      <trkpt lat="48.35903" lon="2.77555">
        <ele>81</ele>
        <time>2022-10-13T13:14:08Z</time>
      </trkpt>
      <trkpt lat="48.35907" lon="2.77555">
        <ele>81</ele>
        <time>2022-10-13T13:14:12Z</time>
      </trkpt>
      <trkpt lat="48.35916" lon="2.77558">
        <ele>81</ele>
        <time>2022-10-13T13:14:16Z</time>
      </trkpt>
      <trkpt lat="48.35922" lon="2.77557">
        <ele>81</ele>
        <time>2022-10-13T13:14:20Z</time>
      </trkpt>
      <trkpt lat="48.35929" lon="2.77559">
        <ele>81</ele>
        <time>2022-10-13T13:14:24Z</time>
      </trkpt>
      <trkpt lat="48.35935" lon="2.77557">
        <ele>81</ele>
        <time>2022-10-13T13:14:28Z</time>
      </trkpt>
      <trkpt lat="48.35939" lon="2.77558">
        <ele>81</ele>
        <time>2022-10-13T13:14:32Z</time>
      </trkpt>
      <trkpt lat="48.35943" lon="2.77558">
        <ele>81</ele>
        <time>2022-10-13T13:14:36Z</time>
      </trkpt>
      <trkpt lat="48.35947" lon="2.77559">
        <ele>81</ele>
        <time>2022-10-13T13:14:40Z</time>
      </trkpt>
      <trkpt lat="48.35951" lon="2.7756">
        <ele>81</ele>
        <time>2022-10-13T13:14:44Z</time>
      </trkpt>
      <trkpt lat="48.35956" lon="2.77558">
        <ele>81</ele>
        <time>2022-10-13T13:14:48Z</time>
      </trkpt>
      <trkpt lat="48.35958" lon="2.77558">
        <ele>81.199996948242</ele>
        <time>2022-10-13T13:14:52Z</time>
      </trkpt>
      <trkpt lat="48.35961" lon="2.77558">
        <ele>81.400001525879</ele>
        <time>2022-10-13T13:14:56Z</time>
      </trkpt>
      <trkpt lat="48.35964" lon="2.77559">
        <ele>81.400001525879</ele>
        <time>2022-10-13T13:15:00Z</time>
      </trkpt>
      <trkpt lat="48.35966" lon="2.77559">
        <ele>81.599998474121</ele>
        <time>2022-10-13T13:15:04Z</time>
      </trkpt>
      <trkpt lat="48.35968" lon="2.7756">
        <ele>81.599998474121</ele>
        <time>2022-10-13T13:15:08Z</time>
      </trkpt>
      <trkpt lat="48.3597" lon="2.7756">
        <ele>81.599998474121</ele>
        <time>2022-10-13T13:15:12Z</time>
      </trkpt>
      <trkpt lat="48.35985" lon="2.77563">
        <ele>81.800003051758</ele>
        <time>2022-10-13T13:15:16Z</time>
      </trkpt>
      <trkpt lat="48.3599" lon="2.77565">
        <ele>82</ele>
        <time>2022-10-13T13:15:20Z</time>
      </trkpt>
      <trkpt lat="48.35995" lon="2.77566">
        <ele>82</ele>
        <time>2022-10-13T13:15:24Z</time>
      </trkpt>
      <trkpt lat="48.36" lon="2.77565">
        <ele>82</ele>
        <time>2022-10-13T13:15:28Z</time>
      </trkpt>
      <trkpt lat="48.36003" lon="2.77565">
        <ele>81.800003051758</ele>
        <time>2022-10-13T13:15:32Z</time>
      </trkpt>
      <trkpt lat="48.36004" lon="2.77566">
        <ele>81.800003051758</ele>
        <time>2022-10-13T13:15:36Z</time>
      </trkpt>
      <trkpt lat="48.36005" lon="2.77566">
        <ele>81.599998474121</ele>
        <time>2022-10-13T13:15:40Z</time>
      </trkpt>
      <trkpt lat="48.36009" lon="2.77568">
        <ele>81.599998474121</ele>
        <time>2022-10-13T13:15:44Z</time>
      </trkpt>
      <trkpt lat="48.36012" lon="2.77571">
        <ele>81.599998474121</ele>
        <time>2022-10-13T13:15:48Z</time>
      </trkpt>
      <trkpt lat="48.36014" lon="2.77575">
        <ele>81.599998474121</ele>
        <time>2022-10-13T13:15:52Z</time>
      </trkpt>
      <trkpt lat="48.36014" lon="2.77579">
        <ele>81.599998474121</ele>
        <time>2022-10-13T13:15:56Z</time>
      </trkpt>
      <trkpt lat="48.36015" lon="2.77582">
        <ele>81.599998474121</ele>
        <time>2022-10-13T13:16:00Z</time>
      </trkpt>
      <trkpt lat="48.36015" lon="2.77586">
        <ele>81.599998474121</ele>
        <time>2022-10-13T13:16:04Z</time>
      </trkpt>
      <trkpt lat="48.36014" lon="2.77589">
        <ele>81.800003051758</ele>
        <time>2022-10-13T13:16:08Z</time>
      </trkpt>
      <trkpt lat="48.36014" lon="2.77596">
        <ele>81.800003051758</ele>
        <time>2022-10-13T13:16:12Z</time>
      </trkpt>
      <trkpt lat="48.36014" lon="2.77598">
        <ele>81.800003051758</ele>
        <time>2022-10-13T13:16:16Z</time>
      </trkpt>
      <trkpt lat="48.36013" lon="2.77605">
        <ele>81.800003051758</ele>
        <time>2022-10-13T13:16:20Z</time>
      </trkpt>
      <trkpt lat="48.36012" lon="2.77616">
        <ele>81.800003051758</ele>
        <time>2022-10-13T13:16:24Z</time>
      </trkpt>
      <trkpt lat="48.36011" lon="2.77623">
        <ele>81.800003051758</ele>
        <time>2022-10-13T13:16:28Z</time>
      </trkpt>
      <trkpt lat="48.36009" lon="2.77626">
        <ele>81.800003051758</ele>
        <time>2022-10-13T13:16:32Z</time>
      </trkpt>
      <trkpt lat="48.36009" lon="2.77627">
        <ele>81.800003051758</ele>
        <time>2022-10-13T13:16:36Z</time>
      </trkpt>
      <trkpt lat="48.36009" lon="2.77627">
        <ele>81.800003051758</ele>
        <time>2022-10-13T13:16:40Z</time>
      </trkpt>
      <trkpt lat="48.36008" lon="2.77628">
        <ele>81.800003051758</ele>
        <time>2022-10-13T13:16:44Z</time>
      </trkpt>
      <trkpt lat="48.36008" lon="2.77627">
        <ele>81.800003051758</ele>
        <time>2022-10-13T13:16:48Z</time>
      </trkpt>
      <trkpt lat="48.36008" lon="2.77627">
        <ele>81.800003051758</ele>
        <time>2022-10-13T13:16:52Z</time>
      </trkpt>
      <trkpt lat="48.36008" lon="2.77627">
        <ele>81.800003051758</ele>
        <time>2022-10-13T13:16:56Z</time>
      </trkpt>
      <trkpt lat="48.36009" lon="2.77626">
        <ele>81.800003051758</ele>
        <time>2022-10-13T13:17:00Z</time>
      </trkpt>
      <trkpt lat="48.36008" lon="2.77626">
        <ele>81.800003051758</ele>
        <time>2022-10-13T13:17:04Z</time>
      </trkpt>
      <trkpt lat="48.36003" lon="2.77628">
        <ele>81.800003051758</ele>
        <time>2022-10-13T13:17:08Z</time>
      </trkpt>
      <trkpt lat="48.35992" lon="2.77635">
        <ele>81.800003051758</ele>
        <time>2022-10-13T13:17:12Z</time>
      </trkpt>
      <trkpt lat="48.35985" lon="2.77637">
        <ele>81.800003051758</ele>
        <time>2022-10-13T13:17:16Z</time>
      </trkpt>
      <trkpt lat="48.3598" lon="2.77638">
        <ele>81.599998474121</ele>
        <time>2022-10-13T13:17:20Z</time>
      </trkpt>
      <trkpt lat="48.35976" lon="2.77638">
        <ele>81.599998474121</ele>
        <time>2022-10-13T13:17:24Z</time>
      </trkpt>
      <trkpt lat="48.35973" lon="2.77635">
        <ele>81.599998474121</ele>
        <time>2022-10-13T13:17:28Z</time>
      </trkpt>
      <trkpt lat="48.3597" lon="2.7763">
        <ele>81.599998474121</ele>
        <time>2022-10-13T13:17:32Z</time>
      </trkpt>
      <trkpt lat="48.35972" lon="2.77626">
        <ele>81.599998474121</ele>
        <time>2022-10-13T13:17:36Z</time>
      </trkpt>
      <trkpt lat="48.35972" lon="2.77623">
        <ele>81.400001525879</ele>
        <time>2022-10-13T13:17:40Z</time>
      </trkpt>
      <trkpt lat="48.35974" lon="2.77621">
        <ele>80.199996948242</ele>
        <time>2022-10-13T13:17:44Z</time>
      </trkpt>
      <trkpt lat="48.35975" lon="2.77618">
        <ele>80</ele>
        <time>2022-10-13T13:17:48Z</time>
      </trkpt>
      <trkpt lat="48.35976" lon="2.77618">
        <ele>81.199996948242</ele>
        <time>2022-10-13T13:17:52Z</time>
      </trkpt>
      <trkpt lat="48.35976" lon="2.77618">
        <ele>82</ele>
        <time>2022-10-13T13:17:56Z</time>
      </trkpt>
      <trkpt lat="48.35976" lon="2.77618">
        <ele>81</ele>
        <time>2022-10-13T13:18:00Z</time>
      </trkpt>
      <trkpt lat="48.35976" lon="2.77618">
        <ele>81.199996948242</ele>
        <time>2022-10-13T13:18:04Z</time>
      </trkpt>
      <trkpt lat="48.35976" lon="2.77618">
        <ele>81</ele>
        <time>2022-10-13T13:18:08Z</time>
      </trkpt>
      <trkpt lat="48.35976" lon="2.77618">
        <ele>80.599998474121</ele>
        <time>2022-10-13T13:18:12Z</time>
      </trkpt>
      <trkpt lat="48.35976" lon="2.77618">
        <ele>81.400001525879</ele>
        <time>2022-10-13T13:18:16Z</time>
      </trkpt>
      <trkpt lat="48.35987" lon="2.77636">
        <ele>81.800003051758</ele>
        <time>2022-10-13T13:18:23Z</time>
      </trkpt>
      <trkpt lat="48.3598" lon="2.77627">
        <ele>81.599998474121</ele>
        <time>2022-10-13T13:18:27Z</time>
      </trkpt>
      <trkpt lat="48.35987" lon="2.77631">
        <ele>81.400001525879</ele>
        <time>2022-10-13T13:18:31Z</time>
      </trkpt>
      <trkpt lat="48.3599" lon="2.77631">
        <ele>81.400001525879</ele>
        <time>2022-10-13T13:18:35Z</time>
      </trkpt>
      <trkpt lat="48.35993" lon="2.7763">
        <ele>81.400001525879</ele>
        <time>2022-10-13T13:18:39Z</time>
      </trkpt>
      <trkpt lat="48.35993" lon="2.77631">
        <ele>81.400001525879</ele>
        <time>2022-10-13T13:18:43Z</time>
      </trkpt>
      <trkpt lat="48.35994" lon="2.77633">
        <ele>81.400001525879</ele>
        <time>2022-10-13T13:18:47Z</time>
      </trkpt>
      <trkpt lat="48.35994" lon="2.77632">
        <ele>81.400001525879</ele>
        <time>2022-10-13T13:18:51Z</time>
      </trkpt>
      <trkpt lat="48.35997" lon="2.77633">
        <ele>81.400001525879</ele>
        <time>2022-10-13T13:18:55Z</time>
      </trkpt>
      <trkpt lat="48.36001" lon="2.77635">
        <ele>81.400001525879</ele>
        <time>2022-10-13T13:18:59Z</time>
      </trkpt>
      <trkpt lat="48.36005" lon="2.77634">
        <ele>81.400001525879</ele>
        <time>2022-10-13T13:19:03Z</time>
      </trkpt>
      <trkpt lat="48.36008" lon="2.77634">
        <ele>81.400001525879</ele>
        <time>2022-10-13T13:19:07Z</time>
      </trkpt>
      <trkpt lat="48.36009" lon="2.77634">
        <ele>81.400001525879</ele>
        <time>2022-10-13T13:19:11Z</time>
      </trkpt>
      <trkpt lat="48.3601" lon="2.77633">
        <ele>81.400001525879</ele>
        <time>2022-10-13T13:19:15Z</time>
      </trkpt>
      <trkpt lat="48.36009" lon="2.77634">
        <ele>81.400001525879</ele>
        <time>2022-10-13T13:19:19Z</time>
      </trkpt>
      <trkpt lat="48.36009" lon="2.77637">
        <ele>81.400001525879</ele>
        <time>2022-10-13T13:19:23Z</time>
      </trkpt>
      <trkpt lat="48.36008" lon="2.77638">
        <ele>81.400001525879</ele>
        <time>2022-10-13T13:19:27Z</time>
      </trkpt>
      <trkpt lat="48.36008" lon="2.77638">
        <ele>81.400001525879</ele>
        <time>2022-10-13T13:19:31Z</time>
      </trkpt>
      <trkpt lat="48.36008" lon="2.77637">
        <ele>81.400001525879</ele>
        <time>2022-10-13T13:19:35Z</time>
      </trkpt>
      <trkpt lat="48.36008" lon="2.77636">
        <ele>81.400001525879</ele>
        <time>2022-10-13T13:19:39Z</time>
      </trkpt>
      <trkpt lat="48.36008" lon="2.77634">
        <ele>81.400001525879</ele>
        <time>2022-10-13T13:19:43Z</time>
      </trkpt>
      <trkpt lat="48.36007" lon="2.77633">
        <ele>81.400001525879</ele>
        <time>2022-10-13T13:19:47Z</time>
      </trkpt>
      <trkpt lat="48.36007" lon="2.77632">
        <ele>81.400001525879</ele>
        <time>2022-10-13T13:19:51Z</time>
      </trkpt>
      <trkpt lat="48.36007" lon="2.77631">
        <ele>81.400001525879</ele>
        <time>2022-10-13T13:19:55Z</time>
      </trkpt>
      <trkpt lat="48.36007" lon="2.77632">
        <ele>81.400001525879</ele>
        <time>2022-10-13T13:19:59Z</time>
      </trkpt>
      <trkpt lat="48.36008" lon="2.77637">
        <ele>81.400001525879</ele>
        <time>2022-10-13T13:20:03Z</time>
      </trkpt>
      <trkpt lat="48.36008" lon="2.77638">
        <ele>81.400001525879</ele>
        <time>2022-10-13T13:20:07Z</time>
      </trkpt>
      <trkpt lat="48.3601" lon="2.77641">
        <ele>81.400001525879</ele>
        <time>2022-10-13T13:20:11Z</time>
      </trkpt>
      <trkpt lat="48.36009" lon="2.77648">
        <ele>81.400001525879</ele>
        <time>2022-10-13T13:20:15Z</time>
      </trkpt>
      <trkpt lat="48.36009" lon="2.77651">
        <ele>81.400001525879</ele>
        <time>2022-10-13T13:20:19Z</time>
      </trkpt>
      <trkpt lat="48.3601" lon="2.77655">
        <ele>81.400001525879</ele>
        <time>2022-10-13T13:20:23Z</time>
      </trkpt>
      <trkpt lat="48.36008" lon="2.77664">
        <ele>81.400001525879</ele>
        <time>2022-10-13T13:20:27Z</time>
      </trkpt>
      <trkpt lat="48.36006" lon="2.77671">
        <ele>81.400001525879</ele>
        <time>2022-10-13T13:20:31Z</time>
      </trkpt>
      <trkpt lat="48.36005" lon="2.77678">
        <ele>81.400001525879</ele>
        <time>2022-10-13T13:20:35Z</time>
      </trkpt>
      <trkpt lat="48.36005" lon="2.7768">
        <ele>81.400001525879</ele>
        <time>2022-10-13T13:20:39Z</time>
      </trkpt>
      <trkpt lat="48.36004" lon="2.77682">
        <ele>81.400001525879</ele>
        <time>2022-10-13T13:20:43Z</time>
      </trkpt>
      <trkpt lat="48.36004" lon="2.77683">
        <ele>81.400001525879</ele>
        <time>2022-10-13T13:20:47Z</time>
      </trkpt>
      <trkpt lat="48.36003" lon="2.77685">
        <ele>81.400001525879</ele>
        <time>2022-10-13T13:20:51Z</time>
      </trkpt>
      <trkpt lat="48.36001" lon="2.77687">
        <ele>81.400001525879</ele>
        <time>2022-10-13T13:20:55Z</time>
      </trkpt>
      <trkpt lat="48.36" lon="2.77688">
        <ele>81.400001525879</ele>
        <time>2022-10-13T13:20:59Z</time>
      </trkpt>
      <trkpt lat="48.35997" lon="2.77694">
        <ele>81.400001525879</ele>
        <time>2022-10-13T13:21:03Z</time>
      </trkpt>
      <trkpt lat="48.35996" lon="2.777">
        <ele>81.400001525879</ele>
        <time>2022-10-13T13:21:07Z</time>
      </trkpt>
      <trkpt lat="48.35996" lon="2.77703">
        <ele>81.400001525879</ele>
        <time>2022-10-13T13:21:11Z</time>
      </trkpt>
      <trkpt lat="48.35995" lon="2.77708">
        <ele>81.400001525879</ele>
        <time>2022-10-13T13:21:15Z</time>
      </trkpt>
      <trkpt lat="48.35995" lon="2.77714">
        <ele>81.400001525879</ele>
        <time>2022-10-13T13:21:19Z</time>
      </trkpt>
      <trkpt lat="48.35993" lon="2.77719">
        <ele>81.400001525879</ele>
        <time>2022-10-13T13:21:23Z</time>
      </trkpt>
      <trkpt lat="48.35991" lon="2.77723">
        <ele>81.400001525879</ele>
        <time>2022-10-13T13:21:27Z</time>
      </trkpt>
      <trkpt lat="48.35991" lon="2.77729">
        <ele>81.400001525879</ele>
        <time>2022-10-13T13:21:31Z</time>
      </trkpt>
      <trkpt lat="48.3599" lon="2.77734">
        <ele>81.400001525879</ele>
        <time>2022-10-13T13:21:35Z</time>
      </trkpt>
      <trkpt lat="48.35989" lon="2.77739">
        <ele>81.400001525879</ele>
        <time>2022-10-13T13:21:39Z</time>
      </trkpt>
      <trkpt lat="48.3599" lon="2.77744">
        <ele>81.400001525879</ele>
        <time>2022-10-13T13:21:43Z</time>
      </trkpt>
      <trkpt lat="48.35991" lon="2.77748">
        <ele>81.400001525879</ele>
        <time>2022-10-13T13:21:47Z</time>
      </trkpt>
      <trkpt lat="48.35991" lon="2.77751">
        <ele>81.400001525879</ele>
        <time>2022-10-13T13:21:51Z</time>
      </trkpt>
      <trkpt lat="48.35991" lon="2.77754">
        <ele>81.400001525879</ele>
        <time>2022-10-13T13:21:55Z</time>
      </trkpt>
      <trkpt lat="48.35989" lon="2.77764">
        <ele>81.400001525879</ele>
        <time>2022-10-13T13:21:59Z</time>
      </trkpt>
      <trkpt lat="48.35989" lon="2.7777">
        <ele>81.400001525879</ele>
        <time>2022-10-13T13:22:03Z</time>
      </trkpt>
      <trkpt lat="48.35989" lon="2.77775">
        <ele>81.400001525879</ele>
        <time>2022-10-13T13:22:07Z</time>
      </trkpt>
      <trkpt lat="48.35987" lon="2.77781">
        <ele>81.599998474121</ele>
        <time>2022-10-13T13:22:11Z</time>
      </trkpt>
      <trkpt lat="48.35987" lon="2.77787">
        <ele>81.599998474121</ele>
        <time>2022-10-13T13:22:15Z</time>
      </trkpt>
      <trkpt lat="48.35985" lon="2.77793">
        <ele>81.800003051758</ele>
        <time>2022-10-13T13:22:19Z</time>
      </trkpt>
      <trkpt lat="48.35983" lon="2.77798">
        <ele>81.800003051758</ele>
        <time>2022-10-13T13:22:23Z</time>
      </trkpt>
      <trkpt lat="48.35984" lon="2.77801">
        <ele>82</ele>
        <time>2022-10-13T13:22:27Z</time>
      </trkpt>
      <trkpt lat="48.35984" lon="2.77804">
        <ele>82</ele>
        <time>2022-10-13T13:22:31Z</time>
      </trkpt>
      <trkpt lat="48.35984" lon="2.7781">
        <ele>82</ele>
        <time>2022-10-13T13:22:35Z</time>
      </trkpt>
      <trkpt lat="48.35984" lon="2.77815">
        <ele>82.199996948242</ele>
        <time>2022-10-13T13:22:39Z</time>
      </trkpt>
      <trkpt lat="48.35981" lon="2.7782">
        <ele>82.199996948242</ele>
        <time>2022-10-13T13:22:43Z</time>
      </trkpt>
      <trkpt lat="48.35979" lon="2.77826">
        <ele>82.199996948242</ele>
        <time>2022-10-13T13:22:47Z</time>
      </trkpt>
      <trkpt lat="48.35979" lon="2.77831">
        <ele>82.199996948242</ele>
        <time>2022-10-13T13:22:51Z</time>
      </trkpt>
      <trkpt lat="48.35979" lon="2.77836">
        <ele>82.400001525879</ele>
        <time>2022-10-13T13:22:55Z</time>
      </trkpt>
      <trkpt lat="48.35979" lon="2.77841">
        <ele>82.599998474121</ele>
        <time>2022-10-13T13:22:59Z</time>
      </trkpt>
      <trkpt lat="48.35978" lon="2.77845">
        <ele>82.599998474121</ele>
        <time>2022-10-13T13:23:03Z</time>
      </trkpt>
      <trkpt lat="48.35977" lon="2.77851">
        <ele>82.599998474121</ele>
        <time>2022-10-13T13:23:07Z</time>
      </trkpt>
      <trkpt lat="48.35975" lon="2.77859">
        <ele>82.800003051758</ele>
        <time>2022-10-13T13:23:11Z</time>
      </trkpt>
      <trkpt lat="48.35975" lon="2.77866">
        <ele>83</ele>
        <time>2022-10-13T13:23:15Z</time>
      </trkpt>
      <trkpt lat="48.35975" lon="2.7787">
        <ele>83</ele>
        <time>2022-10-13T13:23:19Z</time>
      </trkpt>
      <trkpt lat="48.35973" lon="2.77877">
        <ele>83</ele>
        <time>2022-10-13T13:23:23Z</time>
      </trkpt>
      <trkpt lat="48.35971" lon="2.77884">
        <ele>83.199996948242</ele>
        <time>2022-10-13T13:23:27Z</time>
      </trkpt>
      <trkpt lat="48.3597" lon="2.77891">
        <ele>83.199996948242</ele>
        <time>2022-10-13T13:23:31Z</time>
      </trkpt>
      <trkpt lat="48.35968" lon="2.77898">
        <ele>83.199996948242</ele>
        <time>2022-10-13T13:23:35Z</time>
      </trkpt>
      <trkpt lat="48.35967" lon="2.77905">
        <ele>83.400001525879</ele>
        <time>2022-10-13T13:23:39Z</time>
      </trkpt>
      <trkpt lat="48.35967" lon="2.77911">
        <ele>83.400001525879</ele>
        <time>2022-10-13T13:23:43Z</time>
      </trkpt>
      <trkpt lat="48.35966" lon="2.77916">
        <ele>83.599998474121</ele>
        <time>2022-10-13T13:23:47Z</time>
      </trkpt>
      <trkpt lat="48.35967" lon="2.77922">
        <ele>83.599998474121</ele>
        <time>2022-10-13T13:23:51Z</time>
      </trkpt>
      <trkpt lat="48.35966" lon="2.77928">
        <ele>83.599998474121</ele>
        <time>2022-10-13T13:23:55Z</time>
      </trkpt>
      <trkpt lat="48.35967" lon="2.77933">
        <ele>83.599998474121</ele>
        <time>2022-10-13T13:23:59Z</time>
      </trkpt>
      <trkpt lat="48.35966" lon="2.77937">
        <ele>83.800003051758</ele>
        <time>2022-10-13T13:24:03Z</time>
      </trkpt>
      <trkpt lat="48.35966" lon="2.77943">
        <ele>83.800003051758</ele>
        <time>2022-10-13T13:24:07Z</time>
      </trkpt>
      <trkpt lat="48.35964" lon="2.7795">
        <ele>84</ele>
        <time>2022-10-13T13:24:11Z</time>
      </trkpt>
      <trkpt lat="48.35964" lon="2.77956">
        <ele>84</ele>
        <time>2022-10-13T13:24:15Z</time>
      </trkpt>
      <trkpt lat="48.35962" lon="2.77963">
        <ele>84</ele>
        <time>2022-10-13T13:24:19Z</time>
      </trkpt>
      <trkpt lat="48.35959" lon="2.77969">
        <ele>84</ele>
        <time>2022-10-13T13:24:23Z</time>
      </trkpt>
      <trkpt lat="48.35956" lon="2.77979">
        <ele>84.199996948242</ele>
        <time>2022-10-13T13:24:27Z</time>
      </trkpt>
      <trkpt lat="48.35957" lon="2.77986">
        <ele>84.199996948242</ele>
        <time>2022-10-13T13:24:31Z</time>
      </trkpt>
      <trkpt lat="48.35955" lon="2.77989">
        <ele>84.400001525879</ele>
        <time>2022-10-13T13:24:35Z</time>
      </trkpt>
      <trkpt lat="48.35954" lon="2.77992">
        <ele>84.199996948242</ele>
        <time>2022-10-13T13:24:39Z</time>
      </trkpt>
      <trkpt lat="48.35955" lon="2.77998">
        <ele>84.199996948242</ele>
        <time>2022-10-13T13:24:43Z</time>
      </trkpt>
      <trkpt lat="48.35955" lon="2.78002">
        <ele>84.400001525879</ele>
        <time>2022-10-13T13:24:47Z</time>
      </trkpt>
      <trkpt lat="48.35956" lon="2.78007">
        <ele>84.400001525879</ele>
        <time>2022-10-13T13:24:51Z</time>
      </trkpt>
      <trkpt lat="48.35955" lon="2.78012">
        <ele>84.400001525879</ele>
        <time>2022-10-13T13:24:55Z</time>
      </trkpt>
      <trkpt lat="48.35954" lon="2.78016">
        <ele>84.599998474121</ele>
        <time>2022-10-13T13:24:59Z</time>
      </trkpt>
      <trkpt lat="48.35955" lon="2.78021">
        <ele>84.599998474121</ele>
        <time>2022-10-13T13:25:03Z</time>
      </trkpt>
      <trkpt lat="48.35955" lon="2.78026">
        <ele>84.599998474121</ele>
        <time>2022-10-13T13:25:07Z</time>
      </trkpt>
      <trkpt lat="48.35955" lon="2.78032">
        <ele>84.599998474121</ele>
        <time>2022-10-13T13:25:11Z</time>
      </trkpt>
      <trkpt lat="48.35956" lon="2.78039">
        <ele>84.599998474121</ele>
        <time>2022-10-13T13:25:15Z</time>
      </trkpt>
      <trkpt lat="48.35957" lon="2.78042">
        <ele>84.800003051758</ele>
        <time>2022-10-13T13:25:19Z</time>
      </trkpt>
      <trkpt lat="48.35957" lon="2.78048">
        <ele>84.800003051758</ele>
        <time>2022-10-13T13:25:23Z</time>
      </trkpt>
      <trkpt lat="48.35957" lon="2.78052">
        <ele>84.800003051758</ele>
        <time>2022-10-13T13:25:27Z</time>
      </trkpt>
      <trkpt lat="48.35958" lon="2.78055">
        <ele>85</ele>
        <time>2022-10-13T13:25:31Z</time>
      </trkpt>
      <trkpt lat="48.35957" lon="2.78061">
        <ele>85.199996948242</ele>
        <time>2022-10-13T13:25:35Z</time>
      </trkpt>
      <trkpt lat="48.35957" lon="2.78066">
        <ele>85.199996948242</ele>
        <time>2022-10-13T13:25:39Z</time>
      </trkpt>
      <trkpt lat="48.35958" lon="2.78071">
        <ele>85.400001525879</ele>
        <time>2022-10-13T13:25:43Z</time>
      </trkpt>
      <trkpt lat="48.35957" lon="2.78078">
        <ele>85.400001525879</ele>
        <time>2022-10-13T13:25:47Z</time>
      </trkpt>
      <trkpt lat="48.35955" lon="2.78086">
        <ele>85.400001525879</ele>
        <time>2022-10-13T13:25:51Z</time>
      </trkpt>
      <trkpt lat="48.35953" lon="2.78095">
        <ele>85.599998474121</ele>
        <time>2022-10-13T13:25:55Z</time>
      </trkpt>
      <trkpt lat="48.35951" lon="2.78102">
        <ele>85.599998474121</ele>
        <time>2022-10-13T13:25:59Z</time>
      </trkpt>
      <trkpt lat="48.3595" lon="2.78106">
        <ele>85.599998474121</ele>
        <time>2022-10-13T13:26:03Z</time>
      </trkpt>
      <trkpt lat="48.35949" lon="2.78112">
        <ele>85.800003051758</ele>
        <time>2022-10-13T13:26:07Z</time>
      </trkpt>
      <trkpt lat="48.35949" lon="2.78114">
        <ele>85.800003051758</ele>
        <time>2022-10-13T13:26:11Z</time>
      </trkpt>
      <trkpt lat="48.3595" lon="2.78116">
        <ele>85.599998474121</ele>
        <time>2022-10-13T13:26:15Z</time>
      </trkpt>
      <trkpt lat="48.3595" lon="2.78119">
        <ele>85.599998474121</ele>
        <time>2022-10-13T13:26:19Z</time>
      </trkpt>
      <trkpt lat="48.35947" lon="2.78124">
        <ele>85.800003051758</ele>
        <time>2022-10-13T13:26:23Z</time>
      </trkpt>
      <trkpt lat="48.35947" lon="2.78131">
        <ele>85.800003051758</ele>
        <time>2022-10-13T13:26:27Z</time>
      </trkpt>
      <trkpt lat="48.35947" lon="2.78139">
        <ele>86</ele>
        <time>2022-10-13T13:26:31Z</time>
      </trkpt>
      <trkpt lat="48.35945" lon="2.78145">
        <ele>86</ele>
        <time>2022-10-13T13:26:35Z</time>
      </trkpt>
      <trkpt lat="48.35945" lon="2.78151">
        <ele>86</ele>
        <time>2022-10-13T13:26:39Z</time>
      </trkpt>
      <trkpt lat="48.35945" lon="2.78154">
        <ele>86.199996948242</ele>
        <time>2022-10-13T13:26:43Z</time>
      </trkpt>
      <trkpt lat="48.35946" lon="2.7816">
        <ele>86.400001525879</ele>
        <time>2022-10-13T13:26:47Z</time>
      </trkpt>
      <trkpt lat="48.35945" lon="2.78168">
        <ele>86.599998474121</ele>
        <time>2022-10-13T13:26:51Z</time>
      </trkpt>
      <trkpt lat="48.35946" lon="2.78174">
        <ele>86.800003051758</ele>
        <time>2022-10-13T13:26:55Z</time>
      </trkpt>
      <trkpt lat="48.35946" lon="2.7818">
        <ele>86.800003051758</ele>
        <time>2022-10-13T13:26:59Z</time>
      </trkpt>
      <trkpt lat="48.35945" lon="2.78185">
        <ele>86.800003051758</ele>
        <time>2022-10-13T13:27:03Z</time>
      </trkpt>
      <trkpt lat="48.35944" lon="2.78189">
        <ele>86.800003051758</ele>
        <time>2022-10-13T13:27:07Z</time>
      </trkpt>
      <trkpt lat="48.35943" lon="2.78194">
        <ele>86.599998474121</ele>
        <time>2022-10-13T13:27:11Z</time>
      </trkpt>
      <trkpt lat="48.35942" lon="2.78197">
        <ele>86.599998474121</ele>
        <time>2022-10-13T13:27:15Z</time>
      </trkpt>
      <trkpt lat="48.35939" lon="2.78205">
        <ele>86.599998474121</ele>
        <time>2022-10-13T13:27:19Z</time>
      </trkpt>
      <trkpt lat="48.35939" lon="2.78213">
        <ele>86.800003051758</ele>
        <time>2022-10-13T13:27:23Z</time>
      </trkpt>
      <trkpt lat="48.35938" lon="2.78218">
        <ele>86.800003051758</ele>
        <time>2022-10-13T13:27:27Z</time>
      </trkpt>
      <trkpt lat="48.35937" lon="2.78221">
        <ele>86.599998474121</ele>
        <time>2022-10-13T13:27:31Z</time>
      </trkpt>
      <trkpt lat="48.35936" lon="2.78229">
        <ele>86.599998474121</ele>
        <time>2022-10-13T13:27:35Z</time>
      </trkpt>
      <trkpt lat="48.35933" lon="2.78236">
        <ele>86.800003051758</ele>
        <time>2022-10-13T13:27:39Z</time>
      </trkpt>
      <trkpt lat="48.35931" lon="2.78242">
        <ele>86.800003051758</ele>
        <time>2022-10-13T13:27:43Z</time>
      </trkpt>
      <trkpt lat="48.3593" lon="2.78248">
        <ele>86.800003051758</ele>
        <time>2022-10-13T13:27:47Z</time>
      </trkpt>
      <trkpt lat="48.35929" lon="2.78255">
        <ele>86.800003051758</ele>
        <time>2022-10-13T13:27:51Z</time>
      </trkpt>
      <trkpt lat="48.35928" lon="2.78262">
        <ele>86.800003051758</ele>
        <time>2022-10-13T13:27:55Z</time>
      </trkpt>
      <trkpt lat="48.35927" lon="2.78271">
        <ele>86.599998474121</ele>
        <time>2022-10-13T13:27:59Z</time>
      </trkpt>
      <trkpt lat="48.35927" lon="2.78278">
        <ele>86.800003051758</ele>
        <time>2022-10-13T13:28:03Z</time>
      </trkpt>
      <trkpt lat="48.35924" lon="2.78285">
        <ele>86.800003051758</ele>
        <time>2022-10-13T13:28:07Z</time>
      </trkpt>
      <trkpt lat="48.35923" lon="2.7829">
        <ele>86.800003051758</ele>
        <time>2022-10-13T13:28:11Z</time>
      </trkpt>
      <trkpt lat="48.35923" lon="2.78295">
        <ele>86.800003051758</ele>
        <time>2022-10-13T13:28:15Z</time>
      </trkpt>
      <trkpt lat="48.35922" lon="2.78299">
        <ele>86.800003051758</ele>
        <time>2022-10-13T13:28:19Z</time>
      </trkpt>
      <trkpt lat="48.35923" lon="2.78304">
        <ele>86.800003051758</ele>
        <time>2022-10-13T13:28:23Z</time>
      </trkpt>
      <trkpt lat="48.35924" lon="2.78311">
        <ele>86.800003051758</ele>
        <time>2022-10-13T13:28:27Z</time>
      </trkpt>
      <trkpt lat="48.35925" lon="2.78315">
        <ele>86.800003051758</ele>
        <time>2022-10-13T13:28:31Z</time>
      </trkpt>
      <trkpt lat="48.35925" lon="2.78318">
        <ele>86.800003051758</ele>
        <time>2022-10-13T13:28:35Z</time>
      </trkpt>
      <trkpt lat="48.35926" lon="2.78322">
        <ele>86.800003051758</ele>
        <time>2022-10-13T13:28:39Z</time>
      </trkpt>
      <trkpt lat="48.35925" lon="2.78328">
        <ele>86.800003051758</ele>
        <time>2022-10-13T13:28:43Z</time>
      </trkpt>
      <trkpt lat="48.35924" lon="2.78334">
        <ele>86.599998474121</ele>
        <time>2022-10-13T13:28:47Z</time>
      </trkpt>
      <trkpt lat="48.35925" lon="2.7834">
        <ele>86.599998474121</ele>
        <time>2022-10-13T13:28:51Z</time>
      </trkpt>
      <trkpt lat="48.35925" lon="2.78347">
        <ele>86.599998474121</ele>
        <time>2022-10-13T13:28:55Z</time>
      </trkpt>
      <trkpt lat="48.35926" lon="2.78353">
        <ele>86.599998474121</ele>
        <time>2022-10-13T13:28:59Z</time>
      </trkpt>
      <trkpt lat="48.35925" lon="2.78357">
        <ele>86.400001525879</ele>
        <time>2022-10-13T13:29:03Z</time>
      </trkpt>
      <trkpt lat="48.35924" lon="2.78362">
        <ele>86.199996948242</ele>
        <time>2022-10-13T13:29:07Z</time>
      </trkpt>
      <trkpt lat="48.35921" lon="2.78367">
        <ele>86.199996948242</ele>
        <time>2022-10-13T13:29:11Z</time>
      </trkpt>
      <trkpt lat="48.3592" lon="2.78375">
        <ele>86.199996948242</ele>
        <time>2022-10-13T13:29:15Z</time>
      </trkpt>
      <trkpt lat="48.35917" lon="2.78383">
        <ele>86.199996948242</ele>
        <time>2022-10-13T13:29:19Z</time>
      </trkpt>
      <trkpt lat="48.35916" lon="2.7839">
        <ele>86.199996948242</ele>
        <time>2022-10-13T13:29:23Z</time>
      </trkpt>
      <trkpt lat="48.35916" lon="2.78397">
        <ele>86.199996948242</ele>
        <time>2022-10-13T13:29:27Z</time>
      </trkpt>
      <trkpt lat="48.35915" lon="2.78403">
        <ele>86.400001525879</ele>
        <time>2022-10-13T13:29:31Z</time>
      </trkpt>
      <trkpt lat="48.35915" lon="2.7841">
        <ele>86.400001525879</ele>
        <time>2022-10-13T13:29:35Z</time>
      </trkpt>
      <trkpt lat="48.35915" lon="2.78416">
        <ele>86.400001525879</ele>
        <time>2022-10-13T13:29:39Z</time>
      </trkpt>
      <trkpt lat="48.35913" lon="2.78423">
        <ele>86.199996948242</ele>
        <time>2022-10-13T13:29:43Z</time>
      </trkpt>
      <trkpt lat="48.35913" lon="2.78425">
        <ele>86</ele>
        <time>2022-10-13T13:29:47Z</time>
      </trkpt>
      <trkpt lat="48.35913" lon="2.78431">
        <ele>85.800003051758</ele>
        <time>2022-10-13T13:29:51Z</time>
      </trkpt>
      <trkpt lat="48.35913" lon="2.78434">
        <ele>85.599998474121</ele>
        <time>2022-10-13T13:29:55Z</time>
      </trkpt>
      <trkpt lat="48.35912" lon="2.78441">
        <ele>85.400001525879</ele>
        <time>2022-10-13T13:29:59Z</time>
      </trkpt>
      <trkpt lat="48.35911" lon="2.78449">
        <ele>85.400001525879</ele>
        <time>2022-10-13T13:30:03Z</time>
      </trkpt>
      <trkpt lat="48.3591" lon="2.78454">
        <ele>85.400001525879</ele>
        <time>2022-10-13T13:30:07Z</time>
      </trkpt>
      <trkpt lat="48.3591" lon="2.78461">
        <ele>85.199996948242</ele>
        <time>2022-10-13T13:30:11Z</time>
      </trkpt>
      <trkpt lat="48.35909" lon="2.78467">
        <ele>85</ele>
        <time>2022-10-13T13:30:15Z</time>
      </trkpt>
      <trkpt lat="48.35908" lon="2.7847">
        <ele>84.800003051758</ele>
        <time>2022-10-13T13:30:19Z</time>
      </trkpt>
      <trkpt lat="48.35906" lon="2.78477">
        <ele>84.599998474121</ele>
        <time>2022-10-13T13:30:23Z</time>
      </trkpt>
      <trkpt lat="48.35904" lon="2.78486">
        <ele>84.400001525879</ele>
        <time>2022-10-13T13:30:27Z</time>
      </trkpt>
      <trkpt lat="48.35901" lon="2.78493">
        <ele>84.199996948242</ele>
        <time>2022-10-13T13:30:31Z</time>
      </trkpt>
      <trkpt lat="48.35901" lon="2.78495">
        <ele>83.800003051758</ele>
        <time>2022-10-13T13:30:35Z</time>
      </trkpt>
      <trkpt lat="48.359" lon="2.78499">
        <ele>83.599998474121</ele>
        <time>2022-10-13T13:30:39Z</time>
      </trkpt>
      <trkpt lat="48.359" lon="2.78503">
        <ele>83.599998474121</ele>
        <time>2022-10-13T13:30:43Z</time>
      </trkpt>
      <trkpt lat="48.35898" lon="2.78516">
        <ele>83.599998474121</ele>
        <time>2022-10-13T13:30:47Z</time>
      </trkpt>
      <trkpt lat="48.35898" lon="2.78521">
        <ele>83.400001525879</ele>
        <time>2022-10-13T13:30:51Z</time>
      </trkpt>
      <trkpt lat="48.35897" lon="2.78523">
        <ele>83.400001525879</ele>
        <time>2022-10-13T13:30:55Z</time>
      </trkpt>
      <trkpt lat="48.35897" lon="2.78526">
        <ele>83.199996948242</ele>
        <time>2022-10-13T13:30:59Z</time>
      </trkpt>
      <trkpt lat="48.35897" lon="2.7853">
        <ele>83.199996948242</ele>
        <time>2022-10-13T13:31:03Z</time>
      </trkpt>
      <trkpt lat="48.35898" lon="2.78537">
        <ele>83.199996948242</ele>
        <time>2022-10-13T13:31:07Z</time>
      </trkpt>
      <trkpt lat="48.35898" lon="2.78542">
        <ele>83.199996948242</ele>
        <time>2022-10-13T13:31:11Z</time>
      </trkpt>
      <trkpt lat="48.35898" lon="2.7855">
        <ele>83.199996948242</ele>
        <time>2022-10-13T13:31:15Z</time>
      </trkpt>
      <trkpt lat="48.35897" lon="2.78553">
        <ele>83</ele>
        <time>2022-10-13T13:31:19Z</time>
      </trkpt>
      <trkpt lat="48.35896" lon="2.78557">
        <ele>83.199996948242</ele>
        <time>2022-10-13T13:31:23Z</time>
      </trkpt>
      <trkpt lat="48.35896" lon="2.78561">
        <ele>83.400001525879</ele>
        <time>2022-10-13T13:31:27Z</time>
      </trkpt>
      <trkpt lat="48.35899" lon="2.78569">
        <ele>83.400001525879</ele>
        <time>2022-10-13T13:31:31Z</time>
      </trkpt>
      <trkpt lat="48.35898" lon="2.78577">
        <ele>83.400001525879</ele>
        <time>2022-10-13T13:31:35Z</time>
      </trkpt>
      <trkpt lat="48.35897" lon="2.78586">
        <ele>83.400001525879</ele>
        <time>2022-10-13T13:31:39Z</time>
      </trkpt>
      <trkpt lat="48.3589" lon="2.78602">
        <ele>83.400001525879</ele>
        <time>2022-10-13T13:31:43Z</time>
      </trkpt>
      <trkpt lat="48.35888" lon="2.78607">
        <ele>83.199996948242</ele>
        <time>2022-10-13T13:31:47Z</time>
      </trkpt>
      <trkpt lat="48.35886" lon="2.78609">
        <ele>83</ele>
        <time>2022-10-13T13:31:51Z</time>
      </trkpt>
      <trkpt lat="48.35886" lon="2.78609">
        <ele>83</ele>
        <time>2022-10-13T13:31:55Z</time>
      </trkpt>
      <trkpt lat="48.35887" lon="2.7861">
        <ele>83</ele>
        <time>2022-10-13T13:31:59Z</time>
      </trkpt>
      <trkpt lat="48.35887" lon="2.78611">
        <ele>82.800003051758</ele>
        <time>2022-10-13T13:32:03Z</time>
      </trkpt>
      <trkpt lat="48.35887" lon="2.78612">
        <ele>82.800003051758</ele>
        <time>2022-10-13T13:32:07Z</time>
      </trkpt>
      <trkpt lat="48.35889" lon="2.78614">
        <ele>83</ele>
        <time>2022-10-13T13:32:11Z</time>
      </trkpt>
      <trkpt lat="48.35891" lon="2.78615">
        <ele>83</ele>
        <time>2022-10-13T13:32:15Z</time>
      </trkpt>
      <trkpt lat="48.35893" lon="2.78617">
        <ele>83</ele>
        <time>2022-10-13T13:32:19Z</time>
      </trkpt>
      <trkpt lat="48.35896" lon="2.78619">
        <ele>83</ele>
        <time>2022-10-13T13:32:23Z</time>
      </trkpt>
      <trkpt lat="48.35898" lon="2.78621">
        <ele>83</ele>
        <time>2022-10-13T13:32:27Z</time>
      </trkpt>
      <trkpt lat="48.35901" lon="2.78623">
        <ele>83</ele>
        <time>2022-10-13T13:32:31Z</time>
      </trkpt>
      <trkpt lat="48.35903" lon="2.78625">
        <ele>83</ele>
        <time>2022-10-13T13:32:35Z</time>
      </trkpt>
      <trkpt lat="48.35905" lon="2.78626">
        <ele>83</ele>
        <time>2022-10-13T13:32:39Z</time>
      </trkpt>
      <trkpt lat="48.35909" lon="2.78627">
        <ele>83</ele>
        <time>2022-10-13T13:32:43Z</time>
      </trkpt>
      <trkpt lat="48.35914" lon="2.78631">
        <ele>84</ele>
        <time>2022-10-13T13:32:47Z</time>
      </trkpt>
      <trkpt lat="48.35928" lon="2.78639">
        <ele>84.199996948242</ele>
        <time>2022-10-13T13:32:51Z</time>
      </trkpt>
      <trkpt lat="48.35932" lon="2.7864">
        <ele>84.400001525879</ele>
        <time>2022-10-13T13:32:55Z</time>
      </trkpt>
      <trkpt lat="48.35935" lon="2.78642">
        <ele>84.599998474121</ele>
        <time>2022-10-13T13:32:59Z</time>
      </trkpt>
      <trkpt lat="48.35941" lon="2.78644">
        <ele>84.599998474121</ele>
        <time>2022-10-13T13:33:03Z</time>
      </trkpt>
      <trkpt lat="48.35943" lon="2.78644">
        <ele>84.400001525879</ele>
        <time>2022-10-13T13:33:07Z</time>
      </trkpt>
      <trkpt lat="48.35945" lon="2.78644">
        <ele>84.400001525879</ele>
        <time>2022-10-13T13:33:11Z</time>
      </trkpt>
      <trkpt lat="48.35946" lon="2.78645">
        <ele>84.400001525879</ele>
        <time>2022-10-13T13:33:15Z</time>
      </trkpt>
      <trkpt lat="48.35949" lon="2.78646">
        <ele>84.199996948242</ele>
        <time>2022-10-13T13:33:19Z</time>
      </trkpt>
      <trkpt lat="48.35957" lon="2.7865">
        <ele>84.199996948242</ele>
        <time>2022-10-13T13:33:23Z</time>
      </trkpt>
      <trkpt lat="48.35966" lon="2.78655">
        <ele>84.199996948242</ele>
        <time>2022-10-13T13:33:27Z</time>
      </trkpt>
      <trkpt lat="48.3597" lon="2.78657">
        <ele>84.400001525879</ele>
        <time>2022-10-13T13:33:31Z</time>
      </trkpt>
      <trkpt lat="48.35971" lon="2.78656">
        <ele>84.400001525879</ele>
        <time>2022-10-13T13:33:35Z</time>
      </trkpt>
      <trkpt lat="48.35973" lon="2.78657">
        <ele>84.199996948242</ele>
        <time>2022-10-13T13:33:39Z</time>
      </trkpt>
      <trkpt lat="48.35975" lon="2.78659">
        <ele>84.199996948242</ele>
        <time>2022-10-13T13:33:43Z</time>
      </trkpt>
      <trkpt lat="48.35986" lon="2.78663">
        <ele>84.400001525879</ele>
        <time>2022-10-13T13:33:47Z</time>
      </trkpt>
      <trkpt lat="48.35993" lon="2.78665">
        <ele>84.599998474121</ele>
        <time>2022-10-13T13:33:51Z</time>
      </trkpt>
      <trkpt lat="48.35998" lon="2.78667">
        <ele>84.599998474121</ele>
        <time>2022-10-13T13:33:55Z</time>
      </trkpt>
      <trkpt lat="48.36002" lon="2.78669">
        <ele>84.599998474121</ele>
        <time>2022-10-13T13:33:59Z</time>
      </trkpt>
      <trkpt lat="48.36007" lon="2.78672">
        <ele>84.599998474121</ele>
        <time>2022-10-13T13:34:03Z</time>
      </trkpt>
      <trkpt lat="48.3601" lon="2.78674">
        <ele>84.599998474121</ele>
        <time>2022-10-13T13:34:07Z</time>
      </trkpt>
      <trkpt lat="48.36014" lon="2.78674">
        <ele>84.599998474121</ele>
        <time>2022-10-13T13:34:11Z</time>
      </trkpt>
      <trkpt lat="48.36016" lon="2.78674">
        <ele>84.599998474121</ele>
        <time>2022-10-13T13:34:15Z</time>
      </trkpt>
      <trkpt lat="48.36017" lon="2.78671">
        <ele>84.599998474121</ele>
        <time>2022-10-13T13:34:19Z</time>
      </trkpt>
      <trkpt lat="48.36018" lon="2.7867">
        <ele>84.800003051758</ele>
        <time>2022-10-13T13:34:23Z</time>
      </trkpt>
      <trkpt lat="48.36021" lon="2.78672">
        <ele>84.800003051758</ele>
        <time>2022-10-13T13:34:27Z</time>
      </trkpt>
      <trkpt lat="48.36022" lon="2.78675">
        <ele>85.199996948242</ele>
        <time>2022-10-13T13:34:31Z</time>
      </trkpt>
      <trkpt lat="48.36024" lon="2.78674">
        <ele>85.199996948242</ele>
        <time>2022-10-13T13:34:35Z</time>
      </trkpt>
      <trkpt lat="48.36027" lon="2.78675">
        <ele>85.199996948242</ele>
        <time>2022-10-13T13:34:39Z</time>
      </trkpt>
      <trkpt lat="48.36031" lon="2.78676">
        <ele>85.199996948242</ele>
        <time>2022-10-13T13:34:43Z</time>
      </trkpt>
      <trkpt lat="48.36038" lon="2.78679">
        <ele>85.199996948242</ele>
        <time>2022-10-13T13:34:47Z</time>
      </trkpt>
      <trkpt lat="48.36044" lon="2.78683">
        <ele>85.199996948242</ele>
        <time>2022-10-13T13:34:51Z</time>
      </trkpt>
      <trkpt lat="48.36049" lon="2.78686">
        <ele>85</ele>
        <time>2022-10-13T13:34:55Z</time>
      </trkpt>
      <trkpt lat="48.36054" lon="2.78688">
        <ele>84.800003051758</ele>
        <time>2022-10-13T13:34:59Z</time>
      </trkpt>
      <trkpt lat="48.36063" lon="2.78693">
        <ele>84.800003051758</ele>
        <time>2022-10-13T13:35:03Z</time>
      </trkpt>
      <trkpt lat="48.36067" lon="2.78694">
        <ele>85</ele>
        <time>2022-10-13T13:35:07Z</time>
      </trkpt>
      <trkpt lat="48.36071" lon="2.78696">
        <ele>85</ele>
        <time>2022-10-13T13:35:11Z</time>
      </trkpt>
      <trkpt lat="48.36074" lon="2.78697">
        <ele>85</ele>
        <time>2022-10-13T13:35:15Z</time>
      </trkpt>
      <trkpt lat="48.36077" lon="2.78697">
        <ele>85</ele>
        <time>2022-10-13T13:35:19Z</time>
      </trkpt>
      <trkpt lat="48.36079" lon="2.78697">
        <ele>84.800003051758</ele>
        <time>2022-10-13T13:35:23Z</time>
      </trkpt>
      <trkpt lat="48.36081" lon="2.78698">
        <ele>84.599998474121</ele>
        <time>2022-10-13T13:35:27Z</time>
      </trkpt>
      <trkpt lat="48.36086" lon="2.787">
        <ele>84.599998474121</ele>
        <time>2022-10-13T13:35:31Z</time>
      </trkpt>
      <trkpt lat="48.36091" lon="2.78703">
        <ele>84.599998474121</ele>
        <time>2022-10-13T13:35:35Z</time>
      </trkpt>
      <trkpt lat="48.36093" lon="2.78704">
        <ele>84.599998474121</ele>
        <time>2022-10-13T13:35:39Z</time>
      </trkpt>
      <trkpt lat="48.36095" lon="2.78704">
        <ele>84.400001525879</ele>
        <time>2022-10-13T13:35:43Z</time>
      </trkpt>
      <trkpt lat="48.36097" lon="2.78704">
        <ele>84.199996948242</ele>
        <time>2022-10-13T13:35:47Z</time>
      </trkpt>
      <trkpt lat="48.36098" lon="2.78704">
        <ele>84.199996948242</ele>
        <time>2022-10-13T13:35:51Z</time>
      </trkpt>
      <trkpt lat="48.361" lon="2.78704">
        <ele>84.199996948242</ele>
        <time>2022-10-13T13:35:55Z</time>
      </trkpt>
      <trkpt lat="48.36102" lon="2.78704">
        <ele>84.199996948242</ele>
        <time>2022-10-13T13:35:59Z</time>
      </trkpt>
      <trkpt lat="48.36106" lon="2.78707">
        <ele>84.199996948242</ele>
        <time>2022-10-13T13:36:03Z</time>
      </trkpt>
      <trkpt lat="48.3611" lon="2.78706">
        <ele>84.199996948242</ele>
        <time>2022-10-13T13:36:07Z</time>
      </trkpt>
      <trkpt lat="48.36113" lon="2.78706">
        <ele>84.199996948242</ele>
        <time>2022-10-13T13:36:11Z</time>
      </trkpt>
      <trkpt lat="48.36116" lon="2.78708">
        <ele>84.199996948242</ele>
        <time>2022-10-13T13:36:15Z</time>
      </trkpt>
      <trkpt lat="48.36119" lon="2.78709">
        <ele>84.199996948242</ele>
        <time>2022-10-13T13:36:19Z</time>
      </trkpt>
      <trkpt lat="48.36121" lon="2.7871">
        <ele>84.400001525879</ele>
        <time>2022-10-13T13:36:23Z</time>
      </trkpt>
      <trkpt lat="48.36122" lon="2.78713">
        <ele>84.400001525879</ele>
        <time>2022-10-13T13:36:27Z</time>
      </trkpt>
      <trkpt lat="48.36125" lon="2.78713">
        <ele>84.400001525879</ele>
        <time>2022-10-13T13:36:31Z</time>
      </trkpt>
      <trkpt lat="48.36129" lon="2.78714">
        <ele>84.400001525879</ele>
        <time>2022-10-13T13:36:35Z</time>
      </trkpt>
      <trkpt lat="48.36135" lon="2.78716">
        <ele>84.599998474121</ele>
        <time>2022-10-13T13:36:39Z</time>
      </trkpt>
      <trkpt lat="48.36144" lon="2.78719">
        <ele>84.599998474121</ele>
        <time>2022-10-13T13:36:43Z</time>
      </trkpt>
      <trkpt lat="48.36148" lon="2.7872">
        <ele>84.400001525879</ele>
        <time>2022-10-13T13:36:47Z</time>
      </trkpt>
      <trkpt lat="48.3615" lon="2.78721">
        <ele>84.599998474121</ele>
        <time>2022-10-13T13:36:51Z</time>
      </trkpt>
      <trkpt lat="48.36152" lon="2.78721">
        <ele>84.599998474121</ele>
        <time>2022-10-13T13:36:55Z</time>
      </trkpt>
      <trkpt lat="48.36154" lon="2.78721">
        <ele>84.599998474121</ele>
        <time>2022-10-13T13:36:59Z</time>
      </trkpt>
      <trkpt lat="48.36157" lon="2.78722">
        <ele>84.599998474121</ele>
        <time>2022-10-13T13:37:03Z</time>
      </trkpt>
      <trkpt lat="48.36159" lon="2.78722">
        <ele>84.599998474121</ele>
        <time>2022-10-13T13:37:07Z</time>
      </trkpt>
      <trkpt lat="48.36164" lon="2.78723">
        <ele>84.599998474121</ele>
        <time>2022-10-13T13:37:11Z</time>
      </trkpt>
      <trkpt lat="48.36167" lon="2.78724">
        <ele>84.599998474121</ele>
        <time>2022-10-13T13:37:15Z</time>
      </trkpt>
      <trkpt lat="48.36169" lon="2.78724">
        <ele>84.800003051758</ele>
        <time>2022-10-13T13:37:19Z</time>
      </trkpt>
      <trkpt lat="48.36171" lon="2.78726">
        <ele>84.800003051758</ele>
        <time>2022-10-13T13:37:23Z</time>
      </trkpt>
      <trkpt lat="48.36177" lon="2.78729">
        <ele>85</ele>
        <time>2022-10-13T13:37:27Z</time>
      </trkpt>
      <trkpt lat="48.36179" lon="2.7873">
        <ele>85</ele>
        <time>2022-10-13T13:37:31Z</time>
      </trkpt>
      <trkpt lat="48.36181" lon="2.7873">
        <ele>85</ele>
        <time>2022-10-13T13:37:35Z</time>
      </trkpt>
      <trkpt lat="48.36184" lon="2.78732">
        <ele>85</ele>
        <time>2022-10-13T13:37:39Z</time>
      </trkpt>
      <trkpt lat="48.36188" lon="2.78732">
        <ele>85</ele>
        <time>2022-10-13T13:37:43Z</time>
      </trkpt>
      <trkpt lat="48.36193" lon="2.78732">
        <ele>85</ele>
        <time>2022-10-13T13:37:47Z</time>
      </trkpt>
      <trkpt lat="48.36195" lon="2.78733">
        <ele>85.199996948242</ele>
        <time>2022-10-13T13:37:51Z</time>
      </trkpt>
      <trkpt lat="48.36196" lon="2.78734">
        <ele>85.199996948242</ele>
        <time>2022-10-13T13:37:55Z</time>
      </trkpt>
      <trkpt lat="48.36197" lon="2.78734">
        <ele>85.199996948242</ele>
        <time>2022-10-13T13:37:59Z</time>
      </trkpt>
      <trkpt lat="48.362" lon="2.78734">
        <ele>85.199996948242</ele>
        <time>2022-10-13T13:38:03Z</time>
      </trkpt>
      <trkpt lat="48.36207" lon="2.78739">
        <ele>85.199996948242</ele>
        <time>2022-10-13T13:38:07Z</time>
      </trkpt>
      <trkpt lat="48.36212" lon="2.7874">
        <ele>85.400001525879</ele>
        <time>2022-10-13T13:38:11Z</time>
      </trkpt>
      <trkpt lat="48.36219" lon="2.78741">
        <ele>85.400001525879</ele>
        <time>2022-10-13T13:38:15Z</time>
      </trkpt>
      <trkpt lat="48.36231" lon="2.78747">
        <ele>85.400001525879</ele>
        <time>2022-10-13T13:38:19Z</time>
      </trkpt>
      <trkpt lat="48.36245" lon="2.78754">
        <ele>85.599998474121</ele>
        <time>2022-10-13T13:38:23Z</time>
      </trkpt>
      <trkpt lat="48.3625" lon="2.78762">
        <ele>85.800003051758</ele>
        <time>2022-10-13T13:38:27Z</time>
      </trkpt>
      <trkpt lat="48.36252" lon="2.78768">
        <ele>85.800003051758</ele>
        <time>2022-10-13T13:38:31Z</time>
      </trkpt>
      <trkpt lat="48.36252" lon="2.78771">
        <ele>85.800003051758</ele>
        <time>2022-10-13T13:38:35Z</time>
      </trkpt>
      <trkpt lat="48.36252" lon="2.78775">
        <ele>85.800003051758</ele>
        <time>2022-10-13T13:38:39Z</time>
      </trkpt>
      <trkpt lat="48.36248" lon="2.78786">
        <ele>85.800003051758</ele>
        <time>2022-10-13T13:38:43Z</time>
      </trkpt>
      <trkpt lat="48.36248" lon="2.78793">
        <ele>86</ele>
        <time>2022-10-13T13:38:47Z</time>
      </trkpt>
      <trkpt lat="48.36248" lon="2.78799">
        <ele>86</ele>
        <time>2022-10-13T13:38:51Z</time>
      </trkpt>
      <trkpt lat="48.3625" lon="2.78804">
        <ele>86</ele>
        <time>2022-10-13T13:38:55Z</time>
      </trkpt>
      <trkpt lat="48.36252" lon="2.78809">
        <ele>86</ele>
        <time>2022-10-13T13:38:59Z</time>
      </trkpt>
      <trkpt lat="48.36252" lon="2.78814">
        <ele>86</ele>
        <time>2022-10-13T13:39:03Z</time>
      </trkpt>
      <trkpt lat="48.3625" lon="2.7882">
        <ele>86.199996948242</ele>
        <time>2022-10-13T13:39:07Z</time>
      </trkpt>
      <trkpt lat="48.3625" lon="2.78824">
        <ele>86.199996948242</ele>
        <time>2022-10-13T13:39:11Z</time>
      </trkpt>
      <trkpt lat="48.3625" lon="2.78829">
        <ele>86.199996948242</ele>
        <time>2022-10-13T13:39:15Z</time>
      </trkpt>
      <trkpt lat="48.3625" lon="2.78836">
        <ele>86.400001525879</ele>
        <time>2022-10-13T13:39:19Z</time>
      </trkpt>
      <trkpt lat="48.36249" lon="2.78841">
        <ele>86.400001525879</ele>
        <time>2022-10-13T13:39:23Z</time>
      </trkpt>
      <trkpt lat="48.36246" lon="2.78846">
        <ele>86.599998474121</ele>
        <time>2022-10-13T13:39:27Z</time>
      </trkpt>
      <trkpt lat="48.36245" lon="2.78853">
        <ele>86.599998474121</ele>
        <time>2022-10-13T13:39:31Z</time>
      </trkpt>
      <trkpt lat="48.36244" lon="2.78858">
        <ele>86.400001525879</ele>
        <time>2022-10-13T13:39:35Z</time>
      </trkpt>
      <trkpt lat="48.36243" lon="2.78865">
        <ele>86.599998474121</ele>
        <time>2022-10-13T13:39:39Z</time>
      </trkpt>
      <trkpt lat="48.36244" lon="2.78869">
        <ele>86.599998474121</ele>
        <time>2022-10-13T13:39:43Z</time>
      </trkpt>
      <trkpt lat="48.36244" lon="2.78874">
        <ele>86.599998474121</ele>
        <time>2022-10-13T13:39:47Z</time>
      </trkpt>
      <trkpt lat="48.36244" lon="2.78878">
        <ele>86.800003051758</ele>
        <time>2022-10-13T13:39:51Z</time>
      </trkpt>
      <trkpt lat="48.36244" lon="2.78884">
        <ele>86.800003051758</ele>
        <time>2022-10-13T13:39:55Z</time>
      </trkpt>
      <trkpt lat="48.36244" lon="2.78887">
        <ele>86.800003051758</ele>
        <time>2022-10-13T13:39:59Z</time>
      </trkpt>
      <trkpt lat="48.36243" lon="2.78894">
        <ele>86.800003051758</ele>
        <time>2022-10-13T13:40:03Z</time>
      </trkpt>
      <trkpt lat="48.36243" lon="2.789">
        <ele>87</ele>
        <time>2022-10-13T13:40:07Z</time>
      </trkpt>
      <trkpt lat="48.36243" lon="2.78904">
        <ele>87</ele>
        <time>2022-10-13T13:40:11Z</time>
      </trkpt>
      <trkpt lat="48.36243" lon="2.7891">
        <ele>87.199996948242</ele>
        <time>2022-10-13T13:40:15Z</time>
      </trkpt>
      <trkpt lat="48.36243" lon="2.78914">
        <ele>87.199996948242</ele>
        <time>2022-10-13T13:40:19Z</time>
      </trkpt>
      <trkpt lat="48.36244" lon="2.78921">
        <ele>87.400001525879</ele>
        <time>2022-10-13T13:40:23Z</time>
      </trkpt>
      <trkpt lat="48.36245" lon="2.78926">
        <ele>87.400001525879</ele>
        <time>2022-10-13T13:40:27Z</time>
      </trkpt>
      <trkpt lat="48.36245" lon="2.78932">
        <ele>87.599998474121</ele>
        <time>2022-10-13T13:40:31Z</time>
      </trkpt>
      <trkpt lat="48.36244" lon="2.78937">
        <ele>87.599998474121</ele>
        <time>2022-10-13T13:40:35Z</time>
      </trkpt>
      <trkpt lat="48.36244" lon="2.7894">
        <ele>87.800003051758</ele>
        <time>2022-10-13T13:40:39Z</time>
      </trkpt>
      <trkpt lat="48.36243" lon="2.78948">
        <ele>87.800003051758</ele>
        <time>2022-10-13T13:40:43Z</time>
      </trkpt>
      <trkpt lat="48.36243" lon="2.78954">
        <ele>87.599998474121</ele>
        <time>2022-10-13T13:40:47Z</time>
      </trkpt>
      <trkpt lat="48.36243" lon="2.78958">
        <ele>87.599998474121</ele>
        <time>2022-10-13T13:40:51Z</time>
      </trkpt>
      <trkpt lat="48.36243" lon="2.78964">
        <ele>87.599998474121</ele>
        <time>2022-10-13T13:40:55Z</time>
      </trkpt>
      <trkpt lat="48.36243" lon="2.7897">
        <ele>87.599998474121</ele>
        <time>2022-10-13T13:40:59Z</time>
      </trkpt>
      <trkpt lat="48.36242" lon="2.78977">
        <ele>87.599998474121</ele>
        <time>2022-10-13T13:41:03Z</time>
      </trkpt>
      <trkpt lat="48.36241" lon="2.78983">
        <ele>87.599998474121</ele>
        <time>2022-10-13T13:41:07Z</time>
      </trkpt>
      <trkpt lat="48.3624" lon="2.78986">
        <ele>87.599998474121</ele>
        <time>2022-10-13T13:41:11Z</time>
      </trkpt>
      <trkpt lat="48.36239" lon="2.78991">
        <ele>87.400001525879</ele>
        <time>2022-10-13T13:41:15Z</time>
      </trkpt>
      <trkpt lat="48.36237" lon="2.78998">
        <ele>87.400001525879</ele>
        <time>2022-10-13T13:41:19Z</time>
      </trkpt>
      <trkpt lat="48.36235" lon="2.79004">
        <ele>87.400001525879</ele>
        <time>2022-10-13T13:41:23Z</time>
      </trkpt>
      <trkpt lat="48.36235" lon="2.79008">
        <ele>87.400001525879</ele>
        <time>2022-10-13T13:41:27Z</time>
      </trkpt>
      <trkpt lat="48.36232" lon="2.79017">
        <ele>87.400001525879</ele>
        <time>2022-10-13T13:41:31Z</time>
      </trkpt>
      <trkpt lat="48.36232" lon="2.79024">
        <ele>87.400001525879</ele>
        <time>2022-10-13T13:41:35Z</time>
      </trkpt>
      <trkpt lat="48.36232" lon="2.79031">
        <ele>87.400001525879</ele>
        <time>2022-10-13T13:41:39Z</time>
      </trkpt>
      <trkpt lat="48.36231" lon="2.79038">
        <ele>87.400001525879</ele>
        <time>2022-10-13T13:41:43Z</time>
      </trkpt>
      <trkpt lat="48.3623" lon="2.79043">
        <ele>87.400001525879</ele>
        <time>2022-10-13T13:41:47Z</time>
      </trkpt>
      <trkpt lat="48.3623" lon="2.79049">
        <ele>87.400001525879</ele>
        <time>2022-10-13T13:41:51Z</time>
      </trkpt>
      <trkpt lat="48.36229" lon="2.79054">
        <ele>87.400001525879</ele>
        <time>2022-10-13T13:41:55Z</time>
      </trkpt>
      <trkpt lat="48.3623" lon="2.7906">
        <ele>87.400001525879</ele>
        <time>2022-10-13T13:41:59Z</time>
      </trkpt>
      <trkpt lat="48.36231" lon="2.79062">
        <ele>87.400001525879</ele>
        <time>2022-10-13T13:42:03Z</time>
      </trkpt>
      <trkpt lat="48.36232" lon="2.79066">
        <ele>87.400001525879</ele>
        <time>2022-10-13T13:42:07Z</time>
      </trkpt>
      <trkpt lat="48.36232" lon="2.79067">
        <ele>87.400001525879</ele>
        <time>2022-10-13T13:42:11Z</time>
      </trkpt>
      <trkpt lat="48.36232" lon="2.79069">
        <ele>87.400001525879</ele>
        <time>2022-10-13T13:42:15Z</time>
      </trkpt>
      <trkpt lat="48.36232" lon="2.7907">
        <ele>87.400001525879</ele>
        <time>2022-10-13T13:42:19Z</time>
      </trkpt>
      <trkpt lat="48.36232" lon="2.79073">
        <ele>87.400001525879</ele>
        <time>2022-10-13T13:42:23Z</time>
      </trkpt>
      <trkpt lat="48.36232" lon="2.79077">
        <ele>87.400001525879</ele>
        <time>2022-10-13T13:42:27Z</time>
      </trkpt>
      <trkpt lat="48.36231" lon="2.79083">
        <ele>87.400001525879</ele>
        <time>2022-10-13T13:42:31Z</time>
      </trkpt>
      <trkpt lat="48.3623" lon="2.7909">
        <ele>87.400001525879</ele>
        <time>2022-10-13T13:42:35Z</time>
      </trkpt>
      <trkpt lat="48.3623" lon="2.79097">
        <ele>87.400001525879</ele>
        <time>2022-10-13T13:42:39Z</time>
      </trkpt>
      <trkpt lat="48.36226" lon="2.79102">
        <ele>87.400001525879</ele>
        <time>2022-10-13T13:42:43Z</time>
      </trkpt>
      <trkpt lat="48.36223" lon="2.79109">
        <ele>87.400001525879</ele>
        <time>2022-10-13T13:42:47Z</time>
      </trkpt>
      <trkpt lat="48.36218" lon="2.79126">
        <ele>87.400001525879</ele>
        <time>2022-10-13T13:42:51Z</time>
      </trkpt>
      <trkpt lat="48.36212" lon="2.79138">
        <ele>87.400001525879</ele>
        <time>2022-10-13T13:42:55Z</time>
      </trkpt>
      <trkpt lat="48.36203" lon="2.79152">
        <ele>87.599998474121</ele>
        <time>2022-10-13T13:42:59Z</time>
      </trkpt>
      <trkpt lat="48.362" lon="2.79165">
        <ele>87.599998474121</ele>
        <time>2022-10-13T13:43:03Z</time>
      </trkpt>
      <trkpt lat="48.36199" lon="2.79176">
        <ele>87.599998474121</ele>
        <time>2022-10-13T13:43:07Z</time>
      </trkpt>
      <trkpt lat="48.36199" lon="2.79184">
        <ele>87.599998474121</ele>
        <time>2022-10-13T13:43:11Z</time>
      </trkpt>
      <trkpt lat="48.36199" lon="2.7919">
        <ele>87.599998474121</ele>
        <time>2022-10-13T13:43:15Z</time>
      </trkpt>
      <trkpt lat="48.36199" lon="2.79196">
        <ele>87.800003051758</ele>
        <time>2022-10-13T13:43:19Z</time>
      </trkpt>
      <trkpt lat="48.36198" lon="2.79202">
        <ele>87.800003051758</ele>
        <time>2022-10-13T13:43:23Z</time>
      </trkpt>
      <trkpt lat="48.36198" lon="2.79208">
        <ele>87.800003051758</ele>
        <time>2022-10-13T13:43:27Z</time>
      </trkpt>
      <trkpt lat="48.36197" lon="2.79213">
        <ele>87.800003051758</ele>
        <time>2022-10-13T13:43:31Z</time>
      </trkpt>
      <trkpt lat="48.36196" lon="2.79218">
        <ele>87.800003051758</ele>
        <time>2022-10-13T13:43:35Z</time>
      </trkpt>
      <trkpt lat="48.36196" lon="2.79223">
        <ele>87.800003051758</ele>
        <time>2022-10-13T13:43:39Z</time>
      </trkpt>
      <trkpt lat="48.36195" lon="2.79228">
        <ele>87.800003051758</ele>
        <time>2022-10-13T13:43:43Z</time>
      </trkpt>
      <trkpt lat="48.36196" lon="2.79229">
        <ele>87.800003051758</ele>
        <time>2022-10-13T13:43:47Z</time>
      </trkpt>
      <trkpt lat="48.36196" lon="2.79229">
        <ele>87.800003051758</ele>
        <time>2022-10-13T13:43:51Z</time>
      </trkpt>
      <trkpt lat="48.36196" lon="2.79227">
        <ele>87.599998474121</ele>
        <time>2022-10-13T13:43:55Z</time>
      </trkpt>
      <trkpt lat="48.36195" lon="2.79226">
        <ele>87.599998474121</ele>
        <time>2022-10-13T13:43:59Z</time>
      </trkpt>
      <trkpt lat="48.36195" lon="2.79225">
        <ele>87.599998474121</ele>
        <time>2022-10-13T13:44:03Z</time>
      </trkpt>
      <trkpt lat="48.36194" lon="2.79226">
        <ele>87.599998474121</ele>
        <time>2022-10-13T13:44:07Z</time>
      </trkpt>
      <trkpt lat="48.36193" lon="2.79227">
        <ele>87.800003051758</ele>
        <time>2022-10-13T13:44:11Z</time>
      </trkpt>
      <trkpt lat="48.36189" lon="2.79226">
        <ele>87.800003051758</ele>
        <time>2022-10-13T13:44:15Z</time>
      </trkpt>
      <trkpt lat="48.3619" lon="2.79223">
        <ele>87.800003051758</ele>
        <time>2022-10-13T13:44:19Z</time>
      </trkpt>
      <trkpt lat="48.3619" lon="2.79222">
        <ele>87.800003051758</ele>
        <time>2022-10-13T13:44:23Z</time>
      </trkpt>
      <trkpt lat="48.3619" lon="2.79221">
        <ele>87.800003051758</ele>
        <time>2022-10-13T13:44:27Z</time>
      </trkpt>
      <trkpt lat="48.36188" lon="2.79218">
        <ele>87.800003051758</ele>
        <time>2022-10-13T13:44:31Z</time>
      </trkpt>
      <trkpt lat="48.36187" lon="2.79216">
        <ele>87.800003051758</ele>
        <time>2022-10-13T13:44:35Z</time>
      </trkpt>
      <trkpt lat="48.36187" lon="2.79215">
        <ele>87.599998474121</ele>
        <time>2022-10-13T13:44:39Z</time>
      </trkpt>
      <trkpt lat="48.3619" lon="2.79215">
        <ele>87.800003051758</ele>
        <time>2022-10-13T13:44:43Z</time>
      </trkpt>
      <trkpt lat="48.3619" lon="2.79216">
        <ele>87.800003051758</ele>
        <time>2022-10-13T13:44:47Z</time>
      </trkpt>
      <trkpt lat="48.36191" lon="2.79218">
        <ele>87.800003051758</ele>
        <time>2022-10-13T13:44:51Z</time>
      </trkpt>
      <trkpt lat="48.36191" lon="2.79218">
        <ele>87.800003051758</ele>
        <time>2022-10-13T13:44:55Z</time>
      </trkpt>
      <trkpt lat="48.36193" lon="2.79221">
        <ele>87.800003051758</ele>
        <time>2022-10-13T13:44:59Z</time>
      </trkpt>
      <trkpt lat="48.36194" lon="2.79221">
        <ele>87.800003051758</ele>
        <time>2022-10-13T13:45:03Z</time>
      </trkpt>
      <trkpt lat="48.36194" lon="2.79223">
        <ele>87.800003051758</ele>
        <time>2022-10-13T13:45:07Z</time>
      </trkpt>
      <trkpt lat="48.36193" lon="2.79224">
        <ele>87.599998474121</ele>
        <time>2022-10-13T13:45:11Z</time>
      </trkpt>
      <trkpt lat="48.36193" lon="2.79224">
        <ele>87.800003051758</ele>
        <time>2022-10-13T13:45:15Z</time>
      </trkpt>
      <trkpt lat="48.36194" lon="2.79227">
        <ele>87.800003051758</ele>
        <time>2022-10-13T13:45:19Z</time>
      </trkpt>
      <trkpt lat="48.36195" lon="2.79228">
        <ele>87.800003051758</ele>
        <time>2022-10-13T13:45:23Z</time>
      </trkpt>
      <trkpt lat="48.36195" lon="2.79228">
        <ele>87.800003051758</ele>
        <time>2022-10-13T13:45:27Z</time>
      </trkpt>
      <trkpt lat="48.36195" lon="2.79227">
        <ele>87.800003051758</ele>
        <time>2022-10-13T13:45:31Z</time>
      </trkpt>
      <trkpt lat="48.36195" lon="2.79227">
        <ele>87.800003051758</ele>
        <time>2022-10-13T13:45:35Z</time>
      </trkpt>
      <trkpt lat="48.36195" lon="2.79226">
        <ele>87.800003051758</ele>
        <time>2022-10-13T13:45:39Z</time>
      </trkpt>
      <trkpt lat="48.36194" lon="2.79225">
        <ele>87.800003051758</ele>
        <time>2022-10-13T13:45:43Z</time>
      </trkpt>
      <trkpt lat="48.36193" lon="2.79224">
        <ele>87.800003051758</ele>
        <time>2022-10-13T13:45:47Z</time>
      </trkpt>
      <trkpt lat="48.36193" lon="2.79221">
        <ele>87.800003051758</ele>
        <time>2022-10-13T13:45:51Z</time>
      </trkpt>
      <trkpt lat="48.3619" lon="2.7922">
        <ele>87.800003051758</ele>
        <time>2022-10-13T13:45:55Z</time>
      </trkpt>
      <trkpt lat="48.36187" lon="2.7922">
        <ele>87.800003051758</ele>
        <time>2022-10-13T13:45:59Z</time>
      </trkpt>
      <trkpt lat="48.36188" lon="2.79222">
        <ele>87.800003051758</ele>
        <time>2022-10-13T13:46:03Z</time>
      </trkpt>
      <trkpt lat="48.36188" lon="2.79225">
        <ele>87.599998474121</ele>
        <time>2022-10-13T13:46:07Z</time>
      </trkpt>
      <trkpt lat="48.36189" lon="2.79226">
        <ele>87.599998474121</ele>
        <time>2022-10-13T13:46:11Z</time>
      </trkpt>
      <trkpt lat="48.36189" lon="2.79226">
        <ele>87.599998474121</ele>
        <time>2022-10-13T13:46:15Z</time>
      </trkpt>
      <trkpt lat="48.36189" lon="2.79229">
        <ele>87.800003051758</ele>
        <time>2022-10-13T13:46:19Z</time>
      </trkpt>
      <trkpt lat="48.36189" lon="2.79227">
        <ele>87.800003051758</ele>
        <time>2022-10-13T13:46:23Z</time>
      </trkpt>
      <trkpt lat="48.36189" lon="2.7923">
        <ele>87.800003051758</ele>
        <time>2022-10-13T13:46:27Z</time>
      </trkpt>
      <trkpt lat="48.36189" lon="2.79234">
        <ele>88</ele>
        <time>2022-10-13T13:46:31Z</time>
      </trkpt>
      <trkpt lat="48.3619" lon="2.79236">
        <ele>88</ele>
        <time>2022-10-13T13:46:35Z</time>
      </trkpt>
      <trkpt lat="48.36191" lon="2.79241">
        <ele>88</ele>
        <time>2022-10-13T13:46:39Z</time>
      </trkpt>
      <trkpt lat="48.36191" lon="2.79249">
        <ele>88.400001525879</ele>
        <time>2022-10-13T13:46:43Z</time>
      </trkpt>
      <trkpt lat="48.36191" lon="2.79251">
        <ele>88.599998474121</ele>
        <time>2022-10-13T13:46:47Z</time>
      </trkpt>
      <trkpt lat="48.3619" lon="2.79254">
        <ele>88.400001525879</ele>
        <time>2022-10-13T13:46:51Z</time>
      </trkpt>
      <trkpt lat="48.3619" lon="2.79257">
        <ele>88.400001525879</ele>
        <time>2022-10-13T13:46:55Z</time>
      </trkpt>
      <trkpt lat="48.3619" lon="2.7926">
        <ele>88.400001525879</ele>
        <time>2022-10-13T13:46:59Z</time>
      </trkpt>
      <trkpt lat="48.36189" lon="2.79262">
        <ele>88.400001525879</ele>
        <time>2022-10-13T13:47:03Z</time>
      </trkpt>
      <trkpt lat="48.3619" lon="2.79266">
        <ele>88.199996948242</ele>
        <time>2022-10-13T13:47:07Z</time>
      </trkpt>
      <trkpt lat="48.36192" lon="2.79269">
        <ele>88.199996948242</ele>
        <time>2022-10-13T13:47:11Z</time>
      </trkpt>
      <trkpt lat="48.36196" lon="2.79278">
        <ele>88.199996948242</ele>
        <time>2022-10-13T13:47:15Z</time>
      </trkpt>
      <trkpt lat="48.36197" lon="2.79282">
        <ele>88</ele>
        <time>2022-10-13T13:47:19Z</time>
      </trkpt>
      <trkpt lat="48.36196" lon="2.79285">
        <ele>88</ele>
        <time>2022-10-13T13:47:23Z</time>
      </trkpt>
      <trkpt lat="48.36196" lon="2.79289">
        <ele>88</ele>
        <time>2022-10-13T13:47:27Z</time>
      </trkpt>
      <trkpt lat="48.36196" lon="2.79293">
        <ele>88</ele>
        <time>2022-10-13T13:47:31Z</time>
      </trkpt>
      <trkpt lat="48.36197" lon="2.79299">
        <ele>88</ele>
        <time>2022-10-13T13:47:35Z</time>
      </trkpt>
      <trkpt lat="48.36197" lon="2.79305">
        <ele>88</ele>
        <time>2022-10-13T13:47:39Z</time>
      </trkpt>
      <trkpt lat="48.36197" lon="2.79311">
        <ele>88</ele>
        <time>2022-10-13T13:47:43Z</time>
      </trkpt>
      <trkpt lat="48.36205" lon="2.79327">
        <ele>88</ele>
        <time>2022-10-13T13:47:47Z</time>
      </trkpt>
      <trkpt lat="48.36204" lon="2.79353">
        <ele>88</ele>
        <time>2022-10-13T13:47:51Z</time>
      </trkpt>
      <trkpt lat="48.36199" lon="2.79367">
        <ele>88</ele>
        <time>2022-10-13T13:47:55Z</time>
      </trkpt>
      <trkpt lat="48.36199" lon="2.79371">
        <ele>88</ele>
        <time>2022-10-13T13:47:59Z</time>
      </trkpt>
      <trkpt lat="48.36199" lon="2.79374">
        <ele>87.800003051758</ele>
        <time>2022-10-13T13:48:03Z</time>
      </trkpt>
      <trkpt lat="48.36198" lon="2.79377">
        <ele>87.800003051758</ele>
        <time>2022-10-13T13:48:07Z</time>
      </trkpt>
      <trkpt lat="48.362" lon="2.79381">
        <ele>87.800003051758</ele>
        <time>2022-10-13T13:48:11Z</time>
      </trkpt>
      <trkpt lat="48.36201" lon="2.79386">
        <ele>87.800003051758</ele>
        <time>2022-10-13T13:48:15Z</time>
      </trkpt>
      <trkpt lat="48.36202" lon="2.79392">
        <ele>87.800003051758</ele>
        <time>2022-10-13T13:48:19Z</time>
      </trkpt>
      <trkpt lat="48.36204" lon="2.79397">
        <ele>88</ele>
        <time>2022-10-13T13:48:23Z</time>
      </trkpt>
      <trkpt lat="48.36204" lon="2.79402">
        <ele>88</ele>
        <time>2022-10-13T13:48:27Z</time>
      </trkpt>
      <trkpt lat="48.36203" lon="2.79406">
        <ele>88</ele>
        <time>2022-10-13T13:48:31Z</time>
      </trkpt>
      <trkpt lat="48.36203" lon="2.79412">
        <ele>88</ele>
        <time>2022-10-13T13:48:35Z</time>
      </trkpt>
      <trkpt lat="48.36203" lon="2.79419">
        <ele>88</ele>
        <time>2022-10-13T13:48:39Z</time>
      </trkpt>
      <trkpt lat="48.36198" lon="2.79432">
        <ele>88</ele>
        <time>2022-10-13T13:48:43Z</time>
      </trkpt>
      <trkpt lat="48.36199" lon="2.7944">
        <ele>88</ele>
        <time>2022-10-13T13:48:47Z</time>
      </trkpt>
      <trkpt lat="48.36197" lon="2.79443">
        <ele>88</ele>
        <time>2022-10-13T13:48:51Z</time>
      </trkpt>
      <trkpt lat="48.36194" lon="2.79445">
        <ele>87.800003051758</ele>
        <time>2022-10-13T13:48:55Z</time>
      </trkpt>
      <trkpt lat="48.3619" lon="2.79449">
        <ele>87.800003051758</ele>
        <time>2022-10-13T13:48:59Z</time>
      </trkpt>
      <trkpt lat="48.36187" lon="2.7945">
        <ele>87.599998474121</ele>
        <time>2022-10-13T13:49:03Z</time>
      </trkpt>
      <trkpt lat="48.36186" lon="2.7945">
        <ele>87.400001525879</ele>
        <time>2022-10-13T13:49:07Z</time>
      </trkpt>
      <trkpt lat="48.36184" lon="2.79451">
        <ele>87.199996948242</ele>
        <time>2022-10-13T13:49:11Z</time>
      </trkpt>
      <trkpt lat="48.36179" lon="2.79453">
        <ele>86.800003051758</ele>
        <time>2022-10-13T13:49:15Z</time>
      </trkpt>
      <trkpt lat="48.36173" lon="2.79454">
        <ele>86.599998474121</ele>
        <time>2022-10-13T13:49:19Z</time>
      </trkpt>
      <trkpt lat="48.36168" lon="2.79454">
        <ele>86.400001525879</ele>
        <time>2022-10-13T13:49:23Z</time>
      </trkpt>
      <trkpt lat="48.36163" lon="2.79458">
        <ele>86.199996948242</ele>
        <time>2022-10-13T13:49:27Z</time>
      </trkpt>
      <trkpt lat="48.36158" lon="2.79459">
        <ele>86</ele>
        <time>2022-10-13T13:49:31Z</time>
      </trkpt>
      <trkpt lat="48.36156" lon="2.7946">
        <ele>85.800003051758</ele>
        <time>2022-10-13T13:49:35Z</time>
      </trkpt>
      <trkpt lat="48.36154" lon="2.79462">
        <ele>85.800003051758</ele>
        <time>2022-10-13T13:49:39Z</time>
      </trkpt>
      <trkpt lat="48.36148" lon="2.79465">
        <ele>85.599998474121</ele>
        <time>2022-10-13T13:49:43Z</time>
      </trkpt>
      <trkpt lat="48.36147" lon="2.79467">
        <ele>85.400001525879</ele>
        <time>2022-10-13T13:49:47Z</time>
      </trkpt>
      <trkpt lat="48.36144" lon="2.79467">
        <ele>85</ele>
        <time>2022-10-13T13:49:51Z</time>
      </trkpt>
      <trkpt lat="48.36138" lon="2.79469">
        <ele>84.800003051758</ele>
        <time>2022-10-13T13:49:55Z</time>
      </trkpt>
      <trkpt lat="48.36132" lon="2.79472">
        <ele>84.800003051758</ele>
        <time>2022-10-13T13:49:59Z</time>
      </trkpt>
      <trkpt lat="48.36128" lon="2.79474">
        <ele>84.400001525879</ele>
        <time>2022-10-13T13:50:03Z</time>
      </trkpt>
      <trkpt lat="48.36125" lon="2.79476">
        <ele>84.400001525879</ele>
        <time>2022-10-13T13:50:07Z</time>
      </trkpt>
      <trkpt lat="48.36121" lon="2.79478">
        <ele>84.199996948242</ele>
        <time>2022-10-13T13:50:11Z</time>
      </trkpt>
      <trkpt lat="48.36116" lon="2.7948">
        <ele>84</ele>
        <time>2022-10-13T13:50:15Z</time>
      </trkpt>
      <trkpt lat="48.36111" lon="2.79481">
        <ele>83.800003051758</ele>
        <time>2022-10-13T13:50:19Z</time>
      </trkpt>
      <trkpt lat="48.36106" lon="2.79482">
        <ele>83.599998474121</ele>
        <time>2022-10-13T13:50:23Z</time>
      </trkpt>
      <trkpt lat="48.36102" lon="2.79485">
        <ele>83.400001525879</ele>
        <time>2022-10-13T13:50:27Z</time>
      </trkpt>
      <trkpt lat="48.36097" lon="2.79487">
        <ele>83.199996948242</ele>
        <time>2022-10-13T13:50:31Z</time>
      </trkpt>
      <trkpt lat="48.36093" lon="2.79489">
        <ele>83</ele>
        <time>2022-10-13T13:50:35Z</time>
      </trkpt>
      <trkpt lat="48.3609" lon="2.7949">
        <ele>82.800003051758</ele>
        <time>2022-10-13T13:50:39Z</time>
      </trkpt>
      <trkpt lat="48.36086" lon="2.79494">
        <ele>82.599998474121</ele>
        <time>2022-10-13T13:50:43Z</time>
      </trkpt>
      <trkpt lat="48.36084" lon="2.79494">
        <ele>82.400001525879</ele>
        <time>2022-10-13T13:50:47Z</time>
      </trkpt>
      <trkpt lat="48.3608" lon="2.79496">
        <ele>82.199996948242</ele>
        <time>2022-10-13T13:50:51Z</time>
      </trkpt>
      <trkpt lat="48.36076" lon="2.79497">
        <ele>82</ele>
        <time>2022-10-13T13:50:55Z</time>
      </trkpt>
      <trkpt lat="48.36071" lon="2.795">
        <ele>82</ele>
        <time>2022-10-13T13:50:59Z</time>
      </trkpt>
      <trkpt lat="48.36067" lon="2.79503">
        <ele>81.800003051758</ele>
        <time>2022-10-13T13:51:03Z</time>
      </trkpt>
      <trkpt lat="48.36062" lon="2.79506">
        <ele>81.599998474121</ele>
        <time>2022-10-13T13:51:07Z</time>
      </trkpt>
      <trkpt lat="48.36056" lon="2.7951">
        <ele>81.599998474121</ele>
        <time>2022-10-13T13:51:11Z</time>
      </trkpt>
      <trkpt lat="48.36052" lon="2.79512">
        <ele>81.400001525879</ele>
        <time>2022-10-13T13:51:15Z</time>
      </trkpt>
      <trkpt lat="48.36047" lon="2.79515">
        <ele>81.199996948242</ele>
        <time>2022-10-13T13:51:19Z</time>
      </trkpt>
      <trkpt lat="48.36043" lon="2.79518">
        <ele>81</ele>
        <time>2022-10-13T13:51:23Z</time>
      </trkpt>
      <trkpt lat="48.36038" lon="2.79521">
        <ele>81</ele>
        <time>2022-10-13T13:51:27Z</time>
      </trkpt>
      <trkpt lat="48.36034" lon="2.79525">
        <ele>80.800003051758</ele>
        <time>2022-10-13T13:51:31Z</time>
      </trkpt>
      <trkpt lat="48.36029" lon="2.79527">
        <ele>80.400001525879</ele>
        <time>2022-10-13T13:51:35Z</time>
      </trkpt>
      <trkpt lat="48.36025" lon="2.79527">
        <ele>80.199996948242</ele>
        <time>2022-10-13T13:51:39Z</time>
      </trkpt>
      <trkpt lat="48.36022" lon="2.79527">
        <ele>80</ele>
        <time>2022-10-13T13:51:43Z</time>
      </trkpt>
      <trkpt lat="48.36018" lon="2.79527">
        <ele>79.800003051758</ele>
        <time>2022-10-13T13:51:47Z</time>
      </trkpt>
      <trkpt lat="48.36013" lon="2.79529">
        <ele>79.400001525879</ele>
        <time>2022-10-13T13:51:51Z</time>
      </trkpt>
      <trkpt lat="48.3601" lon="2.7953">
        <ele>79.199996948242</ele>
        <time>2022-10-13T13:51:55Z</time>
      </trkpt>
      <trkpt lat="48.36007" lon="2.79533">
        <ele>79</ele>
        <time>2022-10-13T13:51:59Z</time>
      </trkpt>
      <trkpt lat="48.36" lon="2.79539">
        <ele>78.800003051758</ele>
        <time>2022-10-13T13:52:03Z</time>
      </trkpt>
      <trkpt lat="48.35995" lon="2.7954">
        <ele>78.400001525879</ele>
        <time>2022-10-13T13:52:07Z</time>
      </trkpt>
      <trkpt lat="48.35993" lon="2.7954">
        <ele>78.199996948242</ele>
        <time>2022-10-13T13:52:11Z</time>
      </trkpt>
      <trkpt lat="48.35988" lon="2.79542">
        <ele>77.800003051758</ele>
        <time>2022-10-13T13:52:15Z</time>
      </trkpt>
      <trkpt lat="48.35987" lon="2.79543">
        <ele>77.599998474121</ele>
        <time>2022-10-13T13:52:19Z</time>
      </trkpt>
      <trkpt lat="48.35982" lon="2.79544">
        <ele>77.400001525879</ele>
        <time>2022-10-13T13:52:23Z</time>
      </trkpt>
      <trkpt lat="48.35977" lon="2.79546">
        <ele>77</ele>
        <time>2022-10-13T13:52:27Z</time>
      </trkpt>
      <trkpt lat="48.35972" lon="2.79548">
        <ele>76.800003051758</ele>
        <time>2022-10-13T13:52:31Z</time>
      </trkpt>
      <trkpt lat="48.35968" lon="2.79549">
        <ele>76.599998474121</ele>
        <time>2022-10-13T13:52:35Z</time>
      </trkpt>
      <trkpt lat="48.35963" lon="2.79551">
        <ele>76.199996948242</ele>
        <time>2022-10-13T13:52:39Z</time>
      </trkpt>
      <trkpt lat="48.35959" lon="2.79554">
        <ele>76</ele>
        <time>2022-10-13T13:52:43Z</time>
      </trkpt>
      <trkpt lat="48.35954" lon="2.79558">
        <ele>75.599998474121</ele>
        <time>2022-10-13T13:52:47Z</time>
      </trkpt>
      <trkpt lat="48.3595" lon="2.7956">
        <ele>75.199996948242</ele>
        <time>2022-10-13T13:52:51Z</time>
      </trkpt>
      <trkpt lat="48.35946" lon="2.79564">
        <ele>74.800003051758</ele>
        <time>2022-10-13T13:52:55Z</time>
      </trkpt>
      <trkpt lat="48.35941" lon="2.79567">
        <ele>74.400001525879</ele>
        <time>2022-10-13T13:52:59Z</time>
      </trkpt>
      <trkpt lat="48.35936" lon="2.7957">
        <ele>74.199996948242</ele>
        <time>2022-10-13T13:53:03Z</time>
      </trkpt>
      <trkpt lat="48.35932" lon="2.79571">
        <ele>74</ele>
        <time>2022-10-13T13:53:07Z</time>
      </trkpt>
      <trkpt lat="48.35926" lon="2.79573">
        <ele>73.599998474121</ele>
        <time>2022-10-13T13:53:11Z</time>
      </trkpt>
      <trkpt lat="48.35922" lon="2.79573">
        <ele>73.400001525879</ele>
        <time>2022-10-13T13:53:15Z</time>
      </trkpt>
      <trkpt lat="48.35917" lon="2.79575">
        <ele>73.199996948242</ele>
        <time>2022-10-13T13:53:19Z</time>
      </trkpt>
      <trkpt lat="48.35912" lon="2.79577">
        <ele>72.800003051758</ele>
        <time>2022-10-13T13:53:23Z</time>
      </trkpt>
      <trkpt lat="48.35908" lon="2.79579">
        <ele>72.599998474121</ele>
        <time>2022-10-13T13:53:27Z</time>
      </trkpt>
      <trkpt lat="48.35904" lon="2.79581">
        <ele>72.400001525879</ele>
        <time>2022-10-13T13:53:31Z</time>
      </trkpt>
      <trkpt lat="48.359" lon="2.79583">
        <ele>72.199996948242</ele>
        <time>2022-10-13T13:53:35Z</time>
      </trkpt>
      <trkpt lat="48.35896" lon="2.79584">
        <ele>72</ele>
        <time>2022-10-13T13:53:39Z</time>
      </trkpt>
      <trkpt lat="48.35892" lon="2.79587">
        <ele>71.800003051758</ele>
        <time>2022-10-13T13:53:43Z</time>
      </trkpt>
      <trkpt lat="48.35886" lon="2.7959">
        <ele>71.400001525879</ele>
        <time>2022-10-13T13:53:47Z</time>
      </trkpt>
      <trkpt lat="48.35881" lon="2.79592">
        <ele>71.199996948242</ele>
        <time>2022-10-13T13:53:51Z</time>
      </trkpt>
      <trkpt lat="48.35878" lon="2.79591">
        <ele>71</ele>
        <time>2022-10-13T13:53:55Z</time>
      </trkpt>
      <trkpt lat="48.35876" lon="2.79588">
        <ele>70.800003051758</ele>
        <time>2022-10-13T13:53:59Z</time>
      </trkpt>
      <trkpt lat="48.35872" lon="2.7959">
        <ele>70.599998474121</ele>
        <time>2022-10-13T13:54:03Z</time>
      </trkpt>
      <trkpt lat="48.3587" lon="2.79598">
        <ele>70.599998474121</ele>
        <time>2022-10-13T13:54:07Z</time>
      </trkpt>
      <trkpt lat="48.35866" lon="2.79602">
        <ele>70.400001525879</ele>
        <time>2022-10-13T13:54:11Z</time>
      </trkpt>
      <trkpt lat="48.35863" lon="2.79607">
        <ele>70.400001525879</ele>
        <time>2022-10-13T13:54:15Z</time>
      </trkpt>
      <trkpt lat="48.35859" lon="2.79611">
        <ele>70.199996948242</ele>
        <time>2022-10-13T13:54:19Z</time>
      </trkpt>
      <trkpt lat="48.35854" lon="2.79614">
        <ele>69.800003051758</ele>
        <time>2022-10-13T13:54:23Z</time>
      </trkpt>
      <trkpt lat="48.35849" lon="2.79615">
        <ele>69.599998474121</ele>
        <time>2022-10-13T13:54:27Z</time>
      </trkpt>
      <trkpt lat="48.35844" lon="2.79616">
        <ele>69.599998474121</ele>
        <time>2022-10-13T13:54:31Z</time>
      </trkpt>
      <trkpt lat="48.35838" lon="2.79616">
        <ele>69.599998474121</ele>
        <time>2022-10-13T13:54:35Z</time>
      </trkpt>
      <trkpt lat="48.35833" lon="2.79618">
        <ele>69.400001525879</ele>
        <time>2022-10-13T13:54:39Z</time>
      </trkpt>
      <trkpt lat="48.35829" lon="2.79622">
        <ele>69.400001525879</ele>
        <time>2022-10-13T13:54:43Z</time>
      </trkpt>
      <trkpt lat="48.35821" lon="2.79627">
        <ele>69.199996948242</ele>
        <time>2022-10-13T13:54:47Z</time>
      </trkpt>
      <trkpt lat="48.35819" lon="2.79629">
        <ele>68.800003051758</ele>
        <time>2022-10-13T13:54:51Z</time>
      </trkpt>
      <trkpt lat="48.35819" lon="2.79629">
        <ele>68.599998474121</ele>
        <time>2022-10-13T13:54:55Z</time>
      </trkpt>
      <trkpt lat="48.35819" lon="2.79629">
        <ele>68.800003051758</ele>
        <time>2022-10-13T13:54:59Z</time>
      </trkpt>
      <trkpt lat="48.35819" lon="2.79628">
        <ele>68.800003051758</ele>
        <time>2022-10-13T13:55:03Z</time>
      </trkpt>
      <trkpt lat="48.3582" lon="2.79626">
        <ele>68.800003051758</ele>
        <time>2022-10-13T13:55:07Z</time>
      </trkpt>
      <trkpt lat="48.35821" lon="2.79626">
        <ele>68.800003051758</ele>
        <time>2022-10-13T13:55:11Z</time>
      </trkpt>
      <trkpt lat="48.35821" lon="2.79628">
        <ele>68.800003051758</ele>
        <time>2022-10-13T13:55:15Z</time>
      </trkpt>
      <trkpt lat="48.35821" lon="2.79632">
        <ele>69</ele>
        <time>2022-10-13T13:55:19Z</time>
      </trkpt>
      <trkpt lat="48.35822" lon="2.79637">
        <ele>69</ele>
        <time>2022-10-13T13:55:23Z</time>
      </trkpt>
      <trkpt lat="48.35823" lon="2.79641">
        <ele>69</ele>
        <time>2022-10-13T13:55:27Z</time>
      </trkpt>
      <trkpt lat="48.35822" lon="2.79647">
        <ele>69</ele>
        <time>2022-10-13T13:55:31Z</time>
      </trkpt>
      <trkpt lat="48.35822" lon="2.7965">
        <ele>69</ele>
        <time>2022-10-13T13:55:35Z</time>
      </trkpt>
      <trkpt lat="48.35822" lon="2.7965">
        <ele>69</ele>
        <time>2022-10-13T13:55:39Z</time>
      </trkpt>
      <trkpt lat="48.3582" lon="2.79648">
        <ele>69</ele>
        <time>2022-10-13T13:55:43Z</time>
      </trkpt>
      <trkpt lat="48.3582" lon="2.79649">
        <ele>69</ele>
        <time>2022-10-13T13:55:47Z</time>
      </trkpt>
      <trkpt lat="48.35819" lon="2.79647">
        <ele>69</ele>
        <time>2022-10-13T13:55:51Z</time>
      </trkpt>
      <trkpt lat="48.35818" lon="2.79646">
        <ele>68.599998474121</ele>
        <time>2022-10-13T13:55:55Z</time>
      </trkpt>
      <trkpt lat="48.35817" lon="2.79644">
        <ele>68.599998474121</ele>
        <time>2022-10-13T13:55:59Z</time>
      </trkpt>
      <trkpt lat="48.35815" lon="2.79643">
        <ele>68.599998474121</ele>
        <time>2022-10-13T13:56:03Z</time>
      </trkpt>
      <trkpt lat="48.35815" lon="2.79643">
        <ele>68.599998474121</ele>
        <time>2022-10-13T13:56:07Z</time>
      </trkpt>
      <trkpt lat="48.35814" lon="2.79642">
        <ele>68.599998474121</ele>
        <time>2022-10-13T13:56:11Z</time>
      </trkpt>
      <trkpt lat="48.35813" lon="2.79641">
        <ele>68.599998474121</ele>
        <time>2022-10-13T13:56:15Z</time>
      </trkpt>
      <trkpt lat="48.35812" lon="2.7964">
        <ele>68.599998474121</ele>
        <time>2022-10-13T13:56:19Z</time>
      </trkpt>
      <trkpt lat="48.35812" lon="2.79639">
        <ele>68.599998474121</ele>
        <time>2022-10-13T13:56:23Z</time>
      </trkpt>
      <trkpt lat="48.35815" lon="2.7964">
        <ele>68.599998474121</ele>
        <time>2022-10-13T13:56:27Z</time>
      </trkpt>
      <trkpt lat="48.35815" lon="2.79639">
        <ele>68.599998474121</ele>
        <time>2022-10-13T13:56:31Z</time>
      </trkpt>
      <trkpt lat="48.35817" lon="2.79639">
        <ele>68.599998474121</ele>
        <time>2022-10-13T13:56:35Z</time>
      </trkpt>
      <trkpt lat="48.35818" lon="2.7964">
        <ele>68.599998474121</ele>
        <time>2022-10-13T13:56:39Z</time>
      </trkpt>
      <trkpt lat="48.35818" lon="2.7964">
        <ele>68.599998474121</ele>
        <time>2022-10-13T13:56:43Z</time>
      </trkpt>
      <trkpt lat="48.35818" lon="2.7964">
        <ele>68.599998474121</ele>
        <time>2022-10-13T13:56:47Z</time>
      </trkpt>
      <trkpt lat="48.35818" lon="2.79639">
        <ele>68.599998474121</ele>
        <time>2022-10-13T13:56:51Z</time>
      </trkpt>
      <trkpt lat="48.35818" lon="2.79635">
        <ele>68.599998474121</ele>
        <time>2022-10-13T13:56:55Z</time>
      </trkpt>
      <trkpt lat="48.35818" lon="2.79633">
        <ele>68.599998474121</ele>
        <time>2022-10-13T13:56:59Z</time>
      </trkpt>
      <trkpt lat="48.35818" lon="2.79633">
        <ele>68.599998474121</ele>
        <time>2022-10-13T13:57:03Z</time>
      </trkpt>
      <trkpt lat="48.35815" lon="2.79634">
        <ele>68.599998474121</ele>
        <time>2022-10-13T13:57:07Z</time>
      </trkpt>
      <trkpt lat="48.3581" lon="2.79636">
        <ele>68.599998474121</ele>
        <time>2022-10-13T13:57:11Z</time>
      </trkpt>
      <trkpt lat="48.35808" lon="2.79637">
        <ele>68.599998474121</ele>
        <time>2022-10-13T13:57:15Z</time>
      </trkpt>
      <trkpt lat="48.35805" lon="2.79639">
        <ele>68.400001525879</ele>
        <time>2022-10-13T13:57:19Z</time>
      </trkpt>
      <trkpt lat="48.35803" lon="2.79639">
        <ele>68.400001525879</ele>
        <time>2022-10-13T13:57:23Z</time>
      </trkpt>
      <trkpt lat="48.35801" lon="2.7964">
        <ele>68.199996948242</ele>
        <time>2022-10-13T13:57:27Z</time>
      </trkpt>
      <trkpt lat="48.35797" lon="2.79641">
        <ele>68</ele>
        <time>2022-10-13T13:57:31Z</time>
      </trkpt>
      <trkpt lat="48.35792" lon="2.79642">
        <ele>68</ele>
        <time>2022-10-13T13:57:35Z</time>
      </trkpt>
      <trkpt lat="48.3578" lon="2.79645">
        <ele>68</ele>
        <time>2022-10-13T13:57:39Z</time>
      </trkpt>
      <trkpt lat="48.35772" lon="2.79652">
        <ele>67.800003051758</ele>
        <time>2022-10-13T13:57:43Z</time>
      </trkpt>
      <trkpt lat="48.35769" lon="2.79653">
        <ele>67.800003051758</ele>
        <time>2022-10-13T13:57:47Z</time>
      </trkpt>
      <trkpt lat="48.35767" lon="2.79653">
        <ele>67.800003051758</ele>
        <time>2022-10-13T13:57:51Z</time>
      </trkpt>
      <trkpt lat="48.35764" lon="2.79654">
        <ele>67.800003051758</ele>
        <time>2022-10-13T13:57:55Z</time>
      </trkpt>
      <trkpt lat="48.35761" lon="2.79656">
        <ele>67.800003051758</ele>
        <time>2022-10-13T13:57:59Z</time>
      </trkpt>
      <trkpt lat="48.35757" lon="2.79658">
        <ele>67.800003051758</ele>
        <time>2022-10-13T13:58:03Z</time>
      </trkpt>
      <trkpt lat="48.35753" lon="2.79658">
        <ele>68</ele>
        <time>2022-10-13T13:58:07Z</time>
      </trkpt>
      <trkpt lat="48.3575" lon="2.79659">
        <ele>68.199996948242</ele>
        <time>2022-10-13T13:58:11Z</time>
      </trkpt>
      <trkpt lat="48.35748" lon="2.79661">
        <ele>68.199996948242</ele>
        <time>2022-10-13T13:58:15Z</time>
      </trkpt>
      <trkpt lat="48.35745" lon="2.79661">
        <ele>68.400001525879</ele>
        <time>2022-10-13T13:58:19Z</time>
      </trkpt>
      <trkpt lat="48.3574" lon="2.79663">
        <ele>68.599998474121</ele>
        <time>2022-10-13T13:58:23Z</time>
      </trkpt>
      <trkpt lat="48.35735" lon="2.79666">
        <ele>68.599998474121</ele>
        <time>2022-10-13T13:58:27Z</time>
      </trkpt>
      <trkpt lat="48.35732" lon="2.79667">
        <ele>68.599998474121</ele>
        <time>2022-10-13T13:58:31Z</time>
      </trkpt>
      <trkpt lat="48.3573" lon="2.79668">
        <ele>68.599998474121</ele>
        <time>2022-10-13T13:58:35Z</time>
      </trkpt>
      <trkpt lat="48.35728" lon="2.79669">
        <ele>68.599998474121</ele>
        <time>2022-10-13T13:58:39Z</time>
      </trkpt>
      <trkpt lat="48.35725" lon="2.79668">
        <ele>68.599998474121</ele>
        <time>2022-10-13T13:58:43Z</time>
      </trkpt>
      <trkpt lat="48.35718" lon="2.79673">
        <ele>68.599998474121</ele>
        <time>2022-10-13T13:58:47Z</time>
      </trkpt>
      <trkpt lat="48.35712" lon="2.79675">
        <ele>68.599998474121</ele>
        <time>2022-10-13T13:58:51Z</time>
      </trkpt>
      <trkpt lat="48.35706" lon="2.79679">
        <ele>68.599998474121</ele>
        <time>2022-10-13T13:58:55Z</time>
      </trkpt>
      <trkpt lat="48.357" lon="2.79683">
        <ele>68.599998474121</ele>
        <time>2022-10-13T13:58:59Z</time>
      </trkpt>
      <trkpt lat="48.35699" lon="2.7969">
        <ele>68.599998474121</ele>
        <time>2022-10-13T13:59:03Z</time>
      </trkpt>
      <trkpt lat="48.35696" lon="2.79696">
        <ele>68.599998474121</ele>
        <time>2022-10-13T13:59:07Z</time>
      </trkpt>
      <trkpt lat="48.35695" lon="2.79701">
        <ele>68.599998474121</ele>
        <time>2022-10-13T13:59:11Z</time>
      </trkpt>
      <trkpt lat="48.35696" lon="2.79708">
        <ele>68.599998474121</ele>
        <time>2022-10-13T13:59:15Z</time>
      </trkpt>
      <trkpt lat="48.35697" lon="2.79715">
        <ele>68.599998474121</ele>
        <time>2022-10-13T13:59:19Z</time>
      </trkpt>
      <trkpt lat="48.35697" lon="2.79721">
        <ele>68.599998474121</ele>
        <time>2022-10-13T13:59:23Z</time>
      </trkpt>
      <trkpt lat="48.35698" lon="2.79727">
        <ele>68.599998474121</ele>
        <time>2022-10-13T13:59:27Z</time>
      </trkpt>
      <trkpt lat="48.35699" lon="2.79732">
        <ele>68.599998474121</ele>
        <time>2022-10-13T13:59:31Z</time>
      </trkpt>
      <trkpt lat="48.35699" lon="2.79738">
        <ele>68.599998474121</ele>
        <time>2022-10-13T13:59:35Z</time>
      </trkpt>
      <trkpt lat="48.35699" lon="2.79745">
        <ele>68.599998474121</ele>
        <time>2022-10-13T13:59:39Z</time>
      </trkpt>
      <trkpt lat="48.35699" lon="2.79751">
        <ele>68.599998474121</ele>
        <time>2022-10-13T13:59:43Z</time>
      </trkpt>
      <trkpt lat="48.357" lon="2.79757">
        <ele>68.599998474121</ele>
        <time>2022-10-13T13:59:47Z</time>
      </trkpt>
      <trkpt lat="48.357" lon="2.79763">
        <ele>68.599998474121</ele>
        <time>2022-10-13T13:59:51Z</time>
      </trkpt>
      <trkpt lat="48.35701" lon="2.7977">
        <ele>68.599998474121</ele>
        <time>2022-10-13T13:59:55Z</time>
      </trkpt>
      <trkpt lat="48.35702" lon="2.79773">
        <ele>68.599998474121</ele>
        <time>2022-10-13T13:59:59Z</time>
      </trkpt>
      <trkpt lat="48.35703" lon="2.79778">
        <ele>68.599998474121</ele>
        <time>2022-10-13T14:00:03Z</time>
      </trkpt>
      <trkpt lat="48.35705" lon="2.79782">
        <ele>68.599998474121</ele>
        <time>2022-10-13T14:00:07Z</time>
      </trkpt>
      <trkpt lat="48.35707" lon="2.79786">
        <ele>68.599998474121</ele>
        <time>2022-10-13T14:00:11Z</time>
      </trkpt>
      <trkpt lat="48.35709" lon="2.79793">
        <ele>68.599998474121</ele>
        <time>2022-10-13T14:00:15Z</time>
      </trkpt>
      <trkpt lat="48.35711" lon="2.79801">
        <ele>68.599998474121</ele>
        <time>2022-10-13T14:00:19Z</time>
      </trkpt>
      <trkpt lat="48.35712" lon="2.79808">
        <ele>68.599998474121</ele>
        <time>2022-10-13T14:00:23Z</time>
      </trkpt>
      <trkpt lat="48.35714" lon="2.79815">
        <ele>61.799999237061</ele>
        <time>2022-10-13T14:00:27Z</time>
      </trkpt>
      <trkpt lat="48.35715" lon="2.7982">
        <ele>62.200000762939</ele>
        <time>2022-10-13T14:00:31Z</time>
      </trkpt>
      <trkpt lat="48.35717" lon="2.79833">
        <ele>62.400001525879</ele>
        <time>2022-10-13T14:00:35Z</time>
      </trkpt>
      <trkpt lat="48.35718" lon="2.79841">
        <ele>62.200000762939</ele>
        <time>2022-10-13T14:00:39Z</time>
      </trkpt>
      <trkpt lat="48.35718" lon="2.79845">
        <ele>61.599998474121</ele>
        <time>2022-10-13T14:00:43Z</time>
      </trkpt>
      <trkpt lat="48.3572" lon="2.79849">
        <ele>61</ele>
        <time>2022-10-13T14:00:47Z</time>
      </trkpt>
      <trkpt lat="48.35721" lon="2.7985">
        <ele>60.400001525879</ele>
        <time>2022-10-13T14:00:51Z</time>
      </trkpt>
      <trkpt lat="48.35725" lon="2.79855">
        <ele>60</ele>
        <time>2022-10-13T14:00:55Z</time>
      </trkpt>
      <trkpt lat="48.35726" lon="2.79867">
        <ele>59.400001525879</ele>
        <time>2022-10-13T14:00:59Z</time>
      </trkpt>
      <trkpt lat="48.35724" lon="2.7987">
        <ele>58.799999237061</ele>
        <time>2022-10-13T14:01:03Z</time>
      </trkpt>
      <trkpt lat="48.35722" lon="2.79869">
        <ele>58.799999237061</ele>
        <time>2022-10-13T14:01:07Z</time>
      </trkpt>
      <trkpt lat="48.35719" lon="2.79866">
        <ele>58.599998474121</ele>
        <time>2022-10-13T14:01:11Z</time>
      </trkpt>
      <trkpt lat="48.35716" lon="2.79864">
        <ele>58.400001525879</ele>
        <time>2022-10-13T14:01:15Z</time>
      </trkpt>
      <trkpt lat="48.35713" lon="2.7986">
        <ele>58.400001525879</ele>
        <time>2022-10-13T14:01:19Z</time>
      </trkpt>
      <trkpt lat="48.3571" lon="2.79855">
        <ele>58.200000762939</ele>
        <time>2022-10-13T14:01:23Z</time>
      </trkpt>
      <trkpt lat="48.35707" lon="2.79851">
        <ele>58</ele>
        <time>2022-10-13T14:01:27Z</time>
      </trkpt>
      <trkpt lat="48.35704" lon="2.79839">
        <ele>58</ele>
        <time>2022-10-13T14:01:31Z</time>
      </trkpt>
      <trkpt lat="48.35704" lon="2.79837">
        <ele>58</ele>
        <time>2022-10-13T14:01:35Z</time>
      </trkpt>
      <trkpt lat="48.35704" lon="2.79836">
        <ele>58</ele>
        <time>2022-10-13T14:01:39Z</time>
      </trkpt>
      <trkpt lat="48.35704" lon="2.79836">
        <ele>58</ele>
        <time>2022-10-13T14:01:43Z</time>
      </trkpt>
      <trkpt lat="48.35704" lon="2.79835">
        <ele>58.200000762939</ele>
        <time>2022-10-13T14:01:47Z</time>
      </trkpt>
      <trkpt lat="48.35702" lon="2.79836">
        <ele>58.200000762939</ele>
        <time>2022-10-13T14:01:51Z</time>
      </trkpt>
      <trkpt lat="48.35701" lon="2.79836">
        <ele>58.200000762939</ele>
        <time>2022-10-13T14:01:55Z</time>
      </trkpt>
      <trkpt lat="48.357" lon="2.79837">
        <ele>58.200000762939</ele>
        <time>2022-10-13T14:01:59Z</time>
      </trkpt>
      <trkpt lat="48.357" lon="2.79837">
        <ele>58.200000762939</ele>
        <time>2022-10-13T14:02:03Z</time>
      </trkpt>
      <trkpt lat="48.357" lon="2.79838">
        <ele>58.200000762939</ele>
        <time>2022-10-13T14:02:07Z</time>
      </trkpt>
      <trkpt lat="48.35702" lon="2.79839">
        <ele>58.200000762939</ele>
        <time>2022-10-13T14:02:11Z</time>
      </trkpt>
      <trkpt lat="48.35702" lon="2.79839">
        <ele>58.200000762939</ele>
        <time>2022-10-13T14:02:15Z</time>
      </trkpt>
      <trkpt lat="48.35702" lon="2.79838">
        <ele>58.200000762939</ele>
        <time>2022-10-13T14:02:19Z</time>
      </trkpt>
      <trkpt lat="48.35703" lon="2.79838">
        <ele>58.200000762939</ele>
        <time>2022-10-13T14:02:23Z</time>
      </trkpt>
      <trkpt lat="48.35703" lon="2.79837">
        <ele>58.200000762939</ele>
        <time>2022-10-13T14:02:27Z</time>
      </trkpt>
      <trkpt lat="48.35704" lon="2.79836">
        <ele>58</ele>
        <time>2022-10-13T14:02:31Z</time>
      </trkpt>
      <trkpt lat="48.35704" lon="2.79837">
        <ele>58</ele>
        <time>2022-10-13T14:02:35Z</time>
      </trkpt>
      <trkpt lat="48.35705" lon="2.79837">
        <ele>58</ele>
        <time>2022-10-13T14:02:39Z</time>
      </trkpt>
      <trkpt lat="48.35705" lon="2.79838">
        <ele>58</ele>
        <time>2022-10-13T14:02:43Z</time>
      </trkpt>
      <trkpt lat="48.35701" lon="2.79844">
        <ele>58</ele>
        <time>2022-10-13T14:02:47Z</time>
      </trkpt>
      <trkpt lat="48.35696" lon="2.79849">
        <ele>58</ele>
        <time>2022-10-13T14:02:51Z</time>
      </trkpt>
      <trkpt lat="48.35694" lon="2.79855">
        <ele>58</ele>
        <time>2022-10-13T14:02:55Z</time>
      </trkpt>
      <trkpt lat="48.35692" lon="2.79857">
        <ele>58</ele>
        <time>2022-10-13T14:02:59Z</time>
      </trkpt>
      <trkpt lat="48.35689" lon="2.79861">
        <ele>58</ele>
        <time>2022-10-13T14:03:03Z</time>
      </trkpt>
      <trkpt lat="48.35685" lon="2.79864">
        <ele>58</ele>
        <time>2022-10-13T14:03:07Z</time>
      </trkpt>
      <trkpt lat="48.35682" lon="2.79867">
        <ele>58</ele>
        <time>2022-10-13T14:03:11Z</time>
      </trkpt>
      <trkpt lat="48.3568" lon="2.79871">
        <ele>58</ele>
        <time>2022-10-13T14:03:15Z</time>
      </trkpt>
      <trkpt lat="48.35678" lon="2.79874">
        <ele>58</ele>
        <time>2022-10-13T14:03:19Z</time>
      </trkpt>
      <trkpt lat="48.35675" lon="2.79879">
        <ele>58</ele>
        <time>2022-10-13T14:03:23Z</time>
      </trkpt>
      <trkpt lat="48.35672" lon="2.79882">
        <ele>58</ele>
        <time>2022-10-13T14:03:27Z</time>
      </trkpt>
      <trkpt lat="48.3567" lon="2.79886">
        <ele>58</ele>
        <time>2022-10-13T14:03:31Z</time>
      </trkpt>
      <trkpt lat="48.35668" lon="2.79888">
        <ele>58</ele>
        <time>2022-10-13T14:03:35Z</time>
      </trkpt>
      <trkpt lat="48.35665" lon="2.79891">
        <ele>58</ele>
        <time>2022-10-13T14:03:39Z</time>
      </trkpt>
      <trkpt lat="48.35661" lon="2.79896">
        <ele>57.599998474121</ele>
        <time>2022-10-13T14:03:43Z</time>
      </trkpt>
      <trkpt lat="48.3566" lon="2.79897">
        <ele>57.200000762939</ele>
        <time>2022-10-13T14:03:47Z</time>
      </trkpt>
      <trkpt lat="48.35657" lon="2.79898">
        <ele>57.200000762939</ele>
        <time>2022-10-13T14:03:51Z</time>
      </trkpt>
      <trkpt lat="48.35654" lon="2.79901">
        <ele>57.400001525879</ele>
        <time>2022-10-13T14:03:55Z</time>
      </trkpt>
      <trkpt lat="48.35651" lon="2.79905">
        <ele>57.400001525879</ele>
        <time>2022-10-13T14:03:59Z</time>
      </trkpt>
      <trkpt lat="48.35646" lon="2.79909">
        <ele>57.400001525879</ele>
        <time>2022-10-13T14:04:03Z</time>
      </trkpt>
      <trkpt lat="48.35642" lon="2.79912">
        <ele>57.599998474121</ele>
        <time>2022-10-13T14:04:07Z</time>
      </trkpt>
      <trkpt lat="48.35638" lon="2.79918">
        <ele>57.200000762939</ele>
        <time>2022-10-13T14:04:11Z</time>
      </trkpt>
      <trkpt lat="48.35634" lon="2.79924">
        <ele>57</ele>
        <time>2022-10-13T14:04:15Z</time>
      </trkpt>
      <trkpt lat="48.35633" lon="2.79924">
        <ele>57</ele>
        <time>2022-10-13T14:04:19Z</time>
      </trkpt>
      <trkpt lat="48.35633" lon="2.79924">
        <ele>57</ele>
        <time>2022-10-13T14:04:23Z</time>
      </trkpt>
      <trkpt lat="48.3563" lon="2.79926">
        <ele>57</ele>
        <time>2022-10-13T14:04:27Z</time>
      </trkpt>
      <trkpt lat="48.35621" lon="2.79935">
        <ele>57.200000762939</ele>
        <time>2022-10-13T14:04:31Z</time>
      </trkpt>
      <trkpt lat="48.35616" lon="2.79935">
        <ele>57.400001525879</ele>
        <time>2022-10-13T14:04:35Z</time>
      </trkpt>
      <trkpt lat="48.35614" lon="2.79935">
        <ele>57.400001525879</ele>
        <time>2022-10-13T14:04:39Z</time>
      </trkpt>
      <trkpt lat="48.35611" lon="2.79934">
        <ele>57.200000762939</ele>
        <time>2022-10-13T14:04:43Z</time>
      </trkpt>
      <trkpt lat="48.3561" lon="2.79934">
        <ele>57.200000762939</ele>
        <time>2022-10-13T14:04:47Z</time>
      </trkpt>
      <trkpt lat="48.35606" lon="2.79936">
        <ele>57.200000762939</ele>
        <time>2022-10-13T14:04:51Z</time>
      </trkpt>
      <trkpt lat="48.35602" lon="2.79936">
        <ele>57.200000762939</ele>
        <time>2022-10-13T14:04:55Z</time>
      </trkpt>
      <trkpt lat="48.35598" lon="2.79936">
        <ele>57.200000762939</ele>
        <time>2022-10-13T14:04:59Z</time>
      </trkpt>
      <trkpt lat="48.35595" lon="2.79936">
        <ele>57.200000762939</ele>
        <time>2022-10-13T14:05:03Z</time>
      </trkpt>
      <trkpt lat="48.3559" lon="2.79937">
        <ele>57.200000762939</ele>
        <time>2022-10-13T14:05:07Z</time>
      </trkpt>
      <trkpt lat="48.35586" lon="2.79937">
        <ele>57.200000762939</ele>
        <time>2022-10-13T14:05:11Z</time>
      </trkpt>
      <trkpt lat="48.35584" lon="2.79937">
        <ele>57.200000762939</ele>
        <time>2022-10-13T14:05:15Z</time>
      </trkpt>
      <trkpt lat="48.35577" lon="2.79937">
        <ele>57.400001525879</ele>
        <time>2022-10-13T14:05:19Z</time>
      </trkpt>
      <trkpt lat="48.3557" lon="2.79937">
        <ele>57.599998474121</ele>
        <time>2022-10-13T14:05:23Z</time>
      </trkpt>
      <trkpt lat="48.35565" lon="2.79936">
        <ele>57.599998474121</ele>
        <time>2022-10-13T14:05:27Z</time>
      </trkpt>
      <trkpt lat="48.35561" lon="2.79937">
        <ele>57.599998474121</ele>
        <time>2022-10-13T14:05:31Z</time>
      </trkpt>
      <trkpt lat="48.35556" lon="2.79937">
        <ele>57.799999237061</ele>
        <time>2022-10-13T14:05:35Z</time>
      </trkpt>
      <trkpt lat="48.35552" lon="2.79936">
        <ele>57.799999237061</ele>
        <time>2022-10-13T14:05:39Z</time>
      </trkpt>
      <trkpt lat="48.35549" lon="2.79937">
        <ele>57.599998474121</ele>
        <time>2022-10-13T14:05:43Z</time>
      </trkpt>
      <trkpt lat="48.35546" lon="2.79938">
        <ele>57.599998474121</ele>
        <time>2022-10-13T14:05:47Z</time>
      </trkpt>
      <trkpt lat="48.35543" lon="2.79937">
        <ele>57.400001525879</ele>
        <time>2022-10-13T14:05:51Z</time>
      </trkpt>
      <trkpt lat="48.35541" lon="2.79937">
        <ele>57.200000762939</ele>
        <time>2022-10-13T14:05:55Z</time>
      </trkpt>
      <trkpt lat="48.35538" lon="2.79937">
        <ele>57</ele>
        <time>2022-10-13T14:05:59Z</time>
      </trkpt>
      <trkpt lat="48.35535" lon="2.79937">
        <ele>57</ele>
        <time>2022-10-13T14:06:03Z</time>
      </trkpt>
      <trkpt lat="48.35527" lon="2.79938">
        <ele>56.799999237061</ele>
        <time>2022-10-13T14:06:07Z</time>
      </trkpt>
      <trkpt lat="48.35522" lon="2.79937">
        <ele>56.599998474121</ele>
        <time>2022-10-13T14:06:11Z</time>
      </trkpt>
      <trkpt lat="48.35516" lon="2.79937">
        <ele>56.599998474121</ele>
        <time>2022-10-13T14:06:15Z</time>
      </trkpt>
      <trkpt lat="48.35514" lon="2.79936">
        <ele>56.599998474121</ele>
        <time>2022-10-13T14:06:19Z</time>
      </trkpt>
      <trkpt lat="48.35511" lon="2.79934">
        <ele>56.599998474121</ele>
        <time>2022-10-13T14:06:23Z</time>
      </trkpt>
      <trkpt lat="48.3551" lon="2.79933">
        <ele>56.599998474121</ele>
        <time>2022-10-13T14:06:27Z</time>
      </trkpt>
      <trkpt lat="48.35508" lon="2.79933">
        <ele>56.599998474121</ele>
        <time>2022-10-13T14:06:31Z</time>
      </trkpt>
      <trkpt lat="48.35505" lon="2.79934">
        <ele>56.599998474121</ele>
        <time>2022-10-13T14:06:35Z</time>
      </trkpt>
      <trkpt lat="48.35498" lon="2.79933">
        <ele>56.599998474121</ele>
        <time>2022-10-13T14:06:39Z</time>
      </trkpt>
      <trkpt lat="48.35491" lon="2.79932">
        <ele>56.599998474121</ele>
        <time>2022-10-13T14:06:43Z</time>
      </trkpt>
      <trkpt lat="48.3549" lon="2.79932">
        <ele>56.400001525879</ele>
        <time>2022-10-13T14:06:47Z</time>
      </trkpt>
      <trkpt lat="48.35488" lon="2.79931">
        <ele>56.400001525879</ele>
        <time>2022-10-13T14:06:51Z</time>
      </trkpt>
      <trkpt lat="48.35483" lon="2.79931">
        <ele>56.400001525879</ele>
        <time>2022-10-13T14:06:55Z</time>
      </trkpt>
      <trkpt lat="48.35475" lon="2.79929">
        <ele>56.400001525879</ele>
        <time>2022-10-13T14:06:59Z</time>
      </trkpt>
      <trkpt lat="48.3547" lon="2.79926">
        <ele>56.400001525879</ele>
        <time>2022-10-13T14:07:03Z</time>
      </trkpt>
      <trkpt lat="48.35466" lon="2.79926">
        <ele>56.400001525879</ele>
        <time>2022-10-13T14:07:07Z</time>
      </trkpt>
      <trkpt lat="48.35465" lon="2.79926">
        <ele>56.400001525879</ele>
        <time>2022-10-13T14:07:11Z</time>
      </trkpt>
      <trkpt lat="48.3546" lon="2.79924">
        <ele>56.400001525879</ele>
        <time>2022-10-13T14:07:15Z</time>
      </trkpt>
      <trkpt lat="48.35456" lon="2.79922">
        <ele>56.200000762939</ele>
        <time>2022-10-13T14:07:19Z</time>
      </trkpt>
      <trkpt lat="48.35455" lon="2.79922">
        <ele>56.200000762939</ele>
        <time>2022-10-13T14:07:23Z</time>
      </trkpt>
      <trkpt lat="48.35453" lon="2.79922">
        <ele>56.200000762939</ele>
        <time>2022-10-13T14:07:27Z</time>
      </trkpt>
      <trkpt lat="48.35449" lon="2.79921">
        <ele>56</ele>
        <time>2022-10-13T14:07:31Z</time>
      </trkpt>
      <trkpt lat="48.35443" lon="2.79921">
        <ele>56</ele>
        <time>2022-10-13T14:07:35Z</time>
      </trkpt>
      <trkpt lat="48.35437" lon="2.79921">
        <ele>55.799999237061</ele>
        <time>2022-10-13T14:07:39Z</time>
      </trkpt>
      <trkpt lat="48.35431" lon="2.79921">
        <ele>55.599998474121</ele>
        <time>2022-10-13T14:07:43Z</time>
      </trkpt>
      <trkpt lat="48.35425" lon="2.79919">
        <ele>55.400001525879</ele>
        <time>2022-10-13T14:07:47Z</time>
      </trkpt>
      <trkpt lat="48.3542" lon="2.79918">
        <ele>55.200000762939</ele>
        <time>2022-10-13T14:07:51Z</time>
      </trkpt>
      <trkpt lat="48.35416" lon="2.79918">
        <ele>55</ele>
        <time>2022-10-13T14:07:55Z</time>
      </trkpt>
      <trkpt lat="48.35411" lon="2.79919">
        <ele>55</ele>
        <time>2022-10-13T14:07:59Z</time>
      </trkpt>
      <trkpt lat="48.35407" lon="2.79917">
        <ele>55</ele>
        <time>2022-10-13T14:08:03Z</time>
      </trkpt>
      <trkpt lat="48.35405" lon="2.79918">
        <ele>54.799999237061</ele>
        <time>2022-10-13T14:08:07Z</time>
      </trkpt>
      <trkpt lat="48.35403" lon="2.79917">
        <ele>54.799999237061</ele>
        <time>2022-10-13T14:08:11Z</time>
      </trkpt>
      <trkpt lat="48.35399" lon="2.79918">
        <ele>54.799999237061</ele>
        <time>2022-10-13T14:08:15Z</time>
      </trkpt>
      <trkpt lat="48.35397" lon="2.79918">
        <ele>54.799999237061</ele>
        <time>2022-10-13T14:08:19Z</time>
      </trkpt>
      <trkpt lat="48.35394" lon="2.79918">
        <ele>55</ele>
        <time>2022-10-13T14:08:23Z</time>
      </trkpt>
      <trkpt lat="48.3539" lon="2.79917">
        <ele>55</ele>
        <time>2022-10-13T14:08:27Z</time>
      </trkpt>
      <trkpt lat="48.35382" lon="2.79917">
        <ele>55</ele>
        <time>2022-10-13T14:08:31Z</time>
      </trkpt>
      <trkpt lat="48.35375" lon="2.79917">
        <ele>55.200000762939</ele>
        <time>2022-10-13T14:08:35Z</time>
      </trkpt>
      <trkpt lat="48.35372" lon="2.79916">
        <ele>55.599998474121</ele>
        <time>2022-10-13T14:08:39Z</time>
      </trkpt>
      <trkpt lat="48.3537" lon="2.79914">
        <ele>56</ele>
        <time>2022-10-13T14:08:43Z</time>
      </trkpt>
      <trkpt lat="48.35366" lon="2.79913">
        <ele>56</ele>
        <time>2022-10-13T14:08:47Z</time>
      </trkpt>
      <trkpt lat="48.35363" lon="2.79913">
        <ele>56.200000762939</ele>
        <time>2022-10-13T14:08:51Z</time>
      </trkpt>
      <trkpt lat="48.35359" lon="2.79914">
        <ele>56.400001525879</ele>
        <time>2022-10-13T14:08:55Z</time>
      </trkpt>
      <trkpt lat="48.35356" lon="2.79913">
        <ele>56.599998474121</ele>
        <time>2022-10-13T14:08:59Z</time>
      </trkpt>
      <trkpt lat="48.3535" lon="2.79913">
        <ele>56.599998474121</ele>
        <time>2022-10-13T14:09:03Z</time>
      </trkpt>
      <trkpt lat="48.35344" lon="2.79917">
        <ele>56.799999237061</ele>
        <time>2022-10-13T14:09:07Z</time>
      </trkpt>
      <trkpt lat="48.35339" lon="2.79918">
        <ele>56.799999237061</ele>
        <time>2022-10-13T14:09:11Z</time>
      </trkpt>
      <trkpt lat="48.35337" lon="2.79918">
        <ele>56.599998474121</ele>
        <time>2022-10-13T14:09:15Z</time>
      </trkpt>
      <trkpt lat="48.35333" lon="2.79919">
        <ele>56.599998474121</ele>
        <time>2022-10-13T14:09:19Z</time>
      </trkpt>
      <trkpt lat="48.35328" lon="2.79921">
        <ele>56.400001525879</ele>
        <time>2022-10-13T14:09:23Z</time>
      </trkpt>
      <trkpt lat="48.35325" lon="2.79923">
        <ele>56.400001525879</ele>
        <time>2022-10-13T14:09:27Z</time>
      </trkpt>
      <trkpt lat="48.35322" lon="2.79926">
        <ele>56.200000762939</ele>
        <time>2022-10-13T14:09:31Z</time>
      </trkpt>
      <trkpt lat="48.35321" lon="2.79927">
        <ele>56</ele>
        <time>2022-10-13T14:09:35Z</time>
      </trkpt>
      <trkpt lat="48.35308" lon="2.79932">
        <ele>56.200000762939</ele>
        <time>2022-10-13T14:09:39Z</time>
      </trkpt>
      <trkpt lat="48.35305" lon="2.79933">
        <ele>56.400001525879</ele>
        <time>2022-10-13T14:09:43Z</time>
      </trkpt>
      <trkpt lat="48.35302" lon="2.79934">
        <ele>56</ele>
        <time>2022-10-13T14:09:47Z</time>
      </trkpt>
      <trkpt lat="48.35298" lon="2.79934">
        <ele>56</ele>
        <time>2022-10-13T14:09:51Z</time>
      </trkpt>
      <trkpt lat="48.35295" lon="2.79935">
        <ele>55.799999237061</ele>
        <time>2022-10-13T14:09:55Z</time>
      </trkpt>
      <trkpt lat="48.35291" lon="2.79935">
        <ele>55.799999237061</ele>
        <time>2022-10-13T14:09:59Z</time>
      </trkpt>
      <trkpt lat="48.35289" lon="2.79935">
        <ele>55.799999237061</ele>
        <time>2022-10-13T14:10:03Z</time>
      </trkpt>
      <trkpt lat="48.35284" lon="2.79937">
        <ele>55.599998474121</ele>
        <time>2022-10-13T14:10:07Z</time>
      </trkpt>
      <trkpt lat="48.35279" lon="2.79939">
        <ele>55.599998474121</ele>
        <time>2022-10-13T14:10:11Z</time>
      </trkpt>
      <trkpt lat="48.35274" lon="2.79944">
        <ele>55.400001525879</ele>
        <time>2022-10-13T14:10:15Z</time>
      </trkpt>
      <trkpt lat="48.3527" lon="2.79945">
        <ele>55.200000762939</ele>
        <time>2022-10-13T14:10:19Z</time>
      </trkpt>
      <trkpt lat="48.35267" lon="2.79946">
        <ele>55.200000762939</ele>
        <time>2022-10-13T14:10:23Z</time>
      </trkpt>
      <trkpt lat="48.35263" lon="2.79947">
        <ele>55.200000762939</ele>
        <time>2022-10-13T14:10:27Z</time>
      </trkpt>
      <trkpt lat="48.35259" lon="2.79949">
        <ele>55.200000762939</ele>
        <time>2022-10-13T14:10:31Z</time>
      </trkpt>
      <trkpt lat="48.35255" lon="2.7995">
        <ele>55.200000762939</ele>
        <time>2022-10-13T14:10:35Z</time>
      </trkpt>
      <trkpt lat="48.35254" lon="2.79951">
        <ele>55.200000762939</ele>
        <time>2022-10-13T14:10:39Z</time>
      </trkpt>
      <trkpt lat="48.35251" lon="2.79951">
        <ele>55.200000762939</ele>
        <time>2022-10-13T14:10:43Z</time>
      </trkpt>
      <trkpt lat="48.35244" lon="2.79951">
        <ele>55.200000762939</ele>
        <time>2022-10-13T14:10:47Z</time>
      </trkpt>
      <trkpt lat="48.35241" lon="2.79952">
        <ele>55.200000762939</ele>
        <time>2022-10-13T14:10:51Z</time>
      </trkpt>
      <trkpt lat="48.35238" lon="2.79953">
        <ele>55</ele>
        <time>2022-10-13T14:10:55Z</time>
      </trkpt>
      <trkpt lat="48.3523" lon="2.79955">
        <ele>55.200000762939</ele>
        <time>2022-10-13T14:10:59Z</time>
      </trkpt>
      <trkpt lat="48.35226" lon="2.79953">
        <ele>55.599998474121</ele>
        <time>2022-10-13T14:11:03Z</time>
      </trkpt>
      <trkpt lat="48.35222" lon="2.79951">
        <ele>55.599998474121</ele>
        <time>2022-10-13T14:11:07Z</time>
      </trkpt>
      <trkpt lat="48.35218" lon="2.79948">
        <ele>55.400001525879</ele>
        <time>2022-10-13T14:11:11Z</time>
      </trkpt>
      <trkpt lat="48.35216" lon="2.79946">
        <ele>55.200000762939</ele>
        <time>2022-10-13T14:11:15Z</time>
      </trkpt>
      <trkpt lat="48.35215" lon="2.79946">
        <ele>55</ele>
        <time>2022-10-13T14:11:19Z</time>
      </trkpt>
      <trkpt lat="48.35214" lon="2.79945">
        <ele>55</ele>
        <time>2022-10-13T14:11:23Z</time>
      </trkpt>
      <trkpt lat="48.35213" lon="2.79945">
        <ele>55</ele>
        <time>2022-10-13T14:11:27Z</time>
      </trkpt>
      <trkpt lat="48.3521" lon="2.79944">
        <ele>55</ele>
        <time>2022-10-13T14:11:31Z</time>
      </trkpt>
      <trkpt lat="48.35206" lon="2.79942">
        <ele>55</ele>
        <time>2022-10-13T14:11:35Z</time>
      </trkpt>
      <trkpt lat="48.35202" lon="2.7994">
        <ele>55.200000762939</ele>
        <time>2022-10-13T14:11:39Z</time>
      </trkpt>
      <trkpt lat="48.35196" lon="2.79938">
        <ele>55.400001525879</ele>
        <time>2022-10-13T14:11:43Z</time>
      </trkpt>
      <trkpt lat="48.3519" lon="2.79934">
        <ele>55.200000762939</ele>
        <time>2022-10-13T14:11:47Z</time>
      </trkpt>
      <trkpt lat="48.35187" lon="2.79931">
        <ele>55.200000762939</ele>
        <time>2022-10-13T14:11:51Z</time>
      </trkpt>
      <trkpt lat="48.35184" lon="2.79926">
        <ele>55.200000762939</ele>
        <time>2022-10-13T14:11:55Z</time>
      </trkpt>
      <trkpt lat="48.35181" lon="2.79923">
        <ele>55</ele>
        <time>2022-10-13T14:11:59Z</time>
      </trkpt>
      <trkpt lat="48.35176" lon="2.7992">
        <ele>55</ele>
        <time>2022-10-13T14:12:03Z</time>
      </trkpt>
      <trkpt lat="48.35171" lon="2.79918">
        <ele>54.799999237061</ele>
        <time>2022-10-13T14:12:07Z</time>
      </trkpt>
      <trkpt lat="48.35168" lon="2.79914">
        <ele>54.799999237061</ele>
        <time>2022-10-13T14:12:11Z</time>
      </trkpt>
      <trkpt lat="48.35165" lon="2.7991">
        <ele>54.799999237061</ele>
        <time>2022-10-13T14:12:15Z</time>
      </trkpt>
      <trkpt lat="48.35163" lon="2.79909">
        <ele>54.799999237061</ele>
        <time>2022-10-13T14:12:19Z</time>
      </trkpt>
      <trkpt lat="48.35157" lon="2.79902">
        <ele>54.799999237061</ele>
        <time>2022-10-13T14:12:23Z</time>
      </trkpt>
      <trkpt lat="48.35152" lon="2.79894">
        <ele>55</ele>
        <time>2022-10-13T14:12:27Z</time>
      </trkpt>
      <trkpt lat="48.35151" lon="2.79891">
        <ele>55</ele>
        <time>2022-10-13T14:12:31Z</time>
      </trkpt>
      <trkpt lat="48.35148" lon="2.79889">
        <ele>55</ele>
        <time>2022-10-13T14:12:35Z</time>
      </trkpt>
      <trkpt lat="48.35145" lon="2.79887">
        <ele>54.799999237061</ele>
        <time>2022-10-13T14:12:39Z</time>
      </trkpt>
      <trkpt lat="48.35143" lon="2.79884">
        <ele>54.799999237061</ele>
        <time>2022-10-13T14:12:43Z</time>
      </trkpt>
      <trkpt lat="48.3514" lon="2.79881">
        <ele>54.799999237061</ele>
        <time>2022-10-13T14:12:47Z</time>
      </trkpt>
      <trkpt lat="48.35137" lon="2.79878">
        <ele>54.799999237061</ele>
        <time>2022-10-13T14:12:51Z</time>
      </trkpt>
      <trkpt lat="48.35134" lon="2.79875">
        <ele>54.799999237061</ele>
        <time>2022-10-13T14:12:55Z</time>
      </trkpt>
      <trkpt lat="48.3513" lon="2.79872">
        <ele>55</ele>
        <time>2022-10-13T14:12:59Z</time>
      </trkpt>
      <trkpt lat="48.35127" lon="2.79869">
        <ele>55</ele>
        <time>2022-10-13T14:13:03Z</time>
      </trkpt>
      <trkpt lat="48.35124" lon="2.79866">
        <ele>55.200000762939</ele>
        <time>2022-10-13T14:13:07Z</time>
      </trkpt>
      <trkpt lat="48.3512" lon="2.79863">
        <ele>55.200000762939</ele>
        <time>2022-10-13T14:13:11Z</time>
      </trkpt>
      <trkpt lat="48.35119" lon="2.79859">
        <ele>55</ele>
        <time>2022-10-13T14:13:15Z</time>
      </trkpt>
      <trkpt lat="48.35117" lon="2.79856">
        <ele>55.200000762939</ele>
        <time>2022-10-13T14:13:19Z</time>
      </trkpt>
      <trkpt lat="48.35114" lon="2.79853">
        <ele>55.200000762939</ele>
        <time>2022-10-13T14:13:23Z</time>
      </trkpt>
      <trkpt lat="48.35112" lon="2.79853">
        <ele>55.200000762939</ele>
        <time>2022-10-13T14:13:27Z</time>
      </trkpt>
      <trkpt lat="48.35109" lon="2.79847">
        <ele>55.200000762939</ele>
        <time>2022-10-13T14:13:31Z</time>
      </trkpt>
      <trkpt lat="48.35104" lon="2.79841">
        <ele>55.200000762939</ele>
        <time>2022-10-13T14:13:35Z</time>
      </trkpt>
      <trkpt lat="48.351" lon="2.79836">
        <ele>55.400001525879</ele>
        <time>2022-10-13T14:13:39Z</time>
      </trkpt>
      <trkpt lat="48.35096" lon="2.7983">
        <ele>55.400001525879</ele>
        <time>2022-10-13T14:13:43Z</time>
      </trkpt>
      <trkpt lat="48.35093" lon="2.79825">
        <ele>55.400001525879</ele>
        <time>2022-10-13T14:13:47Z</time>
      </trkpt>
      <trkpt lat="48.3509" lon="2.79822">
        <ele>55.400001525879</ele>
        <time>2022-10-13T14:13:51Z</time>
      </trkpt>
      <trkpt lat="48.35089" lon="2.79821">
        <ele>55.200000762939</ele>
        <time>2022-10-13T14:13:55Z</time>
      </trkpt>
      <trkpt lat="48.35086" lon="2.79818">
        <ele>55.200000762939</ele>
        <time>2022-10-13T14:13:59Z</time>
      </trkpt>
      <trkpt lat="48.35084" lon="2.79817">
        <ele>55.200000762939</ele>
        <time>2022-10-13T14:14:03Z</time>
      </trkpt>
      <trkpt lat="48.35083" lon="2.79815">
        <ele>55.400001525879</ele>
        <time>2022-10-13T14:14:07Z</time>
      </trkpt>
      <trkpt lat="48.35082" lon="2.79813">
        <ele>55.400001525879</ele>
        <time>2022-10-13T14:14:11Z</time>
      </trkpt>
      <trkpt lat="48.3508" lon="2.79811">
        <ele>55.400001525879</ele>
        <time>2022-10-13T14:14:15Z</time>
      </trkpt>
      <trkpt lat="48.35078" lon="2.7981">
        <ele>55.400001525879</ele>
        <time>2022-10-13T14:14:19Z</time>
      </trkpt>
      <trkpt lat="48.35073" lon="2.79806">
        <ele>55.400001525879</ele>
        <time>2022-10-13T14:14:23Z</time>
      </trkpt>
      <trkpt lat="48.35068" lon="2.79801">
        <ele>55.400001525879</ele>
        <time>2022-10-13T14:14:27Z</time>
      </trkpt>
      <trkpt lat="48.35061" lon="2.79792">
        <ele>55.400001525879</ele>
        <time>2022-10-13T14:14:31Z</time>
      </trkpt>
      <trkpt lat="48.35056" lon="2.79785">
        <ele>55.400001525879</ele>
        <time>2022-10-13T14:14:35Z</time>
      </trkpt>
      <trkpt lat="48.3505" lon="2.79779">
        <ele>55.400001525879</ele>
        <time>2022-10-13T14:14:39Z</time>
      </trkpt>
      <trkpt lat="48.35045" lon="2.79772">
        <ele>55.599998474121</ele>
        <time>2022-10-13T14:14:43Z</time>
      </trkpt>
      <trkpt lat="48.35042" lon="2.79765">
        <ele>55.400001525879</ele>
        <time>2022-10-13T14:14:47Z</time>
      </trkpt>
      <trkpt lat="48.35038" lon="2.79759">
        <ele>55.400001525879</ele>
        <time>2022-10-13T14:14:51Z</time>
      </trkpt>
      <trkpt lat="48.35035" lon="2.79754">
        <ele>55.599998474121</ele>
        <time>2022-10-13T14:14:55Z</time>
      </trkpt>
      <trkpt lat="48.35031" lon="2.79748">
        <ele>55.599998474121</ele>
        <time>2022-10-13T14:14:59Z</time>
      </trkpt>
      <trkpt lat="48.35029" lon="2.79745">
        <ele>55.599998474121</ele>
        <time>2022-10-13T14:15:03Z</time>
      </trkpt>
      <trkpt lat="48.35026" lon="2.79742">
        <ele>55.599998474121</ele>
        <time>2022-10-13T14:15:07Z</time>
      </trkpt>
      <trkpt lat="48.35023" lon="2.79737">
        <ele>55.599998474121</ele>
        <time>2022-10-13T14:15:11Z</time>
      </trkpt>
      <trkpt lat="48.35019" lon="2.79733">
        <ele>55.599998474121</ele>
        <time>2022-10-13T14:15:15Z</time>
      </trkpt>
      <trkpt lat="48.35017" lon="2.7973">
        <ele>55.599998474121</ele>
        <time>2022-10-13T14:15:19Z</time>
      </trkpt>
      <trkpt lat="48.35014" lon="2.79727">
        <ele>55.599998474121</ele>
        <time>2022-10-13T14:15:23Z</time>
      </trkpt>
      <trkpt lat="48.3501" lon="2.7972">
        <ele>55.599998474121</ele>
        <time>2022-10-13T14:15:27Z</time>
      </trkpt>
      <trkpt lat="48.35007" lon="2.79716">
        <ele>55.599998474121</ele>
        <time>2022-10-13T14:15:31Z</time>
      </trkpt>
      <trkpt lat="48.35004" lon="2.79712">
        <ele>55.599998474121</ele>
        <time>2022-10-13T14:15:35Z</time>
      </trkpt>
      <trkpt lat="48.35001" lon="2.79708">
        <ele>55.599998474121</ele>
        <time>2022-10-13T14:15:39Z</time>
      </trkpt>
      <trkpt lat="48.34998" lon="2.79703">
        <ele>55.599998474121</ele>
        <time>2022-10-13T14:15:43Z</time>
      </trkpt>
      <trkpt lat="48.34994" lon="2.79699">
        <ele>55.599998474121</ele>
        <time>2022-10-13T14:15:47Z</time>
      </trkpt>
      <trkpt lat="48.34991" lon="2.79695">
        <ele>55.599998474121</ele>
        <time>2022-10-13T14:15:51Z</time>
      </trkpt>
      <trkpt lat="48.34988" lon="2.79691">
        <ele>55.599998474121</ele>
        <time>2022-10-13T14:15:55Z</time>
      </trkpt>
      <trkpt lat="48.34986" lon="2.79689">
        <ele>55.599998474121</ele>
        <time>2022-10-13T14:15:59Z</time>
      </trkpt>
      <trkpt lat="48.34984" lon="2.79687">
        <ele>55.599998474121</ele>
        <time>2022-10-13T14:16:03Z</time>
      </trkpt>
      <trkpt lat="48.34981" lon="2.79683">
        <ele>55.599998474121</ele>
        <time>2022-10-13T14:16:07Z</time>
      </trkpt>
      <trkpt lat="48.34976" lon="2.79678">
        <ele>55.599998474121</ele>
        <time>2022-10-13T14:16:11Z</time>
      </trkpt>
      <trkpt lat="48.34973" lon="2.79675">
        <ele>55.599998474121</ele>
        <time>2022-10-13T14:16:15Z</time>
      </trkpt>
      <trkpt lat="48.34966" lon="2.79667">
        <ele>55.599998474121</ele>
        <time>2022-10-13T14:16:19Z</time>
      </trkpt>
      <trkpt lat="48.34963" lon="2.79664">
        <ele>55.599998474121</ele>
        <time>2022-10-13T14:16:23Z</time>
      </trkpt>
      <trkpt lat="48.34962" lon="2.79663">
        <ele>55.599998474121</ele>
        <time>2022-10-13T14:16:27Z</time>
      </trkpt>
      <trkpt lat="48.3496" lon="2.79662">
        <ele>55.599998474121</ele>
        <time>2022-10-13T14:16:31Z</time>
      </trkpt>
      <trkpt lat="48.34958" lon="2.7966">
        <ele>55.599998474121</ele>
        <time>2022-10-13T14:16:35Z</time>
      </trkpt>
      <trkpt lat="48.34954" lon="2.79655">
        <ele>55.599998474121</ele>
        <time>2022-10-13T14:16:39Z</time>
      </trkpt>
      <trkpt lat="48.34949" lon="2.79651">
        <ele>55.599998474121</ele>
        <time>2022-10-13T14:16:43Z</time>
      </trkpt>
      <trkpt lat="48.34944" lon="2.79643">
        <ele>55.599998474121</ele>
        <time>2022-10-13T14:16:47Z</time>
      </trkpt>
      <trkpt lat="48.34939" lon="2.79638">
        <ele>55.599998474121</ele>
        <time>2022-10-13T14:16:51Z</time>
      </trkpt>
      <trkpt lat="48.34937" lon="2.79634">
        <ele>55.599998474121</ele>
        <time>2022-10-13T14:16:55Z</time>
      </trkpt>
      <trkpt lat="48.34933" lon="2.7963">
        <ele>55.599998474121</ele>
        <time>2022-10-13T14:16:59Z</time>
      </trkpt>
      <trkpt lat="48.34929" lon="2.79625">
        <ele>55.599998474121</ele>
        <time>2022-10-13T14:17:03Z</time>
      </trkpt>
      <trkpt lat="48.34926" lon="2.79622">
        <ele>55.599998474121</ele>
        <time>2022-10-13T14:17:07Z</time>
      </trkpt>
      <trkpt lat="48.34923" lon="2.7962">
        <ele>55.599998474121</ele>
        <time>2022-10-13T14:17:11Z</time>
      </trkpt>
      <trkpt lat="48.3492" lon="2.79615">
        <ele>55.599998474121</ele>
        <time>2022-10-13T14:17:15Z</time>
      </trkpt>
      <trkpt lat="48.34919" lon="2.79613">
        <ele>55.799999237061</ele>
        <time>2022-10-13T14:17:19Z</time>
      </trkpt>
      <trkpt lat="48.34917" lon="2.79611">
        <ele>56</ele>
        <time>2022-10-13T14:17:23Z</time>
      </trkpt>
      <trkpt lat="48.34916" lon="2.79609">
        <ele>56</ele>
        <time>2022-10-13T14:17:27Z</time>
      </trkpt>
      <trkpt lat="48.34911" lon="2.79603">
        <ele>56</ele>
        <time>2022-10-13T14:17:31Z</time>
      </trkpt>
      <trkpt lat="48.34905" lon="2.79588">
        <ele>56</ele>
        <time>2022-10-13T14:17:35Z</time>
      </trkpt>
      <trkpt lat="48.34897" lon="2.79573">
        <ele>56.200000762939</ele>
        <time>2022-10-13T14:17:39Z</time>
      </trkpt>
      <trkpt lat="48.34894" lon="2.79569">
        <ele>56.200000762939</ele>
        <time>2022-10-13T14:17:43Z</time>
      </trkpt>
      <trkpt lat="48.34892" lon="2.79566">
        <ele>56.200000762939</ele>
        <time>2022-10-13T14:17:47Z</time>
      </trkpt>
      <trkpt lat="48.34889" lon="2.79562">
        <ele>56</ele>
        <time>2022-10-13T14:17:51Z</time>
      </trkpt>
      <trkpt lat="48.34887" lon="2.79559">
        <ele>56</ele>
        <time>2022-10-13T14:17:55Z</time>
      </trkpt>
      <trkpt lat="48.34885" lon="2.79559">
        <ele>56.200000762939</ele>
        <time>2022-10-13T14:17:59Z</time>
      </trkpt>
      <trkpt lat="48.3488" lon="2.79554">
        <ele>56.200000762939</ele>
        <time>2022-10-13T14:18:03Z</time>
      </trkpt>
      <trkpt lat="48.34877" lon="2.79552">
        <ele>56.200000762939</ele>
        <time>2022-10-13T14:18:07Z</time>
      </trkpt>
      <trkpt lat="48.34873" lon="2.79548">
        <ele>56.200000762939</ele>
        <time>2022-10-13T14:18:11Z</time>
      </trkpt>
      <trkpt lat="48.34869" lon="2.79543">
        <ele>56.200000762939</ele>
        <time>2022-10-13T14:18:15Z</time>
      </trkpt>
      <trkpt lat="48.34866" lon="2.79539">
        <ele>56.200000762939</ele>
        <time>2022-10-13T14:18:19Z</time>
      </trkpt>
      <trkpt lat="48.34862" lon="2.79534">
        <ele>56.200000762939</ele>
        <time>2022-10-13T14:18:23Z</time>
      </trkpt>
      <trkpt lat="48.34859" lon="2.7953">
        <ele>56.200000762939</ele>
        <time>2022-10-13T14:18:27Z</time>
      </trkpt>
      <trkpt lat="48.34854" lon="2.79526">
        <ele>56.200000762939</ele>
        <time>2022-10-13T14:18:31Z</time>
      </trkpt>
      <trkpt lat="48.34852" lon="2.79522">
        <ele>56.200000762939</ele>
        <time>2022-10-13T14:18:35Z</time>
      </trkpt>
      <trkpt lat="48.34849" lon="2.79518">
        <ele>56.200000762939</ele>
        <time>2022-10-13T14:18:39Z</time>
      </trkpt>
      <trkpt lat="48.34847" lon="2.79515">
        <ele>56.200000762939</ele>
        <time>2022-10-13T14:18:43Z</time>
      </trkpt>
      <trkpt lat="48.34845" lon="2.79512">
        <ele>56.200000762939</ele>
        <time>2022-10-13T14:18:47Z</time>
      </trkpt>
      <trkpt lat="48.34842" lon="2.79507">
        <ele>56.200000762939</ele>
        <time>2022-10-13T14:18:51Z</time>
      </trkpt>
      <trkpt lat="48.3484" lon="2.79506">
        <ele>56.200000762939</ele>
        <time>2022-10-13T14:18:55Z</time>
      </trkpt>
      <trkpt lat="48.34839" lon="2.79505">
        <ele>56.200000762939</ele>
        <time>2022-10-13T14:18:59Z</time>
      </trkpt>
      <trkpt lat="48.34837" lon="2.79503">
        <ele>56.200000762939</ele>
        <time>2022-10-13T14:19:03Z</time>
      </trkpt>
      <trkpt lat="48.34831" lon="2.79494">
        <ele>56.200000762939</ele>
        <time>2022-10-13T14:19:07Z</time>
      </trkpt>
      <trkpt lat="48.34826" lon="2.79488">
        <ele>56.200000762939</ele>
        <time>2022-10-13T14:19:11Z</time>
      </trkpt>
      <trkpt lat="48.34824" lon="2.79485">
        <ele>56.200000762939</ele>
        <time>2022-10-13T14:19:15Z</time>
      </trkpt>
      <trkpt lat="48.34823" lon="2.79483">
        <ele>56.200000762939</ele>
        <time>2022-10-13T14:19:19Z</time>
      </trkpt>
      <trkpt lat="48.34821" lon="2.79481">
        <ele>56.200000762939</ele>
        <time>2022-10-13T14:19:23Z</time>
      </trkpt>
      <trkpt lat="48.34816" lon="2.79475">
        <ele>56.200000762939</ele>
        <time>2022-10-13T14:19:27Z</time>
      </trkpt>
      <trkpt lat="48.34811" lon="2.7947">
        <ele>56.200000762939</ele>
        <time>2022-10-13T14:19:31Z</time>
      </trkpt>
      <trkpt lat="48.34808" lon="2.79465">
        <ele>56.200000762939</ele>
        <time>2022-10-13T14:19:35Z</time>
      </trkpt>
      <trkpt lat="48.34806" lon="2.79462">
        <ele>56.200000762939</ele>
        <time>2022-10-13T14:19:39Z</time>
      </trkpt>
      <trkpt lat="48.348" lon="2.79455">
        <ele>56.200000762939</ele>
        <time>2022-10-13T14:19:43Z</time>
      </trkpt>
      <trkpt lat="48.34796" lon="2.79449">
        <ele>56.200000762939</ele>
        <time>2022-10-13T14:19:47Z</time>
      </trkpt>
      <trkpt lat="48.34788" lon="2.79436">
        <ele>56.200000762939</ele>
        <time>2022-10-13T14:19:51Z</time>
      </trkpt>
      <trkpt lat="48.34786" lon="2.79431">
        <ele>56.200000762939</ele>
        <time>2022-10-13T14:19:55Z</time>
      </trkpt>
      <trkpt lat="48.34783" lon="2.79426">
        <ele>56.200000762939</ele>
        <time>2022-10-13T14:19:59Z</time>
      </trkpt>
      <trkpt lat="48.34779" lon="2.79422">
        <ele>56.200000762939</ele>
        <time>2022-10-13T14:20:03Z</time>
      </trkpt>
      <trkpt lat="48.34775" lon="2.79419">
        <ele>56</ele>
        <time>2022-10-13T14:20:07Z</time>
      </trkpt>
      <trkpt lat="48.34771" lon="2.79414">
        <ele>56</ele>
        <time>2022-10-13T14:20:11Z</time>
      </trkpt>
      <trkpt lat="48.34767" lon="2.7941">
        <ele>56</ele>
        <time>2022-10-13T14:20:15Z</time>
      </trkpt>
      <trkpt lat="48.34764" lon="2.79406">
        <ele>56.200000762939</ele>
        <time>2022-10-13T14:20:19Z</time>
      </trkpt>
      <trkpt lat="48.34761" lon="2.79402">
        <ele>56.400001525879</ele>
        <time>2022-10-13T14:20:23Z</time>
      </trkpt>
      <trkpt lat="48.34758" lon="2.79398">
        <ele>56.400001525879</ele>
        <time>2022-10-13T14:20:27Z</time>
      </trkpt>
      <trkpt lat="48.34755" lon="2.79395">
        <ele>56.400001525879</ele>
        <time>2022-10-13T14:20:31Z</time>
      </trkpt>
      <trkpt lat="48.34753" lon="2.79392">
        <ele>56.599998474121</ele>
        <time>2022-10-13T14:20:35Z</time>
      </trkpt>
      <trkpt lat="48.34749" lon="2.79387">
        <ele>56.599998474121</ele>
        <time>2022-10-13T14:20:39Z</time>
      </trkpt>
      <trkpt lat="48.34745" lon="2.79384">
        <ele>56.200000762939</ele>
        <time>2022-10-13T14:20:43Z</time>
      </trkpt>
      <trkpt lat="48.34742" lon="2.79379">
        <ele>56.200000762939</ele>
        <time>2022-10-13T14:20:47Z</time>
      </trkpt>
      <trkpt lat="48.34739" lon="2.79375">
        <ele>56.200000762939</ele>
        <time>2022-10-13T14:20:51Z</time>
      </trkpt>
      <trkpt lat="48.34736" lon="2.79372">
        <ele>56.200000762939</ele>
        <time>2022-10-13T14:20:55Z</time>
      </trkpt>
      <trkpt lat="48.34734" lon="2.79368">
        <ele>56.200000762939</ele>
        <time>2022-10-13T14:20:59Z</time>
      </trkpt>
      <trkpt lat="48.34734" lon="2.79362">
        <ele>56.200000762939</ele>
        <time>2022-10-13T14:21:03Z</time>
      </trkpt>
      <trkpt lat="48.34734" lon="2.79354">
        <ele>56.400001525879</ele>
        <time>2022-10-13T14:21:07Z</time>
      </trkpt>
      <trkpt lat="48.34733" lon="2.79348">
        <ele>56.400001525879</ele>
        <time>2022-10-13T14:21:11Z</time>
      </trkpt>
      <trkpt lat="48.34733" lon="2.79341">
        <ele>56.599998474121</ele>
        <time>2022-10-13T14:21:15Z</time>
      </trkpt>
      <trkpt lat="48.34733" lon="2.79333">
        <ele>56.599998474121</ele>
        <time>2022-10-13T14:21:19Z</time>
      </trkpt>
      <trkpt lat="48.34733" lon="2.79328">
        <ele>56.799999237061</ele>
        <time>2022-10-13T14:21:23Z</time>
      </trkpt>
      <trkpt lat="48.34734" lon="2.7932">
        <ele>57</ele>
        <time>2022-10-13T14:21:27Z</time>
      </trkpt>
      <trkpt lat="48.34735" lon="2.79315">
        <ele>57.200000762939</ele>
        <time>2022-10-13T14:21:31Z</time>
      </trkpt>
      <trkpt lat="48.34735" lon="2.79309">
        <ele>57.599998474121</ele>
        <time>2022-10-13T14:21:35Z</time>
      </trkpt>
      <trkpt lat="48.34736" lon="2.79303">
        <ele>57.799999237061</ele>
        <time>2022-10-13T14:21:39Z</time>
      </trkpt>
      <trkpt lat="48.34737" lon="2.79298">
        <ele>57.799999237061</ele>
        <time>2022-10-13T14:21:43Z</time>
      </trkpt>
      <trkpt lat="48.34737" lon="2.7929">
        <ele>58</ele>
        <time>2022-10-13T14:21:47Z</time>
      </trkpt>
      <trkpt lat="48.34737" lon="2.79284">
        <ele>58</ele>
        <time>2022-10-13T14:21:51Z</time>
      </trkpt>
      <trkpt lat="48.34736" lon="2.79276">
        <ele>58</ele>
        <time>2022-10-13T14:21:55Z</time>
      </trkpt>
      <trkpt lat="48.34735" lon="2.79269">
        <ele>58.200000762939</ele>
        <time>2022-10-13T14:21:59Z</time>
      </trkpt>
      <trkpt lat="48.34735" lon="2.79264">
        <ele>58.200000762939</ele>
        <time>2022-10-13T14:22:03Z</time>
      </trkpt>
      <trkpt lat="48.34735" lon="2.79257">
        <ele>58.200000762939</ele>
        <time>2022-10-13T14:22:07Z</time>
      </trkpt>
      <trkpt lat="48.34735" lon="2.7925">
        <ele>58.200000762939</ele>
        <time>2022-10-13T14:22:11Z</time>
      </trkpt>
      <trkpt lat="48.34736" lon="2.79243">
        <ele>58.200000762939</ele>
        <time>2022-10-13T14:22:15Z</time>
      </trkpt>
      <trkpt lat="48.34737" lon="2.79236">
        <ele>58.200000762939</ele>
        <time>2022-10-13T14:22:19Z</time>
      </trkpt>
      <trkpt lat="48.34737" lon="2.79229">
        <ele>58.400001525879</ele>
        <time>2022-10-13T14:22:23Z</time>
      </trkpt>
      <trkpt lat="48.34736" lon="2.79223">
        <ele>58.400001525879</ele>
        <time>2022-10-13T14:22:27Z</time>
      </trkpt>
      <trkpt lat="48.34738" lon="2.79217">
        <ele>58.599998474121</ele>
        <time>2022-10-13T14:22:31Z</time>
      </trkpt>
      <trkpt lat="48.34738" lon="2.7921">
        <ele>58.599998474121</ele>
        <time>2022-10-13T14:22:35Z</time>
      </trkpt>
      <trkpt lat="48.34739" lon="2.79204">
        <ele>58.599998474121</ele>
        <time>2022-10-13T14:22:39Z</time>
      </trkpt>
      <trkpt lat="48.34739" lon="2.79199">
        <ele>58.599998474121</ele>
        <time>2022-10-13T14:22:43Z</time>
      </trkpt>
      <trkpt lat="48.3474" lon="2.79193">
        <ele>58.599998474121</ele>
        <time>2022-10-13T14:22:47Z</time>
      </trkpt>
      <trkpt lat="48.34741" lon="2.79186">
        <ele>58.799999237061</ele>
        <time>2022-10-13T14:22:51Z</time>
      </trkpt>
      <trkpt lat="48.34741" lon="2.79177">
        <ele>58.799999237061</ele>
        <time>2022-10-13T14:22:55Z</time>
      </trkpt>
      <trkpt lat="48.3474" lon="2.79171">
        <ele>58.599998474121</ele>
        <time>2022-10-13T14:22:59Z</time>
      </trkpt>
      <trkpt lat="48.34741" lon="2.79164">
        <ele>58.599998474121</ele>
        <time>2022-10-13T14:23:03Z</time>
      </trkpt>
      <trkpt lat="48.34741" lon="2.79157">
        <ele>58.400001525879</ele>
        <time>2022-10-13T14:23:07Z</time>
      </trkpt>
      <trkpt lat="48.34741" lon="2.7915">
        <ele>58.400001525879</ele>
        <time>2022-10-13T14:23:11Z</time>
      </trkpt>
      <trkpt lat="48.34741" lon="2.79143">
        <ele>58.400001525879</ele>
        <time>2022-10-13T14:23:15Z</time>
      </trkpt>
      <trkpt lat="48.34742" lon="2.79136">
        <ele>58.200000762939</ele>
        <time>2022-10-13T14:23:19Z</time>
      </trkpt>
      <trkpt lat="48.34742" lon="2.79131">
        <ele>58.200000762939</ele>
        <time>2022-10-13T14:23:23Z</time>
      </trkpt>
      <trkpt lat="48.34743" lon="2.79124">
        <ele>58.200000762939</ele>
        <time>2022-10-13T14:23:27Z</time>
      </trkpt>
      <trkpt lat="48.34743" lon="2.79117">
        <ele>58.200000762939</ele>
        <time>2022-10-13T14:23:31Z</time>
      </trkpt>
      <trkpt lat="48.34743" lon="2.79112">
        <ele>58.200000762939</ele>
        <time>2022-10-13T14:23:35Z</time>
      </trkpt>
      <trkpt lat="48.34743" lon="2.79105">
        <ele>58.200000762939</ele>
        <time>2022-10-13T14:23:39Z</time>
      </trkpt>
      <trkpt lat="48.34743" lon="2.791">
        <ele>58.200000762939</ele>
        <time>2022-10-13T14:23:43Z</time>
      </trkpt>
      <trkpt lat="48.34744" lon="2.79093">
        <ele>58.200000762939</ele>
        <time>2022-10-13T14:23:47Z</time>
      </trkpt>
      <trkpt lat="48.34745" lon="2.79086">
        <ele>58.200000762939</ele>
        <time>2022-10-13T14:23:51Z</time>
      </trkpt>
      <trkpt lat="48.34747" lon="2.79078">
        <ele>58.200000762939</ele>
        <time>2022-10-13T14:23:55Z</time>
      </trkpt>
      <trkpt lat="48.34748" lon="2.79072">
        <ele>58.200000762939</ele>
        <time>2022-10-13T14:23:59Z</time>
      </trkpt>
      <trkpt lat="48.34749" lon="2.79065">
        <ele>58.200000762939</ele>
        <time>2022-10-13T14:24:03Z</time>
      </trkpt>
      <trkpt lat="48.34749" lon="2.79059">
        <ele>58.200000762939</ele>
        <time>2022-10-13T14:24:07Z</time>
      </trkpt>
      <trkpt lat="48.3475" lon="2.79052">
        <ele>58.400001525879</ele>
        <time>2022-10-13T14:24:11Z</time>
      </trkpt>
      <trkpt lat="48.34751" lon="2.79047">
        <ele>58.200000762939</ele>
        <time>2022-10-13T14:24:15Z</time>
      </trkpt>
      <trkpt lat="48.3475" lon="2.79041">
        <ele>58</ele>
        <time>2022-10-13T14:24:19Z</time>
      </trkpt>
      <trkpt lat="48.3475" lon="2.79034">
        <ele>58</ele>
        <time>2022-10-13T14:24:23Z</time>
      </trkpt>
      <trkpt lat="48.34749" lon="2.79027">
        <ele>58</ele>
        <time>2022-10-13T14:24:27Z</time>
      </trkpt>
      <trkpt lat="48.3475" lon="2.7902">
        <ele>57.799999237061</ele>
        <time>2022-10-13T14:24:31Z</time>
      </trkpt>
      <trkpt lat="48.34752" lon="2.79013">
        <ele>57.799999237061</ele>
        <time>2022-10-13T14:24:35Z</time>
      </trkpt>
      <trkpt lat="48.34751" lon="2.79009">
        <ele>57.599998474121</ele>
        <time>2022-10-13T14:24:39Z</time>
      </trkpt>
      <trkpt lat="48.34753" lon="2.79003">
        <ele>57.599998474121</ele>
        <time>2022-10-13T14:24:43Z</time>
      </trkpt>
      <trkpt lat="48.34752" lon="2.78997">
        <ele>57.599998474121</ele>
        <time>2022-10-13T14:24:47Z</time>
      </trkpt>
      <trkpt lat="48.34755" lon="2.7899">
        <ele>57.599998474121</ele>
        <time>2022-10-13T14:24:51Z</time>
      </trkpt>
      <trkpt lat="48.34755" lon="2.78982">
        <ele>57.599998474121</ele>
        <time>2022-10-13T14:24:55Z</time>
      </trkpt>
      <trkpt lat="48.34754" lon="2.78975">
        <ele>57.599998474121</ele>
        <time>2022-10-13T14:24:59Z</time>
      </trkpt>
      <trkpt lat="48.34753" lon="2.78967">
        <ele>57.599998474121</ele>
        <time>2022-10-13T14:25:03Z</time>
      </trkpt>
      <trkpt lat="48.34754" lon="2.78961">
        <ele>57.599998474121</ele>
        <time>2022-10-13T14:25:07Z</time>
      </trkpt>
      <trkpt lat="48.34755" lon="2.78955">
        <ele>57.799999237061</ele>
        <time>2022-10-13T14:25:11Z</time>
      </trkpt>
      <trkpt lat="48.34755" lon="2.78948">
        <ele>57.799999237061</ele>
        <time>2022-10-13T14:25:15Z</time>
      </trkpt>
      <trkpt lat="48.34755" lon="2.78944">
        <ele>57.799999237061</ele>
        <time>2022-10-13T14:25:19Z</time>
      </trkpt>
      <trkpt lat="48.34756" lon="2.78938">
        <ele>57.799999237061</ele>
        <time>2022-10-13T14:25:23Z</time>
      </trkpt>
      <trkpt lat="48.34757" lon="2.78931">
        <ele>57.599998474121</ele>
        <time>2022-10-13T14:25:27Z</time>
      </trkpt>
      <trkpt lat="48.34756" lon="2.78926">
        <ele>57.599998474121</ele>
        <time>2022-10-13T14:25:31Z</time>
      </trkpt>
      <trkpt lat="48.34756" lon="2.78919">
        <ele>57.400001525879</ele>
        <time>2022-10-13T14:25:35Z</time>
      </trkpt>
      <trkpt lat="48.34756" lon="2.78913">
        <ele>57.400001525879</ele>
        <time>2022-10-13T14:25:39Z</time>
      </trkpt>
      <trkpt lat="48.34756" lon="2.78906">
        <ele>57.400001525879</ele>
        <time>2022-10-13T14:25:43Z</time>
      </trkpt>
      <trkpt lat="48.34758" lon="2.78899">
        <ele>57.400001525879</ele>
        <time>2022-10-13T14:25:47Z</time>
      </trkpt>
      <trkpt lat="48.34758" lon="2.78893">
        <ele>57.599998474121</ele>
        <time>2022-10-13T14:25:51Z</time>
      </trkpt>
      <trkpt lat="48.34759" lon="2.78885">
        <ele>57.599998474121</ele>
        <time>2022-10-13T14:25:55Z</time>
      </trkpt>
      <trkpt lat="48.34757" lon="2.78877">
        <ele>57.799999237061</ele>
        <time>2022-10-13T14:25:59Z</time>
      </trkpt>
      <trkpt lat="48.34757" lon="2.78872">
        <ele>57.799999237061</ele>
        <time>2022-10-13T14:26:03Z</time>
      </trkpt>
      <trkpt lat="48.34756" lon="2.78866">
        <ele>57.799999237061</ele>
        <time>2022-10-13T14:26:07Z</time>
      </trkpt>
      <trkpt lat="48.34756" lon="2.7886">
        <ele>58</ele>
        <time>2022-10-13T14:26:11Z</time>
      </trkpt>
      <trkpt lat="48.34756" lon="2.78851">
        <ele>58</ele>
        <time>2022-10-13T14:26:15Z</time>
      </trkpt>
      <trkpt lat="48.34755" lon="2.78844">
        <ele>58</ele>
        <time>2022-10-13T14:26:19Z</time>
      </trkpt>
      <trkpt lat="48.34757" lon="2.78837">
        <ele>57.799999237061</ele>
        <time>2022-10-13T14:26:23Z</time>
      </trkpt>
      <trkpt lat="48.34757" lon="2.78832">
        <ele>57.799999237061</ele>
        <time>2022-10-13T14:26:27Z</time>
      </trkpt>
      <trkpt lat="48.34759" lon="2.78825">
        <ele>57.599998474121</ele>
        <time>2022-10-13T14:26:31Z</time>
      </trkpt>
      <trkpt lat="48.34761" lon="2.78816">
        <ele>57.400001525879</ele>
        <time>2022-10-13T14:26:35Z</time>
      </trkpt>
      <trkpt lat="48.34762" lon="2.78811">
        <ele>57.799999237061</ele>
        <time>2022-10-13T14:26:39Z</time>
      </trkpt>
      <trkpt lat="48.34762" lon="2.78806">
        <ele>57.799999237061</ele>
        <time>2022-10-13T14:26:43Z</time>
      </trkpt>
      <trkpt lat="48.34762" lon="2.78799">
        <ele>57.599998474121</ele>
        <time>2022-10-13T14:26:47Z</time>
      </trkpt>
      <trkpt lat="48.34762" lon="2.78793">
        <ele>57.400001525879</ele>
        <time>2022-10-13T14:26:51Z</time>
      </trkpt>
      <trkpt lat="48.34763" lon="2.78787">
        <ele>57.400001525879</ele>
        <time>2022-10-13T14:26:55Z</time>
      </trkpt>
      <trkpt lat="48.34763" lon="2.78781">
        <ele>57.400001525879</ele>
        <time>2022-10-13T14:26:59Z</time>
      </trkpt>
      <trkpt lat="48.34763" lon="2.78774">
        <ele>57.400001525879</ele>
        <time>2022-10-13T14:27:03Z</time>
      </trkpt>
      <trkpt lat="48.34764" lon="2.78768">
        <ele>57.400001525879</ele>
        <time>2022-10-13T14:27:07Z</time>
      </trkpt>
      <trkpt lat="48.34765" lon="2.78761">
        <ele>57.400001525879</ele>
        <time>2022-10-13T14:27:11Z</time>
      </trkpt>
      <trkpt lat="48.34766" lon="2.78754">
        <ele>57.400001525879</ele>
        <time>2022-10-13T14:27:15Z</time>
      </trkpt>
      <trkpt lat="48.34768" lon="2.78747">
        <ele>57.200000762939</ele>
        <time>2022-10-13T14:27:19Z</time>
      </trkpt>
      <trkpt lat="48.34769" lon="2.7874">
        <ele>57.200000762939</ele>
        <time>2022-10-13T14:27:23Z</time>
      </trkpt>
      <trkpt lat="48.3477" lon="2.78734">
        <ele>57.200000762939</ele>
        <time>2022-10-13T14:27:27Z</time>
      </trkpt>
      <trkpt lat="48.34771" lon="2.78728">
        <ele>57</ele>
        <time>2022-10-13T14:27:31Z</time>
      </trkpt>
      <trkpt lat="48.34771" lon="2.78722">
        <ele>57</ele>
        <time>2022-10-13T14:27:35Z</time>
      </trkpt>
      <trkpt lat="48.34771" lon="2.78715">
        <ele>57</ele>
        <time>2022-10-13T14:27:39Z</time>
      </trkpt>
      <trkpt lat="48.34772" lon="2.78709">
        <ele>57</ele>
        <time>2022-10-13T14:27:43Z</time>
      </trkpt>
      <trkpt lat="48.34772" lon="2.78703">
        <ele>57.200000762939</ele>
        <time>2022-10-13T14:27:47Z</time>
      </trkpt>
      <trkpt lat="48.34773" lon="2.78697">
        <ele>57.200000762939</ele>
        <time>2022-10-13T14:27:51Z</time>
      </trkpt>
      <trkpt lat="48.34774" lon="2.78692">
        <ele>57.200000762939</ele>
        <time>2022-10-13T14:27:55Z</time>
      </trkpt>
      <trkpt lat="48.34775" lon="2.78688">
        <ele>57.200000762939</ele>
        <time>2022-10-13T14:27:59Z</time>
      </trkpt>
      <trkpt lat="48.34775" lon="2.78683">
        <ele>57.200000762939</ele>
        <time>2022-10-13T14:28:03Z</time>
      </trkpt>
      <trkpt lat="48.34775" lon="2.78676">
        <ele>57.200000762939</ele>
        <time>2022-10-13T14:28:07Z</time>
      </trkpt>
      <trkpt lat="48.34776" lon="2.78669">
        <ele>57.200000762939</ele>
        <time>2022-10-13T14:28:11Z</time>
      </trkpt>
      <trkpt lat="48.34777" lon="2.78662">
        <ele>57.200000762939</ele>
        <time>2022-10-13T14:28:15Z</time>
      </trkpt>
      <trkpt lat="48.34777" lon="2.78656">
        <ele>57.200000762939</ele>
        <time>2022-10-13T14:28:19Z</time>
      </trkpt>
      <trkpt lat="48.34777" lon="2.7865">
        <ele>57.200000762939</ele>
        <time>2022-10-13T14:28:23Z</time>
      </trkpt>
      <trkpt lat="48.34777" lon="2.78643">
        <ele>57.200000762939</ele>
        <time>2022-10-13T14:28:27Z</time>
      </trkpt>
      <trkpt lat="48.34777" lon="2.78636">
        <ele>57.200000762939</ele>
        <time>2022-10-13T14:28:31Z</time>
      </trkpt>
      <trkpt lat="48.34778" lon="2.78629">
        <ele>57.200000762939</ele>
        <time>2022-10-13T14:28:35Z</time>
      </trkpt>
      <trkpt lat="48.34779" lon="2.78623">
        <ele>57.200000762939</ele>
        <time>2022-10-13T14:28:39Z</time>
      </trkpt>
      <trkpt lat="48.34779" lon="2.78616">
        <ele>57.200000762939</ele>
        <time>2022-10-13T14:28:43Z</time>
      </trkpt>
      <trkpt lat="48.3478" lon="2.78609">
        <ele>57</ele>
        <time>2022-10-13T14:28:47Z</time>
      </trkpt>
      <trkpt lat="48.3478" lon="2.78602">
        <ele>57</ele>
        <time>2022-10-13T14:28:51Z</time>
      </trkpt>
      <trkpt lat="48.3478" lon="2.78596">
        <ele>57</ele>
        <time>2022-10-13T14:28:55Z</time>
      </trkpt>
      <trkpt lat="48.3478" lon="2.78589">
        <ele>56.799999237061</ele>
        <time>2022-10-13T14:28:59Z</time>
      </trkpt>
      <trkpt lat="48.3478" lon="2.78582">
        <ele>57</ele>
        <time>2022-10-13T14:29:03Z</time>
      </trkpt>
      <trkpt lat="48.34779" lon="2.78576">
        <ele>57</ele>
        <time>2022-10-13T14:29:07Z</time>
      </trkpt>
      <trkpt lat="48.34779" lon="2.7857">
        <ele>57</ele>
        <time>2022-10-13T14:29:11Z</time>
      </trkpt>
      <trkpt lat="48.34781" lon="2.78563">
        <ele>57</ele>
        <time>2022-10-13T14:29:15Z</time>
      </trkpt>
      <trkpt lat="48.34783" lon="2.78557">
        <ele>57</ele>
        <time>2022-10-13T14:29:19Z</time>
      </trkpt>
      <trkpt lat="48.34783" lon="2.7855">
        <ele>57</ele>
        <time>2022-10-13T14:29:23Z</time>
      </trkpt>
      <trkpt lat="48.34783" lon="2.78544">
        <ele>57</ele>
        <time>2022-10-13T14:29:27Z</time>
      </trkpt>
      <trkpt lat="48.3478" lon="2.78539">
        <ele>57.200000762939</ele>
        <time>2022-10-13T14:29:31Z</time>
      </trkpt>
      <trkpt lat="48.3478" lon="2.78535">
        <ele>57.599998474121</ele>
        <time>2022-10-13T14:29:35Z</time>
      </trkpt>
      <trkpt lat="48.3478" lon="2.78527">
        <ele>57.799999237061</ele>
        <time>2022-10-13T14:29:39Z</time>
      </trkpt>
      <trkpt lat="48.3478" lon="2.78525">
        <ele>57.799999237061</ele>
        <time>2022-10-13T14:29:43Z</time>
      </trkpt>
      <trkpt lat="48.3478" lon="2.78523">
        <ele>57.799999237061</ele>
        <time>2022-10-13T14:29:47Z</time>
      </trkpt>
      <trkpt lat="48.3478" lon="2.78521">
        <ele>57.799999237061</ele>
        <time>2022-10-13T14:29:51Z</time>
      </trkpt>
      <trkpt lat="48.34781" lon="2.78521">
        <ele>57.799999237061</ele>
        <time>2022-10-13T14:29:55Z</time>
      </trkpt>
      <trkpt lat="48.34781" lon="2.78521">
        <ele>57.599998474121</ele>
        <time>2022-10-13T14:29:59Z</time>
      </trkpt>
      <trkpt lat="48.3478" lon="2.78522">
        <ele>57.799999237061</ele>
        <time>2022-10-13T14:30:03Z</time>
      </trkpt>
      <trkpt lat="48.3478" lon="2.78523">
        <ele>57.799999237061</ele>
        <time>2022-10-13T14:30:07Z</time>
      </trkpt>
      <trkpt lat="48.3478" lon="2.78524">
        <ele>57.799999237061</ele>
        <time>2022-10-13T14:30:11Z</time>
      </trkpt>
      <trkpt lat="48.3478" lon="2.78524">
        <ele>57.799999237061</ele>
        <time>2022-10-13T14:30:15Z</time>
      </trkpt>
      <trkpt lat="48.3478" lon="2.78524">
        <ele>57.799999237061</ele>
        <time>2022-10-13T14:30:19Z</time>
      </trkpt>
      <trkpt lat="48.34779" lon="2.78524">
        <ele>57.799999237061</ele>
        <time>2022-10-13T14:30:23Z</time>
      </trkpt>
      <trkpt lat="48.3478" lon="2.78523">
        <ele>57.799999237061</ele>
        <time>2022-10-13T14:30:27Z</time>
      </trkpt>
      <trkpt lat="48.3478" lon="2.78523">
        <ele>57.799999237061</ele>
        <time>2022-10-13T14:30:31Z</time>
      </trkpt>
      <trkpt lat="48.3478" lon="2.78524">
        <ele>57.599998474121</ele>
        <time>2022-10-13T14:30:35Z</time>
      </trkpt>
      <trkpt lat="48.34779" lon="2.78524">
        <ele>57.599998474121</ele>
        <time>2022-10-13T14:30:39Z</time>
      </trkpt>
      <trkpt lat="48.34778" lon="2.78526">
        <ele>57.599998474121</ele>
        <time>2022-10-13T14:30:43Z</time>
      </trkpt>
      <trkpt lat="48.34778" lon="2.78525">
        <ele>57.599998474121</ele>
        <time>2022-10-13T14:30:47Z</time>
      </trkpt>
      <trkpt lat="48.34781" lon="2.78523">
        <ele>57.599998474121</ele>
        <time>2022-10-13T14:30:51Z</time>
      </trkpt>
      <trkpt lat="48.34785" lon="2.78515">
        <ele>57.599998474121</ele>
        <time>2022-10-13T14:30:55Z</time>
      </trkpt>
      <trkpt lat="48.34786" lon="2.78507">
        <ele>57.599998474121</ele>
        <time>2022-10-13T14:30:59Z</time>
      </trkpt>
      <trkpt lat="48.34786" lon="2.78502">
        <ele>57.599998474121</ele>
        <time>2022-10-13T14:31:03Z</time>
      </trkpt>
      <trkpt lat="48.34786" lon="2.78497">
        <ele>57.599998474121</ele>
        <time>2022-10-13T14:31:07Z</time>
      </trkpt>
      <trkpt lat="48.34785" lon="2.78492">
        <ele>57.799999237061</ele>
        <time>2022-10-13T14:31:11Z</time>
      </trkpt>
      <trkpt lat="48.34784" lon="2.78489">
        <ele>58</ele>
        <time>2022-10-13T14:31:15Z</time>
      </trkpt>
      <trkpt lat="48.34785" lon="2.78486">
        <ele>58.200000762939</ele>
        <time>2022-10-13T14:31:19Z</time>
      </trkpt>
      <trkpt lat="48.34784" lon="2.78482">
        <ele>58.400001525879</ele>
        <time>2022-10-13T14:31:23Z</time>
      </trkpt>
      <trkpt lat="48.34785" lon="2.78473">
        <ele>58.400001525879</ele>
        <time>2022-10-13T14:31:27Z</time>
      </trkpt>
      <trkpt lat="48.34785" lon="2.78468">
        <ele>58.599998474121</ele>
        <time>2022-10-13T14:31:31Z</time>
      </trkpt>
      <trkpt lat="48.34786" lon="2.78462">
        <ele>58.799999237061</ele>
        <time>2022-10-13T14:31:35Z</time>
      </trkpt>
      <trkpt lat="48.34786" lon="2.78457">
        <ele>58.799999237061</ele>
        <time>2022-10-13T14:31:39Z</time>
      </trkpt>
      <trkpt lat="48.34786" lon="2.78452">
        <ele>59</ele>
        <time>2022-10-13T14:31:43Z</time>
      </trkpt>
      <trkpt lat="48.34786" lon="2.78446">
        <ele>59.200000762939</ele>
        <time>2022-10-13T14:31:47Z</time>
      </trkpt>
      <trkpt lat="48.34785" lon="2.7844">
        <ele>59.200000762939</ele>
        <time>2022-10-13T14:31:51Z</time>
      </trkpt>
      <trkpt lat="48.34784" lon="2.78435">
        <ele>59.599998474121</ele>
        <time>2022-10-13T14:31:55Z</time>
      </trkpt>
      <trkpt lat="48.34784" lon="2.78429">
        <ele>59.799999237061</ele>
        <time>2022-10-13T14:31:59Z</time>
      </trkpt>
      <trkpt lat="48.34786" lon="2.78424">
        <ele>60</ele>
        <time>2022-10-13T14:32:03Z</time>
      </trkpt>
      <trkpt lat="48.34788" lon="2.78419">
        <ele>60.599998474121</ele>
        <time>2022-10-13T14:32:07Z</time>
      </trkpt>
      <trkpt lat="48.3479" lon="2.78414">
        <ele>61</ele>
        <time>2022-10-13T14:32:11Z</time>
      </trkpt>
      <trkpt lat="48.34791" lon="2.78408">
        <ele>61.799999237061</ele>
        <time>2022-10-13T14:32:15Z</time>
      </trkpt>
      <trkpt lat="48.34794" lon="2.784">
        <ele>62.400001525879</ele>
        <time>2022-10-13T14:32:19Z</time>
      </trkpt>
      <trkpt lat="48.34796" lon="2.78394">
        <ele>63.200000762939</ele>
        <time>2022-10-13T14:32:23Z</time>
      </trkpt>
      <trkpt lat="48.34796" lon="2.78389">
        <ele>64</ele>
        <time>2022-10-13T14:32:27Z</time>
      </trkpt>
      <trkpt lat="48.34797" lon="2.78381">
        <ele>64.400001525879</ele>
        <time>2022-10-13T14:32:31Z</time>
      </trkpt>
      <trkpt lat="48.34796" lon="2.78374">
        <ele>65</ele>
        <time>2022-10-13T14:32:35Z</time>
      </trkpt>
      <trkpt lat="48.34797" lon="2.7837">
        <ele>65.400001525879</ele>
        <time>2022-10-13T14:32:39Z</time>
      </trkpt>
      <trkpt lat="48.34795" lon="2.78365">
        <ele>65.800003051758</ele>
        <time>2022-10-13T14:32:43Z</time>
      </trkpt>
      <trkpt lat="48.34793" lon="2.78361">
        <ele>66.199996948242</ele>
        <time>2022-10-13T14:32:47Z</time>
      </trkpt>
      <trkpt lat="48.34793" lon="2.78355">
        <ele>66.599998474121</ele>
        <time>2022-10-13T14:32:51Z</time>
      </trkpt>
      <trkpt lat="48.34793" lon="2.7835">
        <ele>67</ele>
        <time>2022-10-13T14:32:55Z</time>
      </trkpt>
      <trkpt lat="48.34792" lon="2.78344">
        <ele>67.199996948242</ele>
        <time>2022-10-13T14:32:59Z</time>
      </trkpt>
      <trkpt lat="48.34792" lon="2.78339">
        <ele>67.599998474121</ele>
        <time>2022-10-13T14:33:03Z</time>
      </trkpt>
      <trkpt lat="48.3479" lon="2.78335">
        <ele>67.800003051758</ele>
        <time>2022-10-13T14:33:07Z</time>
      </trkpt>
      <trkpt lat="48.34789" lon="2.7833">
        <ele>68</ele>
        <time>2022-10-13T14:33:11Z</time>
      </trkpt>
      <trkpt lat="48.3479" lon="2.78323">
        <ele>68.199996948242</ele>
        <time>2022-10-13T14:33:15Z</time>
      </trkpt>
      <trkpt lat="48.34789" lon="2.78318">
        <ele>68.400001525879</ele>
        <time>2022-10-13T14:33:19Z</time>
      </trkpt>
      <trkpt lat="48.34791" lon="2.78312">
        <ele>68.400001525879</ele>
        <time>2022-10-13T14:33:23Z</time>
      </trkpt>
      <trkpt lat="48.34793" lon="2.78306">
        <ele>68.599998474121</ele>
        <time>2022-10-13T14:33:27Z</time>
      </trkpt>
      <trkpt lat="48.34796" lon="2.78301">
        <ele>68.800003051758</ele>
        <time>2022-10-13T14:33:31Z</time>
      </trkpt>
      <trkpt lat="48.34796" lon="2.78295">
        <ele>69.199996948242</ele>
        <time>2022-10-13T14:33:35Z</time>
      </trkpt>
      <trkpt lat="48.34796" lon="2.7829">
        <ele>69.400001525879</ele>
        <time>2022-10-13T14:33:39Z</time>
      </trkpt>
      <trkpt lat="48.34797" lon="2.78284">
        <ele>69.800003051758</ele>
        <time>2022-10-13T14:33:43Z</time>
      </trkpt>
      <trkpt lat="48.34799" lon="2.78279">
        <ele>69.800003051758</ele>
        <time>2022-10-13T14:33:47Z</time>
      </trkpt>
      <trkpt lat="48.34801" lon="2.78274">
        <ele>70</ele>
        <time>2022-10-13T14:33:51Z</time>
      </trkpt>
      <trkpt lat="48.34802" lon="2.7827">
        <ele>70.400001525879</ele>
        <time>2022-10-13T14:33:55Z</time>
      </trkpt>
      <trkpt lat="48.34803" lon="2.78265">
        <ele>70.800003051758</ele>
        <time>2022-10-13T14:33:59Z</time>
      </trkpt>
      <trkpt lat="48.34804" lon="2.7826">
        <ele>71</ele>
        <time>2022-10-13T14:34:03Z</time>
      </trkpt>
      <trkpt lat="48.34806" lon="2.78255">
        <ele>71.599998474121</ele>
        <time>2022-10-13T14:34:07Z</time>
      </trkpt>
      <trkpt lat="48.34808" lon="2.78251">
        <ele>71.800003051758</ele>
        <time>2022-10-13T14:34:11Z</time>
      </trkpt>
      <trkpt lat="48.3481" lon="2.78245">
        <ele>72.199996948242</ele>
        <time>2022-10-13T14:34:15Z</time>
      </trkpt>
      <trkpt lat="48.34811" lon="2.7824">
        <ele>72.400001525879</ele>
        <time>2022-10-13T14:34:19Z</time>
      </trkpt>
      <trkpt lat="48.34813" lon="2.78235">
        <ele>72.599998474121</ele>
        <time>2022-10-13T14:34:23Z</time>
      </trkpt>
      <trkpt lat="48.34816" lon="2.7823">
        <ele>72.800003051758</ele>
        <time>2022-10-13T14:34:27Z</time>
      </trkpt>
      <trkpt lat="48.34819" lon="2.78226">
        <ele>73.199996948242</ele>
        <time>2022-10-13T14:34:31Z</time>
      </trkpt>
      <trkpt lat="48.34821" lon="2.78221">
        <ele>73.400001525879</ele>
        <time>2022-10-13T14:34:35Z</time>
      </trkpt>
      <trkpt lat="48.34826" lon="2.78214">
        <ele>73.800003051758</ele>
        <time>2022-10-13T14:34:39Z</time>
      </trkpt>
      <trkpt lat="48.34827" lon="2.78208">
        <ele>74</ele>
        <time>2022-10-13T14:34:43Z</time>
      </trkpt>
      <trkpt lat="48.34825" lon="2.78203">
        <ele>74.199996948242</ele>
        <time>2022-10-13T14:34:47Z</time>
      </trkpt>
      <trkpt lat="48.34823" lon="2.78198">
        <ele>74</ele>
        <time>2022-10-13T14:34:51Z</time>
      </trkpt>
      <trkpt lat="48.34822" lon="2.78194">
        <ele>74</ele>
        <time>2022-10-13T14:34:55Z</time>
      </trkpt>
      <trkpt lat="48.34819" lon="2.78189">
        <ele>73.800003051758</ele>
        <time>2022-10-13T14:34:59Z</time>
      </trkpt>
      <trkpt lat="48.34817" lon="2.78185">
        <ele>73.800003051758</ele>
        <time>2022-10-13T14:35:03Z</time>
      </trkpt>
      <trkpt lat="48.34816" lon="2.78182">
        <ele>73.599998474121</ele>
        <time>2022-10-13T14:35:07Z</time>
      </trkpt>
      <trkpt lat="48.34814" lon="2.78175">
        <ele>73.599998474121</ele>
        <time>2022-10-13T14:35:11Z</time>
      </trkpt>
      <trkpt lat="48.34812" lon="2.78168">
        <ele>73.599998474121</ele>
        <time>2022-10-13T14:35:15Z</time>
      </trkpt>
      <trkpt lat="48.34811" lon="2.78161">
        <ele>73.599998474121</ele>
        <time>2022-10-13T14:35:19Z</time>
      </trkpt>
      <trkpt lat="48.34809" lon="2.78156">
        <ele>73.599998474121</ele>
        <time>2022-10-13T14:35:23Z</time>
      </trkpt>
      <trkpt lat="48.34806" lon="2.78152">
        <ele>73.400001525879</ele>
        <time>2022-10-13T14:35:27Z</time>
      </trkpt>
      <trkpt lat="48.34803" lon="2.78148">
        <ele>73.400001525879</ele>
        <time>2022-10-13T14:35:31Z</time>
      </trkpt>
      <trkpt lat="48.348" lon="2.78144">
        <ele>73.400001525879</ele>
        <time>2022-10-13T14:35:35Z</time>
      </trkpt>
      <trkpt lat="48.34797" lon="2.78138">
        <ele>73.400001525879</ele>
        <time>2022-10-13T14:35:39Z</time>
      </trkpt>
      <trkpt lat="48.34795" lon="2.78132">
        <ele>73.199996948242</ele>
        <time>2022-10-13T14:35:43Z</time>
      </trkpt>
      <trkpt lat="48.34791" lon="2.78127">
        <ele>73.199996948242</ele>
        <time>2022-10-13T14:35:47Z</time>
      </trkpt>
      <trkpt lat="48.34789" lon="2.78124">
        <ele>73</ele>
        <time>2022-10-13T14:35:51Z</time>
      </trkpt>
      <trkpt lat="48.34787" lon="2.7812">
        <ele>72.800003051758</ele>
        <time>2022-10-13T14:35:55Z</time>
      </trkpt>
      <trkpt lat="48.34785" lon="2.78115">
        <ele>72.800003051758</ele>
        <time>2022-10-13T14:35:59Z</time>
      </trkpt>
      <trkpt lat="48.34782" lon="2.78109">
        <ele>72.800003051758</ele>
        <time>2022-10-13T14:36:03Z</time>
      </trkpt>
      <trkpt lat="48.3478" lon="2.78105">
        <ele>72.599998474121</ele>
        <time>2022-10-13T14:36:07Z</time>
      </trkpt>
      <trkpt lat="48.34777" lon="2.78098">
        <ele>72.599998474121</ele>
        <time>2022-10-13T14:36:11Z</time>
      </trkpt>
      <trkpt lat="48.34774" lon="2.78092">
        <ele>72.400001525879</ele>
        <time>2022-10-13T14:36:15Z</time>
      </trkpt>
      <trkpt lat="48.34771" lon="2.78087">
        <ele>72.199996948242</ele>
        <time>2022-10-13T14:36:19Z</time>
      </trkpt>
      <trkpt lat="48.34767" lon="2.78082">
        <ele>72.199996948242</ele>
        <time>2022-10-13T14:36:23Z</time>
      </trkpt>
      <trkpt lat="48.34763" lon="2.78077">
        <ele>72</ele>
        <time>2022-10-13T14:36:27Z</time>
      </trkpt>
      <trkpt lat="48.3476" lon="2.78073">
        <ele>72</ele>
        <time>2022-10-13T14:36:31Z</time>
      </trkpt>
      <trkpt lat="48.34757" lon="2.78067">
        <ele>71.800003051758</ele>
        <time>2022-10-13T14:36:35Z</time>
      </trkpt>
      <trkpt lat="48.34755" lon="2.78062">
        <ele>71.800003051758</ele>
        <time>2022-10-13T14:36:39Z</time>
      </trkpt>
      <trkpt lat="48.34752" lon="2.78056">
        <ele>71.599998474121</ele>
        <time>2022-10-13T14:36:43Z</time>
      </trkpt>
      <trkpt lat="48.3475" lon="2.7805">
        <ele>71.400001525879</ele>
        <time>2022-10-13T14:36:47Z</time>
      </trkpt>
      <trkpt lat="48.34748" lon="2.78043">
        <ele>71.400001525879</ele>
        <time>2022-10-13T14:36:51Z</time>
      </trkpt>
      <trkpt lat="48.34747" lon="2.78037">
        <ele>71.400001525879</ele>
        <time>2022-10-13T14:36:55Z</time>
      </trkpt>
      <trkpt lat="48.34743" lon="2.78032">
        <ele>71.400001525879</ele>
        <time>2022-10-13T14:36:59Z</time>
      </trkpt>
      <trkpt lat="48.3474" lon="2.78027">
        <ele>71.199996948242</ele>
        <time>2022-10-13T14:37:03Z</time>
      </trkpt>
      <trkpt lat="48.34737" lon="2.78021">
        <ele>71.199996948242</ele>
        <time>2022-10-13T14:37:07Z</time>
      </trkpt>
      <trkpt lat="48.34733" lon="2.78016">
        <ele>71.199996948242</ele>
        <time>2022-10-13T14:37:11Z</time>
      </trkpt>
      <trkpt lat="48.34729" lon="2.78011">
        <ele>71.199996948242</ele>
        <time>2022-10-13T14:37:15Z</time>
      </trkpt>
      <trkpt lat="48.34726" lon="2.78006">
        <ele>71.199996948242</ele>
        <time>2022-10-13T14:37:19Z</time>
      </trkpt>
      <trkpt lat="48.34725" lon="2.78001">
        <ele>71.199996948242</ele>
        <time>2022-10-13T14:37:23Z</time>
      </trkpt>
      <trkpt lat="48.34723" lon="2.77996">
        <ele>71.199996948242</ele>
        <time>2022-10-13T14:37:27Z</time>
      </trkpt>
      <trkpt lat="48.34722" lon="2.77991">
        <ele>71</ele>
        <time>2022-10-13T14:37:31Z</time>
      </trkpt>
      <trkpt lat="48.34719" lon="2.77984">
        <ele>71</ele>
        <time>2022-10-13T14:37:35Z</time>
      </trkpt>
      <trkpt lat="48.34715" lon="2.77978">
        <ele>71</ele>
        <time>2022-10-13T14:37:39Z</time>
      </trkpt>
      <trkpt lat="48.34712" lon="2.77974">
        <ele>70.800003051758</ele>
        <time>2022-10-13T14:37:43Z</time>
      </trkpt>
      <trkpt lat="48.3471" lon="2.77969">
        <ele>70.800003051758</ele>
        <time>2022-10-13T14:37:47Z</time>
      </trkpt>
      <trkpt lat="48.34709" lon="2.77964">
        <ele>70.599998474121</ele>
        <time>2022-10-13T14:37:51Z</time>
      </trkpt>
      <trkpt lat="48.34708" lon="2.77958">
        <ele>70.400001525879</ele>
        <time>2022-10-13T14:37:55Z</time>
      </trkpt>
      <trkpt lat="48.34705" lon="2.77953">
        <ele>70.400001525879</ele>
        <time>2022-10-13T14:37:59Z</time>
      </trkpt>
      <trkpt lat="48.34703" lon="2.77948">
        <ele>70.400001525879</ele>
        <time>2022-10-13T14:38:03Z</time>
      </trkpt>
      <trkpt lat="48.347" lon="2.77942">
        <ele>70.400001525879</ele>
        <time>2022-10-13T14:38:07Z</time>
      </trkpt>
      <trkpt lat="48.34698" lon="2.77936">
        <ele>70.199996948242</ele>
        <time>2022-10-13T14:38:11Z</time>
      </trkpt>
      <trkpt lat="48.34695" lon="2.7793">
        <ele>70.199996948242</ele>
        <time>2022-10-13T14:38:15Z</time>
      </trkpt>
      <trkpt lat="48.34693" lon="2.77925">
        <ele>70.199996948242</ele>
        <time>2022-10-13T14:38:19Z</time>
      </trkpt>
      <trkpt lat="48.34691" lon="2.7792">
        <ele>70.199996948242</ele>
        <time>2022-10-13T14:38:23Z</time>
      </trkpt>
      <trkpt lat="48.34688" lon="2.77916">
        <ele>70.400001525879</ele>
        <time>2022-10-13T14:38:27Z</time>
      </trkpt>
      <trkpt lat="48.34686" lon="2.77911">
        <ele>70.400001525879</ele>
        <time>2022-10-13T14:38:31Z</time>
      </trkpt>
      <trkpt lat="48.34684" lon="2.77906">
        <ele>70.400001525879</ele>
        <time>2022-10-13T14:38:35Z</time>
      </trkpt>
      <trkpt lat="48.34681" lon="2.779">
        <ele>70.400001525879</ele>
        <time>2022-10-13T14:38:39Z</time>
      </trkpt>
      <trkpt lat="48.34678" lon="2.77894">
        <ele>70.199996948242</ele>
        <time>2022-10-13T14:38:43Z</time>
      </trkpt>
      <trkpt lat="48.34675" lon="2.77888">
        <ele>70.199996948242</ele>
        <time>2022-10-13T14:38:47Z</time>
      </trkpt>
      <trkpt lat="48.34673" lon="2.77884">
        <ele>70.199996948242</ele>
        <time>2022-10-13T14:38:51Z</time>
      </trkpt>
      <trkpt lat="48.34671" lon="2.7788">
        <ele>70</ele>
        <time>2022-10-13T14:38:55Z</time>
      </trkpt>
      <trkpt lat="48.34668" lon="2.77874">
        <ele>70</ele>
        <time>2022-10-13T14:38:59Z</time>
      </trkpt>
      <trkpt lat="48.34666" lon="2.7787">
        <ele>69.800003051758</ele>
        <time>2022-10-13T14:39:03Z</time>
      </trkpt>
      <trkpt lat="48.34664" lon="2.77865">
        <ele>69.800003051758</ele>
        <time>2022-10-13T14:39:07Z</time>
      </trkpt>
      <trkpt lat="48.3466" lon="2.7786">
        <ele>69.800003051758</ele>
        <time>2022-10-13T14:39:11Z</time>
      </trkpt>
      <trkpt lat="48.34656" lon="2.77855">
        <ele>69.800003051758</ele>
        <time>2022-10-13T14:39:15Z</time>
      </trkpt>
      <trkpt lat="48.34652" lon="2.77849">
        <ele>69.800003051758</ele>
        <time>2022-10-13T14:39:19Z</time>
      </trkpt>
      <trkpt lat="48.34649" lon="2.77844">
        <ele>69.599998474121</ele>
        <time>2022-10-13T14:39:23Z</time>
      </trkpt>
      <trkpt lat="48.34646" lon="2.77839">
        <ele>69.599998474121</ele>
        <time>2022-10-13T14:39:27Z</time>
      </trkpt>
      <trkpt lat="48.34643" lon="2.77835">
        <ele>69.400001525879</ele>
        <time>2022-10-13T14:39:31Z</time>
      </trkpt>
      <trkpt lat="48.3464" lon="2.77831">
        <ele>69.199996948242</ele>
        <time>2022-10-13T14:39:35Z</time>
      </trkpt>
      <trkpt lat="48.34636" lon="2.77827">
        <ele>69</ele>
        <time>2022-10-13T14:39:39Z</time>
      </trkpt>
      <trkpt lat="48.34634" lon="2.77824">
        <ele>69</ele>
        <time>2022-10-13T14:39:43Z</time>
      </trkpt>
      <trkpt lat="48.3463" lon="2.7782">
        <ele>68.800003051758</ele>
        <time>2022-10-13T14:39:47Z</time>
      </trkpt>
      <trkpt lat="48.34626" lon="2.77815">
        <ele>68.400001525879</ele>
        <time>2022-10-13T14:39:51Z</time>
      </trkpt>
      <trkpt lat="48.34622" lon="2.77811">
        <ele>68</ele>
        <time>2022-10-13T14:39:55Z</time>
      </trkpt>
      <trkpt lat="48.34619" lon="2.77806">
        <ele>67.400001525879</ele>
        <time>2022-10-13T14:39:59Z</time>
      </trkpt>
      <trkpt lat="48.34616" lon="2.77802">
        <ele>67</ele>
        <time>2022-10-13T14:40:03Z</time>
      </trkpt>
      <trkpt lat="48.34612" lon="2.77798">
        <ele>66.599998474121</ele>
        <time>2022-10-13T14:40:07Z</time>
      </trkpt>
      <trkpt lat="48.34607" lon="2.77793">
        <ele>66.199996948242</ele>
        <time>2022-10-13T14:40:11Z</time>
      </trkpt>
      <trkpt lat="48.34604" lon="2.77787">
        <ele>65.800003051758</ele>
        <time>2022-10-13T14:40:15Z</time>
      </trkpt>
      <trkpt lat="48.346" lon="2.77783">
        <ele>65.400001525879</ele>
        <time>2022-10-13T14:40:19Z</time>
      </trkpt>
      <trkpt lat="48.34597" lon="2.77779">
        <ele>65</ele>
        <time>2022-10-13T14:40:23Z</time>
      </trkpt>
      <trkpt lat="48.34593" lon="2.77775">
        <ele>64.599998474121</ele>
        <time>2022-10-13T14:40:27Z</time>
      </trkpt>
      <trkpt lat="48.34591" lon="2.77771">
        <ele>64.199996948242</ele>
        <time>2022-10-13T14:40:31Z</time>
      </trkpt>
      <trkpt lat="48.34589" lon="2.77767">
        <ele>63.799999237061</ele>
        <time>2022-10-13T14:40:35Z</time>
      </trkpt>
      <trkpt lat="48.34586" lon="2.77764">
        <ele>63.599998474121</ele>
        <time>2022-10-13T14:40:39Z</time>
      </trkpt>
      <trkpt lat="48.34582" lon="2.77761">
        <ele>63.400001525879</ele>
        <time>2022-10-13T14:40:43Z</time>
      </trkpt>
      <trkpt lat="48.34579" lon="2.77755">
        <ele>63.200000762939</ele>
        <time>2022-10-13T14:40:47Z</time>
      </trkpt>
      <trkpt lat="48.34576" lon="2.77749">
        <ele>62.599998474121</ele>
        <time>2022-10-13T14:40:51Z</time>
      </trkpt>
      <trkpt lat="48.34572" lon="2.77742">
        <ele>62.400001525879</ele>
        <time>2022-10-13T14:40:55Z</time>
      </trkpt>
      <trkpt lat="48.34569" lon="2.77739">
        <ele>62.200000762939</ele>
        <time>2022-10-13T14:40:59Z</time>
      </trkpt>
      <trkpt lat="48.34565" lon="2.77734">
        <ele>62</ele>
        <time>2022-10-13T14:41:03Z</time>
      </trkpt>
      <trkpt lat="48.34563" lon="2.77728">
        <ele>62</ele>
        <time>2022-10-13T14:41:07Z</time>
      </trkpt>
      <trkpt lat="48.34559" lon="2.77722">
        <ele>61.799999237061</ele>
        <time>2022-10-13T14:41:11Z</time>
      </trkpt>
      <trkpt lat="48.34556" lon="2.77717">
        <ele>61.799999237061</ele>
        <time>2022-10-13T14:41:15Z</time>
      </trkpt>
      <trkpt lat="48.34552" lon="2.7771">
        <ele>61.599998474121</ele>
        <time>2022-10-13T14:41:19Z</time>
      </trkpt>
      <trkpt lat="48.34548" lon="2.77705">
        <ele>61.400001525879</ele>
        <time>2022-10-13T14:41:23Z</time>
      </trkpt>
      <trkpt lat="48.34544" lon="2.77701">
        <ele>61.200000762939</ele>
        <time>2022-10-13T14:41:27Z</time>
      </trkpt>
      <trkpt lat="48.34543" lon="2.77697">
        <ele>61</ele>
        <time>2022-10-13T14:41:31Z</time>
      </trkpt>
      <trkpt lat="48.34542" lon="2.77692">
        <ele>60.599998474121</ele>
        <time>2022-10-13T14:41:35Z</time>
      </trkpt>
      <trkpt lat="48.3454" lon="2.77688">
        <ele>60.400001525879</ele>
        <time>2022-10-13T14:41:39Z</time>
      </trkpt>
      <trkpt lat="48.34537" lon="2.77684">
        <ele>60.200000762939</ele>
        <time>2022-10-13T14:41:43Z</time>
      </trkpt>
      <trkpt lat="48.34534" lon="2.77679">
        <ele>60.200000762939</ele>
        <time>2022-10-13T14:41:47Z</time>
      </trkpt>
      <trkpt lat="48.34532" lon="2.77673">
        <ele>60</ele>
        <time>2022-10-13T14:41:51Z</time>
      </trkpt>
      <trkpt lat="48.34529" lon="2.77667">
        <ele>60</ele>
        <time>2022-10-13T14:41:55Z</time>
      </trkpt>
      <trkpt lat="48.34526" lon="2.77662">
        <ele>59.799999237061</ele>
        <time>2022-10-13T14:41:59Z</time>
      </trkpt>
      <trkpt lat="48.3452" lon="2.77656">
        <ele>59.799999237061</ele>
        <time>2022-10-13T14:42:03Z</time>
      </trkpt>
      <trkpt lat="48.34517" lon="2.77651">
        <ele>59.799999237061</ele>
        <time>2022-10-13T14:42:07Z</time>
      </trkpt>
      <trkpt lat="48.34516" lon="2.77648">
        <ele>59.599998474121</ele>
        <time>2022-10-13T14:42:11Z</time>
      </trkpt>
      <trkpt lat="48.34514" lon="2.77643">
        <ele>59.599998474121</ele>
        <time>2022-10-13T14:42:15Z</time>
      </trkpt>
      <trkpt lat="48.34511" lon="2.77638">
        <ele>59.599998474121</ele>
        <time>2022-10-13T14:42:19Z</time>
      </trkpt>
      <trkpt lat="48.34507" lon="2.77633">
        <ele>59.599998474121</ele>
        <time>2022-10-13T14:42:23Z</time>
      </trkpt>
      <trkpt lat="48.34504" lon="2.77628">
        <ele>59.599998474121</ele>
        <time>2022-10-13T14:42:27Z</time>
      </trkpt>
      <trkpt lat="48.345" lon="2.77622">
        <ele>59.599998474121</ele>
        <time>2022-10-13T14:42:31Z</time>
      </trkpt>
      <trkpt lat="48.34497" lon="2.77617">
        <ele>59.599998474121</ele>
        <time>2022-10-13T14:42:35Z</time>
      </trkpt>
      <trkpt lat="48.34494" lon="2.77611">
        <ele>59.599998474121</ele>
        <time>2022-10-13T14:42:39Z</time>
      </trkpt>
      <trkpt lat="48.34491" lon="2.77606">
        <ele>59.599998474121</ele>
        <time>2022-10-13T14:42:43Z</time>
      </trkpt>
      <trkpt lat="48.34489" lon="2.77604">
        <ele>59.599998474121</ele>
        <time>2022-10-13T14:42:47Z</time>
      </trkpt>
      <trkpt lat="48.34487" lon="2.77598">
        <ele>59.599998474121</ele>
        <time>2022-10-13T14:42:51Z</time>
      </trkpt>
      <trkpt lat="48.34484" lon="2.77594">
        <ele>59.599998474121</ele>
        <time>2022-10-13T14:42:55Z</time>
      </trkpt>
      <trkpt lat="48.34481" lon="2.7759">
        <ele>59.599998474121</ele>
        <time>2022-10-13T14:42:59Z</time>
      </trkpt>
      <trkpt lat="48.34478" lon="2.77585">
        <ele>59.599998474121</ele>
        <time>2022-10-13T14:43:03Z</time>
      </trkpt>
      <trkpt lat="48.34474" lon="2.77583">
        <ele>59.599998474121</ele>
        <time>2022-10-13T14:43:07Z</time>
      </trkpt>
      <trkpt lat="48.34469" lon="2.77583">
        <ele>59.599998474121</ele>
        <time>2022-10-13T14:43:11Z</time>
      </trkpt>
      <trkpt lat="48.34465" lon="2.77583">
        <ele>59.400001525879</ele>
        <time>2022-10-13T14:43:15Z</time>
      </trkpt>
      <trkpt lat="48.34465" lon="2.77584">
        <ele>59.599998474121</ele>
        <time>2022-10-13T14:43:19Z</time>
      </trkpt>
      <trkpt lat="48.34464" lon="2.77585">
        <ele>59.599998474121</ele>
        <time>2022-10-13T14:43:23Z</time>
      </trkpt>
      <trkpt lat="48.34464" lon="2.77584">
        <ele>59.599998474121</ele>
        <time>2022-10-13T14:43:27Z</time>
      </trkpt>
      <trkpt lat="48.34464" lon="2.77584">
        <ele>59.599998474121</ele>
        <time>2022-10-13T14:43:31Z</time>
      </trkpt>
      <trkpt lat="48.34463" lon="2.77585">
        <ele>59.599998474121</ele>
        <time>2022-10-13T14:43:34Z</time>
      </trkpt>
      <trkpt lat="48.34463" lon="2.77584">
        <ele>59.599998474121</ele>
        <time>2022-10-13T14:43:39Z</time>
      </trkpt>
      <trkpt lat="48.34462" lon="2.77585">
        <ele>59.599998474121</ele>
        <time>2022-10-13T14:43:43Z</time>
      </trkpt>
      <trkpt lat="48.34462" lon="2.77585">
        <ele>59.599998474121</ele>
        <time>2022-10-13T14:43:47Z</time>
      </trkpt>
      <trkpt lat="48.34462" lon="2.77585">
        <ele>59.599998474121</ele>
        <time>2022-10-13T14:43:51Z</time>
      </trkpt>
      <trkpt lat="48.34463" lon="2.77585">
        <ele>59.599998474121</ele>
        <time>2022-10-13T14:43:55Z</time>
      </trkpt>
      <trkpt lat="48.34464" lon="2.77584">
        <ele>59.599998474121</ele>
        <time>2022-10-13T14:43:59Z</time>
      </trkpt>
      <trkpt lat="48.34464" lon="2.77584">
        <ele>59.599998474121</ele>
        <time>2022-10-13T14:44:03Z</time>
      </trkpt>
      <trkpt lat="48.34465" lon="2.77584">
        <ele>59.599998474121</ele>
        <time>2022-10-13T14:44:07Z</time>
      </trkpt>
      <trkpt lat="48.34465" lon="2.77585">
        <ele>59.599998474121</ele>
        <time>2022-10-13T14:44:11Z</time>
      </trkpt>
      <trkpt lat="48.34466" lon="2.77584">
        <ele>59.599998474121</ele>
        <time>2022-10-13T14:44:15Z</time>
      </trkpt>
      <trkpt lat="48.34465" lon="2.77584">
        <ele>59.599998474121</ele>
        <time>2022-10-13T14:44:19Z</time>
      </trkpt>
      <trkpt lat="48.34466" lon="2.77584">
        <ele>59.599998474121</ele>
        <time>2022-10-13T14:44:23Z</time>
      </trkpt>
      <trkpt lat="48.34466" lon="2.77583">
        <ele>59.599998474121</ele>
        <time>2022-10-13T14:44:27Z</time>
      </trkpt>
      <trkpt lat="48.34466" lon="2.77582">
        <ele>59.599998474121</ele>
        <time>2022-10-13T14:44:31Z</time>
      </trkpt>
      <trkpt lat="48.34466" lon="2.77581">
        <ele>59.599998474121</ele>
        <time>2022-10-13T14:44:35Z</time>
      </trkpt>
      <trkpt lat="48.34467" lon="2.7758">
        <ele>59.599998474121</ele>
        <time>2022-10-13T14:44:39Z</time>
      </trkpt>
      <trkpt lat="48.34466" lon="2.77579">
        <ele>59.599998474121</ele>
        <time>2022-10-13T14:44:43Z</time>
      </trkpt>
      <trkpt lat="48.34461" lon="2.77581">
        <ele>59.599998474121</ele>
        <time>2022-10-13T14:44:47Z</time>
      </trkpt>
      <trkpt lat="48.34457" lon="2.77587">
        <ele>59.599998474121</ele>
        <time>2022-10-13T14:44:51Z</time>
      </trkpt>
      <trkpt lat="48.34452" lon="2.77593">
        <ele>59.599998474121</ele>
        <time>2022-10-13T14:44:55Z</time>
      </trkpt>
      <trkpt lat="48.3445" lon="2.77597">
        <ele>59.599998474121</ele>
        <time>2022-10-13T14:44:59Z</time>
      </trkpt>
      <trkpt lat="48.34448" lon="2.77598">
        <ele>59.599998474121</ele>
        <time>2022-10-13T14:45:03Z</time>
      </trkpt>
      <trkpt lat="48.34447" lon="2.776">
        <ele>59.599998474121</ele>
        <time>2022-10-13T14:45:07Z</time>
      </trkpt>
      <trkpt lat="48.34445" lon="2.77603">
        <ele>59.599998474121</ele>
        <time>2022-10-13T14:45:11Z</time>
      </trkpt>
      <trkpt lat="48.34445" lon="2.77603">
        <ele>59.599998474121</ele>
        <time>2022-10-13T14:45:15Z</time>
      </trkpt>
      <trkpt lat="48.34445" lon="2.77604">
        <ele>59.599998474121</ele>
        <time>2022-10-13T14:45:19Z</time>
      </trkpt>
      <trkpt lat="48.34443" lon="2.77603">
        <ele>59.599998474121</ele>
        <time>2022-10-13T14:45:23Z</time>
      </trkpt>
      <trkpt lat="48.34442" lon="2.77602">
        <ele>59.599998474121</ele>
        <time>2022-10-13T14:45:27Z</time>
      </trkpt>
      <trkpt lat="48.34441" lon="2.77602">
        <ele>59.599998474121</ele>
        <time>2022-10-13T14:45:31Z</time>
      </trkpt>
      <trkpt lat="48.3444" lon="2.77602">
        <ele>59.599998474121</ele>
        <time>2022-10-13T14:45:35Z</time>
      </trkpt>
      <trkpt lat="48.3444" lon="2.77601">
        <ele>59.599998474121</ele>
        <time>2022-10-13T14:45:39Z</time>
      </trkpt>
      <trkpt lat="48.3444" lon="2.776">
        <ele>59.599998474121</ele>
        <time>2022-10-13T14:45:43Z</time>
      </trkpt>
      <trkpt lat="48.3444" lon="2.776">
        <ele>59.599998474121</ele>
        <time>2022-10-13T14:45:47Z</time>
      </trkpt>
      <trkpt lat="48.3444" lon="2.776">
        <ele>59.599998474121</ele>
        <time>2022-10-13T14:45:51Z</time>
      </trkpt>
      <trkpt lat="48.3444" lon="2.776">
        <ele>59.599998474121</ele>
        <time>2022-10-13T14:45:55Z</time>
      </trkpt>
      <trkpt lat="48.3444" lon="2.776">
        <ele>59.599998474121</ele>
        <time>2022-10-13T14:45:59Z</time>
      </trkpt>
      <trkpt lat="48.34441" lon="2.776">
        <ele>59.599998474121</ele>
        <time>2022-10-13T14:46:03Z</time>
      </trkpt>
      <trkpt lat="48.34441" lon="2.776">
        <ele>59.599998474121</ele>
        <time>2022-10-13T14:46:07Z</time>
      </trkpt>
      <trkpt lat="48.3444" lon="2.77599">
        <ele>59.599998474121</ele>
        <time>2022-10-13T14:46:11Z</time>
      </trkpt>
      <trkpt lat="48.34439" lon="2.77597">
        <ele>59.599998474121</ele>
        <time>2022-10-13T14:46:15Z</time>
      </trkpt>
      <trkpt lat="48.34438" lon="2.77596">
        <ele>59.599998474121</ele>
        <time>2022-10-13T14:46:19Z</time>
      </trkpt>
      <trkpt lat="48.34438" lon="2.77596">
        <ele>59.599998474121</ele>
        <time>2022-10-13T14:46:23Z</time>
      </trkpt>
      <trkpt lat="48.34437" lon="2.77595">
        <ele>59.599998474121</ele>
        <time>2022-10-13T14:46:27Z</time>
      </trkpt>
      <trkpt lat="48.34437" lon="2.77595">
        <ele>59.599998474121</ele>
        <time>2022-10-13T14:46:31Z</time>
      </trkpt>
      <trkpt lat="48.34436" lon="2.77596">
        <ele>59.599998474121</ele>
        <time>2022-10-13T14:46:35Z</time>
      </trkpt>
      <trkpt lat="48.34436" lon="2.77597">
        <ele>59.599998474121</ele>
        <time>2022-10-13T14:46:39Z</time>
      </trkpt>
      <trkpt lat="48.34436" lon="2.77597">
        <ele>59.599998474121</ele>
        <time>2022-10-13T14:46:43Z</time>
      </trkpt>
      <trkpt lat="48.34436" lon="2.77598">
        <ele>59.599998474121</ele>
        <time>2022-10-13T14:46:47Z</time>
      </trkpt>
      <trkpt lat="48.34436" lon="2.77598">
        <ele>59.599998474121</ele>
        <time>2022-10-13T14:46:51Z</time>
      </trkpt>
      <trkpt lat="48.34436" lon="2.77598">
        <ele>59.599998474121</ele>
        <time>2022-10-13T14:46:55Z</time>
      </trkpt>
      <trkpt lat="48.34436" lon="2.77598">
        <ele>59.599998474121</ele>
        <time>2022-10-13T14:46:59Z</time>
      </trkpt>
      <trkpt lat="48.34436" lon="2.77598">
        <ele>59.599998474121</ele>
        <time>2022-10-13T14:47:03Z</time>
      </trkpt>
      <trkpt lat="48.34437" lon="2.77598">
        <ele>59.599998474121</ele>
        <time>2022-10-13T14:47:07Z</time>
      </trkpt>
      <trkpt lat="48.34437" lon="2.77599">
        <ele>59.599998474121</ele>
        <time>2022-10-13T14:47:11Z</time>
      </trkpt>
      <trkpt lat="48.34437" lon="2.776">
        <ele>59.599998474121</ele>
        <time>2022-10-13T14:47:15Z</time>
      </trkpt>
      <trkpt lat="48.34437" lon="2.776">
        <ele>59.599998474121</ele>
        <time>2022-10-13T14:47:19Z</time>
      </trkpt>
      <trkpt lat="48.34436" lon="2.77601">
        <ele>59.599998474121</ele>
        <time>2022-10-13T14:47:23Z</time>
      </trkpt>
      <trkpt lat="48.34433" lon="2.77602">
        <ele>59.599998474121</ele>
        <time>2022-10-13T14:47:27Z</time>
      </trkpt>
      <trkpt lat="48.3443" lon="2.77602">
        <ele>59.599998474121</ele>
        <time>2022-10-13T14:47:31Z</time>
      </trkpt>
      <trkpt lat="48.34428" lon="2.77602">
        <ele>59.599998474121</ele>
        <time>2022-10-13T14:47:35Z</time>
      </trkpt>
      <trkpt lat="48.34425" lon="2.77601">
        <ele>59.599998474121</ele>
        <time>2022-10-13T14:47:39Z</time>
      </trkpt>
      <trkpt lat="48.34423" lon="2.77599">
        <ele>59.599998474121</ele>
        <time>2022-10-13T14:47:43Z</time>
      </trkpt>
      <trkpt lat="48.34422" lon="2.77596">
        <ele>59.599998474121</ele>
        <time>2022-10-13T14:47:47Z</time>
      </trkpt>
      <trkpt lat="48.3442" lon="2.77593">
        <ele>59.599998474121</ele>
        <time>2022-10-13T14:47:51Z</time>
      </trkpt>
      <trkpt lat="48.34419" lon="2.77592">
        <ele>59.599998474121</ele>
        <time>2022-10-13T14:47:55Z</time>
      </trkpt>
      <trkpt lat="48.34417" lon="2.77591">
        <ele>59.599998474121</ele>
        <time>2022-10-13T14:47:59Z</time>
      </trkpt>
      <trkpt lat="48.34416" lon="2.7759">
        <ele>59.599998474121</ele>
        <time>2022-10-13T14:48:03Z</time>
      </trkpt>
      <trkpt lat="48.34415" lon="2.77588">
        <ele>59.599998474121</ele>
        <time>2022-10-13T14:48:07Z</time>
      </trkpt>
      <trkpt lat="48.34415" lon="2.77586">
        <ele>59.599998474121</ele>
        <time>2022-10-13T14:48:11Z</time>
      </trkpt>
      <trkpt lat="48.34415" lon="2.77584">
        <ele>59.599998474121</ele>
        <time>2022-10-13T14:48:15Z</time>
      </trkpt>
      <trkpt lat="48.34415" lon="2.77583">
        <ele>59.599998474121</ele>
        <time>2022-10-13T14:48:19Z</time>
      </trkpt>
      <trkpt lat="48.34415" lon="2.77581">
        <ele>59.599998474121</ele>
        <time>2022-10-13T14:48:23Z</time>
      </trkpt>
      <trkpt lat="48.34414" lon="2.77578">
        <ele>59.599998474121</ele>
        <time>2022-10-13T14:48:27Z</time>
      </trkpt>
      <trkpt lat="48.34414" lon="2.77575">
        <ele>59.599998474121</ele>
        <time>2022-10-13T14:48:31Z</time>
      </trkpt>
      <trkpt lat="48.34413" lon="2.77574">
        <ele>59.599998474121</ele>
        <time>2022-10-13T14:48:35Z</time>
      </trkpt>
      <trkpt lat="48.34413" lon="2.77574">
        <ele>59.599998474121</ele>
        <time>2022-10-13T14:48:39Z</time>
      </trkpt>
      <trkpt lat="48.34413" lon="2.77573">
        <ele>59.599998474121</ele>
        <time>2022-10-13T14:48:43Z</time>
      </trkpt>
      <trkpt lat="48.34413" lon="2.77574">
        <ele>59.599998474121</ele>
        <time>2022-10-13T14:48:47Z</time>
      </trkpt>
      <trkpt lat="48.34412" lon="2.77574">
        <ele>59.599998474121</ele>
        <time>2022-10-13T14:48:51Z</time>
      </trkpt>
      <trkpt lat="48.34412" lon="2.77573">
        <ele>59.599998474121</ele>
        <time>2022-10-13T14:48:55Z</time>
      </trkpt>
      <trkpt lat="48.34412" lon="2.77573">
        <ele>59.599998474121</ele>
        <time>2022-10-13T14:48:59Z</time>
      </trkpt>
      <trkpt lat="48.34413" lon="2.77575">
        <ele>59.599998474121</ele>
        <time>2022-10-13T14:49:03Z</time>
      </trkpt>
      <trkpt lat="48.34414" lon="2.77575">
        <ele>59.599998474121</ele>
        <time>2022-10-13T14:49:07Z</time>
      </trkpt>
      <trkpt lat="48.34415" lon="2.77576">
        <ele>59.599998474121</ele>
        <time>2022-10-13T14:49:11Z</time>
      </trkpt>
      <trkpt lat="48.34415" lon="2.77576">
        <ele>59.599998474121</ele>
        <time>2022-10-13T14:49:15Z</time>
      </trkpt>
      <trkpt lat="48.34416" lon="2.77575">
        <ele>59.599998474121</ele>
        <time>2022-10-13T14:49:19Z</time>
      </trkpt>
      <trkpt lat="48.34417" lon="2.77575">
        <ele>59.599998474121</ele>
        <time>2022-10-13T14:49:23Z</time>
      </trkpt>
      <trkpt lat="48.34416" lon="2.77575">
        <ele>59.599998474121</ele>
        <time>2022-10-13T14:49:27Z</time>
      </trkpt>
      <trkpt lat="48.34417" lon="2.77575">
        <ele>59.599998474121</ele>
        <time>2022-10-13T14:49:31Z</time>
      </trkpt>
      <trkpt lat="48.34418" lon="2.77575">
        <ele>59.599998474121</ele>
        <time>2022-10-13T14:49:35Z</time>
      </trkpt>
      <trkpt lat="48.34418" lon="2.77576">
        <ele>59.599998474121</ele>
        <time>2022-10-13T14:49:39Z</time>
      </trkpt>
      <trkpt lat="48.34418" lon="2.77576">
        <ele>59.599998474121</ele>
        <time>2022-10-13T14:49:43Z</time>
      </trkpt>
      <trkpt lat="48.34417" lon="2.77577">
        <ele>59.599998474121</ele>
        <time>2022-10-13T14:49:47Z</time>
      </trkpt>
      <trkpt lat="48.34418" lon="2.77578">
        <ele>59.599998474121</ele>
        <time>2022-10-13T14:49:51Z</time>
      </trkpt>
      <trkpt lat="48.34418" lon="2.77578">
        <ele>59.599998474121</ele>
        <time>2022-10-13T14:49:55Z</time>
      </trkpt>
      <trkpt lat="48.34417" lon="2.77577">
        <ele>59.599998474121</ele>
        <time>2022-10-13T14:49:59Z</time>
      </trkpt>
      <trkpt lat="48.34416" lon="2.77579">
        <ele>59.599998474121</ele>
        <time>2022-10-13T14:50:03Z</time>
      </trkpt>
      <trkpt lat="48.34415" lon="2.77585">
        <ele>59.599998474121</ele>
        <time>2022-10-13T14:50:07Z</time>
      </trkpt>
      <trkpt lat="48.34414" lon="2.77586">
        <ele>59.599998474121</ele>
        <time>2022-10-13T14:50:11Z</time>
      </trkpt>
      <trkpt lat="48.34414" lon="2.77587">
        <ele>59.599998474121</ele>
        <time>2022-10-13T14:50:15Z</time>
      </trkpt>
      <trkpt lat="48.34414" lon="2.77587">
        <ele>59.599998474121</ele>
        <time>2022-10-13T14:50:19Z</time>
      </trkpt>
      <trkpt lat="48.34413" lon="2.77586">
        <ele>59.599998474121</ele>
        <time>2022-10-13T14:50:23Z</time>
      </trkpt>
      <trkpt lat="48.34414" lon="2.77586">
        <ele>59.599998474121</ele>
        <time>2022-10-13T14:50:27Z</time>
      </trkpt>
      <trkpt lat="48.34413" lon="2.77586">
        <ele>59.599998474121</ele>
        <time>2022-10-13T14:50:31Z</time>
      </trkpt>
      <trkpt lat="48.34414" lon="2.77586">
        <ele>59.599998474121</ele>
        <time>2022-10-13T14:50:35Z</time>
      </trkpt>
      <trkpt lat="48.34414" lon="2.77586">
        <ele>59.599998474121</ele>
        <time>2022-10-13T14:50:39Z</time>
      </trkpt>
      <trkpt lat="48.34414" lon="2.77587">
        <ele>59.599998474121</ele>
        <time>2022-10-13T14:50:43Z</time>
      </trkpt>
      <trkpt lat="48.34411" lon="2.77587">
        <ele>59.599998474121</ele>
        <time>2022-10-13T14:50:47Z</time>
      </trkpt>
      <trkpt lat="48.3441" lon="2.77586">
        <ele>59.200000762939</ele>
        <time>2022-10-13T14:50:51Z</time>
      </trkpt>
      <trkpt lat="48.34411" lon="2.77586">
        <ele>58.200000762939</ele>
        <time>2022-10-13T14:50:55Z</time>
      </trkpt>
      <trkpt lat="48.34412" lon="2.77585">
        <ele>58.599998474121</ele>
        <time>2022-10-13T14:50:59Z</time>
      </trkpt>
      <trkpt lat="48.34413" lon="2.77584">
        <ele>59.599998474121</ele>
        <time>2022-10-13T14:51:03Z</time>
      </trkpt>
      <trkpt lat="48.34412" lon="2.77583">
        <ele>59.200000762939</ele>
        <time>2022-10-13T14:51:07Z</time>
      </trkpt>
      <trkpt lat="48.34412" lon="2.77581">
        <ele>59.200000762939</ele>
        <time>2022-10-13T14:51:11Z</time>
      </trkpt>
      <trkpt lat="48.34413" lon="2.77581">
        <ele>59.200000762939</ele>
        <time>2022-10-13T14:51:14Z</time>
      </trkpt>
    </trkseg>
  </trk>
</gpx>